<?xml version="1.0" encoding="UTF-8" standalone="no" ?>
<gpx xmlns="http://www.topografix.com/GPX/1/1" xmlns:xsi="http://www.w3.org/2001/XMLSchema-instance" xsi:schemaLocation="http://www.topografix.com/GPX/1/1 http://www.topografix.com/GPX/1/1/gpx.xsd" version="1.1" creator="VisuGPX - https://www.visugpx.com">
  <metadata>
    <name>Rando VTT Lougres du 06/04/2014</name>
    <desc><![CDATA[Rando VTT de Lougres Animations 45km , un joli parcours avec de beaux singles... Vraiment à faire]]></desc>
  </metadata>
  <trk>
    <name><![CDATA[Laurent+Ber]]></name>
    <trkseg>
      <trkpt lat="47.48843" lon="6.66568">
        <ele>327</ele>
        <time>2014-04-06T05:43:31Z</time>
      </trkpt>
      <trkpt lat="47.48843" lon="6.66571">
        <ele>327</ele>
        <time>2014-04-06T05:43:33Z</time>
      </trkpt>
      <trkpt lat="47.48842" lon="6.66577">
        <ele>328</ele>
        <time>2014-04-06T05:43:36Z</time>
      </trkpt>
      <trkpt lat="47.48837" lon="6.66582">
        <ele>329</ele>
        <time>2014-04-06T05:43:39Z</time>
      </trkpt>
      <trkpt lat="47.48831" lon="6.66589">
        <ele>329</ele>
        <time>2014-04-06T05:43:42Z</time>
      </trkpt>
      <trkpt lat="47.48825" lon="6.66591">
        <ele>328</ele>
        <time>2014-04-06T05:43:44Z</time>
      </trkpt>
      <trkpt lat="47.48816" lon="6.66591">
        <ele>329</ele>
        <time>2014-04-06T05:43:47Z</time>
      </trkpt>
      <trkpt lat="47.48809" lon="6.6659">
        <ele>329</ele>
        <time>2014-04-06T05:43:49Z</time>
      </trkpt>
      <trkpt lat="47.48799" lon="6.66589">
        <ele>329</ele>
        <time>2014-04-06T05:43:52Z</time>
      </trkpt>
      <trkpt lat="47.48788" lon="6.66587">
        <ele>329</ele>
        <time>2014-04-06T05:43:55Z</time>
      </trkpt>
      <trkpt lat="47.48781" lon="6.66586">
        <ele>329</ele>
        <time>2014-04-06T05:43:57Z</time>
      </trkpt>
      <trkpt lat="47.48772" lon="6.66582">
        <ele>329</ele>
        <time>2014-04-06T05:44:00Z</time>
      </trkpt>
      <trkpt lat="47.48764" lon="6.6658">
        <ele>329</ele>
        <time>2014-04-06T05:44:03Z</time>
      </trkpt>
      <trkpt lat="47.48758" lon="6.66579">
        <ele>329</ele>
        <time>2014-04-06T05:44:05Z</time>
      </trkpt>
      <trkpt lat="47.4875" lon="6.66576">
        <ele>329</ele>
        <time>2014-04-06T05:44:08Z</time>
      </trkpt>
      <trkpt lat="47.48745" lon="6.66574">
        <ele>330</ele>
        <time>2014-04-06T05:44:10Z</time>
      </trkpt>
      <trkpt lat="47.48737" lon="6.6657">
        <ele>330</ele>
        <time>2014-04-06T05:44:13Z</time>
      </trkpt>
      <trkpt lat="47.48731" lon="6.66568">
        <ele>330</ele>
        <time>2014-04-06T05:44:15Z</time>
      </trkpt>
      <trkpt lat="47.48724" lon="6.66571">
        <ele>330</ele>
        <time>2014-04-06T05:44:17Z</time>
      </trkpt>
      <trkpt lat="47.48714" lon="6.6658">
        <ele>330</ele>
        <time>2014-04-06T05:44:20Z</time>
      </trkpt>
      <trkpt lat="47.487" lon="6.66591">
        <ele>330</ele>
        <time>2014-04-06T05:44:23Z</time>
      </trkpt>
      <trkpt lat="47.48689" lon="6.66597">
        <ele>330</ele>
        <time>2014-04-06T05:44:25Z</time>
      </trkpt>
      <trkpt lat="47.48671" lon="6.66609">
        <ele>330</ele>
        <time>2014-04-06T05:44:28Z</time>
      </trkpt>
      <trkpt lat="47.4865" lon="6.66627">
        <ele>330</ele>
        <time>2014-04-06T05:44:31Z</time>
      </trkpt>
      <trkpt lat="47.48636" lon="6.66643">
        <ele>329</ele>
        <time>2014-04-06T05:44:33Z</time>
      </trkpt>
      <trkpt lat="47.48614" lon="6.66668">
        <ele>328</ele>
        <time>2014-04-06T05:44:36Z</time>
      </trkpt>
      <trkpt lat="47.48592" lon="6.66692">
        <ele>327</ele>
        <time>2014-04-06T05:44:39Z</time>
      </trkpt>
      <trkpt lat="47.48577" lon="6.66708">
        <ele>326</ele>
        <time>2014-04-06T05:44:41Z</time>
      </trkpt>
      <trkpt lat="47.48555" lon="6.66728">
        <ele>325</ele>
        <time>2014-04-06T05:44:44Z</time>
      </trkpt>
      <trkpt lat="47.48539" lon="6.66737">
        <ele>325</ele>
        <time>2014-04-06T05:44:46Z</time>
      </trkpt>
      <trkpt lat="47.48515" lon="6.66735">
        <ele>325</ele>
        <time>2014-04-06T05:44:49Z</time>
      </trkpt>
      <trkpt lat="47.48494" lon="6.66724">
        <ele>326</ele>
        <time>2014-04-06T05:44:52Z</time>
      </trkpt>
      <trkpt lat="47.48473" lon="6.66713">
        <ele>326</ele>
        <time>2014-04-06T05:44:55Z</time>
      </trkpt>
      <trkpt lat="47.48454" lon="6.66705">
        <ele>326</ele>
        <time>2014-04-06T05:44:58Z</time>
      </trkpt>
      <trkpt lat="47.48441" lon="6.66703">
        <ele>326</ele>
        <time>2014-04-06T05:45:00Z</time>
      </trkpt>
      <trkpt lat="47.48428" lon="6.66703">
        <ele>326</ele>
        <time>2014-04-06T05:45:02Z</time>
      </trkpt>
      <trkpt lat="47.48414" lon="6.66706">
        <ele>325</ele>
        <time>2014-04-06T05:45:04Z</time>
      </trkpt>
      <trkpt lat="47.48395" lon="6.66715">
        <ele>326</ele>
        <time>2014-04-06T05:45:07Z</time>
      </trkpt>
      <trkpt lat="47.48383" lon="6.66723">
        <ele>326</ele>
        <time>2014-04-06T05:45:09Z</time>
      </trkpt>
      <trkpt lat="47.48367" lon="6.66741">
        <ele>326</ele>
        <time>2014-04-06T05:45:12Z</time>
      </trkpt>
      <trkpt lat="47.48357" lon="6.66755">
        <ele>326</ele>
        <time>2014-04-06T05:45:14Z</time>
      </trkpt>
      <trkpt lat="47.48349" lon="6.66771">
        <ele>326</ele>
        <time>2014-04-06T05:45:16Z</time>
      </trkpt>
      <trkpt lat="47.48337" lon="6.66796">
        <ele>326</ele>
        <time>2014-04-06T05:45:19Z</time>
      </trkpt>
      <trkpt lat="47.48328" lon="6.66824">
        <ele>325</ele>
        <time>2014-04-06T05:45:22Z</time>
      </trkpt>
      <trkpt lat="47.48318" lon="6.66853">
        <ele>325</ele>
        <time>2014-04-06T05:45:25Z</time>
      </trkpt>
      <trkpt lat="47.48312" lon="6.66873">
        <ele>325</ele>
        <time>2014-04-06T05:45:27Z</time>
      </trkpt>
      <trkpt lat="47.48302" lon="6.66901">
        <ele>325</ele>
        <time>2014-04-06T05:45:30Z</time>
      </trkpt>
      <trkpt lat="47.48294" lon="6.66929">
        <ele>326</ele>
        <time>2014-04-06T05:45:33Z</time>
      </trkpt>
      <trkpt lat="47.48285" lon="6.66957">
        <ele>326</ele>
        <time>2014-04-06T05:45:36Z</time>
      </trkpt>
      <trkpt lat="47.48276" lon="6.66985">
        <ele>325</ele>
        <time>2014-04-06T05:45:39Z</time>
      </trkpt>
      <trkpt lat="47.48269" lon="6.67013">
        <ele>325</ele>
        <time>2014-04-06T05:45:42Z</time>
      </trkpt>
      <trkpt lat="47.48263" lon="6.67042">
        <ele>325</ele>
        <time>2014-04-06T05:45:45Z</time>
      </trkpt>
      <trkpt lat="47.4826" lon="6.67062">
        <ele>325</ele>
        <time>2014-04-06T05:45:47Z</time>
      </trkpt>
      <trkpt lat="47.48256" lon="6.67081">
        <ele>326</ele>
        <time>2014-04-06T05:45:49Z</time>
      </trkpt>
      <trkpt lat="47.48251" lon="6.67111">
        <ele>326</ele>
        <time>2014-04-06T05:45:52Z</time>
      </trkpt>
      <trkpt lat="47.48246" lon="6.67141">
        <ele>326</ele>
        <time>2014-04-06T05:45:55Z</time>
      </trkpt>
      <trkpt lat="47.48243" lon="6.67161">
        <ele>326</ele>
        <time>2014-04-06T05:45:57Z</time>
      </trkpt>
      <trkpt lat="47.4824" lon="6.67181">
        <ele>326</ele>
        <time>2014-04-06T05:45:59Z</time>
      </trkpt>
      <trkpt lat="47.48237" lon="6.67201">
        <ele>326</ele>
        <time>2014-04-06T05:46:01Z</time>
      </trkpt>
      <trkpt lat="47.48233" lon="6.6722">
        <ele>326</ele>
        <time>2014-04-06T05:46:03Z</time>
      </trkpt>
      <trkpt lat="47.48227" lon="6.6725">
        <ele>326</ele>
        <time>2014-04-06T05:46:06Z</time>
      </trkpt>
      <trkpt lat="47.48219" lon="6.67279">
        <ele>326</ele>
        <time>2014-04-06T05:46:09Z</time>
      </trkpt>
      <trkpt lat="47.4821" lon="6.67308">
        <ele>326</ele>
        <time>2014-04-06T05:46:12Z</time>
      </trkpt>
      <trkpt lat="47.48205" lon="6.67328">
        <ele>325</ele>
        <time>2014-04-06T05:46:14Z</time>
      </trkpt>
      <trkpt lat="47.48195" lon="6.67358">
        <ele>325</ele>
        <time>2014-04-06T05:46:17Z</time>
      </trkpt>
      <trkpt lat="47.48185" lon="6.67389">
        <ele>325</ele>
        <time>2014-04-06T05:46:20Z</time>
      </trkpt>
      <trkpt lat="47.48172" lon="6.67418">
        <ele>325</ele>
        <time>2014-04-06T05:46:23Z</time>
      </trkpt>
      <trkpt lat="47.48157" lon="6.67445">
        <ele>324</ele>
        <time>2014-04-06T05:46:26Z</time>
      </trkpt>
      <trkpt lat="47.48146" lon="6.67463">
        <ele>324</ele>
        <time>2014-04-06T05:46:28Z</time>
      </trkpt>
      <trkpt lat="47.48131" lon="6.67496">
        <ele>323</ele>
        <time>2014-04-06T05:46:31Z</time>
      </trkpt>
      <trkpt lat="47.48122" lon="6.67522">
        <ele>323</ele>
        <time>2014-04-06T05:46:33Z</time>
      </trkpt>
      <trkpt lat="47.48115" lon="6.67549">
        <ele>322</ele>
        <time>2014-04-06T05:46:35Z</time>
      </trkpt>
      <trkpt lat="47.48104" lon="6.67589">
        <ele>320</ele>
        <time>2014-04-06T05:46:38Z</time>
      </trkpt>
      <trkpt lat="47.48093" lon="6.67631">
        <ele>317</ele>
        <time>2014-04-06T05:46:41Z</time>
      </trkpt>
      <trkpt lat="47.48088" lon="6.6766">
        <ele>316</ele>
        <time>2014-04-06T05:46:43Z</time>
      </trkpt>
      <trkpt lat="47.48082" lon="6.67705">
        <ele>316</ele>
        <time>2014-04-06T05:46:46Z</time>
      </trkpt>
      <trkpt lat="47.48075" lon="6.6775">
        <ele>314</ele>
        <time>2014-04-06T05:46:49Z</time>
      </trkpt>
      <trkpt lat="47.48063" lon="6.67792">
        <ele>312</ele>
        <time>2014-04-06T05:46:52Z</time>
      </trkpt>
      <trkpt lat="47.48044" lon="6.67828">
        <ele>310</ele>
        <time>2014-04-06T05:46:55Z</time>
      </trkpt>
      <trkpt lat="47.48023" lon="6.67858">
        <ele>309</ele>
        <time>2014-04-06T05:46:58Z</time>
      </trkpt>
      <trkpt lat="47.48009" lon="6.67877">
        <ele>309</ele>
        <time>2014-04-06T05:47:00Z</time>
      </trkpt>
      <trkpt lat="47.47997" lon="6.67896">
        <ele>307</ele>
        <time>2014-04-06T05:47:02Z</time>
      </trkpt>
      <trkpt lat="47.47978" lon="6.67929">
        <ele>307</ele>
        <time>2014-04-06T05:47:05Z</time>
      </trkpt>
      <trkpt lat="47.47966" lon="6.67967">
        <ele>305</ele>
        <time>2014-04-06T05:47:08Z</time>
      </trkpt>
      <trkpt lat="47.47961" lon="6.67995">
        <ele>304</ele>
        <time>2014-04-06T05:47:10Z</time>
      </trkpt>
      <trkpt lat="47.4796" lon="6.68025">
        <ele>303</ele>
        <time>2014-04-06T05:47:12Z</time>
      </trkpt>
      <trkpt lat="47.47961" lon="6.68072">
        <ele>301</ele>
        <time>2014-04-06T05:47:15Z</time>
      </trkpt>
      <trkpt lat="47.47959" lon="6.68104">
        <ele>300</ele>
        <time>2014-04-06T05:47:17Z</time>
      </trkpt>
      <trkpt lat="47.47953" lon="6.68135">
        <ele>298</ele>
        <time>2014-04-06T05:47:19Z</time>
      </trkpt>
      <trkpt lat="47.47945" lon="6.68168">
        <ele>297</ele>
        <time>2014-04-06T05:47:21Z</time>
      </trkpt>
      <trkpt lat="47.47933" lon="6.68219">
        <ele>295</ele>
        <time>2014-04-06T05:47:24Z</time>
      </trkpt>
      <trkpt lat="47.47923" lon="6.68252">
        <ele>293</ele>
        <time>2014-04-06T05:47:26Z</time>
      </trkpt>
      <trkpt lat="47.47908" lon="6.68299">
        <ele>290</ele>
        <time>2014-04-06T05:47:29Z</time>
      </trkpt>
      <trkpt lat="47.47898" lon="6.68331">
        <ele>288</ele>
        <time>2014-04-06T05:47:31Z</time>
      </trkpt>
      <trkpt lat="47.47886" lon="6.68366">
        <ele>288</ele>
        <time>2014-04-06T05:47:33Z</time>
      </trkpt>
      <trkpt lat="47.4787" lon="6.68418">
        <ele>286</ele>
        <time>2014-04-06T05:47:36Z</time>
      </trkpt>
      <trkpt lat="47.47853" lon="6.68471">
        <ele>285</ele>
        <time>2014-04-06T05:47:39Z</time>
      </trkpt>
      <trkpt lat="47.47838" lon="6.68502">
        <ele>283</ele>
        <time>2014-04-06T05:47:41Z</time>
      </trkpt>
      <trkpt lat="47.47807" lon="6.68539">
        <ele>280</ele>
        <time>2014-04-06T05:47:44Z</time>
      </trkpt>
      <trkpt lat="47.47768" lon="6.68559">
        <ele>277</ele>
        <time>2014-04-06T05:47:47Z</time>
      </trkpt>
      <trkpt lat="47.47731" lon="6.68584">
        <ele>273</ele>
        <time>2014-04-06T05:47:50Z</time>
      </trkpt>
      <trkpt lat="47.47699" lon="6.68621">
        <ele>270</ele>
        <time>2014-04-06T05:47:53Z</time>
      </trkpt>
      <trkpt lat="47.47681" lon="6.68646">
        <ele>268</ele>
        <time>2014-04-06T05:47:55Z</time>
      </trkpt>
      <trkpt lat="47.47656" lon="6.68682">
        <ele>266</ele>
        <time>2014-04-06T05:47:58Z</time>
      </trkpt>
      <trkpt lat="47.47641" lon="6.68722">
        <ele>263</ele>
        <time>2014-04-06T05:48:01Z</time>
      </trkpt>
      <trkpt lat="47.47635" lon="6.6876">
        <ele>260</ele>
        <time>2014-04-06T05:48:04Z</time>
      </trkpt>
      <trkpt lat="47.4763" lon="6.68785">
        <ele>256</ele>
        <time>2014-04-06T05:48:07Z</time>
      </trkpt>
      <trkpt lat="47.47625" lon="6.68801">
        <ele>254</ele>
        <time>2014-04-06T05:48:10Z</time>
      </trkpt>
      <trkpt lat="47.4762" lon="6.68809">
        <ele>253</ele>
        <time>2014-04-06T05:48:12Z</time>
      </trkpt>
      <trkpt lat="47.47608" lon="6.68816">
        <ele>251</ele>
        <time>2014-04-06T05:48:15Z</time>
      </trkpt>
      <trkpt lat="47.47596" lon="6.68825">
        <ele>251</ele>
        <time>2014-04-06T05:48:18Z</time>
      </trkpt>
      <trkpt lat="47.47582" lon="6.68834">
        <ele>250</ele>
        <time>2014-04-06T05:48:21Z</time>
      </trkpt>
      <trkpt lat="47.47565" lon="6.68842">
        <ele>250</ele>
        <time>2014-04-06T05:48:24Z</time>
      </trkpt>
      <trkpt lat="47.47554" lon="6.68846">
        <ele>250</ele>
        <time>2014-04-06T05:48:26Z</time>
      </trkpt>
      <trkpt lat="47.47535" lon="6.68852">
        <ele>249</ele>
        <time>2014-04-06T05:48:29Z</time>
      </trkpt>
      <trkpt lat="47.47522" lon="6.68856">
        <ele>248</ele>
        <time>2014-04-06T05:48:31Z</time>
      </trkpt>
      <trkpt lat="47.47501" lon="6.6886">
        <ele>247</ele>
        <time>2014-04-06T05:48:34Z</time>
      </trkpt>
      <trkpt lat="47.47478" lon="6.68858">
        <ele>246</ele>
        <time>2014-04-06T05:48:37Z</time>
      </trkpt>
      <trkpt lat="47.47464" lon="6.68853">
        <ele>246</ele>
        <time>2014-04-06T05:48:39Z</time>
      </trkpt>
      <trkpt lat="47.47449" lon="6.68847">
        <ele>244</ele>
        <time>2014-04-06T05:48:42Z</time>
      </trkpt>
      <trkpt lat="47.4744" lon="6.68847">
        <ele>243</ele>
        <time>2014-04-06T05:48:44Z</time>
      </trkpt>
      <trkpt lat="47.47433" lon="6.68855">
        <ele>242</ele>
        <time>2014-04-06T05:48:46Z</time>
      </trkpt>
      <trkpt lat="47.47424" lon="6.68869">
        <ele>241</ele>
        <time>2014-04-06T05:48:49Z</time>
      </trkpt>
      <trkpt lat="47.47416" lon="6.68881">
        <ele>241</ele>
        <time>2014-04-06T05:48:51Z</time>
      </trkpt>
      <trkpt lat="47.47402" lon="6.68898">
        <ele>241</ele>
        <time>2014-04-06T05:48:54Z</time>
      </trkpt>
      <trkpt lat="47.47392" lon="6.68911">
        <ele>240</ele>
        <time>2014-04-06T05:48:56Z</time>
      </trkpt>
      <trkpt lat="47.47375" lon="6.68932">
        <ele>240</ele>
        <time>2014-04-06T05:48:59Z</time>
      </trkpt>
      <trkpt lat="47.47358" lon="6.68954">
        <ele>239</ele>
        <time>2014-04-06T05:49:02Z</time>
      </trkpt>
      <trkpt lat="47.4734" lon="6.68978">
        <ele>238</ele>
        <time>2014-04-06T05:49:05Z</time>
      </trkpt>
      <trkpt lat="47.47332" lon="6.68997">
        <ele>238</ele>
        <time>2014-04-06T05:49:07Z</time>
      </trkpt>
      <trkpt lat="47.47326" lon="6.69019">
        <ele>237</ele>
        <time>2014-04-06T05:49:09Z</time>
      </trkpt>
      <trkpt lat="47.47319" lon="6.69049">
        <ele>237</ele>
        <time>2014-04-06T05:49:12Z</time>
      </trkpt>
      <trkpt lat="47.4731" lon="6.69076">
        <ele>236</ele>
        <time>2014-04-06T05:49:15Z</time>
      </trkpt>
      <trkpt lat="47.47311" lon="6.69101">
        <ele>235</ele>
        <time>2014-04-06T05:49:18Z</time>
      </trkpt>
      <trkpt lat="47.47316" lon="6.69119">
        <ele>234</ele>
        <time>2014-04-06T05:49:21Z</time>
      </trkpt>
      <trkpt lat="47.47319" lon="6.69127">
        <ele>234</ele>
        <time>2014-04-06T05:49:23Z</time>
      </trkpt>
      <trkpt lat="47.47324" lon="6.69133">
        <ele>234</ele>
        <time>2014-04-06T05:49:25Z</time>
      </trkpt>
      <trkpt lat="47.47329" lon="6.69139">
        <ele>233</ele>
        <time>2014-04-06T05:49:28Z</time>
      </trkpt>
      <trkpt lat="47.4733" lon="6.69143">
        <ele>233</ele>
        <time>2014-04-06T05:49:31Z</time>
      </trkpt>
      <trkpt lat="47.47332" lon="6.69144">
        <ele>233</ele>
        <time>2014-04-06T05:49:33Z</time>
      </trkpt>
      <trkpt lat="47.47335" lon="6.69147">
        <ele>233</ele>
        <time>2014-04-06T05:49:36Z</time>
      </trkpt>
      <trkpt lat="47.47337" lon="6.69149">
        <ele>233</ele>
        <time>2014-04-06T05:49:39Z</time>
      </trkpt>
      <trkpt lat="47.47337" lon="6.6915">
        <ele>234</ele>
        <time>2014-04-06T05:49:42Z</time>
      </trkpt>
      <trkpt lat="47.47337" lon="6.6915">
        <ele>233</ele>
        <time>2014-04-06T05:49:44Z</time>
      </trkpt>
      <trkpt lat="47.47337" lon="6.6915">
        <ele>233</ele>
        <time>2014-04-06T05:49:47Z</time>
      </trkpt>
      <trkpt lat="47.47337" lon="6.6915">
        <ele>233</ele>
        <time>2014-04-06T05:49:49Z</time>
      </trkpt>
      <trkpt lat="47.47337" lon="6.6915">
        <ele>233</ele>
        <time>2014-04-06T05:49:53Z</time>
      </trkpt>
      <trkpt lat="47.47338" lon="6.69149">
        <ele>234</ele>
        <time>2014-04-06T05:49:56Z</time>
      </trkpt>
      <trkpt lat="47.47338" lon="6.69149">
        <ele>234</ele>
        <time>2014-04-06T05:49:58Z</time>
      </trkpt>
      <trkpt lat="47.47338" lon="6.69149">
        <ele>234</ele>
        <time>2014-04-06T05:50:01Z</time>
      </trkpt>
      <trkpt lat="47.47339" lon="6.69148">
        <ele>233</ele>
        <time>2014-04-06T05:50:04Z</time>
      </trkpt>
      <trkpt lat="47.47339" lon="6.69148">
        <ele>233</ele>
        <time>2014-04-06T05:50:06Z</time>
      </trkpt>
      <trkpt lat="47.47339" lon="6.69148">
        <ele>234</ele>
        <time>2014-04-06T05:50:09Z</time>
      </trkpt>
      <trkpt lat="47.47339" lon="6.69148">
        <ele>233</ele>
        <time>2014-04-06T05:50:13Z</time>
      </trkpt>
      <trkpt lat="47.47339" lon="6.69148">
        <ele>233</ele>
        <time>2014-04-06T05:50:16Z</time>
      </trkpt>
      <trkpt lat="47.4734" lon="6.69147">
        <ele>234</ele>
        <time>2014-04-06T05:50:22Z</time>
      </trkpt>
      <trkpt lat="47.4734" lon="6.69147">
        <ele>234</ele>
        <time>2014-04-06T05:50:26Z</time>
      </trkpt>
      <trkpt lat="47.4734" lon="6.69147">
        <ele>233</ele>
        <time>2014-04-06T05:50:31Z</time>
      </trkpt>
      <trkpt lat="47.4734" lon="6.69147">
        <ele>233</ele>
        <time>2014-04-06T05:50:34Z</time>
      </trkpt>
      <trkpt lat="47.4734" lon="6.69147">
        <ele>234</ele>
        <time>2014-04-06T05:50:38Z</time>
      </trkpt>
      <trkpt lat="47.47341" lon="6.69147">
        <ele>233</ele>
        <time>2014-04-06T05:50:41Z</time>
      </trkpt>
      <trkpt lat="47.47341" lon="6.69146">
        <ele>234</ele>
        <time>2014-04-06T05:50:45Z</time>
      </trkpt>
      <trkpt lat="47.47341" lon="6.69146">
        <ele>234</ele>
        <time>2014-04-06T05:50:48Z</time>
      </trkpt>
      <trkpt lat="47.47341" lon="6.69146">
        <ele>233</ele>
        <time>2014-04-06T05:50:52Z</time>
      </trkpt>
      <trkpt lat="47.47341" lon="6.69146">
        <ele>233</ele>
        <time>2014-04-06T05:50:57Z</time>
      </trkpt>
      <trkpt lat="47.47341" lon="6.69146">
        <ele>233</ele>
        <time>2014-04-06T05:51:01Z</time>
      </trkpt>
      <trkpt lat="47.47341" lon="6.69146">
        <ele>233</ele>
        <time>2014-04-06T05:51:04Z</time>
      </trkpt>
      <trkpt lat="47.4734" lon="6.69146">
        <ele>233</ele>
        <time>2014-04-06T05:51:08Z</time>
      </trkpt>
      <trkpt lat="47.4734" lon="6.69146">
        <ele>233</ele>
        <time>2014-04-06T05:51:10Z</time>
      </trkpt>
      <trkpt lat="47.4734" lon="6.69147">
        <ele>233</ele>
        <time>2014-04-06T05:51:14Z</time>
      </trkpt>
      <trkpt lat="47.4734" lon="6.69147">
        <ele>233</ele>
        <time>2014-04-06T05:51:18Z</time>
      </trkpt>
      <trkpt lat="47.4734" lon="6.69147">
        <ele>233</ele>
        <time>2014-04-06T05:51:21Z</time>
      </trkpt>
      <trkpt lat="47.47339" lon="6.69147">
        <ele>233</ele>
        <time>2014-04-06T05:51:24Z</time>
      </trkpt>
      <trkpt lat="47.47339" lon="6.69148">
        <ele>234</ele>
        <time>2014-04-06T05:51:28Z</time>
      </trkpt>
      <trkpt lat="47.47339" lon="6.69148">
        <ele>234</ele>
        <time>2014-04-06T05:51:30Z</time>
      </trkpt>
      <trkpt lat="47.47339" lon="6.69148">
        <ele>234</ele>
        <time>2014-04-06T05:51:34Z</time>
      </trkpt>
      <trkpt lat="47.47339" lon="6.69148">
        <ele>234</ele>
        <time>2014-04-06T05:51:38Z</time>
      </trkpt>
      <trkpt lat="47.47338" lon="6.69148">
        <ele>234</ele>
        <time>2014-04-06T05:51:42Z</time>
      </trkpt>
      <trkpt lat="47.47338" lon="6.69148">
        <ele>234</ele>
        <time>2014-04-06T05:51:46Z</time>
      </trkpt>
      <trkpt lat="47.47338" lon="6.69149">
        <ele>234</ele>
        <time>2014-04-06T05:51:51Z</time>
      </trkpt>
      <trkpt lat="47.47338" lon="6.69149">
        <ele>233</ele>
        <time>2014-04-06T05:51:54Z</time>
      </trkpt>
      <trkpt lat="47.47338" lon="6.69149">
        <ele>233</ele>
        <time>2014-04-06T05:51:56Z</time>
      </trkpt>
      <trkpt lat="47.47337" lon="6.69149">
        <ele>233</ele>
        <time>2014-04-06T05:52:01Z</time>
      </trkpt>
      <trkpt lat="47.47337" lon="6.69149">
        <ele>233</ele>
        <time>2014-04-06T05:52:05Z</time>
      </trkpt>
      <trkpt lat="47.47337" lon="6.69149">
        <ele>234</ele>
        <time>2014-04-06T05:52:08Z</time>
      </trkpt>
      <trkpt lat="47.47337" lon="6.69149">
        <ele>233</ele>
        <time>2014-04-06T05:52:12Z</time>
      </trkpt>
      <trkpt lat="47.47336" lon="6.69149">
        <ele>233</ele>
        <time>2014-04-06T05:52:18Z</time>
      </trkpt>
      <trkpt lat="47.47336" lon="6.69149">
        <ele>234</ele>
        <time>2014-04-06T05:52:22Z</time>
      </trkpt>
      <trkpt lat="47.47336" lon="6.69149">
        <ele>233</ele>
        <time>2014-04-06T05:52:29Z</time>
      </trkpt>
      <trkpt lat="47.47336" lon="6.69149">
        <ele>233</ele>
        <time>2014-04-06T05:52:40Z</time>
      </trkpt>
      <trkpt lat="47.47336" lon="6.69149">
        <ele>234</ele>
        <time>2014-04-06T05:52:50Z</time>
      </trkpt>
      <trkpt lat="47.47336" lon="6.69149">
        <ele>233</ele>
        <time>2014-04-06T05:52:59Z</time>
      </trkpt>
      <trkpt lat="47.47336" lon="6.69149">
        <ele>233</ele>
        <time>2014-04-06T05:53:23Z</time>
      </trkpt>
      <trkpt lat="47.47336" lon="6.69149">
        <ele>233</ele>
        <time>2014-04-06T05:53:25Z</time>
      </trkpt>
      <trkpt lat="47.47336" lon="6.69149">
        <ele>233</ele>
        <time>2014-04-06T05:53:28Z</time>
      </trkpt>
      <trkpt lat="47.47336" lon="6.69149">
        <ele>233</ele>
        <time>2014-04-06T05:53:34Z</time>
      </trkpt>
      <trkpt lat="47.47337" lon="6.69149">
        <ele>233</ele>
        <time>2014-04-06T05:53:39Z</time>
      </trkpt>
      <trkpt lat="47.47337" lon="6.69149">
        <ele>233</ele>
        <time>2014-04-06T05:53:42Z</time>
      </trkpt>
      <trkpt lat="47.47337" lon="6.69149">
        <ele>233</ele>
        <time>2014-04-06T05:53:45Z</time>
      </trkpt>
      <trkpt lat="47.47337" lon="6.69149">
        <ele>234</ele>
        <time>2014-04-06T05:53:50Z</time>
      </trkpt>
      <trkpt lat="47.47337" lon="6.69149">
        <ele>233</ele>
        <time>2014-04-06T05:53:54Z</time>
      </trkpt>
      <trkpt lat="47.47337" lon="6.69149">
        <ele>233</ele>
        <time>2014-04-06T05:53:57Z</time>
      </trkpt>
      <trkpt lat="47.47337" lon="6.69149">
        <ele>233</ele>
        <time>2014-04-06T05:54:00Z</time>
      </trkpt>
      <trkpt lat="47.47338" lon="6.69149">
        <ele>233</ele>
        <time>2014-04-06T05:54:02Z</time>
      </trkpt>
      <trkpt lat="47.47338" lon="6.69149">
        <ele>233</ele>
        <time>2014-04-06T05:54:05Z</time>
      </trkpt>
      <trkpt lat="47.47338" lon="6.69148">
        <ele>234</ele>
        <time>2014-04-06T05:54:10Z</time>
      </trkpt>
      <trkpt lat="47.47338" lon="6.69148">
        <ele>234</ele>
        <time>2014-04-06T05:54:14Z</time>
      </trkpt>
      <trkpt lat="47.47338" lon="6.69148">
        <ele>233</ele>
        <time>2014-04-06T05:54:17Z</time>
      </trkpt>
      <trkpt lat="47.47338" lon="6.69148">
        <ele>233</ele>
        <time>2014-04-06T05:54:22Z</time>
      </trkpt>
      <trkpt lat="47.47338" lon="6.69147">
        <ele>233</ele>
        <time>2014-04-06T05:54:25Z</time>
      </trkpt>
      <trkpt lat="47.47338" lon="6.69147">
        <ele>234</ele>
        <time>2014-04-06T05:54:28Z</time>
      </trkpt>
      <trkpt lat="47.47338" lon="6.69147">
        <ele>233</ele>
        <time>2014-04-06T05:54:31Z</time>
      </trkpt>
      <trkpt lat="47.47338" lon="6.69147">
        <ele>234</ele>
        <time>2014-04-06T05:54:35Z</time>
      </trkpt>
      <trkpt lat="47.47338" lon="6.69147">
        <ele>234</ele>
        <time>2014-04-06T05:54:37Z</time>
      </trkpt>
      <trkpt lat="47.47338" lon="6.69146">
        <ele>234</ele>
        <time>2014-04-06T05:54:40Z</time>
      </trkpt>
      <trkpt lat="47.47338" lon="6.69146">
        <ele>233</ele>
        <time>2014-04-06T05:54:43Z</time>
      </trkpt>
      <trkpt lat="47.47338" lon="6.69146">
        <ele>233</ele>
        <time>2014-04-06T05:54:45Z</time>
      </trkpt>
      <trkpt lat="47.47338" lon="6.69146">
        <ele>233</ele>
        <time>2014-04-06T05:54:49Z</time>
      </trkpt>
      <trkpt lat="47.47338" lon="6.69145">
        <ele>234</ele>
        <time>2014-04-06T05:54:52Z</time>
      </trkpt>
      <trkpt lat="47.47338" lon="6.69145">
        <ele>233</ele>
        <time>2014-04-06T05:54:56Z</time>
      </trkpt>
      <trkpt lat="47.47338" lon="6.69145">
        <ele>233</ele>
        <time>2014-04-06T05:54:58Z</time>
      </trkpt>
      <trkpt lat="47.47338" lon="6.69145">
        <ele>233</ele>
        <time>2014-04-06T05:55:02Z</time>
      </trkpt>
      <trkpt lat="47.47338" lon="6.69145">
        <ele>233</ele>
        <time>2014-04-06T05:55:05Z</time>
      </trkpt>
      <trkpt lat="47.47339" lon="6.69145">
        <ele>233</ele>
        <time>2014-04-06T05:55:07Z</time>
      </trkpt>
      <trkpt lat="47.47339" lon="6.69144">
        <ele>233</ele>
        <time>2014-04-06T05:55:12Z</time>
      </trkpt>
      <trkpt lat="47.47339" lon="6.69144">
        <ele>233</ele>
        <time>2014-04-06T05:55:24Z</time>
      </trkpt>
      <trkpt lat="47.47339" lon="6.69144">
        <ele>233</ele>
        <time>2014-04-06T05:55:27Z</time>
      </trkpt>
      <trkpt lat="47.47339" lon="6.69144">
        <ele>233</ele>
        <time>2014-04-06T05:55:29Z</time>
      </trkpt>
      <trkpt lat="47.47339" lon="6.69144">
        <ele>233</ele>
        <time>2014-04-06T05:55:32Z</time>
      </trkpt>
      <trkpt lat="47.4734" lon="6.69142">
        <ele>233</ele>
        <time>2014-04-06T05:55:34Z</time>
      </trkpt>
      <trkpt lat="47.47339" lon="6.69141">
        <ele>234</ele>
        <time>2014-04-06T05:55:37Z</time>
      </trkpt>
      <trkpt lat="47.47338" lon="6.6914">
        <ele>233</ele>
        <time>2014-04-06T05:55:39Z</time>
      </trkpt>
      <trkpt lat="47.47335" lon="6.69135">
        <ele>233</ele>
        <time>2014-04-06T05:55:42Z</time>
      </trkpt>
      <trkpt lat="47.47333" lon="6.69132">
        <ele>233</ele>
        <time>2014-04-06T05:55:44Z</time>
      </trkpt>
      <trkpt lat="47.4733" lon="6.69131">
        <ele>233</ele>
        <time>2014-04-06T05:55:46Z</time>
      </trkpt>
      <trkpt lat="47.47325" lon="6.69133">
        <ele>233</ele>
        <time>2014-04-06T05:55:49Z</time>
      </trkpt>
      <trkpt lat="47.4732" lon="6.69136">
        <ele>233</ele>
        <time>2014-04-06T05:55:52Z</time>
      </trkpt>
      <trkpt lat="47.47317" lon="6.69137">
        <ele>233</ele>
        <time>2014-04-06T05:55:54Z</time>
      </trkpt>
      <trkpt lat="47.47315" lon="6.69139">
        <ele>233</ele>
        <time>2014-04-06T05:55:57Z</time>
      </trkpt>
      <trkpt lat="47.47311" lon="6.69139">
        <ele>233</ele>
        <time>2014-04-06T05:56:00Z</time>
      </trkpt>
      <trkpt lat="47.47306" lon="6.69133">
        <ele>232</ele>
        <time>2014-04-06T05:56:03Z</time>
      </trkpt>
      <trkpt lat="47.47301" lon="6.69125">
        <ele>233</ele>
        <time>2014-04-06T05:56:06Z</time>
      </trkpt>
      <trkpt lat="47.47298" lon="6.69118">
        <ele>233</ele>
        <time>2014-04-06T05:56:08Z</time>
      </trkpt>
      <trkpt lat="47.47294" lon="6.6911">
        <ele>233</ele>
        <time>2014-04-06T05:56:10Z</time>
      </trkpt>
      <trkpt lat="47.47287" lon="6.69099">
        <ele>233</ele>
        <time>2014-04-06T05:56:13Z</time>
      </trkpt>
      <trkpt lat="47.4728" lon="6.69085">
        <ele>233</ele>
        <time>2014-04-06T05:56:16Z</time>
      </trkpt>
      <trkpt lat="47.47274" lon="6.69076">
        <ele>233</ele>
        <time>2014-04-06T05:56:18Z</time>
      </trkpt>
      <trkpt lat="47.47266" lon="6.69062">
        <ele>233</ele>
        <time>2014-04-06T05:56:21Z</time>
      </trkpt>
      <trkpt lat="47.47258" lon="6.69047">
        <ele>233</ele>
        <time>2014-04-06T05:56:24Z</time>
      </trkpt>
      <trkpt lat="47.4725" lon="6.69033">
        <ele>233</ele>
        <time>2014-04-06T05:56:27Z</time>
      </trkpt>
      <trkpt lat="47.47245" lon="6.69024">
        <ele>233</ele>
        <time>2014-04-06T05:56:29Z</time>
      </trkpt>
      <trkpt lat="47.47237" lon="6.6901">
        <ele>233</ele>
        <time>2014-04-06T05:56:32Z</time>
      </trkpt>
      <trkpt lat="47.47232" lon="6.69">
        <ele>233</ele>
        <time>2014-04-06T05:56:34Z</time>
      </trkpt>
      <trkpt lat="47.47223" lon="6.68985">
        <ele>233</ele>
        <time>2014-04-06T05:56:37Z</time>
      </trkpt>
      <trkpt lat="47.47218" lon="6.68975">
        <ele>233</ele>
        <time>2014-04-06T05:56:39Z</time>
      </trkpt>
      <trkpt lat="47.47209" lon="6.6896">
        <ele>233</ele>
        <time>2014-04-06T05:56:42Z</time>
      </trkpt>
      <trkpt lat="47.47203" lon="6.68949">
        <ele>233</ele>
        <time>2014-04-06T05:56:44Z</time>
      </trkpt>
      <trkpt lat="47.47195" lon="6.68934">
        <ele>233</ele>
        <time>2014-04-06T05:56:47Z</time>
      </trkpt>
      <trkpt lat="47.47185" lon="6.6892">
        <ele>232</ele>
        <time>2014-04-06T05:56:50Z</time>
      </trkpt>
      <trkpt lat="47.47176" lon="6.68906">
        <ele>232</ele>
        <time>2014-04-06T05:56:53Z</time>
      </trkpt>
      <trkpt lat="47.47169" lon="6.68897">
        <ele>232</ele>
        <time>2014-04-06T05:56:55Z</time>
      </trkpt>
      <trkpt lat="47.4716" lon="6.68885">
        <ele>232</ele>
        <time>2014-04-06T05:56:58Z</time>
      </trkpt>
      <trkpt lat="47.47153" lon="6.68877">
        <ele>232</ele>
        <time>2014-04-06T05:57:00Z</time>
      </trkpt>
      <trkpt lat="47.47143" lon="6.68866">
        <ele>232</ele>
        <time>2014-04-06T05:57:03Z</time>
      </trkpt>
      <trkpt lat="47.47136" lon="6.68859">
        <ele>232</ele>
        <time>2014-04-06T05:57:05Z</time>
      </trkpt>
      <trkpt lat="47.47126" lon="6.68847">
        <ele>232</ele>
        <time>2014-04-06T05:57:08Z</time>
      </trkpt>
      <trkpt lat="47.47119" lon="6.6884">
        <ele>232</ele>
        <time>2014-04-06T05:57:10Z</time>
      </trkpt>
      <trkpt lat="47.47113" lon="6.68831">
        <ele>232</ele>
        <time>2014-04-06T05:57:12Z</time>
      </trkpt>
      <trkpt lat="47.47103" lon="6.68819">
        <ele>232</ele>
        <time>2014-04-06T05:57:15Z</time>
      </trkpt>
      <trkpt lat="47.47094" lon="6.68807">
        <ele>232</ele>
        <time>2014-04-06T05:57:18Z</time>
      </trkpt>
      <trkpt lat="47.47085" lon="6.68793">
        <ele>232</ele>
        <time>2014-04-06T05:57:21Z</time>
      </trkpt>
      <trkpt lat="47.4708" lon="6.68785">
        <ele>232</ele>
        <time>2014-04-06T05:57:23Z</time>
      </trkpt>
      <trkpt lat="47.47075" lon="6.68776">
        <ele>232</ele>
        <time>2014-04-06T05:57:25Z</time>
      </trkpt>
      <trkpt lat="47.47068" lon="6.68763">
        <ele>232</ele>
        <time>2014-04-06T05:57:28Z</time>
      </trkpt>
      <trkpt lat="47.47063" lon="6.68754">
        <ele>233</ele>
        <time>2014-04-06T05:57:30Z</time>
      </trkpt>
      <trkpt lat="47.47055" lon="6.6874">
        <ele>233</ele>
        <time>2014-04-06T05:57:33Z</time>
      </trkpt>
      <trkpt lat="47.4705" lon="6.68731">
        <ele>233</ele>
        <time>2014-04-06T05:57:35Z</time>
      </trkpt>
      <trkpt lat="47.47041" lon="6.68718">
        <ele>233</ele>
        <time>2014-04-06T05:57:38Z</time>
      </trkpt>
      <trkpt lat="47.47031" lon="6.68706">
        <ele>232</ele>
        <time>2014-04-06T05:57:41Z</time>
      </trkpt>
      <trkpt lat="47.47023" lon="6.68698">
        <ele>232</ele>
        <time>2014-04-06T05:57:43Z</time>
      </trkpt>
      <trkpt lat="47.47016" lon="6.68689">
        <ele>232</ele>
        <time>2014-04-06T05:57:45Z</time>
      </trkpt>
      <trkpt lat="47.47005" lon="6.68675">
        <ele>232</ele>
        <time>2014-04-06T05:57:48Z</time>
      </trkpt>
      <trkpt lat="47.46999" lon="6.68665">
        <ele>232</ele>
        <time>2014-04-06T05:57:50Z</time>
      </trkpt>
      <trkpt lat="47.4699" lon="6.6865">
        <ele>231</ele>
        <time>2014-04-06T05:57:53Z</time>
      </trkpt>
      <trkpt lat="47.46982" lon="6.68636">
        <ele>232</ele>
        <time>2014-04-06T05:57:56Z</time>
      </trkpt>
      <trkpt lat="47.46976" lon="6.68626">
        <ele>232</ele>
        <time>2014-04-06T05:57:58Z</time>
      </trkpt>
      <trkpt lat="47.46967" lon="6.68613">
        <ele>232</ele>
        <time>2014-04-06T05:58:01Z</time>
      </trkpt>
      <trkpt lat="47.46962" lon="6.68604">
        <ele>232</ele>
        <time>2014-04-06T05:58:03Z</time>
      </trkpt>
      <trkpt lat="47.46956" lon="6.68595">
        <ele>232</ele>
        <time>2014-04-06T05:58:05Z</time>
      </trkpt>
      <trkpt lat="47.46947" lon="6.68581">
        <ele>232</ele>
        <time>2014-04-06T05:58:08Z</time>
      </trkpt>
      <trkpt lat="47.46941" lon="6.68573">
        <ele>232</ele>
        <time>2014-04-06T05:58:10Z</time>
      </trkpt>
      <trkpt lat="47.46935" lon="6.68564">
        <ele>232</ele>
        <time>2014-04-06T05:58:12Z</time>
      </trkpt>
      <trkpt lat="47.46924" lon="6.68553">
        <ele>233</ele>
        <time>2014-04-06T05:58:15Z</time>
      </trkpt>
      <trkpt lat="47.46914" lon="6.68542">
        <ele>232</ele>
        <time>2014-04-06T05:58:18Z</time>
      </trkpt>
      <trkpt lat="47.46902" lon="6.68531">
        <ele>232</ele>
        <time>2014-04-06T05:58:21Z</time>
      </trkpt>
      <trkpt lat="47.46894" lon="6.68524">
        <ele>233</ele>
        <time>2014-04-06T05:58:23Z</time>
      </trkpt>
      <trkpt lat="47.46886" lon="6.68516">
        <ele>233</ele>
        <time>2014-04-06T05:58:25Z</time>
      </trkpt>
      <trkpt lat="47.46874" lon="6.68504">
        <ele>232</ele>
        <time>2014-04-06T05:58:28Z</time>
      </trkpt>
      <trkpt lat="47.46867" lon="6.68497">
        <ele>233</ele>
        <time>2014-04-06T05:58:30Z</time>
      </trkpt>
      <trkpt lat="47.46854" lon="6.68485">
        <ele>232</ele>
        <time>2014-04-06T05:58:33Z</time>
      </trkpt>
      <trkpt lat="47.46846" lon="6.68477">
        <ele>232</ele>
        <time>2014-04-06T05:58:35Z</time>
      </trkpt>
      <trkpt lat="47.46837" lon="6.68468">
        <ele>232</ele>
        <time>2014-04-06T05:58:37Z</time>
      </trkpt>
      <trkpt lat="47.46825" lon="6.68455">
        <ele>232</ele>
        <time>2014-04-06T05:58:40Z</time>
      </trkpt>
      <trkpt lat="47.46814" lon="6.68442">
        <ele>231</ele>
        <time>2014-04-06T05:58:43Z</time>
      </trkpt>
      <trkpt lat="47.46804" lon="6.6843">
        <ele>232</ele>
        <time>2014-04-06T05:58:46Z</time>
      </trkpt>
      <trkpt lat="47.46797" lon="6.68422">
        <ele>231</ele>
        <time>2014-04-06T05:58:48Z</time>
      </trkpt>
      <trkpt lat="47.4679" lon="6.68414">
        <ele>232</ele>
        <time>2014-04-06T05:58:50Z</time>
      </trkpt>
      <trkpt lat="47.4678" lon="6.68402">
        <ele>232</ele>
        <time>2014-04-06T05:58:53Z</time>
      </trkpt>
      <trkpt lat="47.46773" lon="6.68394">
        <ele>232</ele>
        <time>2014-04-06T05:58:55Z</time>
      </trkpt>
      <trkpt lat="47.46762" lon="6.68382">
        <ele>232</ele>
        <time>2014-04-06T05:58:58Z</time>
      </trkpt>
      <trkpt lat="47.46755" lon="6.68374">
        <ele>233</ele>
        <time>2014-04-06T05:59:00Z</time>
      </trkpt>
      <trkpt lat="47.46746" lon="6.68364">
        <ele>233</ele>
        <time>2014-04-06T05:59:03Z</time>
      </trkpt>
      <trkpt lat="47.46736" lon="6.68353">
        <ele>233</ele>
        <time>2014-04-06T05:59:06Z</time>
      </trkpt>
      <trkpt lat="47.4673" lon="6.68347">
        <ele>233</ele>
        <time>2014-04-06T05:59:08Z</time>
      </trkpt>
      <trkpt lat="47.46721" lon="6.68336">
        <ele>234</ele>
        <time>2014-04-06T05:59:11Z</time>
      </trkpt>
      <trkpt lat="47.46715" lon="6.6833">
        <ele>234</ele>
        <time>2014-04-06T05:59:13Z</time>
      </trkpt>
      <trkpt lat="47.46706" lon="6.68321">
        <ele>234</ele>
        <time>2014-04-06T05:59:16Z</time>
      </trkpt>
      <trkpt lat="47.467" lon="6.68315">
        <ele>235</ele>
        <time>2014-04-06T05:59:18Z</time>
      </trkpt>
      <trkpt lat="47.46692" lon="6.68304">
        <ele>235</ele>
        <time>2014-04-06T05:59:21Z</time>
      </trkpt>
      <trkpt lat="47.46685" lon="6.68297">
        <ele>236</ele>
        <time>2014-04-06T05:59:23Z</time>
      </trkpt>
      <trkpt lat="47.46679" lon="6.68284">
        <ele>236</ele>
        <time>2014-04-06T05:59:26Z</time>
      </trkpt>
      <trkpt lat="47.46671" lon="6.68274">
        <ele>236</ele>
        <time>2014-04-06T05:59:29Z</time>
      </trkpt>
      <trkpt lat="47.46664" lon="6.68269">
        <ele>237</ele>
        <time>2014-04-06T05:59:31Z</time>
      </trkpt>
      <trkpt lat="47.46655" lon="6.68261">
        <ele>237</ele>
        <time>2014-04-06T05:59:34Z</time>
      </trkpt>
      <trkpt lat="47.46645" lon="6.68254">
        <ele>238</ele>
        <time>2014-04-06T05:59:37Z</time>
      </trkpt>
      <trkpt lat="47.46639" lon="6.68249">
        <ele>239</ele>
        <time>2014-04-06T05:59:39Z</time>
      </trkpt>
      <trkpt lat="47.4663" lon="6.68242">
        <ele>239</ele>
        <time>2014-04-06T05:59:42Z</time>
      </trkpt>
      <trkpt lat="47.46624" lon="6.68237">
        <ele>239</ele>
        <time>2014-04-06T05:59:44Z</time>
      </trkpt>
      <trkpt lat="47.46616" lon="6.68229">
        <ele>240</ele>
        <time>2014-04-06T05:59:47Z</time>
      </trkpt>
      <trkpt lat="47.46609" lon="6.68225">
        <ele>240</ele>
        <time>2014-04-06T05:59:49Z</time>
      </trkpt>
      <trkpt lat="47.46603" lon="6.6822">
        <ele>241</ele>
        <time>2014-04-06T05:59:51Z</time>
      </trkpt>
      <trkpt lat="47.46595" lon="6.68213">
        <ele>242</ele>
        <time>2014-04-06T05:59:54Z</time>
      </trkpt>
      <trkpt lat="47.4659" lon="6.68209">
        <ele>242</ele>
        <time>2014-04-06T05:59:56Z</time>
      </trkpt>
      <trkpt lat="47.46583" lon="6.68204">
        <ele>243</ele>
        <time>2014-04-06T05:59:59Z</time>
      </trkpt>
      <trkpt lat="47.46579" lon="6.68201">
        <ele>244</ele>
        <time>2014-04-06T06:00:01Z</time>
      </trkpt>
      <trkpt lat="47.46573" lon="6.68196">
        <ele>244</ele>
        <time>2014-04-06T06:00:04Z</time>
      </trkpt>
      <trkpt lat="47.46566" lon="6.6819">
        <ele>245</ele>
        <time>2014-04-06T06:00:07Z</time>
      </trkpt>
      <trkpt lat="47.46562" lon="6.68186">
        <ele>245</ele>
        <time>2014-04-06T06:00:09Z</time>
      </trkpt>
      <trkpt lat="47.46555" lon="6.6818">
        <ele>246</ele>
        <time>2014-04-06T06:00:12Z</time>
      </trkpt>
      <trkpt lat="47.4655" lon="6.68175">
        <ele>246</ele>
        <time>2014-04-06T06:00:14Z</time>
      </trkpt>
      <trkpt lat="47.46545" lon="6.68169">
        <ele>246</ele>
        <time>2014-04-06T06:00:16Z</time>
      </trkpt>
      <trkpt lat="47.46537" lon="6.68161">
        <ele>247</ele>
        <time>2014-04-06T06:00:19Z</time>
      </trkpt>
      <trkpt lat="47.46529" lon="6.68153">
        <ele>247</ele>
        <time>2014-04-06T06:00:22Z</time>
      </trkpt>
      <trkpt lat="47.46524" lon="6.68147">
        <ele>248</ele>
        <time>2014-04-06T06:00:24Z</time>
      </trkpt>
      <trkpt lat="47.46517" lon="6.68139">
        <ele>248</ele>
        <time>2014-04-06T06:00:27Z</time>
      </trkpt>
      <trkpt lat="47.46512" lon="6.68134">
        <ele>249</ele>
        <time>2014-04-06T06:00:29Z</time>
      </trkpt>
      <trkpt lat="47.46505" lon="6.68125">
        <ele>249</ele>
        <time>2014-04-06T06:00:32Z</time>
      </trkpt>
      <trkpt lat="47.465" lon="6.68119">
        <ele>250</ele>
        <time>2014-04-06T06:00:34Z</time>
      </trkpt>
      <trkpt lat="47.46492" lon="6.6811">
        <ele>250</ele>
        <time>2014-04-06T06:00:37Z</time>
      </trkpt>
      <trkpt lat="47.46484" lon="6.681">
        <ele>251</ele>
        <time>2014-04-06T06:00:40Z</time>
      </trkpt>
      <trkpt lat="47.46479" lon="6.68094">
        <ele>251</ele>
        <time>2014-04-06T06:00:42Z</time>
      </trkpt>
      <trkpt lat="47.46474" lon="6.68088">
        <ele>252</ele>
        <time>2014-04-06T06:00:44Z</time>
      </trkpt>
      <trkpt lat="47.46466" lon="6.68079">
        <ele>252</ele>
        <time>2014-04-06T06:00:47Z</time>
      </trkpt>
      <trkpt lat="47.46462" lon="6.68073">
        <ele>252</ele>
        <time>2014-04-06T06:00:49Z</time>
      </trkpt>
      <trkpt lat="47.46454" lon="6.68065">
        <ele>253</ele>
        <time>2014-04-06T06:00:52Z</time>
      </trkpt>
      <trkpt lat="47.4645" lon="6.6806">
        <ele>253</ele>
        <time>2014-04-06T06:00:54Z</time>
      </trkpt>
      <trkpt lat="47.46445" lon="6.68051">
        <ele>254</ele>
        <time>2014-04-06T06:00:57Z</time>
      </trkpt>
      <trkpt lat="47.4644" lon="6.68043">
        <ele>254</ele>
        <time>2014-04-06T06:01:00Z</time>
      </trkpt>
      <trkpt lat="47.46436" lon="6.68034">
        <ele>255</ele>
        <time>2014-04-06T06:01:03Z</time>
      </trkpt>
      <trkpt lat="47.46433" lon="6.68029">
        <ele>255</ele>
        <time>2014-04-06T06:01:05Z</time>
      </trkpt>
      <trkpt lat="47.46429" lon="6.68023">
        <ele>255</ele>
        <time>2014-04-06T06:01:08Z</time>
      </trkpt>
      <trkpt lat="47.46426" lon="6.68019">
        <ele>256</ele>
        <time>2014-04-06T06:01:10Z</time>
      </trkpt>
      <trkpt lat="47.46421" lon="6.68013">
        <ele>256</ele>
        <time>2014-04-06T06:01:13Z</time>
      </trkpt>
      <trkpt lat="47.46417" lon="6.68007">
        <ele>257</ele>
        <time>2014-04-06T06:01:16Z</time>
      </trkpt>
      <trkpt lat="47.46411" lon="6.68002">
        <ele>258</ele>
        <time>2014-04-06T06:01:19Z</time>
      </trkpt>
      <trkpt lat="47.46406" lon="6.67996">
        <ele>258</ele>
        <time>2014-04-06T06:01:22Z</time>
      </trkpt>
      <trkpt lat="47.46399" lon="6.67993">
        <ele>259</ele>
        <time>2014-04-06T06:01:25Z</time>
      </trkpt>
      <trkpt lat="47.46392" lon="6.6799">
        <ele>259</ele>
        <time>2014-04-06T06:01:28Z</time>
      </trkpt>
      <trkpt lat="47.46385" lon="6.6799">
        <ele>259</ele>
        <time>2014-04-06T06:01:30Z</time>
      </trkpt>
      <trkpt lat="47.46379" lon="6.67989">
        <ele>259</ele>
        <time>2014-04-06T06:01:32Z</time>
      </trkpt>
      <trkpt lat="47.46369" lon="6.6799">
        <ele>260</ele>
        <time>2014-04-06T06:01:35Z</time>
      </trkpt>
      <trkpt lat="47.46364" lon="6.67991">
        <ele>260</ele>
        <time>2014-04-06T06:01:37Z</time>
      </trkpt>
      <trkpt lat="47.46356" lon="6.67992">
        <ele>261</ele>
        <time>2014-04-06T06:01:40Z</time>
      </trkpt>
      <trkpt lat="47.4635" lon="6.67994">
        <ele>261</ele>
        <time>2014-04-06T06:01:42Z</time>
      </trkpt>
      <trkpt lat="47.46342" lon="6.67998">
        <ele>262</ele>
        <time>2014-04-06T06:01:45Z</time>
      </trkpt>
      <trkpt lat="47.46334" lon="6.68001">
        <ele>262</ele>
        <time>2014-04-06T06:01:48Z</time>
      </trkpt>
      <trkpt lat="47.46325" lon="6.68006">
        <ele>263</ele>
        <time>2014-04-06T06:01:51Z</time>
      </trkpt>
      <trkpt lat="47.4632" lon="6.68008">
        <ele>263</ele>
        <time>2014-04-06T06:01:53Z</time>
      </trkpt>
      <trkpt lat="47.46312" lon="6.68013">
        <ele>264</ele>
        <time>2014-04-06T06:01:56Z</time>
      </trkpt>
      <trkpt lat="47.46305" lon="6.68018">
        <ele>264</ele>
        <time>2014-04-06T06:01:59Z</time>
      </trkpt>
      <trkpt lat="47.46296" lon="6.68022">
        <ele>264</ele>
        <time>2014-04-06T06:02:02Z</time>
      </trkpt>
      <trkpt lat="47.46291" lon="6.68025">
        <ele>265</ele>
        <time>2014-04-06T06:02:04Z</time>
      </trkpt>
      <trkpt lat="47.46283" lon="6.68026">
        <ele>265</ele>
        <time>2014-04-06T06:02:07Z</time>
      </trkpt>
      <trkpt lat="47.46277" lon="6.68027">
        <ele>265</ele>
        <time>2014-04-06T06:02:09Z</time>
      </trkpt>
      <trkpt lat="47.46269" lon="6.68026">
        <ele>265</ele>
        <time>2014-04-06T06:02:12Z</time>
      </trkpt>
      <trkpt lat="47.46262" lon="6.68025">
        <ele>266</ele>
        <time>2014-04-06T06:02:15Z</time>
      </trkpt>
      <trkpt lat="47.46257" lon="6.68023">
        <ele>267</ele>
        <time>2014-04-06T06:02:17Z</time>
      </trkpt>
      <trkpt lat="47.46252" lon="6.6802">
        <ele>267</ele>
        <time>2014-04-06T06:02:20Z</time>
      </trkpt>
      <trkpt lat="47.46248" lon="6.68018">
        <ele>267</ele>
        <time>2014-04-06T06:02:22Z</time>
      </trkpt>
      <trkpt lat="47.46242" lon="6.68013">
        <ele>267</ele>
        <time>2014-04-06T06:02:25Z</time>
      </trkpt>
      <trkpt lat="47.46238" lon="6.68007">
        <ele>268</ele>
        <time>2014-04-06T06:02:28Z</time>
      </trkpt>
      <trkpt lat="47.46234" lon="6.68003">
        <ele>268</ele>
        <time>2014-04-06T06:02:30Z</time>
      </trkpt>
      <trkpt lat="47.46231" lon="6.67997">
        <ele>268</ele>
        <time>2014-04-06T06:02:32Z</time>
      </trkpt>
      <trkpt lat="47.46228" lon="6.67991">
        <ele>269</ele>
        <time>2014-04-06T06:02:34Z</time>
      </trkpt>
      <trkpt lat="47.46225" lon="6.67985">
        <ele>269</ele>
        <time>2014-04-06T06:02:37Z</time>
      </trkpt>
      <trkpt lat="47.46223" lon="6.67981">
        <ele>270</ele>
        <time>2014-04-06T06:02:39Z</time>
      </trkpt>
      <trkpt lat="47.46219" lon="6.67975">
        <ele>270</ele>
        <time>2014-04-06T06:02:42Z</time>
      </trkpt>
      <trkpt lat="47.46218" lon="6.6797">
        <ele>271</ele>
        <time>2014-04-06T06:02:44Z</time>
      </trkpt>
      <trkpt lat="47.46215" lon="6.67963">
        <ele>271</ele>
        <time>2014-04-06T06:02:47Z</time>
      </trkpt>
      <trkpt lat="47.46213" lon="6.67953">
        <ele>270</ele>
        <time>2014-04-06T06:02:50Z</time>
      </trkpt>
      <trkpt lat="47.46212" lon="6.67945">
        <ele>271</ele>
        <time>2014-04-06T06:02:53Z</time>
      </trkpt>
      <trkpt lat="47.46211" lon="6.67936">
        <ele>271</ele>
        <time>2014-04-06T06:02:56Z</time>
      </trkpt>
      <trkpt lat="47.46212" lon="6.67929">
        <ele>272</ele>
        <time>2014-04-06T06:02:58Z</time>
      </trkpt>
      <trkpt lat="47.46211" lon="6.6792">
        <ele>272</ele>
        <time>2014-04-06T06:03:01Z</time>
      </trkpt>
      <trkpt lat="47.46211" lon="6.6791">
        <ele>272</ele>
        <time>2014-04-06T06:03:04Z</time>
      </trkpt>
      <trkpt lat="47.46212" lon="6.67904">
        <ele>273</ele>
        <time>2014-04-06T06:03:06Z</time>
      </trkpt>
      <trkpt lat="47.46212" lon="6.67894">
        <ele>273</ele>
        <time>2014-04-06T06:03:09Z</time>
      </trkpt>
      <trkpt lat="47.46212" lon="6.67884">
        <ele>273</ele>
        <time>2014-04-06T06:03:12Z</time>
      </trkpt>
      <trkpt lat="47.46213" lon="6.67876">
        <ele>274</ele>
        <time>2014-04-06T06:03:15Z</time>
      </trkpt>
      <trkpt lat="47.46214" lon="6.67871">
        <ele>274</ele>
        <time>2014-04-06T06:03:17Z</time>
      </trkpt>
      <trkpt lat="47.46215" lon="6.67866">
        <ele>274</ele>
        <time>2014-04-06T06:03:19Z</time>
      </trkpt>
      <trkpt lat="47.46216" lon="6.6786">
        <ele>274</ele>
        <time>2014-04-06T06:03:21Z</time>
      </trkpt>
      <trkpt lat="47.46218" lon="6.67851">
        <ele>275</ele>
        <time>2014-04-06T06:03:24Z</time>
      </trkpt>
      <trkpt lat="47.46221" lon="6.67845">
        <ele>275</ele>
        <time>2014-04-06T06:03:27Z</time>
      </trkpt>
      <trkpt lat="47.46223" lon="6.67841">
        <ele>275</ele>
        <time>2014-04-06T06:03:29Z</time>
      </trkpt>
      <trkpt lat="47.46225" lon="6.67836">
        <ele>275</ele>
        <time>2014-04-06T06:03:32Z</time>
      </trkpt>
      <trkpt lat="47.46228" lon="6.6783">
        <ele>276</ele>
        <time>2014-04-06T06:03:35Z</time>
      </trkpt>
      <trkpt lat="47.4623" lon="6.67825">
        <ele>276</ele>
        <time>2014-04-06T06:03:38Z</time>
      </trkpt>
      <trkpt lat="47.46233" lon="6.6782">
        <ele>276</ele>
        <time>2014-04-06T06:03:40Z</time>
      </trkpt>
      <trkpt lat="47.46235" lon="6.67816">
        <ele>277</ele>
        <time>2014-04-06T06:03:42Z</time>
      </trkpt>
      <trkpt lat="47.46237" lon="6.67812">
        <ele>277</ele>
        <time>2014-04-06T06:03:44Z</time>
      </trkpt>
      <trkpt lat="47.46242" lon="6.67805">
        <ele>278</ele>
        <time>2014-04-06T06:03:47Z</time>
      </trkpt>
      <trkpt lat="47.46246" lon="6.67798">
        <ele>278</ele>
        <time>2014-04-06T06:03:50Z</time>
      </trkpt>
      <trkpt lat="47.46251" lon="6.67791">
        <ele>278</ele>
        <time>2014-04-06T06:03:53Z</time>
      </trkpt>
      <trkpt lat="47.46254" lon="6.67787">
        <ele>278</ele>
        <time>2014-04-06T06:03:55Z</time>
      </trkpt>
      <trkpt lat="47.46257" lon="6.67781">
        <ele>279</ele>
        <time>2014-04-06T06:03:58Z</time>
      </trkpt>
      <trkpt lat="47.46261" lon="6.67775">
        <ele>279</ele>
        <time>2014-04-06T06:04:00Z</time>
      </trkpt>
      <trkpt lat="47.46265" lon="6.6777">
        <ele>280</ele>
        <time>2014-04-06T06:04:02Z</time>
      </trkpt>
      <trkpt lat="47.4627" lon="6.67762">
        <ele>280</ele>
        <time>2014-04-06T06:04:05Z</time>
      </trkpt>
      <trkpt lat="47.46273" lon="6.67757">
        <ele>280</ele>
        <time>2014-04-06T06:04:07Z</time>
      </trkpt>
      <trkpt lat="47.46278" lon="6.6775">
        <ele>280</ele>
        <time>2014-04-06T06:04:10Z</time>
      </trkpt>
      <trkpt lat="47.46283" lon="6.67741">
        <ele>281</ele>
        <time>2014-04-06T06:04:13Z</time>
      </trkpt>
      <trkpt lat="47.46286" lon="6.67736">
        <ele>282</ele>
        <time>2014-04-06T06:04:15Z</time>
      </trkpt>
      <trkpt lat="47.46292" lon="6.67728">
        <ele>282</ele>
        <time>2014-04-06T06:04:18Z</time>
      </trkpt>
      <trkpt lat="47.46295" lon="6.67723">
        <ele>282</ele>
        <time>2014-04-06T06:04:20Z</time>
      </trkpt>
      <trkpt lat="47.46299" lon="6.67717">
        <ele>283</ele>
        <time>2014-04-06T06:04:23Z</time>
      </trkpt>
      <trkpt lat="47.46302" lon="6.67713">
        <ele>284</ele>
        <time>2014-04-06T06:04:25Z</time>
      </trkpt>
      <trkpt lat="47.46305" lon="6.67708">
        <ele>284</ele>
        <time>2014-04-06T06:04:27Z</time>
      </trkpt>
      <trkpt lat="47.4631" lon="6.67701">
        <ele>284</ele>
        <time>2014-04-06T06:04:30Z</time>
      </trkpt>
      <trkpt lat="47.46313" lon="6.67696">
        <ele>284</ele>
        <time>2014-04-06T06:04:32Z</time>
      </trkpt>
      <trkpt lat="47.46318" lon="6.6769">
        <ele>285</ele>
        <time>2014-04-06T06:04:35Z</time>
      </trkpt>
      <trkpt lat="47.46321" lon="6.67685">
        <ele>286</ele>
        <time>2014-04-06T06:04:38Z</time>
      </trkpt>
      <trkpt lat="47.46326" lon="6.67679">
        <ele>286</ele>
        <time>2014-04-06T06:04:41Z</time>
      </trkpt>
      <trkpt lat="47.4633" lon="6.67672">
        <ele>287</ele>
        <time>2014-04-06T06:04:44Z</time>
      </trkpt>
      <trkpt lat="47.46333" lon="6.67668">
        <ele>287</ele>
        <time>2014-04-06T06:04:46Z</time>
      </trkpt>
      <trkpt lat="47.46337" lon="6.67662">
        <ele>287</ele>
        <time>2014-04-06T06:04:49Z</time>
      </trkpt>
      <trkpt lat="47.4634" lon="6.67658">
        <ele>287</ele>
        <time>2014-04-06T06:04:51Z</time>
      </trkpt>
      <trkpt lat="47.46344" lon="6.67651">
        <ele>288</ele>
        <time>2014-04-06T06:04:54Z</time>
      </trkpt>
      <trkpt lat="47.46348" lon="6.67647">
        <ele>288</ele>
        <time>2014-04-06T06:04:56Z</time>
      </trkpt>
      <trkpt lat="47.46352" lon="6.6764">
        <ele>289</ele>
        <time>2014-04-06T06:04:59Z</time>
      </trkpt>
      <trkpt lat="47.46357" lon="6.67634">
        <ele>289</ele>
        <time>2014-04-06T06:05:02Z</time>
      </trkpt>
      <trkpt lat="47.46361" lon="6.67628">
        <ele>289</ele>
        <time>2014-04-06T06:05:05Z</time>
      </trkpt>
      <trkpt lat="47.46365" lon="6.67623">
        <ele>289</ele>
        <time>2014-04-06T06:05:07Z</time>
      </trkpt>
      <trkpt lat="47.4637" lon="6.67615">
        <ele>289</ele>
        <time>2014-04-06T06:05:10Z</time>
      </trkpt>
      <trkpt lat="47.46373" lon="6.67611">
        <ele>290</ele>
        <time>2014-04-06T06:05:12Z</time>
      </trkpt>
      <trkpt lat="47.46377" lon="6.67604">
        <ele>290</ele>
        <time>2014-04-06T06:05:15Z</time>
      </trkpt>
      <trkpt lat="47.4638" lon="6.676">
        <ele>290</ele>
        <time>2014-04-06T06:05:17Z</time>
      </trkpt>
      <trkpt lat="47.46386" lon="6.67591">
        <ele>290</ele>
        <time>2014-04-06T06:05:20Z</time>
      </trkpt>
      <trkpt lat="47.46392" lon="6.67583">
        <ele>290</ele>
        <time>2014-04-06T06:05:23Z</time>
      </trkpt>
      <trkpt lat="47.46398" lon="6.67573">
        <ele>290</ele>
        <time>2014-04-06T06:05:26Z</time>
      </trkpt>
      <trkpt lat="47.46405" lon="6.67562">
        <ele>289</ele>
        <time>2014-04-06T06:05:29Z</time>
      </trkpt>
      <trkpt lat="47.46411" lon="6.67553">
        <ele>289</ele>
        <time>2014-04-06T06:05:31Z</time>
      </trkpt>
      <trkpt lat="47.46418" lon="6.67543">
        <ele>289</ele>
        <time>2014-04-06T06:05:33Z</time>
      </trkpt>
      <trkpt lat="47.46425" lon="6.67536">
        <ele>288</ele>
        <time>2014-04-06T06:05:35Z</time>
      </trkpt>
      <trkpt lat="47.46434" lon="6.67528">
        <ele>288</ele>
        <time>2014-04-06T06:05:37Z</time>
      </trkpt>
      <trkpt lat="47.46448" lon="6.67527">
        <ele>287</ele>
        <time>2014-04-06T06:05:40Z</time>
      </trkpt>
      <trkpt lat="47.4646" lon="6.67536">
        <ele>288</ele>
        <time>2014-04-06T06:05:43Z</time>
      </trkpt>
      <trkpt lat="47.46467" lon="6.67546">
        <ele>287</ele>
        <time>2014-04-06T06:05:46Z</time>
      </trkpt>
      <trkpt lat="47.46473" lon="6.67552">
        <ele>287</ele>
        <time>2014-04-06T06:05:48Z</time>
      </trkpt>
      <trkpt lat="47.46478" lon="6.67557">
        <ele>287</ele>
        <time>2014-04-06T06:05:50Z</time>
      </trkpt>
      <trkpt lat="47.46485" lon="6.67566">
        <ele>287</ele>
        <time>2014-04-06T06:05:53Z</time>
      </trkpt>
      <trkpt lat="47.4649" lon="6.67571">
        <ele>287</ele>
        <time>2014-04-06T06:05:55Z</time>
      </trkpt>
      <trkpt lat="47.46497" lon="6.67579">
        <ele>288</ele>
        <time>2014-04-06T06:05:58Z</time>
      </trkpt>
      <trkpt lat="47.46503" lon="6.67586">
        <ele>288</ele>
        <time>2014-04-06T06:06:01Z</time>
      </trkpt>
      <trkpt lat="47.46509" lon="6.67594">
        <ele>289</ele>
        <time>2014-04-06T06:06:04Z</time>
      </trkpt>
      <trkpt lat="47.46517" lon="6.676">
        <ele>289</ele>
        <time>2014-04-06T06:06:07Z</time>
      </trkpt>
      <trkpt lat="47.46523" lon="6.67607">
        <ele>289</ele>
        <time>2014-04-06T06:06:10Z</time>
      </trkpt>
      <trkpt lat="47.46527" lon="6.67613">
        <ele>289</ele>
        <time>2014-04-06T06:06:12Z</time>
      </trkpt>
      <trkpt lat="47.46531" lon="6.67618">
        <ele>289</ele>
        <time>2014-04-06T06:06:14Z</time>
      </trkpt>
      <trkpt lat="47.46537" lon="6.67626">
        <ele>290</ele>
        <time>2014-04-06T06:06:17Z</time>
      </trkpt>
      <trkpt lat="47.46542" lon="6.67634">
        <ele>290</ele>
        <time>2014-04-06T06:06:20Z</time>
      </trkpt>
      <trkpt lat="47.46548" lon="6.67642">
        <ele>290</ele>
        <time>2014-04-06T06:06:23Z</time>
      </trkpt>
      <trkpt lat="47.46552" lon="6.67648">
        <ele>290</ele>
        <time>2014-04-06T06:06:25Z</time>
      </trkpt>
      <trkpt lat="47.46559" lon="6.67657">
        <ele>291</ele>
        <time>2014-04-06T06:06:28Z</time>
      </trkpt>
      <trkpt lat="47.46563" lon="6.67664">
        <ele>292</ele>
        <time>2014-04-06T06:06:30Z</time>
      </trkpt>
      <trkpt lat="47.46569" lon="6.67673">
        <ele>292</ele>
        <time>2014-04-06T06:06:33Z</time>
      </trkpt>
      <trkpt lat="47.46578" lon="6.67683">
        <ele>292</ele>
        <time>2014-04-06T06:06:36Z</time>
      </trkpt>
      <trkpt lat="47.46587" lon="6.67695">
        <ele>292</ele>
        <time>2014-04-06T06:06:39Z</time>
      </trkpt>
      <trkpt lat="47.46592" lon="6.67705">
        <ele>292</ele>
        <time>2014-04-06T06:06:42Z</time>
      </trkpt>
      <trkpt lat="47.46596" lon="6.67712">
        <ele>293</ele>
        <time>2014-04-06T06:06:44Z</time>
      </trkpt>
      <trkpt lat="47.46602" lon="6.67723">
        <ele>293</ele>
        <time>2014-04-06T06:06:47Z</time>
      </trkpt>
      <trkpt lat="47.46607" lon="6.67731">
        <ele>294</ele>
        <time>2014-04-06T06:06:49Z</time>
      </trkpt>
      <trkpt lat="47.46614" lon="6.67741">
        <ele>295</ele>
        <time>2014-04-06T06:06:52Z</time>
      </trkpt>
      <trkpt lat="47.4662" lon="6.67752">
        <ele>295</ele>
        <time>2014-04-06T06:06:55Z</time>
      </trkpt>
      <trkpt lat="47.46626" lon="6.67763">
        <ele>296</ele>
        <time>2014-04-06T06:06:58Z</time>
      </trkpt>
      <trkpt lat="47.46633" lon="6.67772">
        <ele>296</ele>
        <time>2014-04-06T06:07:01Z</time>
      </trkpt>
      <trkpt lat="47.46637" lon="6.6778">
        <ele>297</ele>
        <time>2014-04-06T06:07:04Z</time>
      </trkpt>
      <trkpt lat="47.46643" lon="6.67789">
        <ele>297</ele>
        <time>2014-04-06T06:07:07Z</time>
      </trkpt>
      <trkpt lat="47.4665" lon="6.678">
        <ele>297</ele>
        <time>2014-04-06T06:07:10Z</time>
      </trkpt>
      <trkpt lat="47.46653" lon="6.67805">
        <ele>297</ele>
        <time>2014-04-06T06:07:12Z</time>
      </trkpt>
      <trkpt lat="47.46659" lon="6.67813">
        <ele>297</ele>
        <time>2014-04-06T06:07:15Z</time>
      </trkpt>
      <trkpt lat="47.46663" lon="6.67822">
        <ele>297</ele>
        <time>2014-04-06T06:07:18Z</time>
      </trkpt>
      <trkpt lat="47.46669" lon="6.67831">
        <ele>297</ele>
        <time>2014-04-06T06:07:21Z</time>
      </trkpt>
      <trkpt lat="47.46675" lon="6.67839">
        <ele>298</ele>
        <time>2014-04-06T06:07:24Z</time>
      </trkpt>
      <trkpt lat="47.4668" lon="6.67847">
        <ele>298</ele>
        <time>2014-04-06T06:07:27Z</time>
      </trkpt>
      <trkpt lat="47.46684" lon="6.67855">
        <ele>298</ele>
        <time>2014-04-06T06:07:30Z</time>
      </trkpt>
      <trkpt lat="47.4669" lon="6.67864">
        <ele>298</ele>
        <time>2014-04-06T06:07:33Z</time>
      </trkpt>
      <trkpt lat="47.46693" lon="6.67869">
        <ele>298</ele>
        <time>2014-04-06T06:07:35Z</time>
      </trkpt>
      <trkpt lat="47.46695" lon="6.67874">
        <ele>298</ele>
        <time>2014-04-06T06:07:37Z</time>
      </trkpt>
      <trkpt lat="47.467" lon="6.67883">
        <ele>298</ele>
        <time>2014-04-06T06:07:40Z</time>
      </trkpt>
      <trkpt lat="47.46705" lon="6.67892">
        <ele>298</ele>
        <time>2014-04-06T06:07:43Z</time>
      </trkpt>
      <trkpt lat="47.46711" lon="6.67903">
        <ele>297</ele>
        <time>2014-04-06T06:07:46Z</time>
      </trkpt>
      <trkpt lat="47.46717" lon="6.67912">
        <ele>297</ele>
        <time>2014-04-06T06:07:49Z</time>
      </trkpt>
      <trkpt lat="47.46721" lon="6.67918">
        <ele>297</ele>
        <time>2014-04-06T06:07:51Z</time>
      </trkpt>
      <trkpt lat="47.46727" lon="6.67927">
        <ele>298</ele>
        <time>2014-04-06T06:07:54Z</time>
      </trkpt>
      <trkpt lat="47.46731" lon="6.67937">
        <ele>297</ele>
        <time>2014-04-06T06:07:57Z</time>
      </trkpt>
      <trkpt lat="47.46738" lon="6.67948">
        <ele>297</ele>
        <time>2014-04-06T06:08:00Z</time>
      </trkpt>
      <trkpt lat="47.46744" lon="6.67958">
        <ele>297</ele>
        <time>2014-04-06T06:08:03Z</time>
      </trkpt>
      <trkpt lat="47.46749" lon="6.67965">
        <ele>297</ele>
        <time>2014-04-06T06:08:05Z</time>
      </trkpt>
      <trkpt lat="47.46754" lon="6.67973">
        <ele>297</ele>
        <time>2014-04-06T06:08:07Z</time>
      </trkpt>
      <trkpt lat="47.46763" lon="6.67984">
        <ele>297</ele>
        <time>2014-04-06T06:08:10Z</time>
      </trkpt>
      <trkpt lat="47.46769" lon="6.67992">
        <ele>296</ele>
        <time>2014-04-06T06:08:12Z</time>
      </trkpt>
      <trkpt lat="47.46775" lon="6.68001">
        <ele>296</ele>
        <time>2014-04-06T06:08:14Z</time>
      </trkpt>
      <trkpt lat="47.46786" lon="6.68014">
        <ele>296</ele>
        <time>2014-04-06T06:08:17Z</time>
      </trkpt>
      <trkpt lat="47.46794" lon="6.68025">
        <ele>296</ele>
        <time>2014-04-06T06:08:19Z</time>
      </trkpt>
      <trkpt lat="47.46807" lon="6.68045">
        <ele>296</ele>
        <time>2014-04-06T06:08:22Z</time>
      </trkpt>
      <trkpt lat="47.46817" lon="6.68055">
        <ele>295</ele>
        <time>2014-04-06T06:08:24Z</time>
      </trkpt>
      <trkpt lat="47.46828" lon="6.68056">
        <ele>295</ele>
        <time>2014-04-06T06:08:26Z</time>
      </trkpt>
      <trkpt lat="47.46837" lon="6.68053">
        <ele>295</ele>
        <time>2014-04-06T06:08:28Z</time>
      </trkpt>
      <trkpt lat="47.46846" lon="6.68048">
        <ele>295</ele>
        <time>2014-04-06T06:08:30Z</time>
      </trkpt>
      <trkpt lat="47.46857" lon="6.68039">
        <ele>295</ele>
        <time>2014-04-06T06:08:33Z</time>
      </trkpt>
      <trkpt lat="47.46865" lon="6.68024">
        <ele>295</ele>
        <time>2014-04-06T06:08:36Z</time>
      </trkpt>
      <trkpt lat="47.46872" lon="6.6801">
        <ele>296</ele>
        <time>2014-04-06T06:08:39Z</time>
      </trkpt>
      <trkpt lat="47.46876" lon="6.68">
        <ele>296</ele>
        <time>2014-04-06T06:08:41Z</time>
      </trkpt>
      <trkpt lat="47.46881" lon="6.67985">
        <ele>297</ele>
        <time>2014-04-06T06:08:44Z</time>
      </trkpt>
      <trkpt lat="47.46888" lon="6.67973">
        <ele>297</ele>
        <time>2014-04-06T06:08:47Z</time>
      </trkpt>
      <trkpt lat="47.46892" lon="6.67963">
        <ele>297</ele>
        <time>2014-04-06T06:08:49Z</time>
      </trkpt>
      <trkpt lat="47.46899" lon="6.67948">
        <ele>297</ele>
        <time>2014-04-06T06:08:52Z</time>
      </trkpt>
      <trkpt lat="47.46902" lon="6.67939">
        <ele>297</ele>
        <time>2014-04-06T06:08:54Z</time>
      </trkpt>
      <trkpt lat="47.46908" lon="6.67925">
        <ele>297</ele>
        <time>2014-04-06T06:08:57Z</time>
      </trkpt>
      <trkpt lat="47.46911" lon="6.67916">
        <ele>297</ele>
        <time>2014-04-06T06:08:59Z</time>
      </trkpt>
      <trkpt lat="47.46917" lon="6.67903">
        <ele>297</ele>
        <time>2014-04-06T06:09:02Z</time>
      </trkpt>
      <trkpt lat="47.46923" lon="6.67888">
        <ele>297</ele>
        <time>2014-04-06T06:09:05Z</time>
      </trkpt>
      <trkpt lat="47.46928" lon="6.67878">
        <ele>297</ele>
        <time>2014-04-06T06:09:07Z</time>
      </trkpt>
      <trkpt lat="47.46936" lon="6.67862">
        <ele>297</ele>
        <time>2014-04-06T06:09:10Z</time>
      </trkpt>
      <trkpt lat="47.46941" lon="6.67851">
        <ele>297</ele>
        <time>2014-04-06T06:09:12Z</time>
      </trkpt>
      <trkpt lat="47.46947" lon="6.67835">
        <ele>297</ele>
        <time>2014-04-06T06:09:15Z</time>
      </trkpt>
      <trkpt lat="47.46951" lon="6.67823">
        <ele>297</ele>
        <time>2014-04-06T06:09:17Z</time>
      </trkpt>
      <trkpt lat="47.46956" lon="6.67806">
        <ele>298</ele>
        <time>2014-04-06T06:09:20Z</time>
      </trkpt>
      <trkpt lat="47.4696" lon="6.67787">
        <ele>298</ele>
        <time>2014-04-06T06:09:23Z</time>
      </trkpt>
      <trkpt lat="47.46964" lon="6.67768">
        <ele>298</ele>
        <time>2014-04-06T06:09:26Z</time>
      </trkpt>
      <trkpt lat="47.4697" lon="6.6775">
        <ele>298</ele>
        <time>2014-04-06T06:09:29Z</time>
      </trkpt>
      <trkpt lat="47.46976" lon="6.6774">
        <ele>298</ele>
        <time>2014-04-06T06:09:31Z</time>
      </trkpt>
      <trkpt lat="47.46984" lon="6.67727">
        <ele>298</ele>
        <time>2014-04-06T06:09:34Z</time>
      </trkpt>
      <trkpt lat="47.4699" lon="6.67718">
        <ele>298</ele>
        <time>2014-04-06T06:09:36Z</time>
      </trkpt>
      <trkpt lat="47.47" lon="6.67708">
        <ele>298</ele>
        <time>2014-04-06T06:09:39Z</time>
      </trkpt>
      <trkpt lat="47.47011" lon="6.67699">
        <ele>297</ele>
        <time>2014-04-06T06:09:42Z</time>
      </trkpt>
      <trkpt lat="47.47018" lon="6.67695">
        <ele>297</ele>
        <time>2014-04-06T06:09:44Z</time>
      </trkpt>
      <trkpt lat="47.47027" lon="6.67683">
        <ele>297</ele>
        <time>2014-04-06T06:09:47Z</time>
      </trkpt>
      <trkpt lat="47.47028" lon="6.67671">
        <ele>296</ele>
        <time>2014-04-06T06:09:49Z</time>
      </trkpt>
      <trkpt lat="47.47024" lon="6.67654">
        <ele>296</ele>
        <time>2014-04-06T06:09:52Z</time>
      </trkpt>
      <trkpt lat="47.47018" lon="6.67634">
        <ele>297</ele>
        <time>2014-04-06T06:09:55Z</time>
      </trkpt>
      <trkpt lat="47.47013" lon="6.67616">
        <ele>297</ele>
        <time>2014-04-06T06:09:58Z</time>
      </trkpt>
      <trkpt lat="47.47009" lon="6.67604">
        <ele>297</ele>
        <time>2014-04-06T06:10:00Z</time>
      </trkpt>
      <trkpt lat="47.47003" lon="6.67587">
        <ele>297</ele>
        <time>2014-04-06T06:10:03Z</time>
      </trkpt>
      <trkpt lat="47.46999" lon="6.67575">
        <ele>297</ele>
        <time>2014-04-06T06:10:05Z</time>
      </trkpt>
      <trkpt lat="47.46991" lon="6.67554">
        <ele>297</ele>
        <time>2014-04-06T06:10:08Z</time>
      </trkpt>
      <trkpt lat="47.46985" lon="6.6754">
        <ele>297</ele>
        <time>2014-04-06T06:10:10Z</time>
      </trkpt>
      <trkpt lat="47.46979" lon="6.67525">
        <ele>297</ele>
        <time>2014-04-06T06:10:12Z</time>
      </trkpt>
      <trkpt lat="47.4697" lon="6.67501">
        <ele>296</ele>
        <time>2014-04-06T06:10:15Z</time>
      </trkpt>
      <trkpt lat="47.46962" lon="6.67474">
        <ele>296</ele>
        <time>2014-04-06T06:10:18Z</time>
      </trkpt>
      <trkpt lat="47.46961" lon="6.67455">
        <ele>295</ele>
        <time>2014-04-06T06:10:20Z</time>
      </trkpt>
      <trkpt lat="47.46962" lon="6.67439">
        <ele>295</ele>
        <time>2014-04-06T06:10:22Z</time>
      </trkpt>
      <trkpt lat="47.46962" lon="6.67423">
        <ele>295</ele>
        <time>2014-04-06T06:10:24Z</time>
      </trkpt>
      <trkpt lat="47.46959" lon="6.67402">
        <ele>295</ele>
        <time>2014-04-06T06:10:27Z</time>
      </trkpt>
      <trkpt lat="47.46956" lon="6.67387">
        <ele>295</ele>
        <time>2014-04-06T06:10:29Z</time>
      </trkpt>
      <trkpt lat="47.46953" lon="6.67373">
        <ele>294</ele>
        <time>2014-04-06T06:10:31Z</time>
      </trkpt>
      <trkpt lat="47.46949" lon="6.6735">
        <ele>294</ele>
        <time>2014-04-06T06:10:34Z</time>
      </trkpt>
      <trkpt lat="47.46946" lon="6.67336">
        <ele>294</ele>
        <time>2014-04-06T06:10:36Z</time>
      </trkpt>
      <trkpt lat="47.46944" lon="6.67321">
        <ele>294</ele>
        <time>2014-04-06T06:10:38Z</time>
      </trkpt>
      <trkpt lat="47.46939" lon="6.67298">
        <ele>294</ele>
        <time>2014-04-06T06:10:41Z</time>
      </trkpt>
      <trkpt lat="47.46936" lon="6.67274">
        <ele>293</ele>
        <time>2014-04-06T06:10:44Z</time>
      </trkpt>
      <trkpt lat="47.46932" lon="6.6725">
        <ele>293</ele>
        <time>2014-04-06T06:10:47Z</time>
      </trkpt>
      <trkpt lat="47.46928" lon="6.67225">
        <ele>292</ele>
        <time>2014-04-06T06:10:50Z</time>
      </trkpt>
      <trkpt lat="47.46924" lon="6.67199">
        <ele>292</ele>
        <time>2014-04-06T06:10:53Z</time>
      </trkpt>
      <trkpt lat="47.4692" lon="6.67171">
        <ele>291</ele>
        <time>2014-04-06T06:10:56Z</time>
      </trkpt>
      <trkpt lat="47.46917" lon="6.67153">
        <ele>291</ele>
        <time>2014-04-06T06:10:58Z</time>
      </trkpt>
      <trkpt lat="47.46915" lon="6.67134">
        <ele>290</ele>
        <time>2014-04-06T06:11:00Z</time>
      </trkpt>
      <trkpt lat="47.46912" lon="6.67114">
        <ele>290</ele>
        <time>2014-04-06T06:11:02Z</time>
      </trkpt>
      <trkpt lat="47.46908" lon="6.67083">
        <ele>289</ele>
        <time>2014-04-06T06:11:05Z</time>
      </trkpt>
      <trkpt lat="47.46904" lon="6.67062">
        <ele>289</ele>
        <time>2014-04-06T06:11:07Z</time>
      </trkpt>
      <trkpt lat="47.469" lon="6.6703">
        <ele>287</ele>
        <time>2014-04-06T06:11:10Z</time>
      </trkpt>
      <trkpt lat="47.46897" lon="6.67008">
        <ele>287</ele>
        <time>2014-04-06T06:11:12Z</time>
      </trkpt>
      <trkpt lat="47.46894" lon="6.66986">
        <ele>286</ele>
        <time>2014-04-06T06:11:14Z</time>
      </trkpt>
      <trkpt lat="47.4689" lon="6.66954">
        <ele>285</ele>
        <time>2014-04-06T06:11:17Z</time>
      </trkpt>
      <trkpt lat="47.46883" lon="6.66924">
        <ele>284</ele>
        <time>2014-04-06T06:11:20Z</time>
      </trkpt>
      <trkpt lat="47.46879" lon="6.66902">
        <ele>284</ele>
        <time>2014-04-06T06:11:23Z</time>
      </trkpt>
      <trkpt lat="47.46877" lon="6.66891">
        <ele>284</ele>
        <time>2014-04-06T06:11:25Z</time>
      </trkpt>
      <trkpt lat="47.46874" lon="6.66882">
        <ele>284</ele>
        <time>2014-04-06T06:11:27Z</time>
      </trkpt>
      <trkpt lat="47.4687" lon="6.66867">
        <ele>284</ele>
        <time>2014-04-06T06:11:30Z</time>
      </trkpt>
      <trkpt lat="47.46865" lon="6.66854">
        <ele>284</ele>
        <time>2014-04-06T06:11:33Z</time>
      </trkpt>
      <trkpt lat="47.46863" lon="6.66846">
        <ele>284</ele>
        <time>2014-04-06T06:11:35Z</time>
      </trkpt>
      <trkpt lat="47.46859" lon="6.66832">
        <ele>283</ele>
        <time>2014-04-06T06:11:38Z</time>
      </trkpt>
      <trkpt lat="47.46856" lon="6.66821">
        <ele>283</ele>
        <time>2014-04-06T06:11:40Z</time>
      </trkpt>
      <trkpt lat="47.46851" lon="6.66805">
        <ele>283</ele>
        <time>2014-04-06T06:11:43Z</time>
      </trkpt>
      <trkpt lat="47.46846" lon="6.66787">
        <ele>283</ele>
        <time>2014-04-06T06:11:46Z</time>
      </trkpt>
      <trkpt lat="47.46841" lon="6.66769">
        <ele>283</ele>
        <time>2014-04-06T06:11:49Z</time>
      </trkpt>
      <trkpt lat="47.46838" lon="6.66756">
        <ele>282</ele>
        <time>2014-04-06T06:11:51Z</time>
      </trkpt>
      <trkpt lat="47.46834" lon="6.66742">
        <ele>282</ele>
        <time>2014-04-06T06:11:53Z</time>
      </trkpt>
      <trkpt lat="47.46827" lon="6.66722">
        <ele>282</ele>
        <time>2014-04-06T06:11:56Z</time>
      </trkpt>
      <trkpt lat="47.46821" lon="6.66708">
        <ele>281</ele>
        <time>2014-04-06T06:11:58Z</time>
      </trkpt>
      <trkpt lat="47.46815" lon="6.66695">
        <ele>281</ele>
        <time>2014-04-06T06:12:00Z</time>
      </trkpt>
      <trkpt lat="47.46803" lon="6.66675">
        <ele>280</ele>
        <time>2014-04-06T06:12:03Z</time>
      </trkpt>
      <trkpt lat="47.46796" lon="6.6666">
        <ele>280</ele>
        <time>2014-04-06T06:12:05Z</time>
      </trkpt>
      <trkpt lat="47.46783" lon="6.66639">
        <ele>279</ele>
        <time>2014-04-06T06:12:08Z</time>
      </trkpt>
      <trkpt lat="47.4677" lon="6.66618">
        <ele>279</ele>
        <time>2014-04-06T06:12:11Z</time>
      </trkpt>
      <trkpt lat="47.46761" lon="6.66604">
        <ele>278</ele>
        <time>2014-04-06T06:12:13Z</time>
      </trkpt>
      <trkpt lat="47.46746" lon="6.66582">
        <ele>278</ele>
        <time>2014-04-06T06:12:16Z</time>
      </trkpt>
      <trkpt lat="47.46737" lon="6.66567">
        <ele>278</ele>
        <time>2014-04-06T06:12:18Z</time>
      </trkpt>
      <trkpt lat="47.46727" lon="6.66548">
        <ele>278</ele>
        <time>2014-04-06T06:12:21Z</time>
      </trkpt>
      <trkpt lat="47.46721" lon="6.66533">
        <ele>277</ele>
        <time>2014-04-06T06:12:24Z</time>
      </trkpt>
      <trkpt lat="47.46717" lon="6.66524">
        <ele>278</ele>
        <time>2014-04-06T06:12:26Z</time>
      </trkpt>
      <trkpt lat="47.4671" lon="6.6651">
        <ele>278</ele>
        <time>2014-04-06T06:12:29Z</time>
      </trkpt>
      <trkpt lat="47.46706" lon="6.66502">
        <ele>278</ele>
        <time>2014-04-06T06:12:31Z</time>
      </trkpt>
      <trkpt lat="47.46699" lon="6.6649">
        <ele>278</ele>
        <time>2014-04-06T06:12:34Z</time>
      </trkpt>
      <trkpt lat="47.46693" lon="6.66476">
        <ele>278</ele>
        <time>2014-04-06T06:12:37Z</time>
      </trkpt>
      <trkpt lat="47.46688" lon="6.66467">
        <ele>278</ele>
        <time>2014-04-06T06:12:39Z</time>
      </trkpt>
      <trkpt lat="47.4668" lon="6.66451">
        <ele>278</ele>
        <time>2014-04-06T06:12:42Z</time>
      </trkpt>
      <trkpt lat="47.46675" lon="6.6644">
        <ele>278</ele>
        <time>2014-04-06T06:12:44Z</time>
      </trkpt>
      <trkpt lat="47.46666" lon="6.66422">
        <ele>278</ele>
        <time>2014-04-06T06:12:47Z</time>
      </trkpt>
      <trkpt lat="47.4666" lon="6.66411">
        <ele>277</ele>
        <time>2014-04-06T06:12:49Z</time>
      </trkpt>
      <trkpt lat="47.46652" lon="6.66393">
        <ele>277</ele>
        <time>2014-04-06T06:12:52Z</time>
      </trkpt>
      <trkpt lat="47.46646" lon="6.66382">
        <ele>276</ele>
        <time>2014-04-06T06:12:54Z</time>
      </trkpt>
      <trkpt lat="47.46636" lon="6.66363">
        <ele>276</ele>
        <time>2014-04-06T06:12:57Z</time>
      </trkpt>
      <trkpt lat="47.46627" lon="6.66342">
        <ele>275</ele>
        <time>2014-04-06T06:13:00Z</time>
      </trkpt>
      <trkpt lat="47.46615" lon="6.6632">
        <ele>275</ele>
        <time>2014-04-06T06:13:03Z</time>
      </trkpt>
      <trkpt lat="47.46603" lon="6.66296">
        <ele>274</ele>
        <time>2014-04-06T06:13:06Z</time>
      </trkpt>
      <trkpt lat="47.46591" lon="6.66275">
        <ele>273</ele>
        <time>2014-04-06T06:13:09Z</time>
      </trkpt>
      <trkpt lat="47.4658" lon="6.66254">
        <ele>272</ele>
        <time>2014-04-06T06:13:12Z</time>
      </trkpt>
      <trkpt lat="47.4657" lon="6.66233">
        <ele>272</ele>
        <time>2014-04-06T06:13:15Z</time>
      </trkpt>
      <trkpt lat="47.46561" lon="6.66213">
        <ele>272</ele>
        <time>2014-04-06T06:13:18Z</time>
      </trkpt>
      <trkpt lat="47.46551" lon="6.66194">
        <ele>272</ele>
        <time>2014-04-06T06:13:21Z</time>
      </trkpt>
      <trkpt lat="47.46542" lon="6.66176">
        <ele>273</ele>
        <time>2014-04-06T06:13:24Z</time>
      </trkpt>
      <trkpt lat="47.46539" lon="6.66163">
        <ele>273</ele>
        <time>2014-04-06T06:13:26Z</time>
      </trkpt>
      <trkpt lat="47.46536" lon="6.66151">
        <ele>273</ele>
        <time>2014-04-06T06:13:28Z</time>
      </trkpt>
      <trkpt lat="47.46534" lon="6.66139">
        <ele>273</ele>
        <time>2014-04-06T06:13:30Z</time>
      </trkpt>
      <trkpt lat="47.46532" lon="6.66126">
        <ele>273</ele>
        <time>2014-04-06T06:13:32Z</time>
      </trkpt>
      <trkpt lat="47.46529" lon="6.66108">
        <ele>274</ele>
        <time>2014-04-06T06:13:35Z</time>
      </trkpt>
      <trkpt lat="47.46526" lon="6.6609">
        <ele>274</ele>
        <time>2014-04-06T06:13:38Z</time>
      </trkpt>
      <trkpt lat="47.46523" lon="6.66078">
        <ele>275</ele>
        <time>2014-04-06T06:13:40Z</time>
      </trkpt>
      <trkpt lat="47.4652" lon="6.66059">
        <ele>276</ele>
        <time>2014-04-06T06:13:43Z</time>
      </trkpt>
      <trkpt lat="47.46517" lon="6.6604">
        <ele>276</ele>
        <time>2014-04-06T06:13:46Z</time>
      </trkpt>
      <trkpt lat="47.46514" lon="6.66027">
        <ele>276</ele>
        <time>2014-04-06T06:13:48Z</time>
      </trkpt>
      <trkpt lat="47.46511" lon="6.66009">
        <ele>276</ele>
        <time>2014-04-06T06:13:51Z</time>
      </trkpt>
      <trkpt lat="47.46508" lon="6.65992">
        <ele>277</ele>
        <time>2014-04-06T06:13:54Z</time>
      </trkpt>
      <trkpt lat="47.46507" lon="6.6598">
        <ele>277</ele>
        <time>2014-04-06T06:13:56Z</time>
      </trkpt>
      <trkpt lat="47.46505" lon="6.65965">
        <ele>277</ele>
        <time>2014-04-06T06:13:59Z</time>
      </trkpt>
      <trkpt lat="47.46503" lon="6.65951">
        <ele>277</ele>
        <time>2014-04-06T06:14:02Z</time>
      </trkpt>
      <trkpt lat="47.46502" lon="6.65943">
        <ele>277</ele>
        <time>2014-04-06T06:14:04Z</time>
      </trkpt>
      <trkpt lat="47.46502" lon="6.6593">
        <ele>277</ele>
        <time>2014-04-06T06:14:07Z</time>
      </trkpt>
      <trkpt lat="47.46501" lon="6.65917">
        <ele>277</ele>
        <time>2014-04-06T06:14:10Z</time>
      </trkpt>
      <trkpt lat="47.46498" lon="6.6591">
        <ele>277</ele>
        <time>2014-04-06T06:14:12Z</time>
      </trkpt>
      <trkpt lat="47.4649" lon="6.65904">
        <ele>276</ele>
        <time>2014-04-06T06:14:15Z</time>
      </trkpt>
      <trkpt lat="47.46479" lon="6.65899">
        <ele>276</ele>
        <time>2014-04-06T06:14:18Z</time>
      </trkpt>
      <trkpt lat="47.46471" lon="6.65895">
        <ele>276</ele>
        <time>2014-04-06T06:14:20Z</time>
      </trkpt>
      <trkpt lat="47.46458" lon="6.65889">
        <ele>275</ele>
        <time>2014-04-06T06:14:23Z</time>
      </trkpt>
      <trkpt lat="47.46445" lon="6.65883">
        <ele>275</ele>
        <time>2014-04-06T06:14:26Z</time>
      </trkpt>
      <trkpt lat="47.46431" lon="6.65877">
        <ele>275</ele>
        <time>2014-04-06T06:14:29Z</time>
      </trkpt>
      <trkpt lat="47.46422" lon="6.65873">
        <ele>275</ele>
        <time>2014-04-06T06:14:31Z</time>
      </trkpt>
      <trkpt lat="47.46408" lon="6.65867">
        <ele>274</ele>
        <time>2014-04-06T06:14:34Z</time>
      </trkpt>
      <trkpt lat="47.46393" lon="6.6586">
        <ele>274</ele>
        <time>2014-04-06T06:14:37Z</time>
      </trkpt>
      <trkpt lat="47.46379" lon="6.65853">
        <ele>274</ele>
        <time>2014-04-06T06:14:40Z</time>
      </trkpt>
      <trkpt lat="47.46365" lon="6.65846">
        <ele>273</ele>
        <time>2014-04-06T06:14:43Z</time>
      </trkpt>
      <trkpt lat="47.46355" lon="6.65842">
        <ele>273</ele>
        <time>2014-04-06T06:14:45Z</time>
      </trkpt>
      <trkpt lat="47.4634" lon="6.65836">
        <ele>273</ele>
        <time>2014-04-06T06:14:48Z</time>
      </trkpt>
      <trkpt lat="47.46325" lon="6.65829">
        <ele>273</ele>
        <time>2014-04-06T06:14:51Z</time>
      </trkpt>
      <trkpt lat="47.46309" lon="6.65821">
        <ele>272</ele>
        <time>2014-04-06T06:14:54Z</time>
      </trkpt>
      <trkpt lat="47.46293" lon="6.65815">
        <ele>272</ele>
        <time>2014-04-06T06:14:57Z</time>
      </trkpt>
      <trkpt lat="47.46283" lon="6.65811">
        <ele>272</ele>
        <time>2014-04-06T06:14:59Z</time>
      </trkpt>
      <trkpt lat="47.46273" lon="6.65808">
        <ele>272</ele>
        <time>2014-04-06T06:15:01Z</time>
      </trkpt>
      <trkpt lat="47.46259" lon="6.65805">
        <ele>271</ele>
        <time>2014-04-06T06:15:04Z</time>
      </trkpt>
      <trkpt lat="47.46241" lon="6.65803">
        <ele>271</ele>
        <time>2014-04-06T06:15:07Z</time>
      </trkpt>
      <trkpt lat="47.4623" lon="6.65802">
        <ele>270</ele>
        <time>2014-04-06T06:15:09Z</time>
      </trkpt>
      <trkpt lat="47.46211" lon="6.65804">
        <ele>270</ele>
        <time>2014-04-06T06:15:12Z</time>
      </trkpt>
      <trkpt lat="47.46198" lon="6.65805">
        <ele>270</ele>
        <time>2014-04-06T06:15:14Z</time>
      </trkpt>
      <trkpt lat="47.46178" lon="6.65804">
        <ele>269</ele>
        <time>2014-04-06T06:15:17Z</time>
      </trkpt>
      <trkpt lat="47.46159" lon="6.65804">
        <ele>269</ele>
        <time>2014-04-06T06:15:20Z</time>
      </trkpt>
      <trkpt lat="47.46141" lon="6.65801">
        <ele>268</ele>
        <time>2014-04-06T06:15:23Z</time>
      </trkpt>
      <trkpt lat="47.46129" lon="6.658">
        <ele>268</ele>
        <time>2014-04-06T06:15:25Z</time>
      </trkpt>
      <trkpt lat="47.46114" lon="6.65798">
        <ele>268</ele>
        <time>2014-04-06T06:15:28Z</time>
      </trkpt>
      <trkpt lat="47.46104" lon="6.65795">
        <ele>269</ele>
        <time>2014-04-06T06:15:30Z</time>
      </trkpt>
      <trkpt lat="47.46095" lon="6.65792">
        <ele>269</ele>
        <time>2014-04-06T06:15:32Z</time>
      </trkpt>
      <trkpt lat="47.46086" lon="6.65788">
        <ele>270</ele>
        <time>2014-04-06T06:15:34Z</time>
      </trkpt>
      <trkpt lat="47.46073" lon="6.65783">
        <ele>270</ele>
        <time>2014-04-06T06:15:37Z</time>
      </trkpt>
      <trkpt lat="47.4606" lon="6.65778">
        <ele>271</ele>
        <time>2014-04-06T06:15:40Z</time>
      </trkpt>
      <trkpt lat="47.46052" lon="6.65775">
        <ele>271</ele>
        <time>2014-04-06T06:15:42Z</time>
      </trkpt>
      <trkpt lat="47.46041" lon="6.65771">
        <ele>272</ele>
        <time>2014-04-06T06:15:45Z</time>
      </trkpt>
      <trkpt lat="47.46033" lon="6.65768">
        <ele>273</ele>
        <time>2014-04-06T06:15:47Z</time>
      </trkpt>
      <trkpt lat="47.46022" lon="6.65764">
        <ele>274</ele>
        <time>2014-04-06T06:15:50Z</time>
      </trkpt>
      <trkpt lat="47.46014" lon="6.65761">
        <ele>274</ele>
        <time>2014-04-06T06:15:52Z</time>
      </trkpt>
      <trkpt lat="47.46003" lon="6.65757">
        <ele>274</ele>
        <time>2014-04-06T06:15:55Z</time>
      </trkpt>
      <trkpt lat="47.45996" lon="6.65754">
        <ele>275</ele>
        <time>2014-04-06T06:15:57Z</time>
      </trkpt>
      <trkpt lat="47.45985" lon="6.65749">
        <ele>275</ele>
        <time>2014-04-06T06:16:00Z</time>
      </trkpt>
      <trkpt lat="47.45978" lon="6.65746">
        <ele>275</ele>
        <time>2014-04-06T06:16:02Z</time>
      </trkpt>
      <trkpt lat="47.45971" lon="6.65743">
        <ele>276</ele>
        <time>2014-04-06T06:16:04Z</time>
      </trkpt>
      <trkpt lat="47.45961" lon="6.65739">
        <ele>276</ele>
        <time>2014-04-06T06:16:07Z</time>
      </trkpt>
      <trkpt lat="47.45954" lon="6.65736">
        <ele>276</ele>
        <time>2014-04-06T06:16:09Z</time>
      </trkpt>
      <trkpt lat="47.45945" lon="6.65731">
        <ele>276</ele>
        <time>2014-04-06T06:16:12Z</time>
      </trkpt>
      <trkpt lat="47.45939" lon="6.65729">
        <ele>276</ele>
        <time>2014-04-06T06:16:14Z</time>
      </trkpt>
      <trkpt lat="47.45932" lon="6.65726">
        <ele>276</ele>
        <time>2014-04-06T06:16:16Z</time>
      </trkpt>
      <trkpt lat="47.45922" lon="6.65725">
        <ele>276</ele>
        <time>2014-04-06T06:16:19Z</time>
      </trkpt>
      <trkpt lat="47.45911" lon="6.65723">
        <ele>276</ele>
        <time>2014-04-06T06:16:22Z</time>
      </trkpt>
      <trkpt lat="47.45902" lon="6.65721">
        <ele>276</ele>
        <time>2014-04-06T06:16:24Z</time>
      </trkpt>
      <trkpt lat="47.45889" lon="6.65719">
        <ele>275</ele>
        <time>2014-04-06T06:16:27Z</time>
      </trkpt>
      <trkpt lat="47.45874" lon="6.65717">
        <ele>275</ele>
        <time>2014-04-06T06:16:30Z</time>
      </trkpt>
      <trkpt lat="47.45859" lon="6.65715">
        <ele>275</ele>
        <time>2014-04-06T06:16:33Z</time>
      </trkpt>
      <trkpt lat="47.45842" lon="6.65711">
        <ele>274</ele>
        <time>2014-04-06T06:16:36Z</time>
      </trkpt>
      <trkpt lat="47.45831" lon="6.6571">
        <ele>274</ele>
        <time>2014-04-06T06:16:38Z</time>
      </trkpt>
      <trkpt lat="47.45819" lon="6.65708">
        <ele>274</ele>
        <time>2014-04-06T06:16:40Z</time>
      </trkpt>
      <trkpt lat="47.45801" lon="6.65704">
        <ele>273</ele>
        <time>2014-04-06T06:16:43Z</time>
      </trkpt>
      <trkpt lat="47.45783" lon="6.65701">
        <ele>272</ele>
        <time>2014-04-06T06:16:46Z</time>
      </trkpt>
      <trkpt lat="47.45765" lon="6.65696">
        <ele>271</ele>
        <time>2014-04-06T06:16:49Z</time>
      </trkpt>
      <trkpt lat="47.45748" lon="6.65691">
        <ele>271</ele>
        <time>2014-04-06T06:16:52Z</time>
      </trkpt>
      <trkpt lat="47.45734" lon="6.6568">
        <ele>270</ele>
        <time>2014-04-06T06:16:55Z</time>
      </trkpt>
      <trkpt lat="47.45726" lon="6.65669">
        <ele>270</ele>
        <time>2014-04-06T06:16:57Z</time>
      </trkpt>
      <trkpt lat="47.45719" lon="6.65658">
        <ele>269</ele>
        <time>2014-04-06T06:16:59Z</time>
      </trkpt>
      <trkpt lat="47.45708" lon="6.65642">
        <ele>269</ele>
        <time>2014-04-06T06:17:02Z</time>
      </trkpt>
      <trkpt lat="47.457" lon="6.65631">
        <ele>268</ele>
        <time>2014-04-06T06:17:04Z</time>
      </trkpt>
      <trkpt lat="47.45688" lon="6.65614">
        <ele>268</ele>
        <time>2014-04-06T06:17:07Z</time>
      </trkpt>
      <trkpt lat="47.45674" lon="6.65595">
        <ele>267</ele>
        <time>2014-04-06T06:17:10Z</time>
      </trkpt>
      <trkpt lat="47.4566" lon="6.65576">
        <ele>266</ele>
        <time>2014-04-06T06:17:13Z</time>
      </trkpt>
      <trkpt lat="47.45645" lon="6.65558">
        <ele>266</ele>
        <time>2014-04-06T06:17:16Z</time>
      </trkpt>
      <trkpt lat="47.45635" lon="6.65549">
        <ele>266</ele>
        <time>2014-04-06T06:17:18Z</time>
      </trkpt>
      <trkpt lat="47.45622" lon="6.65538">
        <ele>266</ele>
        <time>2014-04-06T06:17:21Z</time>
      </trkpt>
      <trkpt lat="47.45614" lon="6.6553">
        <ele>266</ele>
        <time>2014-04-06T06:17:23Z</time>
      </trkpt>
      <trkpt lat="47.45603" lon="6.65518">
        <ele>266</ele>
        <time>2014-04-06T06:17:26Z</time>
      </trkpt>
      <trkpt lat="47.45596" lon="6.65509">
        <ele>266</ele>
        <time>2014-04-06T06:17:28Z</time>
      </trkpt>
      <trkpt lat="47.45588" lon="6.65501">
        <ele>266</ele>
        <time>2014-04-06T06:17:30Z</time>
      </trkpt>
      <trkpt lat="47.45575" lon="6.65486">
        <ele>266</ele>
        <time>2014-04-06T06:17:33Z</time>
      </trkpt>
      <trkpt lat="47.45566" lon="6.65476">
        <ele>266</ele>
        <time>2014-04-06T06:17:35Z</time>
      </trkpt>
      <trkpt lat="47.45558" lon="6.65464">
        <ele>266</ele>
        <time>2014-04-06T06:17:37Z</time>
      </trkpt>
      <trkpt lat="47.45552" lon="6.6545">
        <ele>266</ele>
        <time>2014-04-06T06:17:39Z</time>
      </trkpt>
      <trkpt lat="47.45547" lon="6.65424">
        <ele>266</ele>
        <time>2014-04-06T06:17:42Z</time>
      </trkpt>
      <trkpt lat="47.45546" lon="6.65406">
        <ele>265</ele>
        <time>2014-04-06T06:17:44Z</time>
      </trkpt>
      <trkpt lat="47.45543" lon="6.65378">
        <ele>265</ele>
        <time>2014-04-06T06:17:47Z</time>
      </trkpt>
      <trkpt lat="47.45542" lon="6.65349">
        <ele>264</ele>
        <time>2014-04-06T06:17:50Z</time>
      </trkpt>
      <trkpt lat="47.4554" lon="6.65318">
        <ele>263</ele>
        <time>2014-04-06T06:17:53Z</time>
      </trkpt>
      <trkpt lat="47.45535" lon="6.65288">
        <ele>262</ele>
        <time>2014-04-06T06:17:56Z</time>
      </trkpt>
      <trkpt lat="47.45533" lon="6.65267">
        <ele>261</ele>
        <time>2014-04-06T06:17:58Z</time>
      </trkpt>
      <trkpt lat="47.45531" lon="6.65237">
        <ele>260</ele>
        <time>2014-04-06T06:18:01Z</time>
      </trkpt>
      <trkpt lat="47.4553" lon="6.65218">
        <ele>260</ele>
        <time>2014-04-06T06:18:03Z</time>
      </trkpt>
      <trkpt lat="47.45529" lon="6.65191">
        <ele>259</ele>
        <time>2014-04-06T06:18:06Z</time>
      </trkpt>
      <trkpt lat="47.45527" lon="6.65174">
        <ele>258</ele>
        <time>2014-04-06T06:18:08Z</time>
      </trkpt>
      <trkpt lat="47.45518" lon="6.65159">
        <ele>258</ele>
        <time>2014-04-06T06:18:11Z</time>
      </trkpt>
      <trkpt lat="47.45502" lon="6.65157">
        <ele>258</ele>
        <time>2014-04-06T06:18:14Z</time>
      </trkpt>
      <trkpt lat="47.45491" lon="6.65157">
        <ele>258</ele>
        <time>2014-04-06T06:18:16Z</time>
      </trkpt>
      <trkpt lat="47.45472" lon="6.65154">
        <ele>257</ele>
        <time>2014-04-06T06:18:19Z</time>
      </trkpt>
      <trkpt lat="47.45451" lon="6.65155">
        <ele>257</ele>
        <time>2014-04-06T06:18:22Z</time>
      </trkpt>
      <trkpt lat="47.45429" lon="6.65154">
        <ele>256</ele>
        <time>2014-04-06T06:18:25Z</time>
      </trkpt>
      <trkpt lat="47.45414" lon="6.65154">
        <ele>256</ele>
        <time>2014-04-06T06:18:27Z</time>
      </trkpt>
      <trkpt lat="47.454" lon="6.6515">
        <ele>254</ele>
        <time>2014-04-06T06:18:30Z</time>
      </trkpt>
      <trkpt lat="47.45397" lon="6.65139">
        <ele>253</ele>
        <time>2014-04-06T06:18:32Z</time>
      </trkpt>
      <trkpt lat="47.45397" lon="6.65126">
        <ele>251</ele>
        <time>2014-04-06T06:18:34Z</time>
      </trkpt>
      <trkpt lat="47.45397" lon="6.65113">
        <ele>251</ele>
        <time>2014-04-06T06:18:36Z</time>
      </trkpt>
      <trkpt lat="47.45398" lon="6.65101">
        <ele>250</ele>
        <time>2014-04-06T06:18:38Z</time>
      </trkpt>
      <trkpt lat="47.45398" lon="6.65089">
        <ele>251</ele>
        <time>2014-04-06T06:18:40Z</time>
      </trkpt>
      <trkpt lat="47.45399" lon="6.6507">
        <ele>251</ele>
        <time>2014-04-06T06:18:43Z</time>
      </trkpt>
      <trkpt lat="47.454" lon="6.65058">
        <ele>251</ele>
        <time>2014-04-06T06:18:45Z</time>
      </trkpt>
      <trkpt lat="47.45402" lon="6.65045">
        <ele>251</ele>
        <time>2014-04-06T06:18:47Z</time>
      </trkpt>
      <trkpt lat="47.45404" lon="6.65033">
        <ele>252</ele>
        <time>2014-04-06T06:18:49Z</time>
      </trkpt>
      <trkpt lat="47.45407" lon="6.65015">
        <ele>252</ele>
        <time>2014-04-06T06:18:52Z</time>
      </trkpt>
      <trkpt lat="47.45408" lon="6.65003">
        <ele>253</ele>
        <time>2014-04-06T06:18:54Z</time>
      </trkpt>
      <trkpt lat="47.4541" lon="6.64984">
        <ele>254</ele>
        <time>2014-04-06T06:18:57Z</time>
      </trkpt>
      <trkpt lat="47.45412" lon="6.64971">
        <ele>254</ele>
        <time>2014-04-06T06:18:59Z</time>
      </trkpt>
      <trkpt lat="47.45413" lon="6.64951">
        <ele>254</ele>
        <time>2014-04-06T06:19:02Z</time>
      </trkpt>
      <trkpt lat="47.45414" lon="6.64931">
        <ele>254</ele>
        <time>2014-04-06T06:19:05Z</time>
      </trkpt>
      <trkpt lat="47.45416" lon="6.64909">
        <ele>254</ele>
        <time>2014-04-06T06:19:08Z</time>
      </trkpt>
      <trkpt lat="47.45417" lon="6.64895">
        <ele>253</ele>
        <time>2014-04-06T06:19:10Z</time>
      </trkpt>
      <trkpt lat="47.45418" lon="6.6488">
        <ele>253</ele>
        <time>2014-04-06T06:19:12Z</time>
      </trkpt>
      <trkpt lat="47.45422" lon="6.64857">
        <ele>253</ele>
        <time>2014-04-06T06:19:15Z</time>
      </trkpt>
      <trkpt lat="47.45425" lon="6.64841">
        <ele>253</ele>
        <time>2014-04-06T06:19:17Z</time>
      </trkpt>
      <trkpt lat="47.45433" lon="6.64818">
        <ele>252</ele>
        <time>2014-04-06T06:19:20Z</time>
      </trkpt>
      <trkpt lat="47.45436" lon="6.64803">
        <ele>252</ele>
        <time>2014-04-06T06:19:22Z</time>
      </trkpt>
      <trkpt lat="47.4543" lon="6.64793">
        <ele>251</ele>
        <time>2014-04-06T06:19:24Z</time>
      </trkpt>
      <trkpt lat="47.45419" lon="6.64792">
        <ele>251</ele>
        <time>2014-04-06T06:19:26Z</time>
      </trkpt>
      <trkpt lat="47.454" lon="6.64794">
        <ele>251</ele>
        <time>2014-04-06T06:19:29Z</time>
      </trkpt>
      <trkpt lat="47.45386" lon="6.64797">
        <ele>251</ele>
        <time>2014-04-06T06:19:31Z</time>
      </trkpt>
      <trkpt lat="47.45371" lon="6.64801">
        <ele>250</ele>
        <time>2014-04-06T06:19:33Z</time>
      </trkpt>
      <trkpt lat="47.45358" lon="6.64815">
        <ele>249</ele>
        <time>2014-04-06T06:19:35Z</time>
      </trkpt>
      <trkpt lat="47.45348" lon="6.64836">
        <ele>248</ele>
        <time>2014-04-06T06:19:37Z</time>
      </trkpt>
      <trkpt lat="47.45333" lon="6.64853">
        <ele>247</ele>
        <time>2014-04-06T06:19:39Z</time>
      </trkpt>
      <trkpt lat="47.45311" lon="6.64886">
        <ele>246</ele>
        <time>2014-04-06T06:19:42Z</time>
      </trkpt>
      <trkpt lat="47.45299" lon="6.64912">
        <ele>244</ele>
        <time>2014-04-06T06:19:44Z</time>
      </trkpt>
      <trkpt lat="47.45288" lon="6.64937">
        <ele>239</ele>
        <time>2014-04-06T06:19:47Z</time>
      </trkpt>
      <trkpt lat="47.45283" lon="6.64944">
        <ele>236</ele>
        <time>2014-04-06T06:19:49Z</time>
      </trkpt>
      <trkpt lat="47.45271" lon="6.64949">
        <ele>230</ele>
        <time>2014-04-06T06:19:52Z</time>
      </trkpt>
      <trkpt lat="47.4526" lon="6.6495">
        <ele>228</ele>
        <time>2014-04-06T06:19:54Z</time>
      </trkpt>
      <trkpt lat="47.45243" lon="6.64953">
        <ele>228</ele>
        <time>2014-04-06T06:19:57Z</time>
      </trkpt>
      <trkpt lat="47.45231" lon="6.64956">
        <ele>227</ele>
        <time>2014-04-06T06:19:59Z</time>
      </trkpt>
      <trkpt lat="47.45211" lon="6.64957">
        <ele>226</ele>
        <time>2014-04-06T06:20:02Z</time>
      </trkpt>
      <trkpt lat="47.45192" lon="6.64963">
        <ele>226</ele>
        <time>2014-04-06T06:20:05Z</time>
      </trkpt>
      <trkpt lat="47.4518" lon="6.64967">
        <ele>225</ele>
        <time>2014-04-06T06:20:07Z</time>
      </trkpt>
      <trkpt lat="47.45169" lon="6.64968">
        <ele>225</ele>
        <time>2014-04-06T06:20:09Z</time>
      </trkpt>
      <trkpt lat="47.45156" lon="6.64968">
        <ele>225</ele>
        <time>2014-04-06T06:20:12Z</time>
      </trkpt>
      <trkpt lat="47.45148" lon="6.64969">
        <ele>225</ele>
        <time>2014-04-06T06:20:14Z</time>
      </trkpt>
      <trkpt lat="47.45138" lon="6.64973">
        <ele>225</ele>
        <time>2014-04-06T06:20:17Z</time>
      </trkpt>
      <trkpt lat="47.45126" lon="6.64975">
        <ele>225</ele>
        <time>2014-04-06T06:20:20Z</time>
      </trkpt>
      <trkpt lat="47.45115" lon="6.64977">
        <ele>226</ele>
        <time>2014-04-06T06:20:23Z</time>
      </trkpt>
      <trkpt lat="47.45103" lon="6.64979">
        <ele>225</ele>
        <time>2014-04-06T06:20:26Z</time>
      </trkpt>
      <trkpt lat="47.45094" lon="6.64981">
        <ele>226</ele>
        <time>2014-04-06T06:20:28Z</time>
      </trkpt>
      <trkpt lat="47.4508" lon="6.64984">
        <ele>226</ele>
        <time>2014-04-06T06:20:31Z</time>
      </trkpt>
      <trkpt lat="47.4507" lon="6.64986">
        <ele>226</ele>
        <time>2014-04-06T06:20:33Z</time>
      </trkpt>
      <trkpt lat="47.45059" lon="6.64988">
        <ele>226</ele>
        <time>2014-04-06T06:20:35Z</time>
      </trkpt>
      <trkpt lat="47.45048" lon="6.6499">
        <ele>226</ele>
        <time>2014-04-06T06:20:37Z</time>
      </trkpt>
      <trkpt lat="47.45031" lon="6.64993">
        <ele>226</ele>
        <time>2014-04-06T06:20:40Z</time>
      </trkpt>
      <trkpt lat="47.45014" lon="6.64996">
        <ele>226</ele>
        <time>2014-04-06T06:20:43Z</time>
      </trkpt>
      <trkpt lat="47.44997" lon="6.64999">
        <ele>226</ele>
        <time>2014-04-06T06:20:46Z</time>
      </trkpt>
      <trkpt lat="47.44986" lon="6.65002">
        <ele>226</ele>
        <time>2014-04-06T06:20:48Z</time>
      </trkpt>
      <trkpt lat="47.4497" lon="6.65004">
        <ele>226</ele>
        <time>2014-04-06T06:20:51Z</time>
      </trkpt>
      <trkpt lat="47.44958" lon="6.65004">
        <ele>226</ele>
        <time>2014-04-06T06:20:53Z</time>
      </trkpt>
      <trkpt lat="47.44947" lon="6.65002">
        <ele>226</ele>
        <time>2014-04-06T06:20:55Z</time>
      </trkpt>
      <trkpt lat="47.44928" lon="6.64997">
        <ele>226</ele>
        <time>2014-04-06T06:20:58Z</time>
      </trkpt>
      <trkpt lat="47.44909" lon="6.64991">
        <ele>226</ele>
        <time>2014-04-06T06:21:01Z</time>
      </trkpt>
      <trkpt lat="47.4489" lon="6.64985">
        <ele>226</ele>
        <time>2014-04-06T06:21:04Z</time>
      </trkpt>
      <trkpt lat="47.44872" lon="6.64979">
        <ele>225</ele>
        <time>2014-04-06T06:21:07Z</time>
      </trkpt>
      <trkpt lat="47.44859" lon="6.64976">
        <ele>225</ele>
        <time>2014-04-06T06:21:09Z</time>
      </trkpt>
      <trkpt lat="47.44842" lon="6.64971">
        <ele>225</ele>
        <time>2014-04-06T06:21:12Z</time>
      </trkpt>
      <trkpt lat="47.4483" lon="6.64967">
        <ele>225</ele>
        <time>2014-04-06T06:21:14Z</time>
      </trkpt>
      <trkpt lat="47.44814" lon="6.64961">
        <ele>225</ele>
        <time>2014-04-06T06:21:17Z</time>
      </trkpt>
      <trkpt lat="47.44804" lon="6.6496">
        <ele>226</ele>
        <time>2014-04-06T06:21:19Z</time>
      </trkpt>
      <trkpt lat="47.44791" lon="6.64961">
        <ele>226</ele>
        <time>2014-04-06T06:21:22Z</time>
      </trkpt>
      <trkpt lat="47.44782" lon="6.64962">
        <ele>225</ele>
        <time>2014-04-06T06:21:24Z</time>
      </trkpt>
      <trkpt lat="47.44773" lon="6.64963">
        <ele>225</ele>
        <time>2014-04-06T06:21:26Z</time>
      </trkpt>
      <trkpt lat="47.44764" lon="6.64966">
        <ele>225</ele>
        <time>2014-04-06T06:21:28Z</time>
      </trkpt>
      <trkpt lat="47.44753" lon="6.64968">
        <ele>224</ele>
        <time>2014-04-06T06:21:30Z</time>
      </trkpt>
      <trkpt lat="47.44734" lon="6.64971">
        <ele>224</ele>
        <time>2014-04-06T06:21:33Z</time>
      </trkpt>
      <trkpt lat="47.44716" lon="6.64975">
        <ele>224</ele>
        <time>2014-04-06T06:21:36Z</time>
      </trkpt>
      <trkpt lat="47.44704" lon="6.64978">
        <ele>224</ele>
        <time>2014-04-06T06:21:38Z</time>
      </trkpt>
      <trkpt lat="47.44687" lon="6.64982">
        <ele>224</ele>
        <time>2014-04-06T06:21:41Z</time>
      </trkpt>
      <trkpt lat="47.44676" lon="6.64985">
        <ele>224</ele>
        <time>2014-04-06T06:21:43Z</time>
      </trkpt>
      <trkpt lat="47.44662" lon="6.64996">
        <ele>224</ele>
        <time>2014-04-06T06:21:46Z</time>
      </trkpt>
      <trkpt lat="47.44653" lon="6.6501">
        <ele>224</ele>
        <time>2014-04-06T06:21:49Z</time>
      </trkpt>
      <trkpt lat="47.44642" lon="6.65019">
        <ele>225</ele>
        <time>2014-04-06T06:21:52Z</time>
      </trkpt>
      <trkpt lat="47.44635" lon="6.65016">
        <ele>225</ele>
        <time>2014-04-06T06:21:54Z</time>
      </trkpt>
      <trkpt lat="47.4463" lon="6.65009">
        <ele>225</ele>
        <time>2014-04-06T06:21:56Z</time>
      </trkpt>
      <trkpt lat="47.44621" lon="6.65001">
        <ele>225</ele>
        <time>2014-04-06T06:21:59Z</time>
      </trkpt>
      <trkpt lat="47.44616" lon="6.64995">
        <ele>225</ele>
        <time>2014-04-06T06:22:01Z</time>
      </trkpt>
      <trkpt lat="47.4461" lon="6.64989">
        <ele>226</ele>
        <time>2014-04-06T06:22:03Z</time>
      </trkpt>
      <trkpt lat="47.44603" lon="6.6498">
        <ele>226</ele>
        <time>2014-04-06T06:22:06Z</time>
      </trkpt>
      <trkpt lat="47.44596" lon="6.6497">
        <ele>227</ele>
        <time>2014-04-06T06:22:09Z</time>
      </trkpt>
      <trkpt lat="47.4459" lon="6.64959">
        <ele>228</ele>
        <time>2014-04-06T06:22:12Z</time>
      </trkpt>
      <trkpt lat="47.44586" lon="6.64951">
        <ele>229</ele>
        <time>2014-04-06T06:22:14Z</time>
      </trkpt>
      <trkpt lat="47.44581" lon="6.64938">
        <ele>229</ele>
        <time>2014-04-06T06:22:17Z</time>
      </trkpt>
      <trkpt lat="47.44578" lon="6.64929">
        <ele>230</ele>
        <time>2014-04-06T06:22:19Z</time>
      </trkpt>
      <trkpt lat="47.44576" lon="6.6492">
        <ele>230</ele>
        <time>2014-04-06T06:22:21Z</time>
      </trkpt>
      <trkpt lat="47.44572" lon="6.64906">
        <ele>231</ele>
        <time>2014-04-06T06:22:24Z</time>
      </trkpt>
      <trkpt lat="47.44569" lon="6.64891">
        <ele>232</ele>
        <time>2014-04-06T06:22:27Z</time>
      </trkpt>
      <trkpt lat="47.44566" lon="6.64881">
        <ele>233</ele>
        <time>2014-04-06T06:22:29Z</time>
      </trkpt>
      <trkpt lat="47.44562" lon="6.64866">
        <ele>234</ele>
        <time>2014-04-06T06:22:32Z</time>
      </trkpt>
      <trkpt lat="47.44556" lon="6.64852">
        <ele>235</ele>
        <time>2014-04-06T06:22:35Z</time>
      </trkpt>
      <trkpt lat="47.44552" lon="6.64842">
        <ele>235</ele>
        <time>2014-04-06T06:22:37Z</time>
      </trkpt>
      <trkpt lat="47.44548" lon="6.64832">
        <ele>236</ele>
        <time>2014-04-06T06:22:39Z</time>
      </trkpt>
      <trkpt lat="47.44542" lon="6.64818">
        <ele>237</ele>
        <time>2014-04-06T06:22:42Z</time>
      </trkpt>
      <trkpt lat="47.44538" lon="6.64808">
        <ele>237</ele>
        <time>2014-04-06T06:22:44Z</time>
      </trkpt>
      <trkpt lat="47.44533" lon="6.64793">
        <ele>238</ele>
        <time>2014-04-06T06:22:47Z</time>
      </trkpt>
      <trkpt lat="47.44529" lon="6.64783">
        <ele>238</ele>
        <time>2014-04-06T06:22:49Z</time>
      </trkpt>
      <trkpt lat="47.44524" lon="6.64773">
        <ele>239</ele>
        <time>2014-04-06T06:22:51Z</time>
      </trkpt>
      <trkpt lat="47.44521" lon="6.64762">
        <ele>240</ele>
        <time>2014-04-06T06:22:53Z</time>
      </trkpt>
      <trkpt lat="47.44517" lon="6.6475">
        <ele>240</ele>
        <time>2014-04-06T06:22:55Z</time>
      </trkpt>
      <trkpt lat="47.44514" lon="6.64739">
        <ele>241</ele>
        <time>2014-04-06T06:22:57Z</time>
      </trkpt>
      <trkpt lat="47.44508" lon="6.64721">
        <ele>242</ele>
        <time>2014-04-06T06:23:00Z</time>
      </trkpt>
      <trkpt lat="47.44502" lon="6.64705">
        <ele>243</ele>
        <time>2014-04-06T06:23:03Z</time>
      </trkpt>
      <trkpt lat="47.44497" lon="6.64687">
        <ele>244</ele>
        <time>2014-04-06T06:23:06Z</time>
      </trkpt>
      <trkpt lat="47.44493" lon="6.64676">
        <ele>244</ele>
        <time>2014-04-06T06:23:08Z</time>
      </trkpt>
      <trkpt lat="47.4449" lon="6.64665">
        <ele>245</ele>
        <time>2014-04-06T06:23:10Z</time>
      </trkpt>
      <trkpt lat="47.44487" lon="6.64653">
        <ele>246</ele>
        <time>2014-04-06T06:23:12Z</time>
      </trkpt>
      <trkpt lat="47.44484" lon="6.64635">
        <ele>246</ele>
        <time>2014-04-06T06:23:15Z</time>
      </trkpt>
      <trkpt lat="47.44481" lon="6.64624">
        <ele>247</ele>
        <time>2014-04-06T06:23:17Z</time>
      </trkpt>
      <trkpt lat="47.44479" lon="6.64612">
        <ele>247</ele>
        <time>2014-04-06T06:23:19Z</time>
      </trkpt>
      <trkpt lat="47.44475" lon="6.64596">
        <ele>248</ele>
        <time>2014-04-06T06:23:22Z</time>
      </trkpt>
      <trkpt lat="47.44473" lon="6.64585">
        <ele>249</ele>
        <time>2014-04-06T06:23:24Z</time>
      </trkpt>
      <trkpt lat="47.44469" lon="6.64573">
        <ele>250</ele>
        <time>2014-04-06T06:23:27Z</time>
      </trkpt>
      <trkpt lat="47.44465" lon="6.64567">
        <ele>250</ele>
        <time>2014-04-06T06:23:29Z</time>
      </trkpt>
      <trkpt lat="47.44457" lon="6.64557">
        <ele>251</ele>
        <time>2014-04-06T06:23:32Z</time>
      </trkpt>
      <trkpt lat="47.44447" lon="6.64549">
        <ele>251</ele>
        <time>2014-04-06T06:23:35Z</time>
      </trkpt>
      <trkpt lat="47.44441" lon="6.64548">
        <ele>251</ele>
        <time>2014-04-06T06:23:37Z</time>
      </trkpt>
      <trkpt lat="47.44437" lon="6.64549">
        <ele>251</ele>
        <time>2014-04-06T06:23:39Z</time>
      </trkpt>
      <trkpt lat="47.44433" lon="6.6455">
        <ele>252</ele>
        <time>2014-04-06T06:23:41Z</time>
      </trkpt>
      <trkpt lat="47.4443" lon="6.64552">
        <ele>252</ele>
        <time>2014-04-06T06:23:43Z</time>
      </trkpt>
      <trkpt lat="47.44426" lon="6.64555">
        <ele>252</ele>
        <time>2014-04-06T06:23:46Z</time>
      </trkpt>
      <trkpt lat="47.44424" lon="6.64556">
        <ele>252</ele>
        <time>2014-04-06T06:23:48Z</time>
      </trkpt>
      <trkpt lat="47.44423" lon="6.64556">
        <ele>251</ele>
        <time>2014-04-06T06:23:51Z</time>
      </trkpt>
      <trkpt lat="47.44423" lon="6.64557">
        <ele>251</ele>
        <time>2014-04-06T06:23:53Z</time>
      </trkpt>
      <trkpt lat="47.44422" lon="6.64557">
        <ele>251</ele>
        <time>2014-04-06T06:23:55Z</time>
      </trkpt>
      <trkpt lat="47.44421" lon="6.64557">
        <ele>251</ele>
        <time>2014-04-06T06:23:58Z</time>
      </trkpt>
      <trkpt lat="47.44419" lon="6.64559">
        <ele>251</ele>
        <time>2014-04-06T06:24:01Z</time>
      </trkpt>
      <trkpt lat="47.44416" lon="6.64562">
        <ele>251</ele>
        <time>2014-04-06T06:24:03Z</time>
      </trkpt>
      <trkpt lat="47.44413" lon="6.64564">
        <ele>251</ele>
        <time>2014-04-06T06:24:06Z</time>
      </trkpt>
      <trkpt lat="47.4441" lon="6.64566">
        <ele>251</ele>
        <time>2014-04-06T06:24:08Z</time>
      </trkpt>
      <trkpt lat="47.44407" lon="6.64569">
        <ele>250</ele>
        <time>2014-04-06T06:24:10Z</time>
      </trkpt>
      <trkpt lat="47.444" lon="6.64574">
        <ele>250</ele>
        <time>2014-04-06T06:24:13Z</time>
      </trkpt>
      <trkpt lat="47.44394" lon="6.64579">
        <ele>250</ele>
        <time>2014-04-06T06:24:15Z</time>
      </trkpt>
      <trkpt lat="47.44383" lon="6.64586">
        <ele>250</ele>
        <time>2014-04-06T06:24:18Z</time>
      </trkpt>
      <trkpt lat="47.44375" lon="6.64591">
        <ele>250</ele>
        <time>2014-04-06T06:24:20Z</time>
      </trkpt>
      <trkpt lat="47.44367" lon="6.64596">
        <ele>249</ele>
        <time>2014-04-06T06:24:22Z</time>
      </trkpt>
      <trkpt lat="47.44357" lon="6.646">
        <ele>249</ele>
        <time>2014-04-06T06:24:24Z</time>
      </trkpt>
      <trkpt lat="47.44342" lon="6.64596">
        <ele>248</ele>
        <time>2014-04-06T06:24:27Z</time>
      </trkpt>
      <trkpt lat="47.44328" lon="6.64592">
        <ele>247</ele>
        <time>2014-04-06T06:24:30Z</time>
      </trkpt>
      <trkpt lat="47.44323" lon="6.64598">
        <ele>246</ele>
        <time>2014-04-06T06:24:32Z</time>
      </trkpt>
      <trkpt lat="47.4432" lon="6.64609">
        <ele>245</ele>
        <time>2014-04-06T06:24:34Z</time>
      </trkpt>
      <trkpt lat="47.44317" lon="6.64619">
        <ele>244</ele>
        <time>2014-04-06T06:24:36Z</time>
      </trkpt>
      <trkpt lat="47.44315" lon="6.64629">
        <ele>244</ele>
        <time>2014-04-06T06:24:38Z</time>
      </trkpt>
      <trkpt lat="47.44312" lon="6.64638">
        <ele>244</ele>
        <time>2014-04-06T06:24:40Z</time>
      </trkpt>
      <trkpt lat="47.44307" lon="6.64651">
        <ele>245</ele>
        <time>2014-04-06T06:24:43Z</time>
      </trkpt>
      <trkpt lat="47.44301" lon="6.64663">
        <ele>246</ele>
        <time>2014-04-06T06:24:46Z</time>
      </trkpt>
      <trkpt lat="47.44296" lon="6.64671">
        <ele>246</ele>
        <time>2014-04-06T06:24:48Z</time>
      </trkpt>
      <trkpt lat="47.4429" lon="6.64679">
        <ele>246</ele>
        <time>2014-04-06T06:24:50Z</time>
      </trkpt>
      <trkpt lat="47.44283" lon="6.64691">
        <ele>247</ele>
        <time>2014-04-06T06:24:53Z</time>
      </trkpt>
      <trkpt lat="47.44279" lon="6.64699">
        <ele>248</ele>
        <time>2014-04-06T06:24:55Z</time>
      </trkpt>
      <trkpt lat="47.44275" lon="6.64712">
        <ele>248</ele>
        <time>2014-04-06T06:24:58Z</time>
      </trkpt>
      <trkpt lat="47.44273" lon="6.64721">
        <ele>249</ele>
        <time>2014-04-06T06:25:00Z</time>
      </trkpt>
      <trkpt lat="47.4427" lon="6.64731">
        <ele>249</ele>
        <time>2014-04-06T06:25:02Z</time>
      </trkpt>
      <trkpt lat="47.44269" lon="6.64741">
        <ele>250</ele>
        <time>2014-04-06T06:25:04Z</time>
      </trkpt>
      <trkpt lat="47.44267" lon="6.64755">
        <ele>251</ele>
        <time>2014-04-06T06:25:07Z</time>
      </trkpt>
      <trkpt lat="47.44266" lon="6.64765">
        <ele>251</ele>
        <time>2014-04-06T06:25:09Z</time>
      </trkpt>
      <trkpt lat="47.44265" lon="6.64775">
        <ele>252</ele>
        <time>2014-04-06T06:25:11Z</time>
      </trkpt>
      <trkpt lat="47.44265" lon="6.64784">
        <ele>252</ele>
        <time>2014-04-06T06:25:13Z</time>
      </trkpt>
      <trkpt lat="47.44266" lon="6.64793">
        <ele>252</ele>
        <time>2014-04-06T06:25:15Z</time>
      </trkpt>
      <trkpt lat="47.44268" lon="6.64803">
        <ele>253</ele>
        <time>2014-04-06T06:25:17Z</time>
      </trkpt>
      <trkpt lat="47.4427" lon="6.64817">
        <ele>253</ele>
        <time>2014-04-06T06:25:20Z</time>
      </trkpt>
      <trkpt lat="47.44272" lon="6.6483">
        <ele>254</ele>
        <time>2014-04-06T06:25:23Z</time>
      </trkpt>
      <trkpt lat="47.44273" lon="6.64839">
        <ele>254</ele>
        <time>2014-04-06T06:25:25Z</time>
      </trkpt>
      <trkpt lat="47.44273" lon="6.64853">
        <ele>255</ele>
        <time>2014-04-06T06:25:28Z</time>
      </trkpt>
      <trkpt lat="47.44273" lon="6.64864">
        <ele>256</ele>
        <time>2014-04-06T06:25:31Z</time>
      </trkpt>
      <trkpt lat="47.44272" lon="6.64872">
        <ele>256</ele>
        <time>2014-04-06T06:25:33Z</time>
      </trkpt>
      <trkpt lat="47.4427" lon="6.64884">
        <ele>257</ele>
        <time>2014-04-06T06:25:36Z</time>
      </trkpt>
      <trkpt lat="47.44268" lon="6.64892">
        <ele>257</ele>
        <time>2014-04-06T06:25:38Z</time>
      </trkpt>
      <trkpt lat="47.44265" lon="6.64904">
        <ele>258</ele>
        <time>2014-04-06T06:25:41Z</time>
      </trkpt>
      <trkpt lat="47.44262" lon="6.64912">
        <ele>259</ele>
        <time>2014-04-06T06:25:43Z</time>
      </trkpt>
      <trkpt lat="47.4426" lon="6.64921">
        <ele>259</ele>
        <time>2014-04-06T06:25:45Z</time>
      </trkpt>
      <trkpt lat="47.44258" lon="6.64929">
        <ele>259</ele>
        <time>2014-04-06T06:25:47Z</time>
      </trkpt>
      <trkpt lat="47.44255" lon="6.64941">
        <ele>260</ele>
        <time>2014-04-06T06:25:50Z</time>
      </trkpt>
      <trkpt lat="47.44253" lon="6.6495">
        <ele>260</ele>
        <time>2014-04-06T06:25:52Z</time>
      </trkpt>
      <trkpt lat="47.44251" lon="6.64958">
        <ele>261</ele>
        <time>2014-04-06T06:25:54Z</time>
      </trkpt>
      <trkpt lat="47.44249" lon="6.6497">
        <ele>261</ele>
        <time>2014-04-06T06:25:57Z</time>
      </trkpt>
      <trkpt lat="47.44247" lon="6.64979">
        <ele>261</ele>
        <time>2014-04-06T06:25:59Z</time>
      </trkpt>
      <trkpt lat="47.44244" lon="6.64992">
        <ele>262</ele>
        <time>2014-04-06T06:26:02Z</time>
      </trkpt>
      <trkpt lat="47.44242" lon="6.65004">
        <ele>263</ele>
        <time>2014-04-06T06:26:05Z</time>
      </trkpt>
      <trkpt lat="47.4424" lon="6.65013">
        <ele>263</ele>
        <time>2014-04-06T06:26:07Z</time>
      </trkpt>
      <trkpt lat="47.44237" lon="6.65025">
        <ele>264</ele>
        <time>2014-04-06T06:26:10Z</time>
      </trkpt>
      <trkpt lat="47.44235" lon="6.65033">
        <ele>265</ele>
        <time>2014-04-06T06:26:12Z</time>
      </trkpt>
      <trkpt lat="47.44232" lon="6.65046">
        <ele>265</ele>
        <time>2014-04-06T06:26:15Z</time>
      </trkpt>
      <trkpt lat="47.44229" lon="6.65059">
        <ele>266</ele>
        <time>2014-04-06T06:26:18Z</time>
      </trkpt>
      <trkpt lat="47.44226" lon="6.65071">
        <ele>266</ele>
        <time>2014-04-06T06:26:21Z</time>
      </trkpt>
      <trkpt lat="47.44225" lon="6.6508">
        <ele>267</ele>
        <time>2014-04-06T06:26:23Z</time>
      </trkpt>
      <trkpt lat="47.44221" lon="6.65093">
        <ele>268</ele>
        <time>2014-04-06T06:26:26Z</time>
      </trkpt>
      <trkpt lat="47.44219" lon="6.65106">
        <ele>268</ele>
        <time>2014-04-06T06:26:29Z</time>
      </trkpt>
      <trkpt lat="47.44216" lon="6.65119">
        <ele>269</ele>
        <time>2014-04-06T06:26:32Z</time>
      </trkpt>
      <trkpt lat="47.44213" lon="6.65132">
        <ele>270</ele>
        <time>2014-04-06T06:26:35Z</time>
      </trkpt>
      <trkpt lat="47.44211" lon="6.6514">
        <ele>270</ele>
        <time>2014-04-06T06:26:37Z</time>
      </trkpt>
      <trkpt lat="47.4421" lon="6.65148">
        <ele>270</ele>
        <time>2014-04-06T06:26:39Z</time>
      </trkpt>
      <trkpt lat="47.44209" lon="6.65156">
        <ele>271</ele>
        <time>2014-04-06T06:26:41Z</time>
      </trkpt>
      <trkpt lat="47.44206" lon="6.65168">
        <ele>271</ele>
        <time>2014-04-06T06:26:44Z</time>
      </trkpt>
      <trkpt lat="47.44204" lon="6.65179">
        <ele>272</ele>
        <time>2014-04-06T06:26:47Z</time>
      </trkpt>
      <trkpt lat="47.44203" lon="6.65192">
        <ele>272</ele>
        <time>2014-04-06T06:26:50Z</time>
      </trkpt>
      <trkpt lat="47.44201" lon="6.65204">
        <ele>273</ele>
        <time>2014-04-06T06:26:53Z</time>
      </trkpt>
      <trkpt lat="47.442" lon="6.65216">
        <ele>274</ele>
        <time>2014-04-06T06:26:56Z</time>
      </trkpt>
      <trkpt lat="47.44199" lon="6.65224">
        <ele>274</ele>
        <time>2014-04-06T06:26:58Z</time>
      </trkpt>
      <trkpt lat="47.44197" lon="6.65235">
        <ele>275</ele>
        <time>2014-04-06T06:27:01Z</time>
      </trkpt>
      <trkpt lat="47.44196" lon="6.65243">
        <ele>275</ele>
        <time>2014-04-06T06:27:03Z</time>
      </trkpt>
      <trkpt lat="47.44194" lon="6.65255">
        <ele>276</ele>
        <time>2014-04-06T06:27:06Z</time>
      </trkpt>
      <trkpt lat="47.44193" lon="6.65264">
        <ele>276</ele>
        <time>2014-04-06T06:27:08Z</time>
      </trkpt>
      <trkpt lat="47.44191" lon="6.65275">
        <ele>277</ele>
        <time>2014-04-06T06:27:11Z</time>
      </trkpt>
      <trkpt lat="47.44189" lon="6.65288">
        <ele>277</ele>
        <time>2014-04-06T06:27:14Z</time>
      </trkpt>
      <trkpt lat="47.44187" lon="6.65301">
        <ele>278</ele>
        <time>2014-04-06T06:27:17Z</time>
      </trkpt>
      <trkpt lat="47.44186" lon="6.65309">
        <ele>278</ele>
        <time>2014-04-06T06:27:19Z</time>
      </trkpt>
      <trkpt lat="47.44184" lon="6.65317">
        <ele>279</ele>
        <time>2014-04-06T06:27:21Z</time>
      </trkpt>
      <trkpt lat="47.44182" lon="6.6533">
        <ele>280</ele>
        <time>2014-04-06T06:27:24Z</time>
      </trkpt>
      <trkpt lat="47.44181" lon="6.65342">
        <ele>280</ele>
        <time>2014-04-06T06:27:27Z</time>
      </trkpt>
      <trkpt lat="47.4418" lon="6.65354">
        <ele>281</ele>
        <time>2014-04-06T06:27:30Z</time>
      </trkpt>
      <trkpt lat="47.44178" lon="6.65366">
        <ele>281</ele>
        <time>2014-04-06T06:27:33Z</time>
      </trkpt>
      <trkpt lat="47.44177" lon="6.65375">
        <ele>281</ele>
        <time>2014-04-06T06:27:35Z</time>
      </trkpt>
      <trkpt lat="47.44175" lon="6.65387">
        <ele>282</ele>
        <time>2014-04-06T06:27:38Z</time>
      </trkpt>
      <trkpt lat="47.44173" lon="6.65395">
        <ele>282</ele>
        <time>2014-04-06T06:27:40Z</time>
      </trkpt>
      <trkpt lat="47.4417" lon="6.65404">
        <ele>283</ele>
        <time>2014-04-06T06:27:42Z</time>
      </trkpt>
      <trkpt lat="47.44168" lon="6.65412">
        <ele>283</ele>
        <time>2014-04-06T06:27:44Z</time>
      </trkpt>
      <trkpt lat="47.44166" lon="6.65419">
        <ele>283</ele>
        <time>2014-04-06T06:27:46Z</time>
      </trkpt>
      <trkpt lat="47.44162" lon="6.65431">
        <ele>284</ele>
        <time>2014-04-06T06:27:49Z</time>
      </trkpt>
      <trkpt lat="47.44159" lon="6.65439">
        <ele>285</ele>
        <time>2014-04-06T06:27:51Z</time>
      </trkpt>
      <trkpt lat="47.44156" lon="6.65447">
        <ele>286</ele>
        <time>2014-04-06T06:27:53Z</time>
      </trkpt>
      <trkpt lat="47.44152" lon="6.65459">
        <ele>286</ele>
        <time>2014-04-06T06:27:56Z</time>
      </trkpt>
      <trkpt lat="47.4415" lon="6.65467">
        <ele>287</ele>
        <time>2014-04-06T06:27:58Z</time>
      </trkpt>
      <trkpt lat="47.44146" lon="6.6548">
        <ele>287</ele>
        <time>2014-04-06T06:28:01Z</time>
      </trkpt>
      <trkpt lat="47.44142" lon="6.65492">
        <ele>288</ele>
        <time>2014-04-06T06:28:04Z</time>
      </trkpt>
      <trkpt lat="47.4414" lon="6.65501">
        <ele>288</ele>
        <time>2014-04-06T06:28:06Z</time>
      </trkpt>
      <trkpt lat="47.44137" lon="6.65514">
        <ele>289</ele>
        <time>2014-04-06T06:28:09Z</time>
      </trkpt>
      <trkpt lat="47.44135" lon="6.65522">
        <ele>289</ele>
        <time>2014-04-06T06:28:11Z</time>
      </trkpt>
      <trkpt lat="47.44133" lon="6.65535">
        <ele>290</ele>
        <time>2014-04-06T06:28:14Z</time>
      </trkpt>
      <trkpt lat="47.44133" lon="6.65543">
        <ele>290</ele>
        <time>2014-04-06T06:28:16Z</time>
      </trkpt>
      <trkpt lat="47.44132" lon="6.65556">
        <ele>291</ele>
        <time>2014-04-06T06:28:19Z</time>
      </trkpt>
      <trkpt lat="47.44131" lon="6.65568">
        <ele>291</ele>
        <time>2014-04-06T06:28:22Z</time>
      </trkpt>
      <trkpt lat="47.4413" lon="6.65577">
        <ele>291</ele>
        <time>2014-04-06T06:28:24Z</time>
      </trkpt>
      <trkpt lat="47.44129" lon="6.65586">
        <ele>292</ele>
        <time>2014-04-06T06:28:26Z</time>
      </trkpt>
      <trkpt lat="47.44128" lon="6.65594">
        <ele>292</ele>
        <time>2014-04-06T06:28:28Z</time>
      </trkpt>
      <trkpt lat="47.44126" lon="6.65607">
        <ele>293</ele>
        <time>2014-04-06T06:28:31Z</time>
      </trkpt>
      <trkpt lat="47.44125" lon="6.6562">
        <ele>294</ele>
        <time>2014-04-06T06:28:34Z</time>
      </trkpt>
      <trkpt lat="47.44123" lon="6.65628">
        <ele>294</ele>
        <time>2014-04-06T06:28:36Z</time>
      </trkpt>
      <trkpt lat="47.44123" lon="6.65637">
        <ele>294</ele>
        <time>2014-04-06T06:28:38Z</time>
      </trkpt>
      <trkpt lat="47.44122" lon="6.65646">
        <ele>294</ele>
        <time>2014-04-06T06:28:40Z</time>
      </trkpt>
      <trkpt lat="47.4412" lon="6.65659">
        <ele>294</ele>
        <time>2014-04-06T06:28:43Z</time>
      </trkpt>
      <trkpt lat="47.44119" lon="6.65667">
        <ele>295</ele>
        <time>2014-04-06T06:28:45Z</time>
      </trkpt>
      <trkpt lat="47.44117" lon="6.6568">
        <ele>295</ele>
        <time>2014-04-06T06:28:48Z</time>
      </trkpt>
      <trkpt lat="47.44115" lon="6.65694">
        <ele>296</ele>
        <time>2014-04-06T06:28:51Z</time>
      </trkpt>
      <trkpt lat="47.44114" lon="6.65703">
        <ele>296</ele>
        <time>2014-04-06T06:28:53Z</time>
      </trkpt>
      <trkpt lat="47.44112" lon="6.65716">
        <ele>297</ele>
        <time>2014-04-06T06:28:56Z</time>
      </trkpt>
      <trkpt lat="47.4411" lon="6.65725">
        <ele>297</ele>
        <time>2014-04-06T06:28:58Z</time>
      </trkpt>
      <trkpt lat="47.44109" lon="6.65738">
        <ele>298</ele>
        <time>2014-04-06T06:29:01Z</time>
      </trkpt>
      <trkpt lat="47.44108" lon="6.65747">
        <ele>298</ele>
        <time>2014-04-06T06:29:03Z</time>
      </trkpt>
      <trkpt lat="47.44106" lon="6.65761">
        <ele>299</ele>
        <time>2014-04-06T06:29:06Z</time>
      </trkpt>
      <trkpt lat="47.44104" lon="6.6577">
        <ele>299</ele>
        <time>2014-04-06T06:29:08Z</time>
      </trkpt>
      <trkpt lat="47.44102" lon="6.65783">
        <ele>299</ele>
        <time>2014-04-06T06:29:11Z</time>
      </trkpt>
      <trkpt lat="47.44101" lon="6.65792">
        <ele>300</ele>
        <time>2014-04-06T06:29:13Z</time>
      </trkpt>
      <trkpt lat="47.441" lon="6.65801">
        <ele>301</ele>
        <time>2014-04-06T06:29:15Z</time>
      </trkpt>
      <trkpt lat="47.44099" lon="6.65815">
        <ele>301</ele>
        <time>2014-04-06T06:29:18Z</time>
      </trkpt>
      <trkpt lat="47.44097" lon="6.65828">
        <ele>302</ele>
        <time>2014-04-06T06:29:21Z</time>
      </trkpt>
      <trkpt lat="47.44096" lon="6.65841">
        <ele>303</ele>
        <time>2014-04-06T06:29:24Z</time>
      </trkpt>
      <trkpt lat="47.44093" lon="6.65855">
        <ele>303</ele>
        <time>2014-04-06T06:29:27Z</time>
      </trkpt>
      <trkpt lat="47.44091" lon="6.65868">
        <ele>304</ele>
        <time>2014-04-06T06:29:30Z</time>
      </trkpt>
      <trkpt lat="47.44089" lon="6.65877">
        <ele>304</ele>
        <time>2014-04-06T06:29:32Z</time>
      </trkpt>
      <trkpt lat="47.44085" lon="6.6589">
        <ele>305</ele>
        <time>2014-04-06T06:29:35Z</time>
      </trkpt>
      <trkpt lat="47.44083" lon="6.65898">
        <ele>305</ele>
        <time>2014-04-06T06:29:37Z</time>
      </trkpt>
      <trkpt lat="47.4408" lon="6.65907">
        <ele>306</ele>
        <time>2014-04-06T06:29:39Z</time>
      </trkpt>
      <trkpt lat="47.44078" lon="6.65915">
        <ele>306</ele>
        <time>2014-04-06T06:29:41Z</time>
      </trkpt>
      <trkpt lat="47.44074" lon="6.65927">
        <ele>307</ele>
        <time>2014-04-06T06:29:44Z</time>
      </trkpt>
      <trkpt lat="47.44072" lon="6.65938">
        <ele>307</ele>
        <time>2014-04-06T06:29:47Z</time>
      </trkpt>
      <trkpt lat="47.4407" lon="6.65949">
        <ele>307</ele>
        <time>2014-04-06T06:29:50Z</time>
      </trkpt>
      <trkpt lat="47.44068" lon="6.6596">
        <ele>308</ele>
        <time>2014-04-06T06:29:53Z</time>
      </trkpt>
      <trkpt lat="47.44067" lon="6.6597">
        <ele>308</ele>
        <time>2014-04-06T06:29:56Z</time>
      </trkpt>
      <trkpt lat="47.44066" lon="6.65979">
        <ele>309</ele>
        <time>2014-04-06T06:29:59Z</time>
      </trkpt>
      <trkpt lat="47.44065" lon="6.65986">
        <ele>309</ele>
        <time>2014-04-06T06:30:01Z</time>
      </trkpt>
      <trkpt lat="47.44065" lon="6.65992">
        <ele>309</ele>
        <time>2014-04-06T06:30:03Z</time>
      </trkpt>
      <trkpt lat="47.44064" lon="6.66">
        <ele>309</ele>
        <time>2014-04-06T06:30:06Z</time>
      </trkpt>
      <trkpt lat="47.44063" lon="6.66009">
        <ele>310</ele>
        <time>2014-04-06T06:30:09Z</time>
      </trkpt>
      <trkpt lat="47.44062" lon="6.66014">
        <ele>310</ele>
        <time>2014-04-06T06:30:11Z</time>
      </trkpt>
      <trkpt lat="47.44061" lon="6.66022">
        <ele>311</ele>
        <time>2014-04-06T06:30:14Z</time>
      </trkpt>
      <trkpt lat="47.4406" lon="6.66031">
        <ele>311</ele>
        <time>2014-04-06T06:30:17Z</time>
      </trkpt>
      <trkpt lat="47.44058" lon="6.6604">
        <ele>311</ele>
        <time>2014-04-06T06:30:20Z</time>
      </trkpt>
      <trkpt lat="47.44056" lon="6.66048">
        <ele>311</ele>
        <time>2014-04-06T06:30:23Z</time>
      </trkpt>
      <trkpt lat="47.44055" lon="6.66056">
        <ele>312</ele>
        <time>2014-04-06T06:30:26Z</time>
      </trkpt>
      <trkpt lat="47.44054" lon="6.66065">
        <ele>312</ele>
        <time>2014-04-06T06:30:29Z</time>
      </trkpt>
      <trkpt lat="47.44053" lon="6.6607">
        <ele>313</ele>
        <time>2014-04-06T06:30:31Z</time>
      </trkpt>
      <trkpt lat="47.44052" lon="6.66079">
        <ele>313</ele>
        <time>2014-04-06T06:30:34Z</time>
      </trkpt>
      <trkpt lat="47.44051" lon="6.66084">
        <ele>313</ele>
        <time>2014-04-06T06:30:36Z</time>
      </trkpt>
      <trkpt lat="47.4405" lon="6.66093">
        <ele>313</ele>
        <time>2014-04-06T06:30:39Z</time>
      </trkpt>
      <trkpt lat="47.44049" lon="6.66102">
        <ele>313</ele>
        <time>2014-04-06T06:30:42Z</time>
      </trkpt>
      <trkpt lat="47.44048" lon="6.66111">
        <ele>313</ele>
        <time>2014-04-06T06:30:45Z</time>
      </trkpt>
      <trkpt lat="47.44046" lon="6.66117">
        <ele>313</ele>
        <time>2014-04-06T06:30:47Z</time>
      </trkpt>
      <trkpt lat="47.44044" lon="6.66126">
        <ele>313</ele>
        <time>2014-04-06T06:30:50Z</time>
      </trkpt>
      <trkpt lat="47.44042" lon="6.66135">
        <ele>313</ele>
        <time>2014-04-06T06:30:53Z</time>
      </trkpt>
      <trkpt lat="47.4404" lon="6.66142">
        <ele>314</ele>
        <time>2014-04-06T06:30:55Z</time>
      </trkpt>
      <trkpt lat="47.44037" lon="6.6615">
        <ele>314</ele>
        <time>2014-04-06T06:30:58Z</time>
      </trkpt>
      <trkpt lat="47.44034" lon="6.66159">
        <ele>314</ele>
        <time>2014-04-06T06:31:01Z</time>
      </trkpt>
      <trkpt lat="47.44031" lon="6.66168">
        <ele>314</ele>
        <time>2014-04-06T06:31:04Z</time>
      </trkpt>
      <trkpt lat="47.44029" lon="6.66174">
        <ele>314</ele>
        <time>2014-04-06T06:31:06Z</time>
      </trkpt>
      <trkpt lat="47.44027" lon="6.66181">
        <ele>314</ele>
        <time>2014-04-06T06:31:08Z</time>
      </trkpt>
      <trkpt lat="47.44023" lon="6.66188">
        <ele>314</ele>
        <time>2014-04-06T06:31:10Z</time>
      </trkpt>
      <trkpt lat="47.4402" lon="6.66196">
        <ele>314</ele>
        <time>2014-04-06T06:31:12Z</time>
      </trkpt>
      <trkpt lat="47.44016" lon="6.66208">
        <ele>314</ele>
        <time>2014-04-06T06:31:15Z</time>
      </trkpt>
      <trkpt lat="47.44012" lon="6.66217">
        <ele>314</ele>
        <time>2014-04-06T06:31:17Z</time>
      </trkpt>
      <trkpt lat="47.44009" lon="6.66225">
        <ele>315</ele>
        <time>2014-04-06T06:31:19Z</time>
      </trkpt>
      <trkpt lat="47.44006" lon="6.66238">
        <ele>315</ele>
        <time>2014-04-06T06:31:22Z</time>
      </trkpt>
      <trkpt lat="47.44003" lon="6.66252">
        <ele>315</ele>
        <time>2014-04-06T06:31:25Z</time>
      </trkpt>
      <trkpt lat="47.44001" lon="6.66266">
        <ele>315</ele>
        <time>2014-04-06T06:31:28Z</time>
      </trkpt>
      <trkpt lat="47.43999" lon="6.66276">
        <ele>315</ele>
        <time>2014-04-06T06:31:30Z</time>
      </trkpt>
      <trkpt lat="47.43996" lon="6.66291">
        <ele>315</ele>
        <time>2014-04-06T06:31:33Z</time>
      </trkpt>
      <trkpt lat="47.43994" lon="6.66306">
        <ele>316</ele>
        <time>2014-04-06T06:31:36Z</time>
      </trkpt>
      <trkpt lat="47.43991" lon="6.66321">
        <ele>316</ele>
        <time>2014-04-06T06:31:39Z</time>
      </trkpt>
      <trkpt lat="47.43988" lon="6.66336">
        <ele>316</ele>
        <time>2014-04-06T06:31:42Z</time>
      </trkpt>
      <trkpt lat="47.43985" lon="6.66346">
        <ele>316</ele>
        <time>2014-04-06T06:31:44Z</time>
      </trkpt>
      <trkpt lat="47.43981" lon="6.66353">
        <ele>316</ele>
        <time>2014-04-06T06:31:46Z</time>
      </trkpt>
      <trkpt lat="47.43977" lon="6.66359">
        <ele>316</ele>
        <time>2014-04-06T06:31:48Z</time>
      </trkpt>
      <trkpt lat="47.43971" lon="6.66365">
        <ele>317</ele>
        <time>2014-04-06T06:31:51Z</time>
      </trkpt>
      <trkpt lat="47.43967" lon="6.66368">
        <ele>317</ele>
        <time>2014-04-06T06:31:53Z</time>
      </trkpt>
      <trkpt lat="47.43963" lon="6.66372">
        <ele>318</ele>
        <time>2014-04-06T06:31:55Z</time>
      </trkpt>
      <trkpt lat="47.43956" lon="6.66378">
        <ele>318</ele>
        <time>2014-04-06T06:31:58Z</time>
      </trkpt>
      <trkpt lat="47.4395" lon="6.66385">
        <ele>319</ele>
        <time>2014-04-06T06:32:01Z</time>
      </trkpt>
      <trkpt lat="47.43944" lon="6.66393">
        <ele>319</ele>
        <time>2014-04-06T06:32:04Z</time>
      </trkpt>
      <trkpt lat="47.43939" lon="6.66399">
        <ele>319</ele>
        <time>2014-04-06T06:32:07Z</time>
      </trkpt>
      <trkpt lat="47.43935" lon="6.66404">
        <ele>320</ele>
        <time>2014-04-06T06:32:09Z</time>
      </trkpt>
      <trkpt lat="47.43929" lon="6.66411">
        <ele>321</ele>
        <time>2014-04-06T06:32:12Z</time>
      </trkpt>
      <trkpt lat="47.43923" lon="6.66418">
        <ele>321</ele>
        <time>2014-04-06T06:32:15Z</time>
      </trkpt>
      <trkpt lat="47.43919" lon="6.66426">
        <ele>322</ele>
        <time>2014-04-06T06:32:18Z</time>
      </trkpt>
      <trkpt lat="47.43915" lon="6.66433">
        <ele>322</ele>
        <time>2014-04-06T06:32:20Z</time>
      </trkpt>
      <trkpt lat="47.43913" lon="6.6644">
        <ele>323</ele>
        <time>2014-04-06T06:32:22Z</time>
      </trkpt>
      <trkpt lat="47.4391" lon="6.66449">
        <ele>323</ele>
        <time>2014-04-06T06:32:24Z</time>
      </trkpt>
      <trkpt lat="47.43908" lon="6.66457">
        <ele>323</ele>
        <time>2014-04-06T06:32:26Z</time>
      </trkpt>
      <trkpt lat="47.43905" lon="6.66469">
        <ele>324</ele>
        <time>2014-04-06T06:32:29Z</time>
      </trkpt>
      <trkpt lat="47.43902" lon="6.66476">
        <ele>324</ele>
        <time>2014-04-06T06:32:31Z</time>
      </trkpt>
      <trkpt lat="47.43897" lon="6.66487">
        <ele>324</ele>
        <time>2014-04-06T06:32:34Z</time>
      </trkpt>
      <trkpt lat="47.43893" lon="6.66499">
        <ele>324</ele>
        <time>2014-04-06T06:32:37Z</time>
      </trkpt>
      <trkpt lat="47.43891" lon="6.66506">
        <ele>325</ele>
        <time>2014-04-06T06:32:39Z</time>
      </trkpt>
      <trkpt lat="47.43886" lon="6.66517">
        <ele>326</ele>
        <time>2014-04-06T06:32:42Z</time>
      </trkpt>
      <trkpt lat="47.43881" lon="6.66529">
        <ele>326</ele>
        <time>2014-04-06T06:32:45Z</time>
      </trkpt>
      <trkpt lat="47.43877" lon="6.66538">
        <ele>326</ele>
        <time>2014-04-06T06:32:48Z</time>
      </trkpt>
      <trkpt lat="47.43873" lon="6.66543">
        <ele>327</ele>
        <time>2014-04-06T06:32:50Z</time>
      </trkpt>
      <trkpt lat="47.43868" lon="6.66553">
        <ele>327</ele>
        <time>2014-04-06T06:32:53Z</time>
      </trkpt>
      <trkpt lat="47.43863" lon="6.66564">
        <ele>327</ele>
        <time>2014-04-06T06:32:56Z</time>
      </trkpt>
      <trkpt lat="47.43859" lon="6.66572">
        <ele>327</ele>
        <time>2014-04-06T06:32:59Z</time>
      </trkpt>
      <trkpt lat="47.43855" lon="6.66581">
        <ele>327</ele>
        <time>2014-04-06T06:33:02Z</time>
      </trkpt>
      <trkpt lat="47.43851" lon="6.66588">
        <ele>328</ele>
        <time>2014-04-06T06:33:04Z</time>
      </trkpt>
      <trkpt lat="47.43846" lon="6.66599">
        <ele>328</ele>
        <time>2014-04-06T06:33:07Z</time>
      </trkpt>
      <trkpt lat="47.43842" lon="6.66611">
        <ele>328</ele>
        <time>2014-04-06T06:33:10Z</time>
      </trkpt>
      <trkpt lat="47.43838" lon="6.66623">
        <ele>327</ele>
        <time>2014-04-06T06:33:13Z</time>
      </trkpt>
      <trkpt lat="47.43836" lon="6.66631">
        <ele>328</ele>
        <time>2014-04-06T06:33:15Z</time>
      </trkpt>
      <trkpt lat="47.43834" lon="6.6664">
        <ele>327</ele>
        <time>2014-04-06T06:33:17Z</time>
      </trkpt>
      <trkpt lat="47.43832" lon="6.66647">
        <ele>327</ele>
        <time>2014-04-06T06:33:19Z</time>
      </trkpt>
      <trkpt lat="47.43829" lon="6.66654">
        <ele>327</ele>
        <time>2014-04-06T06:33:21Z</time>
      </trkpt>
      <trkpt lat="47.43821" lon="6.66666">
        <ele>327</ele>
        <time>2014-04-06T06:33:24Z</time>
      </trkpt>
      <trkpt lat="47.43817" lon="6.66676">
        <ele>326</ele>
        <time>2014-04-06T06:33:26Z</time>
      </trkpt>
      <trkpt lat="47.43809" lon="6.66691">
        <ele>326</ele>
        <time>2014-04-06T06:33:29Z</time>
      </trkpt>
      <trkpt lat="47.43803" lon="6.66709">
        <ele>326</ele>
        <time>2014-04-06T06:33:32Z</time>
      </trkpt>
      <trkpt lat="47.43797" lon="6.66722">
        <ele>325</ele>
        <time>2014-04-06T06:33:34Z</time>
      </trkpt>
      <trkpt lat="47.43792" lon="6.66735">
        <ele>326</ele>
        <time>2014-04-06T06:33:36Z</time>
      </trkpt>
      <trkpt lat="47.43788" lon="6.66746">
        <ele>325</ele>
        <time>2014-04-06T06:33:38Z</time>
      </trkpt>
      <trkpt lat="47.43781" lon="6.66761">
        <ele>325</ele>
        <time>2014-04-06T06:33:41Z</time>
      </trkpt>
      <trkpt lat="47.43768" lon="6.66765">
        <ele>325</ele>
        <time>2014-04-06T06:33:44Z</time>
      </trkpt>
      <trkpt lat="47.43758" lon="6.66762">
        <ele>325</ele>
        <time>2014-04-06T06:33:46Z</time>
      </trkpt>
      <trkpt lat="47.43748" lon="6.66758">
        <ele>325</ele>
        <time>2014-04-06T06:33:48Z</time>
      </trkpt>
      <trkpt lat="47.43736" lon="6.66754">
        <ele>324</ele>
        <time>2014-04-06T06:33:50Z</time>
      </trkpt>
      <trkpt lat="47.43724" lon="6.66751">
        <ele>324</ele>
        <time>2014-04-06T06:33:52Z</time>
      </trkpt>
      <trkpt lat="47.43713" lon="6.66746">
        <ele>323</ele>
        <time>2014-04-06T06:33:54Z</time>
      </trkpt>
      <trkpt lat="47.43697" lon="6.66737">
        <ele>322</ele>
        <time>2014-04-06T06:33:57Z</time>
      </trkpt>
      <trkpt lat="47.43686" lon="6.66731">
        <ele>322</ele>
        <time>2014-04-06T06:33:59Z</time>
      </trkpt>
      <trkpt lat="47.4367" lon="6.66725">
        <ele>322</ele>
        <time>2014-04-06T06:34:02Z</time>
      </trkpt>
      <trkpt lat="47.43653" lon="6.66718">
        <ele>321</ele>
        <time>2014-04-06T06:34:05Z</time>
      </trkpt>
      <trkpt lat="47.43638" lon="6.66711">
        <ele>320</ele>
        <time>2014-04-06T06:34:08Z</time>
      </trkpt>
      <trkpt lat="47.43624" lon="6.66702">
        <ele>320</ele>
        <time>2014-04-06T06:34:11Z</time>
      </trkpt>
      <trkpt lat="47.43612" lon="6.66693">
        <ele>319</ele>
        <time>2014-04-06T06:34:14Z</time>
      </trkpt>
      <trkpt lat="47.43607" lon="6.66683">
        <ele>319</ele>
        <time>2014-04-06T06:34:16Z</time>
      </trkpt>
      <trkpt lat="47.43601" lon="6.66672">
        <ele>319</ele>
        <time>2014-04-06T06:34:18Z</time>
      </trkpt>
      <trkpt lat="47.43594" lon="6.6666">
        <ele>319</ele>
        <time>2014-04-06T06:34:21Z</time>
      </trkpt>
      <trkpt lat="47.43587" lon="6.66654">
        <ele>319</ele>
        <time>2014-04-06T06:34:24Z</time>
      </trkpt>
      <trkpt lat="47.43583" lon="6.66652">
        <ele>318</ele>
        <time>2014-04-06T06:34:26Z</time>
      </trkpt>
      <trkpt lat="47.43577" lon="6.6665">
        <ele>318</ele>
        <time>2014-04-06T06:34:28Z</time>
      </trkpt>
      <trkpt lat="47.43572" lon="6.66647">
        <ele>318</ele>
        <time>2014-04-06T06:34:30Z</time>
      </trkpt>
      <trkpt lat="47.43563" lon="6.66643">
        <ele>319</ele>
        <time>2014-04-06T06:34:33Z</time>
      </trkpt>
      <trkpt lat="47.43557" lon="6.66641">
        <ele>319</ele>
        <time>2014-04-06T06:34:35Z</time>
      </trkpt>
      <trkpt lat="47.43552" lon="6.66639">
        <ele>320</ele>
        <time>2014-04-06T06:34:37Z</time>
      </trkpt>
      <trkpt lat="47.43546" lon="6.66636">
        <ele>320</ele>
        <time>2014-04-06T06:34:39Z</time>
      </trkpt>
      <trkpt lat="47.43536" lon="6.6663">
        <ele>320</ele>
        <time>2014-04-06T06:34:42Z</time>
      </trkpt>
      <trkpt lat="47.43529" lon="6.66626">
        <ele>320</ele>
        <time>2014-04-06T06:34:44Z</time>
      </trkpt>
      <trkpt lat="47.43522" lon="6.66623">
        <ele>320</ele>
        <time>2014-04-06T06:34:46Z</time>
      </trkpt>
      <trkpt lat="47.43515" lon="6.66621">
        <ele>320</ele>
        <time>2014-04-06T06:34:48Z</time>
      </trkpt>
      <trkpt lat="47.43509" lon="6.66617">
        <ele>320</ele>
        <time>2014-04-06T06:34:50Z</time>
      </trkpt>
      <trkpt lat="47.43501" lon="6.66612">
        <ele>320</ele>
        <time>2014-04-06T06:34:53Z</time>
      </trkpt>
      <trkpt lat="47.4349" lon="6.66609">
        <ele>320</ele>
        <time>2014-04-06T06:34:56Z</time>
      </trkpt>
      <trkpt lat="47.43483" lon="6.66606">
        <ele>320</ele>
        <time>2014-04-06T06:34:59Z</time>
      </trkpt>
      <trkpt lat="47.43482" lon="6.66599">
        <ele>319</ele>
        <time>2014-04-06T06:35:01Z</time>
      </trkpt>
      <trkpt lat="47.43484" lon="6.66592">
        <ele>319</ele>
        <time>2014-04-06T06:35:04Z</time>
      </trkpt>
      <trkpt lat="47.43489" lon="6.66579">
        <ele>319</ele>
        <time>2014-04-06T06:35:07Z</time>
      </trkpt>
      <trkpt lat="47.43492" lon="6.66572">
        <ele>318</ele>
        <time>2014-04-06T06:35:09Z</time>
      </trkpt>
      <trkpt lat="47.43491" lon="6.66567">
        <ele>318</ele>
        <time>2014-04-06T06:35:12Z</time>
      </trkpt>
      <trkpt lat="47.43487" lon="6.66564">
        <ele>317</ele>
        <time>2014-04-06T06:35:14Z</time>
      </trkpt>
      <trkpt lat="47.43483" lon="6.66558">
        <ele>317</ele>
        <time>2014-04-06T06:35:16Z</time>
      </trkpt>
      <trkpt lat="47.43479" lon="6.66552">
        <ele>316</ele>
        <time>2014-04-06T06:35:19Z</time>
      </trkpt>
      <trkpt lat="47.43478" lon="6.6655">
        <ele>316</ele>
        <time>2014-04-06T06:35:21Z</time>
      </trkpt>
      <trkpt lat="47.43476" lon="6.66549">
        <ele>315</ele>
        <time>2014-04-06T06:35:23Z</time>
      </trkpt>
      <trkpt lat="47.43475" lon="6.66547">
        <ele>315</ele>
        <time>2014-04-06T06:35:26Z</time>
      </trkpt>
      <trkpt lat="47.43473" lon="6.66545">
        <ele>315</ele>
        <time>2014-04-06T06:35:29Z</time>
      </trkpt>
      <trkpt lat="47.43472" lon="6.66544">
        <ele>315</ele>
        <time>2014-04-06T06:35:31Z</time>
      </trkpt>
      <trkpt lat="47.43471" lon="6.66544">
        <ele>315</ele>
        <time>2014-04-06T06:35:33Z</time>
      </trkpt>
      <trkpt lat="47.43469" lon="6.66543">
        <ele>315</ele>
        <time>2014-04-06T06:35:36Z</time>
      </trkpt>
      <trkpt lat="47.43468" lon="6.66542">
        <ele>315</ele>
        <time>2014-04-06T06:35:39Z</time>
      </trkpt>
      <trkpt lat="47.43467" lon="6.66542">
        <ele>315</ele>
        <time>2014-04-06T06:35:42Z</time>
      </trkpt>
      <trkpt lat="47.43466" lon="6.66541">
        <ele>315</ele>
        <time>2014-04-06T06:35:45Z</time>
      </trkpt>
      <trkpt lat="47.43464" lon="6.66538">
        <ele>315</ele>
        <time>2014-04-06T06:35:47Z</time>
      </trkpt>
      <trkpt lat="47.43462" lon="6.66533">
        <ele>314</ele>
        <time>2014-04-06T06:35:49Z</time>
      </trkpt>
      <trkpt lat="47.43458" lon="6.66517">
        <ele>314</ele>
        <time>2014-04-06T06:35:52Z</time>
      </trkpt>
      <trkpt lat="47.43451" lon="6.665">
        <ele>311</ele>
        <time>2014-04-06T06:35:55Z</time>
      </trkpt>
      <trkpt lat="47.43441" lon="6.66488">
        <ele>309</ele>
        <time>2014-04-06T06:35:58Z</time>
      </trkpt>
      <trkpt lat="47.43436" lon="6.66482">
        <ele>306</ele>
        <time>2014-04-06T06:36:00Z</time>
      </trkpt>
      <trkpt lat="47.43432" lon="6.66481">
        <ele>305</ele>
        <time>2014-04-06T06:36:02Z</time>
      </trkpt>
      <trkpt lat="47.43431" lon="6.6648">
        <ele>304</ele>
        <time>2014-04-06T06:36:04Z</time>
      </trkpt>
      <trkpt lat="47.4343" lon="6.66477">
        <ele>302</ele>
        <time>2014-04-06T06:36:07Z</time>
      </trkpt>
      <trkpt lat="47.43428" lon="6.66474">
        <ele>302</ele>
        <time>2014-04-06T06:36:09Z</time>
      </trkpt>
      <trkpt lat="47.43425" lon="6.66474">
        <ele>302</ele>
        <time>2014-04-06T06:36:12Z</time>
      </trkpt>
      <trkpt lat="47.43422" lon="6.66476">
        <ele>302</ele>
        <time>2014-04-06T06:36:14Z</time>
      </trkpt>
      <trkpt lat="47.43418" lon="6.66478">
        <ele>302</ele>
        <time>2014-04-06T06:36:16Z</time>
      </trkpt>
      <trkpt lat="47.43415" lon="6.66479">
        <ele>302</ele>
        <time>2014-04-06T06:36:18Z</time>
      </trkpt>
      <trkpt lat="47.43409" lon="6.66483">
        <ele>303</ele>
        <time>2014-04-06T06:36:21Z</time>
      </trkpt>
      <trkpt lat="47.43405" lon="6.66485">
        <ele>303</ele>
        <time>2014-04-06T06:36:23Z</time>
      </trkpt>
      <trkpt lat="47.43401" lon="6.66488">
        <ele>303</ele>
        <time>2014-04-06T06:36:26Z</time>
      </trkpt>
      <trkpt lat="47.43394" lon="6.6649">
        <ele>303</ele>
        <time>2014-04-06T06:36:29Z</time>
      </trkpt>
      <trkpt lat="47.43389" lon="6.66495">
        <ele>303</ele>
        <time>2014-04-06T06:36:32Z</time>
      </trkpt>
      <trkpt lat="47.43383" lon="6.66498">
        <ele>303</ele>
        <time>2014-04-06T06:36:35Z</time>
      </trkpt>
      <trkpt lat="47.43375" lon="6.66504">
        <ele>304</ele>
        <time>2014-04-06T06:36:38Z</time>
      </trkpt>
      <trkpt lat="47.4337" lon="6.66508">
        <ele>304</ele>
        <time>2014-04-06T06:36:40Z</time>
      </trkpt>
      <trkpt lat="47.43363" lon="6.66513">
        <ele>304</ele>
        <time>2014-04-06T06:36:43Z</time>
      </trkpt>
      <trkpt lat="47.43356" lon="6.66519">
        <ele>304</ele>
        <time>2014-04-06T06:36:46Z</time>
      </trkpt>
      <trkpt lat="47.43349" lon="6.66526">
        <ele>304</ele>
        <time>2014-04-06T06:36:49Z</time>
      </trkpt>
      <trkpt lat="47.43345" lon="6.66531">
        <ele>304</ele>
        <time>2014-04-06T06:36:51Z</time>
      </trkpt>
      <trkpt lat="47.43337" lon="6.66538">
        <ele>304</ele>
        <time>2014-04-06T06:36:54Z</time>
      </trkpt>
      <trkpt lat="47.43333" lon="6.66543">
        <ele>304</ele>
        <time>2014-04-06T06:36:56Z</time>
      </trkpt>
      <trkpt lat="47.43327" lon="6.6655">
        <ele>304</ele>
        <time>2014-04-06T06:36:58Z</time>
      </trkpt>
      <trkpt lat="47.43322" lon="6.66557">
        <ele>304</ele>
        <time>2014-04-06T06:37:00Z</time>
      </trkpt>
      <trkpt lat="47.43315" lon="6.66568">
        <ele>304</ele>
        <time>2014-04-06T06:37:02Z</time>
      </trkpt>
      <trkpt lat="47.4331" lon="6.66581">
        <ele>304</ele>
        <time>2014-04-06T06:37:04Z</time>
      </trkpt>
      <trkpt lat="47.43301" lon="6.666">
        <ele>303</ele>
        <time>2014-04-06T06:37:07Z</time>
      </trkpt>
      <trkpt lat="47.43295" lon="6.6661">
        <ele>303</ele>
        <time>2014-04-06T06:37:09Z</time>
      </trkpt>
      <trkpt lat="47.43287" lon="6.66624">
        <ele>303</ele>
        <time>2014-04-06T06:37:12Z</time>
      </trkpt>
      <trkpt lat="47.43279" lon="6.66632">
        <ele>304</ele>
        <time>2014-04-06T06:37:14Z</time>
      </trkpt>
      <trkpt lat="47.43266" lon="6.66643">
        <ele>304</ele>
        <time>2014-04-06T06:37:17Z</time>
      </trkpt>
      <trkpt lat="47.43256" lon="6.66648">
        <ele>305</ele>
        <time>2014-04-06T06:37:19Z</time>
      </trkpt>
      <trkpt lat="47.43244" lon="6.66655">
        <ele>306</ele>
        <time>2014-04-06T06:37:21Z</time>
      </trkpt>
      <trkpt lat="47.43237" lon="6.6666">
        <ele>307</ele>
        <time>2014-04-06T06:37:24Z</time>
      </trkpt>
      <trkpt lat="47.43226" lon="6.66667">
        <ele>307</ele>
        <time>2014-04-06T06:37:27Z</time>
      </trkpt>
      <trkpt lat="47.4322" lon="6.66672">
        <ele>308</ele>
        <time>2014-04-06T06:37:29Z</time>
      </trkpt>
      <trkpt lat="47.4321" lon="6.66678">
        <ele>308</ele>
        <time>2014-04-06T06:37:32Z</time>
      </trkpt>
      <trkpt lat="47.43199" lon="6.66688">
        <ele>308</ele>
        <time>2014-04-06T06:37:35Z</time>
      </trkpt>
      <trkpt lat="47.43194" lon="6.66694">
        <ele>308</ele>
        <time>2014-04-06T06:37:37Z</time>
      </trkpt>
      <trkpt lat="47.4319" lon="6.66701">
        <ele>308</ele>
        <time>2014-04-06T06:37:39Z</time>
      </trkpt>
      <trkpt lat="47.43185" lon="6.66708">
        <ele>308</ele>
        <time>2014-04-06T06:37:41Z</time>
      </trkpt>
      <trkpt lat="47.43179" lon="6.6672">
        <ele>308</ele>
        <time>2014-04-06T06:37:44Z</time>
      </trkpt>
      <trkpt lat="47.43175" lon="6.66727">
        <ele>308</ele>
        <time>2014-04-06T06:37:46Z</time>
      </trkpt>
      <trkpt lat="47.43166" lon="6.66735">
        <ele>308</ele>
        <time>2014-04-06T06:37:49Z</time>
      </trkpt>
      <trkpt lat="47.43158" lon="6.66742">
        <ele>307</ele>
        <time>2014-04-06T06:37:51Z</time>
      </trkpt>
      <trkpt lat="47.43153" lon="6.66746">
        <ele>308</ele>
        <time>2014-04-06T06:37:53Z</time>
      </trkpt>
      <trkpt lat="47.43142" lon="6.66751">
        <ele>308</ele>
        <time>2014-04-06T06:37:57Z</time>
      </trkpt>
      <trkpt lat="47.43135" lon="6.66754">
        <ele>308</ele>
        <time>2014-04-06T06:37:59Z</time>
      </trkpt>
      <trkpt lat="47.43128" lon="6.66758">
        <ele>308</ele>
        <time>2014-04-06T06:38:01Z</time>
      </trkpt>
      <trkpt lat="47.43121" lon="6.66764">
        <ele>309</ele>
        <time>2014-04-06T06:38:04Z</time>
      </trkpt>
      <trkpt lat="47.43116" lon="6.66768">
        <ele>309</ele>
        <time>2014-04-06T06:38:06Z</time>
      </trkpt>
      <trkpt lat="47.43108" lon="6.66773">
        <ele>309</ele>
        <time>2014-04-06T06:38:09Z</time>
      </trkpt>
      <trkpt lat="47.43101" lon="6.66778">
        <ele>310</ele>
        <time>2014-04-06T06:38:12Z</time>
      </trkpt>
      <trkpt lat="47.43095" lon="6.6678">
        <ele>310</ele>
        <time>2014-04-06T06:38:14Z</time>
      </trkpt>
      <trkpt lat="47.43087" lon="6.66779">
        <ele>311</ele>
        <time>2014-04-06T06:38:17Z</time>
      </trkpt>
      <trkpt lat="47.43084" lon="6.66778">
        <ele>311</ele>
        <time>2014-04-06T06:38:19Z</time>
      </trkpt>
      <trkpt lat="47.43078" lon="6.66777">
        <ele>311</ele>
        <time>2014-04-06T06:38:21Z</time>
      </trkpt>
      <trkpt lat="47.43073" lon="6.66777">
        <ele>310</ele>
        <time>2014-04-06T06:38:23Z</time>
      </trkpt>
      <trkpt lat="47.43067" lon="6.66776">
        <ele>310</ele>
        <time>2014-04-06T06:38:25Z</time>
      </trkpt>
      <trkpt lat="47.43061" lon="6.66776">
        <ele>310</ele>
        <time>2014-04-06T06:38:27Z</time>
      </trkpt>
      <trkpt lat="47.43055" lon="6.66775">
        <ele>310</ele>
        <time>2014-04-06T06:38:29Z</time>
      </trkpt>
      <trkpt lat="47.43049" lon="6.66776">
        <ele>310</ele>
        <time>2014-04-06T06:38:31Z</time>
      </trkpt>
      <trkpt lat="47.43042" lon="6.66777">
        <ele>310</ele>
        <time>2014-04-06T06:38:33Z</time>
      </trkpt>
      <trkpt lat="47.43037" lon="6.66778">
        <ele>310</ele>
        <time>2014-04-06T06:38:35Z</time>
      </trkpt>
      <trkpt lat="47.4303" lon="6.6678">
        <ele>310</ele>
        <time>2014-04-06T06:38:38Z</time>
      </trkpt>
      <trkpt lat="47.43025" lon="6.66781">
        <ele>310</ele>
        <time>2014-04-06T06:38:41Z</time>
      </trkpt>
      <trkpt lat="47.4302" lon="6.66784">
        <ele>310</ele>
        <time>2014-04-06T06:38:43Z</time>
      </trkpt>
      <trkpt lat="47.43018" lon="6.66786">
        <ele>310</ele>
        <time>2014-04-06T06:38:46Z</time>
      </trkpt>
      <trkpt lat="47.43015" lon="6.66788">
        <ele>309</ele>
        <time>2014-04-06T06:38:48Z</time>
      </trkpt>
      <trkpt lat="47.43008" lon="6.66794">
        <ele>309</ele>
        <time>2014-04-06T06:38:51Z</time>
      </trkpt>
      <trkpt lat="47.43002" lon="6.66802">
        <ele>309</ele>
        <time>2014-04-06T06:38:54Z</time>
      </trkpt>
      <trkpt lat="47.42998" lon="6.66809">
        <ele>309</ele>
        <time>2014-04-06T06:38:56Z</time>
      </trkpt>
      <trkpt lat="47.42994" lon="6.66814">
        <ele>309</ele>
        <time>2014-04-06T06:38:58Z</time>
      </trkpt>
      <trkpt lat="47.42987" lon="6.66822">
        <ele>309</ele>
        <time>2014-04-06T06:39:00Z</time>
      </trkpt>
      <trkpt lat="47.42983" lon="6.66827">
        <ele>309</ele>
        <time>2014-04-06T06:39:02Z</time>
      </trkpt>
      <trkpt lat="47.42979" lon="6.66834">
        <ele>309</ele>
        <time>2014-04-06T06:39:05Z</time>
      </trkpt>
      <trkpt lat="47.42974" lon="6.66841">
        <ele>309</ele>
        <time>2014-04-06T06:39:07Z</time>
      </trkpt>
      <trkpt lat="47.4297" lon="6.66848">
        <ele>309</ele>
        <time>2014-04-06T06:39:09Z</time>
      </trkpt>
      <trkpt lat="47.42965" lon="6.66854">
        <ele>309</ele>
        <time>2014-04-06T06:39:11Z</time>
      </trkpt>
      <trkpt lat="47.42959" lon="6.66864">
        <ele>309</ele>
        <time>2014-04-06T06:39:13Z</time>
      </trkpt>
      <trkpt lat="47.42955" lon="6.6687">
        <ele>310</ele>
        <time>2014-04-06T06:39:16Z</time>
      </trkpt>
      <trkpt lat="47.42951" lon="6.66876">
        <ele>310</ele>
        <time>2014-04-06T06:39:18Z</time>
      </trkpt>
      <trkpt lat="47.42947" lon="6.66881">
        <ele>310</ele>
        <time>2014-04-06T06:39:20Z</time>
      </trkpt>
      <trkpt lat="47.42943" lon="6.66888">
        <ele>311</ele>
        <time>2014-04-06T06:39:22Z</time>
      </trkpt>
      <trkpt lat="47.42939" lon="6.66896">
        <ele>311</ele>
        <time>2014-04-06T06:39:25Z</time>
      </trkpt>
      <trkpt lat="47.42937" lon="6.66901">
        <ele>311</ele>
        <time>2014-04-06T06:39:27Z</time>
      </trkpt>
      <trkpt lat="47.42934" lon="6.66907">
        <ele>311</ele>
        <time>2014-04-06T06:39:30Z</time>
      </trkpt>
      <trkpt lat="47.42932" lon="6.66911">
        <ele>312</ele>
        <time>2014-04-06T06:39:32Z</time>
      </trkpt>
      <trkpt lat="47.42928" lon="6.66918">
        <ele>312</ele>
        <time>2014-04-06T06:39:35Z</time>
      </trkpt>
      <trkpt lat="47.42925" lon="6.66924">
        <ele>312</ele>
        <time>2014-04-06T06:39:37Z</time>
      </trkpt>
      <trkpt lat="47.42922" lon="6.66932">
        <ele>312</ele>
        <time>2014-04-06T06:39:39Z</time>
      </trkpt>
      <trkpt lat="47.42918" lon="6.66943">
        <ele>312</ele>
        <time>2014-04-06T06:39:41Z</time>
      </trkpt>
      <trkpt lat="47.42915" lon="6.66949">
        <ele>312</ele>
        <time>2014-04-06T06:39:43Z</time>
      </trkpt>
      <trkpt lat="47.42913" lon="6.66954">
        <ele>312</ele>
        <time>2014-04-06T06:39:46Z</time>
      </trkpt>
      <trkpt lat="47.42911" lon="6.6696">
        <ele>313</ele>
        <time>2014-04-06T06:39:48Z</time>
      </trkpt>
      <trkpt lat="47.42908" lon="6.66967">
        <ele>313</ele>
        <time>2014-04-06T06:39:50Z</time>
      </trkpt>
      <trkpt lat="47.42903" lon="6.66977">
        <ele>313</ele>
        <time>2014-04-06T06:39:52Z</time>
      </trkpt>
      <trkpt lat="47.42901" lon="6.66985">
        <ele>313</ele>
        <time>2014-04-06T06:39:54Z</time>
      </trkpt>
      <trkpt lat="47.42899" lon="6.66992">
        <ele>313</ele>
        <time>2014-04-06T06:39:57Z</time>
      </trkpt>
      <trkpt lat="47.42897" lon="6.66995">
        <ele>313</ele>
        <time>2014-04-06T06:39:59Z</time>
      </trkpt>
      <trkpt lat="47.42896" lon="6.66997">
        <ele>313</ele>
        <time>2014-04-06T06:40:01Z</time>
      </trkpt>
      <trkpt lat="47.42893" lon="6.67">
        <ele>313</ele>
        <time>2014-04-06T06:40:03Z</time>
      </trkpt>
      <trkpt lat="47.42891" lon="6.67002">
        <ele>313</ele>
        <time>2014-04-06T06:40:06Z</time>
      </trkpt>
      <trkpt lat="47.42889" lon="6.67004">
        <ele>313</ele>
        <time>2014-04-06T06:40:08Z</time>
      </trkpt>
      <trkpt lat="47.42887" lon="6.67005">
        <ele>313</ele>
        <time>2014-04-06T06:40:11Z</time>
      </trkpt>
      <trkpt lat="47.42886" lon="6.67007">
        <ele>313</ele>
        <time>2014-04-06T06:40:13Z</time>
      </trkpt>
      <trkpt lat="47.42884" lon="6.6701">
        <ele>313</ele>
        <time>2014-04-06T06:40:16Z</time>
      </trkpt>
      <trkpt lat="47.42881" lon="6.67013">
        <ele>312</ele>
        <time>2014-04-06T06:40:19Z</time>
      </trkpt>
      <trkpt lat="47.42876" lon="6.67018">
        <ele>312</ele>
        <time>2014-04-06T06:40:21Z</time>
      </trkpt>
      <trkpt lat="47.42873" lon="6.67023">
        <ele>313</ele>
        <time>2014-04-06T06:40:23Z</time>
      </trkpt>
      <trkpt lat="47.42872" lon="6.67028">
        <ele>312</ele>
        <time>2014-04-06T06:40:25Z</time>
      </trkpt>
      <trkpt lat="47.42871" lon="6.67033">
        <ele>312</ele>
        <time>2014-04-06T06:40:28Z</time>
      </trkpt>
      <trkpt lat="47.42869" lon="6.67039">
        <ele>312</ele>
        <time>2014-04-06T06:40:30Z</time>
      </trkpt>
      <trkpt lat="47.42867" lon="6.67049">
        <ele>312</ele>
        <time>2014-04-06T06:40:32Z</time>
      </trkpt>
      <trkpt lat="47.42865" lon="6.67057">
        <ele>312</ele>
        <time>2014-04-06T06:40:34Z</time>
      </trkpt>
      <trkpt lat="47.42865" lon="6.67065">
        <ele>312</ele>
        <time>2014-04-06T06:40:37Z</time>
      </trkpt>
      <trkpt lat="47.42865" lon="6.67077">
        <ele>312</ele>
        <time>2014-04-06T06:40:39Z</time>
      </trkpt>
      <trkpt lat="47.42866" lon="6.67086">
        <ele>312</ele>
        <time>2014-04-06T06:40:42Z</time>
      </trkpt>
      <trkpt lat="47.42866" lon="6.67098">
        <ele>312</ele>
        <time>2014-04-06T06:40:45Z</time>
      </trkpt>
      <trkpt lat="47.42866" lon="6.67109">
        <ele>312</ele>
        <time>2014-04-06T06:40:48Z</time>
      </trkpt>
      <trkpt lat="47.42867" lon="6.67119">
        <ele>312</ele>
        <time>2014-04-06T06:40:50Z</time>
      </trkpt>
      <trkpt lat="47.42867" lon="6.67125">
        <ele>311</ele>
        <time>2014-04-06T06:40:53Z</time>
      </trkpt>
      <trkpt lat="47.42867" lon="6.67136">
        <ele>311</ele>
        <time>2014-04-06T06:40:55Z</time>
      </trkpt>
      <trkpt lat="47.42868" lon="6.67143">
        <ele>311</ele>
        <time>2014-04-06T06:40:58Z</time>
      </trkpt>
      <trkpt lat="47.42871" lon="6.67155">
        <ele>311</ele>
        <time>2014-04-06T06:41:01Z</time>
      </trkpt>
      <trkpt lat="47.42873" lon="6.67167">
        <ele>312</ele>
        <time>2014-04-06T06:41:03Z</time>
      </trkpt>
      <trkpt lat="47.42875" lon="6.67179">
        <ele>312</ele>
        <time>2014-04-06T06:41:06Z</time>
      </trkpt>
      <trkpt lat="47.42878" lon="6.6719">
        <ele>312</ele>
        <time>2014-04-06T06:41:09Z</time>
      </trkpt>
      <trkpt lat="47.42882" lon="6.67196">
        <ele>312</ele>
        <time>2014-04-06T06:41:12Z</time>
      </trkpt>
      <trkpt lat="47.42886" lon="6.67202">
        <ele>312</ele>
        <time>2014-04-06T06:41:14Z</time>
      </trkpt>
      <trkpt lat="47.42892" lon="6.67208">
        <ele>313</ele>
        <time>2014-04-06T06:41:16Z</time>
      </trkpt>
      <trkpt lat="47.42898" lon="6.67213">
        <ele>313</ele>
        <time>2014-04-06T06:41:20Z</time>
      </trkpt>
      <trkpt lat="47.42903" lon="6.67219">
        <ele>314</ele>
        <time>2014-04-06T06:41:23Z</time>
      </trkpt>
      <trkpt lat="47.42905" lon="6.67228">
        <ele>315</ele>
        <time>2014-04-06T06:41:25Z</time>
      </trkpt>
      <trkpt lat="47.42907" lon="6.67236">
        <ele>315</ele>
        <time>2014-04-06T06:41:28Z</time>
      </trkpt>
      <trkpt lat="47.42907" lon="6.67244">
        <ele>315</ele>
        <time>2014-04-06T06:41:30Z</time>
      </trkpt>
      <trkpt lat="47.42909" lon="6.67257">
        <ele>315</ele>
        <time>2014-04-06T06:41:32Z</time>
      </trkpt>
      <trkpt lat="47.4291" lon="6.67268">
        <ele>314</ele>
        <time>2014-04-06T06:41:35Z</time>
      </trkpt>
      <trkpt lat="47.42916" lon="6.67284">
        <ele>314</ele>
        <time>2014-04-06T06:41:37Z</time>
      </trkpt>
      <trkpt lat="47.42924" lon="6.67294">
        <ele>313</ele>
        <time>2014-04-06T06:41:40Z</time>
      </trkpt>
      <trkpt lat="47.42928" lon="6.673">
        <ele>313</ele>
        <time>2014-04-06T06:41:43Z</time>
      </trkpt>
      <trkpt lat="47.42934" lon="6.67306">
        <ele>313</ele>
        <time>2014-04-06T06:41:45Z</time>
      </trkpt>
      <trkpt lat="47.42941" lon="6.67316">
        <ele>313</ele>
        <time>2014-04-06T06:41:47Z</time>
      </trkpt>
      <trkpt lat="47.42945" lon="6.67322">
        <ele>313</ele>
        <time>2014-04-06T06:41:49Z</time>
      </trkpt>
      <trkpt lat="47.4295" lon="6.67328">
        <ele>313</ele>
        <time>2014-04-06T06:41:52Z</time>
      </trkpt>
      <trkpt lat="47.42954" lon="6.67335">
        <ele>313</ele>
        <time>2014-04-06T06:41:54Z</time>
      </trkpt>
      <trkpt lat="47.4296" lon="6.67344">
        <ele>314</ele>
        <time>2014-04-06T06:41:56Z</time>
      </trkpt>
      <trkpt lat="47.42964" lon="6.6735">
        <ele>314</ele>
        <time>2014-04-06T06:41:58Z</time>
      </trkpt>
      <trkpt lat="47.42971" lon="6.67356">
        <ele>313</ele>
        <time>2014-04-06T06:42:00Z</time>
      </trkpt>
      <trkpt lat="47.42981" lon="6.6736">
        <ele>313</ele>
        <time>2014-04-06T06:42:03Z</time>
      </trkpt>
      <trkpt lat="47.42998" lon="6.67375">
        <ele>312</ele>
        <time>2014-04-06T06:42:05Z</time>
      </trkpt>
      <trkpt lat="47.43004" lon="6.67386">
        <ele>311</ele>
        <time>2014-04-06T06:42:08Z</time>
      </trkpt>
      <trkpt lat="47.43001" lon="6.67397">
        <ele>309</ele>
        <time>2014-04-06T06:42:11Z</time>
      </trkpt>
      <trkpt lat="47.42987" lon="6.67406">
        <ele>306</ele>
        <time>2014-04-06T06:42:13Z</time>
      </trkpt>
      <trkpt lat="47.42974" lon="6.67408">
        <ele>305</ele>
        <time>2014-04-06T06:42:16Z</time>
      </trkpt>
      <trkpt lat="47.42961" lon="6.67406">
        <ele>305</ele>
        <time>2014-04-06T06:42:18Z</time>
      </trkpt>
      <trkpt lat="47.42939" lon="6.67402">
        <ele>304</ele>
        <time>2014-04-06T06:42:20Z</time>
      </trkpt>
      <trkpt lat="47.42927" lon="6.67403">
        <ele>304</ele>
        <time>2014-04-06T06:42:22Z</time>
      </trkpt>
      <trkpt lat="47.42915" lon="6.67408">
        <ele>302</ele>
        <time>2014-04-06T06:42:25Z</time>
      </trkpt>
      <trkpt lat="47.42895" lon="6.67414">
        <ele>300</ele>
        <time>2014-04-06T06:42:27Z</time>
      </trkpt>
      <trkpt lat="47.42875" lon="6.67417">
        <ele>298</ele>
        <time>2014-04-06T06:42:30Z</time>
      </trkpt>
      <trkpt lat="47.42861" lon="6.67422">
        <ele>297</ele>
        <time>2014-04-06T06:42:32Z</time>
      </trkpt>
      <trkpt lat="47.42849" lon="6.67428">
        <ele>296</ele>
        <time>2014-04-06T06:42:34Z</time>
      </trkpt>
      <trkpt lat="47.42836" lon="6.67429">
        <ele>293</ele>
        <time>2014-04-06T06:42:38Z</time>
      </trkpt>
      <trkpt lat="47.42828" lon="6.67427">
        <ele>291</ele>
        <time>2014-04-06T06:42:40Z</time>
      </trkpt>
      <trkpt lat="47.42819" lon="6.67422">
        <ele>289</ele>
        <time>2014-04-06T06:42:42Z</time>
      </trkpt>
      <trkpt lat="47.42805" lon="6.67411">
        <ele>288</ele>
        <time>2014-04-06T06:42:45Z</time>
      </trkpt>
      <trkpt lat="47.42791" lon="6.67405">
        <ele>286</ele>
        <time>2014-04-06T06:42:48Z</time>
      </trkpt>
      <trkpt lat="47.42771" lon="6.67403">
        <ele>284</ele>
        <time>2014-04-06T06:42:50Z</time>
      </trkpt>
      <trkpt lat="47.42758" lon="6.67397">
        <ele>283</ele>
        <time>2014-04-06T06:42:52Z</time>
      </trkpt>
      <trkpt lat="47.42745" lon="6.67395">
        <ele>281</ele>
        <time>2014-04-06T06:42:54Z</time>
      </trkpt>
      <trkpt lat="47.42733" lon="6.67389">
        <ele>280</ele>
        <time>2014-04-06T06:42:56Z</time>
      </trkpt>
      <trkpt lat="47.42722" lon="6.67384">
        <ele>278</ele>
        <time>2014-04-06T06:42:58Z</time>
      </trkpt>
      <trkpt lat="47.42706" lon="6.67374">
        <ele>275</ele>
        <time>2014-04-06T06:43:02Z</time>
      </trkpt>
      <trkpt lat="47.42692" lon="6.67364">
        <ele>274</ele>
        <time>2014-04-06T06:43:04Z</time>
      </trkpt>
      <trkpt lat="47.4268" lon="6.67352">
        <ele>272</ele>
        <time>2014-04-06T06:43:06Z</time>
      </trkpt>
      <trkpt lat="47.42663" lon="6.67338">
        <ele>271</ele>
        <time>2014-04-06T06:43:08Z</time>
      </trkpt>
      <trkpt lat="47.42649" lon="6.67336">
        <ele>270</ele>
        <time>2014-04-06T06:43:10Z</time>
      </trkpt>
      <trkpt lat="47.4263" lon="6.67327">
        <ele>267</ele>
        <time>2014-04-06T06:43:13Z</time>
      </trkpt>
      <trkpt lat="47.42623" lon="6.67322">
        <ele>265</ele>
        <time>2014-04-06T06:43:15Z</time>
      </trkpt>
      <trkpt lat="47.42613" lon="6.67324">
        <ele>263</ele>
        <time>2014-04-06T06:43:18Z</time>
      </trkpt>
      <trkpt lat="47.4261" lon="6.67329">
        <ele>262</ele>
        <time>2014-04-06T06:43:20Z</time>
      </trkpt>
      <trkpt lat="47.4261" lon="6.67326">
        <ele>261</ele>
        <time>2014-04-06T06:43:23Z</time>
      </trkpt>
      <trkpt lat="47.42609" lon="6.6732">
        <ele>261</ele>
        <time>2014-04-06T06:43:25Z</time>
      </trkpt>
      <trkpt lat="47.4261" lon="6.67315">
        <ele>261</ele>
        <time>2014-04-06T06:43:28Z</time>
      </trkpt>
      <trkpt lat="47.42607" lon="6.67308">
        <ele>260</ele>
        <time>2014-04-06T06:43:30Z</time>
      </trkpt>
      <trkpt lat="47.42603" lon="6.6731">
        <ele>260</ele>
        <time>2014-04-06T06:43:33Z</time>
      </trkpt>
      <trkpt lat="47.42601" lon="6.67313">
        <ele>260</ele>
        <time>2014-04-06T06:43:35Z</time>
      </trkpt>
      <trkpt lat="47.42597" lon="6.67318">
        <ele>260</ele>
        <time>2014-04-06T06:43:37Z</time>
      </trkpt>
      <trkpt lat="47.42594" lon="6.67321">
        <ele>261</ele>
        <time>2014-04-06T06:43:39Z</time>
      </trkpt>
      <trkpt lat="47.42592" lon="6.67325">
        <ele>261</ele>
        <time>2014-04-06T06:43:42Z</time>
      </trkpt>
      <trkpt lat="47.42594" lon="6.67324">
        <ele>260</ele>
        <time>2014-04-06T06:43:44Z</time>
      </trkpt>
      <trkpt lat="47.42595" lon="6.67319">
        <ele>260</ele>
        <time>2014-04-06T06:43:46Z</time>
      </trkpt>
      <trkpt lat="47.42596" lon="6.67314">
        <ele>260</ele>
        <time>2014-04-06T06:43:49Z</time>
      </trkpt>
      <trkpt lat="47.42598" lon="6.67307">
        <ele>261</ele>
        <time>2014-04-06T06:43:51Z</time>
      </trkpt>
      <trkpt lat="47.42599" lon="6.67303">
        <ele>261</ele>
        <time>2014-04-06T06:43:53Z</time>
      </trkpt>
      <trkpt lat="47.42596" lon="6.67298">
        <ele>261</ele>
        <time>2014-04-06T06:43:56Z</time>
      </trkpt>
      <trkpt lat="47.42594" lon="6.67302">
        <ele>260</ele>
        <time>2014-04-06T06:43:58Z</time>
      </trkpt>
      <trkpt lat="47.42592" lon="6.67306">
        <ele>260</ele>
        <time>2014-04-06T06:44:01Z</time>
      </trkpt>
      <trkpt lat="47.42588" lon="6.67312">
        <ele>260</ele>
        <time>2014-04-06T06:44:03Z</time>
      </trkpt>
      <trkpt lat="47.42586" lon="6.67316">
        <ele>260</ele>
        <time>2014-04-06T06:44:05Z</time>
      </trkpt>
      <trkpt lat="47.42587" lon="6.6732">
        <ele>260</ele>
        <time>2014-04-06T06:44:08Z</time>
      </trkpt>
      <trkpt lat="47.42589" lon="6.67317">
        <ele>260</ele>
        <time>2014-04-06T06:44:11Z</time>
      </trkpt>
      <trkpt lat="47.42591" lon="6.67313">
        <ele>261</ele>
        <time>2014-04-06T06:44:13Z</time>
      </trkpt>
      <trkpt lat="47.42593" lon="6.67309">
        <ele>261</ele>
        <time>2014-04-06T06:44:15Z</time>
      </trkpt>
      <trkpt lat="47.42593" lon="6.67302">
        <ele>261</ele>
        <time>2014-04-06T06:44:17Z</time>
      </trkpt>
      <trkpt lat="47.4259" lon="6.67305">
        <ele>261</ele>
        <time>2014-04-06T06:44:19Z</time>
      </trkpt>
      <trkpt lat="47.42587" lon="6.67311">
        <ele>260</ele>
        <time>2014-04-06T06:44:22Z</time>
      </trkpt>
      <trkpt lat="47.42585" lon="6.67315">
        <ele>261</ele>
        <time>2014-04-06T06:44:24Z</time>
      </trkpt>
      <trkpt lat="47.42586" lon="6.67319">
        <ele>261</ele>
        <time>2014-04-06T06:44:27Z</time>
      </trkpt>
      <trkpt lat="47.42588" lon="6.67316">
        <ele>260</ele>
        <time>2014-04-06T06:44:29Z</time>
      </trkpt>
      <trkpt lat="47.4259" lon="6.67314">
        <ele>261</ele>
        <time>2014-04-06T06:44:31Z</time>
      </trkpt>
      <trkpt lat="47.4259" lon="6.67311">
        <ele>260</ele>
        <time>2014-04-06T06:44:34Z</time>
      </trkpt>
      <trkpt lat="47.42592" lon="6.67307">
        <ele>261</ele>
        <time>2014-04-06T06:44:36Z</time>
      </trkpt>
      <trkpt lat="47.42593" lon="6.67304">
        <ele>261</ele>
        <time>2014-04-06T06:44:38Z</time>
      </trkpt>
      <trkpt lat="47.42594" lon="6.67301">
        <ele>261</ele>
        <time>2014-04-06T06:44:41Z</time>
      </trkpt>
      <trkpt lat="47.42592" lon="6.67298">
        <ele>260</ele>
        <time>2014-04-06T06:44:43Z</time>
      </trkpt>
      <trkpt lat="47.42589" lon="6.673">
        <ele>260</ele>
        <time>2014-04-06T06:44:46Z</time>
      </trkpt>
      <trkpt lat="47.42587" lon="6.67303">
        <ele>260</ele>
        <time>2014-04-06T06:44:48Z</time>
      </trkpt>
      <trkpt lat="47.42585" lon="6.67306">
        <ele>260</ele>
        <time>2014-04-06T06:44:50Z</time>
      </trkpt>
      <trkpt lat="47.42588" lon="6.67304">
        <ele>260</ele>
        <time>2014-04-06T06:44:53Z</time>
      </trkpt>
      <trkpt lat="47.4259" lon="6.67299">
        <ele>261</ele>
        <time>2014-04-06T06:44:55Z</time>
      </trkpt>
      <trkpt lat="47.42592" lon="6.67295">
        <ele>261</ele>
        <time>2014-04-06T06:44:57Z</time>
      </trkpt>
      <trkpt lat="47.4259" lon="6.6729">
        <ele>260</ele>
        <time>2014-04-06T06:45:00Z</time>
      </trkpt>
      <trkpt lat="47.42587" lon="6.67296">
        <ele>260</ele>
        <time>2014-04-06T06:45:02Z</time>
      </trkpt>
      <trkpt lat="47.42585" lon="6.673">
        <ele>260</ele>
        <time>2014-04-06T06:45:04Z</time>
      </trkpt>
      <trkpt lat="47.42583" lon="6.67304">
        <ele>261</ele>
        <time>2014-04-06T06:45:07Z</time>
      </trkpt>
      <trkpt lat="47.42581" lon="6.67311">
        <ele>260</ele>
        <time>2014-04-06T06:45:09Z</time>
      </trkpt>
      <trkpt lat="47.42582" lon="6.67314">
        <ele>260</ele>
        <time>2014-04-06T06:45:11Z</time>
      </trkpt>
      <trkpt lat="47.42585" lon="6.67308">
        <ele>260</ele>
        <time>2014-04-06T06:45:14Z</time>
      </trkpt>
      <trkpt lat="47.42589" lon="6.67297">
        <ele>260</ele>
        <time>2014-04-06T06:45:17Z</time>
      </trkpt>
      <trkpt lat="47.42593" lon="6.67286">
        <ele>260</ele>
        <time>2014-04-06T06:45:20Z</time>
      </trkpt>
      <trkpt lat="47.42596" lon="6.67278">
        <ele>261</ele>
        <time>2014-04-06T06:45:22Z</time>
      </trkpt>
      <trkpt lat="47.42599" lon="6.6727">
        <ele>261</ele>
        <time>2014-04-06T06:45:25Z</time>
      </trkpt>
      <trkpt lat="47.42603" lon="6.67263">
        <ele>261</ele>
        <time>2014-04-06T06:45:27Z</time>
      </trkpt>
      <trkpt lat="47.42605" lon="6.67255">
        <ele>260</ele>
        <time>2014-04-06T06:45:29Z</time>
      </trkpt>
      <trkpt lat="47.42608" lon="6.67247">
        <ele>260</ele>
        <time>2014-04-06T06:45:31Z</time>
      </trkpt>
      <trkpt lat="47.42612" lon="6.67233">
        <ele>260</ele>
        <time>2014-04-06T06:45:33Z</time>
      </trkpt>
      <trkpt lat="47.42616" lon="6.67222">
        <ele>260</ele>
        <time>2014-04-06T06:45:36Z</time>
      </trkpt>
      <trkpt lat="47.4262" lon="6.67203">
        <ele>260</ele>
        <time>2014-04-06T06:45:38Z</time>
      </trkpt>
      <trkpt lat="47.42625" lon="6.67187">
        <ele>260</ele>
        <time>2014-04-06T06:45:41Z</time>
      </trkpt>
      <trkpt lat="47.42632" lon="6.67162">
        <ele>260</ele>
        <time>2014-04-06T06:45:43Z</time>
      </trkpt>
      <trkpt lat="47.42643" lon="6.67134">
        <ele>259</ele>
        <time>2014-04-06T06:45:46Z</time>
      </trkpt>
      <trkpt lat="47.42652" lon="6.67113">
        <ele>259</ele>
        <time>2014-04-06T06:45:48Z</time>
      </trkpt>
      <trkpt lat="47.42668" lon="6.67085">
        <ele>259</ele>
        <time>2014-04-06T06:45:51Z</time>
      </trkpt>
      <trkpt lat="47.42678" lon="6.67066">
        <ele>259</ele>
        <time>2014-04-06T06:45:53Z</time>
      </trkpt>
      <trkpt lat="47.42687" lon="6.67046">
        <ele>258</ele>
        <time>2014-04-06T06:45:55Z</time>
      </trkpt>
      <trkpt lat="47.42695" lon="6.67027">
        <ele>258</ele>
        <time>2014-04-06T06:45:58Z</time>
      </trkpt>
      <trkpt lat="47.42704" lon="6.66998">
        <ele>257</ele>
        <time>2014-04-06T06:46:00Z</time>
      </trkpt>
      <trkpt lat="47.4271" lon="6.66979">
        <ele>257</ele>
        <time>2014-04-06T06:46:02Z</time>
      </trkpt>
      <trkpt lat="47.42715" lon="6.66959">
        <ele>256</ele>
        <time>2014-04-06T06:46:04Z</time>
      </trkpt>
      <trkpt lat="47.42719" lon="6.6693">
        <ele>256</ele>
        <time>2014-04-06T06:46:07Z</time>
      </trkpt>
      <trkpt lat="47.42719" lon="6.6691">
        <ele>255</ele>
        <time>2014-04-06T06:46:09Z</time>
      </trkpt>
      <trkpt lat="47.42722" lon="6.66892">
        <ele>254</ele>
        <time>2014-04-06T06:46:11Z</time>
      </trkpt>
      <trkpt lat="47.42726" lon="6.66873">
        <ele>254</ele>
        <time>2014-04-06T06:46:13Z</time>
      </trkpt>
      <trkpt lat="47.42731" lon="6.66845">
        <ele>254</ele>
        <time>2014-04-06T06:46:16Z</time>
      </trkpt>
      <trkpt lat="47.42734" lon="6.66826">
        <ele>254</ele>
        <time>2014-04-06T06:46:18Z</time>
      </trkpt>
      <trkpt lat="47.42737" lon="6.66807">
        <ele>253</ele>
        <time>2014-04-06T06:46:20Z</time>
      </trkpt>
      <trkpt lat="47.42741" lon="6.6678">
        <ele>253</ele>
        <time>2014-04-06T06:46:23Z</time>
      </trkpt>
      <trkpt lat="47.42744" lon="6.66763">
        <ele>252</ele>
        <time>2014-04-06T06:46:25Z</time>
      </trkpt>
      <trkpt lat="47.42747" lon="6.66747">
        <ele>252</ele>
        <time>2014-04-06T06:46:27Z</time>
      </trkpt>
      <trkpt lat="47.4275" lon="6.66724">
        <ele>252</ele>
        <time>2014-04-06T06:46:30Z</time>
      </trkpt>
      <trkpt lat="47.42746" lon="6.66709">
        <ele>252</ele>
        <time>2014-04-06T06:46:32Z</time>
      </trkpt>
      <trkpt lat="47.42738" lon="6.66696">
        <ele>252</ele>
        <time>2014-04-06T06:46:34Z</time>
      </trkpt>
      <trkpt lat="47.42729" lon="6.66686">
        <ele>251</ele>
        <time>2014-04-06T06:46:36Z</time>
      </trkpt>
      <trkpt lat="47.42721" lon="6.66681">
        <ele>251</ele>
        <time>2014-04-06T06:46:39Z</time>
      </trkpt>
      <trkpt lat="47.42711" lon="6.66674">
        <ele>251</ele>
        <time>2014-04-06T06:46:41Z</time>
      </trkpt>
      <trkpt lat="47.427" lon="6.66661">
        <ele>251</ele>
        <time>2014-04-06T06:46:43Z</time>
      </trkpt>
      <trkpt lat="47.42691" lon="6.66656">
        <ele>251</ele>
        <time>2014-04-06T06:46:45Z</time>
      </trkpt>
      <trkpt lat="47.4268" lon="6.66655">
        <ele>250</ele>
        <time>2014-04-06T06:46:48Z</time>
      </trkpt>
      <trkpt lat="47.42668" lon="6.66659">
        <ele>250</ele>
        <time>2014-04-06T06:46:51Z</time>
      </trkpt>
      <trkpt lat="47.42661" lon="6.66663">
        <ele>250</ele>
        <time>2014-04-06T06:46:53Z</time>
      </trkpt>
      <trkpt lat="47.4265" lon="6.6667">
        <ele>251</ele>
        <time>2014-04-06T06:46:56Z</time>
      </trkpt>
      <trkpt lat="47.42645" lon="6.66679">
        <ele>251</ele>
        <time>2014-04-06T06:46:58Z</time>
      </trkpt>
      <trkpt lat="47.42642" lon="6.66689">
        <ele>251</ele>
        <time>2014-04-06T06:47:00Z</time>
      </trkpt>
      <trkpt lat="47.42641" lon="6.667">
        <ele>252</ele>
        <time>2014-04-06T06:47:02Z</time>
      </trkpt>
      <trkpt lat="47.42642" lon="6.66716">
        <ele>252</ele>
        <time>2014-04-06T06:47:05Z</time>
      </trkpt>
      <trkpt lat="47.42645" lon="6.66731">
        <ele>252</ele>
        <time>2014-04-06T06:47:08Z</time>
      </trkpt>
      <trkpt lat="47.42646" lon="6.6675">
        <ele>252</ele>
        <time>2014-04-06T06:47:11Z</time>
      </trkpt>
      <trkpt lat="47.42645" lon="6.66763">
        <ele>252</ele>
        <time>2014-04-06T06:47:13Z</time>
      </trkpt>
      <trkpt lat="47.42642" lon="6.66775">
        <ele>252</ele>
        <time>2014-04-06T06:47:15Z</time>
      </trkpt>
      <trkpt lat="47.42638" lon="6.66786">
        <ele>252</ele>
        <time>2014-04-06T06:47:17Z</time>
      </trkpt>
      <trkpt lat="47.42632" lon="6.66802">
        <ele>252</ele>
        <time>2014-04-06T06:47:20Z</time>
      </trkpt>
      <trkpt lat="47.42628" lon="6.66811">
        <ele>253</ele>
        <time>2014-04-06T06:47:22Z</time>
      </trkpt>
      <trkpt lat="47.42621" lon="6.66824">
        <ele>253</ele>
        <time>2014-04-06T06:47:25Z</time>
      </trkpt>
      <trkpt lat="47.42616" lon="6.66833">
        <ele>254</ele>
        <time>2014-04-06T06:47:27Z</time>
      </trkpt>
      <trkpt lat="47.42611" lon="6.66843">
        <ele>254</ele>
        <time>2014-04-06T06:47:29Z</time>
      </trkpt>
      <trkpt lat="47.42604" lon="6.66858">
        <ele>254</ele>
        <time>2014-04-06T06:47:32Z</time>
      </trkpt>
      <trkpt lat="47.42598" lon="6.66869">
        <ele>254</ele>
        <time>2014-04-06T06:47:34Z</time>
      </trkpt>
      <trkpt lat="47.42593" lon="6.66881">
        <ele>254</ele>
        <time>2014-04-06T06:47:36Z</time>
      </trkpt>
      <trkpt lat="47.42588" lon="6.66892">
        <ele>254</ele>
        <time>2014-04-06T06:47:38Z</time>
      </trkpt>
      <trkpt lat="47.42583" lon="6.66903">
        <ele>254</ele>
        <time>2014-04-06T06:47:41Z</time>
      </trkpt>
      <trkpt lat="47.42577" lon="6.66912">
        <ele>254</ele>
        <time>2014-04-06T06:47:43Z</time>
      </trkpt>
      <trkpt lat="47.42572" lon="6.66921">
        <ele>254</ele>
        <time>2014-04-06T06:47:45Z</time>
      </trkpt>
      <trkpt lat="47.42564" lon="6.66936">
        <ele>254</ele>
        <time>2014-04-06T06:47:47Z</time>
      </trkpt>
      <trkpt lat="47.42557" lon="6.66944">
        <ele>254</ele>
        <time>2014-04-06T06:47:49Z</time>
      </trkpt>
      <trkpt lat="47.42551" lon="6.66952">
        <ele>254</ele>
        <time>2014-04-06T06:47:51Z</time>
      </trkpt>
      <trkpt lat="47.4254" lon="6.66963">
        <ele>254</ele>
        <time>2014-04-06T06:47:54Z</time>
      </trkpt>
      <trkpt lat="47.42533" lon="6.66971">
        <ele>255</ele>
        <time>2014-04-06T06:47:56Z</time>
      </trkpt>
      <trkpt lat="47.42527" lon="6.66979">
        <ele>255</ele>
        <time>2014-04-06T06:47:58Z</time>
      </trkpt>
      <trkpt lat="47.42518" lon="6.66993">
        <ele>255</ele>
        <time>2014-04-06T06:48:01Z</time>
      </trkpt>
      <trkpt lat="47.42512" lon="6.67003">
        <ele>256</ele>
        <time>2014-04-06T06:48:03Z</time>
      </trkpt>
      <trkpt lat="47.42505" lon="6.67013">
        <ele>256</ele>
        <time>2014-04-06T06:48:05Z</time>
      </trkpt>
      <trkpt lat="47.42497" lon="6.67026">
        <ele>257</ele>
        <time>2014-04-06T06:48:08Z</time>
      </trkpt>
      <trkpt lat="47.42489" lon="6.67041">
        <ele>257</ele>
        <time>2014-04-06T06:48:11Z</time>
      </trkpt>
      <trkpt lat="47.42485" lon="6.67053">
        <ele>257</ele>
        <time>2014-04-06T06:48:13Z</time>
      </trkpt>
      <trkpt lat="47.42478" lon="6.67065">
        <ele>257</ele>
        <time>2014-04-06T06:48:16Z</time>
      </trkpt>
      <trkpt lat="47.42469" lon="6.67083">
        <ele>257</ele>
        <time>2014-04-06T06:48:18Z</time>
      </trkpt>
      <trkpt lat="47.42461" lon="6.67099">
        <ele>257</ele>
        <time>2014-04-06T06:48:21Z</time>
      </trkpt>
      <trkpt lat="47.42456" lon="6.67109">
        <ele>257</ele>
        <time>2014-04-06T06:48:23Z</time>
      </trkpt>
      <trkpt lat="47.42448" lon="6.67126">
        <ele>257</ele>
        <time>2014-04-06T06:48:26Z</time>
      </trkpt>
      <trkpt lat="47.42441" lon="6.67142">
        <ele>257</ele>
        <time>2014-04-06T06:48:29Z</time>
      </trkpt>
      <trkpt lat="47.42434" lon="6.67159">
        <ele>257</ele>
        <time>2014-04-06T06:48:32Z</time>
      </trkpt>
      <trkpt lat="47.42427" lon="6.67171">
        <ele>257</ele>
        <time>2014-04-06T06:48:34Z</time>
      </trkpt>
      <trkpt lat="47.42419" lon="6.67185">
        <ele>257</ele>
        <time>2014-04-06T06:48:37Z</time>
      </trkpt>
      <trkpt lat="47.42416" lon="6.67195">
        <ele>257</ele>
        <time>2014-04-06T06:48:40Z</time>
      </trkpt>
      <trkpt lat="47.42414" lon="6.67202">
        <ele>257</ele>
        <time>2014-04-06T06:48:42Z</time>
      </trkpt>
      <trkpt lat="47.4241" lon="6.67212">
        <ele>256</ele>
        <time>2014-04-06T06:48:45Z</time>
      </trkpt>
      <trkpt lat="47.42407" lon="6.67221">
        <ele>256</ele>
        <time>2014-04-06T06:48:48Z</time>
      </trkpt>
      <trkpt lat="47.42405" lon="6.67232">
        <ele>256</ele>
        <time>2014-04-06T06:48:50Z</time>
      </trkpt>
      <trkpt lat="47.42403" lon="6.6724">
        <ele>256</ele>
        <time>2014-04-06T06:48:52Z</time>
      </trkpt>
      <trkpt lat="47.42399" lon="6.67253">
        <ele>257</ele>
        <time>2014-04-06T06:48:55Z</time>
      </trkpt>
      <trkpt lat="47.42397" lon="6.6726">
        <ele>257</ele>
        <time>2014-04-06T06:48:57Z</time>
      </trkpt>
      <trkpt lat="47.42394" lon="6.67269">
        <ele>257</ele>
        <time>2014-04-06T06:48:59Z</time>
      </trkpt>
      <trkpt lat="47.42389" lon="6.67277">
        <ele>257</ele>
        <time>2014-04-06T06:49:01Z</time>
      </trkpt>
      <trkpt lat="47.42385" lon="6.67289">
        <ele>257</ele>
        <time>2014-04-06T06:49:04Z</time>
      </trkpt>
      <trkpt lat="47.42383" lon="6.673">
        <ele>257</ele>
        <time>2014-04-06T06:49:07Z</time>
      </trkpt>
      <trkpt lat="47.42379" lon="6.67311">
        <ele>257</ele>
        <time>2014-04-06T06:49:10Z</time>
      </trkpt>
      <trkpt lat="47.42374" lon="6.67323">
        <ele>257</ele>
        <time>2014-04-06T06:49:13Z</time>
      </trkpt>
      <trkpt lat="47.4237" lon="6.67331">
        <ele>257</ele>
        <time>2014-04-06T06:49:15Z</time>
      </trkpt>
      <trkpt lat="47.42368" lon="6.67336">
        <ele>257</ele>
        <time>2014-04-06T06:49:17Z</time>
      </trkpt>
      <trkpt lat="47.42364" lon="6.67346">
        <ele>258</ele>
        <time>2014-04-06T06:49:20Z</time>
      </trkpt>
      <trkpt lat="47.42362" lon="6.67351">
        <ele>258</ele>
        <time>2014-04-06T06:49:22Z</time>
      </trkpt>
      <trkpt lat="47.42359" lon="6.67357">
        <ele>259</ele>
        <time>2014-04-06T06:49:24Z</time>
      </trkpt>
      <trkpt lat="47.42355" lon="6.67364">
        <ele>259</ele>
        <time>2014-04-06T06:49:26Z</time>
      </trkpt>
      <trkpt lat="47.42352" lon="6.67373">
        <ele>260</ele>
        <time>2014-04-06T06:49:29Z</time>
      </trkpt>
      <trkpt lat="47.42348" lon="6.67379">
        <ele>260</ele>
        <time>2014-04-06T06:49:31Z</time>
      </trkpt>
      <trkpt lat="47.42345" lon="6.67386">
        <ele>261</ele>
        <time>2014-04-06T06:49:33Z</time>
      </trkpt>
      <trkpt lat="47.42338" lon="6.67395">
        <ele>261</ele>
        <time>2014-04-06T06:49:36Z</time>
      </trkpt>
      <trkpt lat="47.42331" lon="6.67404">
        <ele>262</ele>
        <time>2014-04-06T06:49:39Z</time>
      </trkpt>
      <trkpt lat="47.42327" lon="6.6741">
        <ele>262</ele>
        <time>2014-04-06T06:49:41Z</time>
      </trkpt>
      <trkpt lat="47.42319" lon="6.67419">
        <ele>262</ele>
        <time>2014-04-06T06:49:44Z</time>
      </trkpt>
      <trkpt lat="47.42313" lon="6.67424">
        <ele>262</ele>
        <time>2014-04-06T06:49:46Z</time>
      </trkpt>
      <trkpt lat="47.42306" lon="6.67433">
        <ele>262</ele>
        <time>2014-04-06T06:49:49Z</time>
      </trkpt>
      <trkpt lat="47.42302" lon="6.67438">
        <ele>262</ele>
        <time>2014-04-06T06:49:51Z</time>
      </trkpt>
      <trkpt lat="47.42297" lon="6.67443">
        <ele>263</ele>
        <time>2014-04-06T06:49:53Z</time>
      </trkpt>
      <trkpt lat="47.42292" lon="6.67448">
        <ele>263</ele>
        <time>2014-04-06T06:49:55Z</time>
      </trkpt>
      <trkpt lat="47.42288" lon="6.67452">
        <ele>263</ele>
        <time>2014-04-06T06:49:58Z</time>
      </trkpt>
      <trkpt lat="47.42283" lon="6.67456">
        <ele>264</ele>
        <time>2014-04-06T06:50:00Z</time>
      </trkpt>
      <trkpt lat="47.42274" lon="6.67458">
        <ele>263</ele>
        <time>2014-04-06T06:50:02Z</time>
      </trkpt>
      <trkpt lat="47.42266" lon="6.67456">
        <ele>264</ele>
        <time>2014-04-06T06:50:05Z</time>
      </trkpt>
      <trkpt lat="47.42258" lon="6.67455">
        <ele>264</ele>
        <time>2014-04-06T06:50:08Z</time>
      </trkpt>
      <trkpt lat="47.42253" lon="6.67455">
        <ele>265</ele>
        <time>2014-04-06T06:50:10Z</time>
      </trkpt>
      <trkpt lat="47.42247" lon="6.67453">
        <ele>265</ele>
        <time>2014-04-06T06:50:13Z</time>
      </trkpt>
      <trkpt lat="47.42242" lon="6.67451">
        <ele>266</ele>
        <time>2014-04-06T06:50:16Z</time>
      </trkpt>
      <trkpt lat="47.42236" lon="6.67446">
        <ele>266</ele>
        <time>2014-04-06T06:50:18Z</time>
      </trkpt>
      <trkpt lat="47.42231" lon="6.67443">
        <ele>266</ele>
        <time>2014-04-06T06:50:20Z</time>
      </trkpt>
      <trkpt lat="47.42227" lon="6.6744">
        <ele>267</ele>
        <time>2014-04-06T06:50:22Z</time>
      </trkpt>
      <trkpt lat="47.42219" lon="6.67434">
        <ele>267</ele>
        <time>2014-04-06T06:50:25Z</time>
      </trkpt>
      <trkpt lat="47.42214" lon="6.6743">
        <ele>268</ele>
        <time>2014-04-06T06:50:27Z</time>
      </trkpt>
      <trkpt lat="47.42205" lon="6.67425">
        <ele>269</ele>
        <time>2014-04-06T06:50:30Z</time>
      </trkpt>
      <trkpt lat="47.42197" lon="6.67419">
        <ele>270</ele>
        <time>2014-04-06T06:50:33Z</time>
      </trkpt>
      <trkpt lat="47.42192" lon="6.67414">
        <ele>270</ele>
        <time>2014-04-06T06:50:35Z</time>
      </trkpt>
      <trkpt lat="47.42187" lon="6.6741">
        <ele>271</ele>
        <time>2014-04-06T06:50:37Z</time>
      </trkpt>
      <trkpt lat="47.42177" lon="6.67403">
        <ele>271</ele>
        <time>2014-04-06T06:50:40Z</time>
      </trkpt>
      <trkpt lat="47.42169" lon="6.67398">
        <ele>272</ele>
        <time>2014-04-06T06:50:43Z</time>
      </trkpt>
      <trkpt lat="47.42163" lon="6.67394">
        <ele>272</ele>
        <time>2014-04-06T06:50:45Z</time>
      </trkpt>
      <trkpt lat="47.42156" lon="6.67389">
        <ele>273</ele>
        <time>2014-04-06T06:50:48Z</time>
      </trkpt>
      <trkpt lat="47.42151" lon="6.67385">
        <ele>273</ele>
        <time>2014-04-06T06:50:50Z</time>
      </trkpt>
      <trkpt lat="47.42146" lon="6.67381">
        <ele>273</ele>
        <time>2014-04-06T06:50:52Z</time>
      </trkpt>
      <trkpt lat="47.42141" lon="6.67377">
        <ele>274</ele>
        <time>2014-04-06T06:50:55Z</time>
      </trkpt>
      <trkpt lat="47.42135" lon="6.6737">
        <ele>274</ele>
        <time>2014-04-06T06:50:57Z</time>
      </trkpt>
      <trkpt lat="47.4213" lon="6.67362">
        <ele>274</ele>
        <time>2014-04-06T06:51:00Z</time>
      </trkpt>
      <trkpt lat="47.42126" lon="6.67356">
        <ele>275</ele>
        <time>2014-04-06T06:51:02Z</time>
      </trkpt>
      <trkpt lat="47.4212" lon="6.67347">
        <ele>275</ele>
        <time>2014-04-06T06:51:05Z</time>
      </trkpt>
      <trkpt lat="47.42117" lon="6.67342">
        <ele>275</ele>
        <time>2014-04-06T06:51:07Z</time>
      </trkpt>
      <trkpt lat="47.42113" lon="6.67336">
        <ele>276</ele>
        <time>2014-04-06T06:51:09Z</time>
      </trkpt>
      <trkpt lat="47.42108" lon="6.67328">
        <ele>277</ele>
        <time>2014-04-06T06:51:12Z</time>
      </trkpt>
      <trkpt lat="47.42104" lon="6.67322">
        <ele>277</ele>
        <time>2014-04-06T06:51:14Z</time>
      </trkpt>
      <trkpt lat="47.421" lon="6.67315">
        <ele>277</ele>
        <time>2014-04-06T06:51:17Z</time>
      </trkpt>
      <trkpt lat="47.42094" lon="6.67309">
        <ele>278</ele>
        <time>2014-04-06T06:51:20Z</time>
      </trkpt>
      <trkpt lat="47.42089" lon="6.67304">
        <ele>278</ele>
        <time>2014-04-06T06:51:22Z</time>
      </trkpt>
      <trkpt lat="47.42086" lon="6.673">
        <ele>278</ele>
        <time>2014-04-06T06:51:24Z</time>
      </trkpt>
      <trkpt lat="47.42079" lon="6.67294">
        <ele>279</ele>
        <time>2014-04-06T06:51:27Z</time>
      </trkpt>
      <trkpt lat="47.42075" lon="6.6729">
        <ele>279</ele>
        <time>2014-04-06T06:51:29Z</time>
      </trkpt>
      <trkpt lat="47.42068" lon="6.67287">
        <ele>279</ele>
        <time>2014-04-06T06:51:31Z</time>
      </trkpt>
      <trkpt lat="47.42059" lon="6.67282">
        <ele>280</ele>
        <time>2014-04-06T06:51:34Z</time>
      </trkpt>
      <trkpt lat="47.42052" lon="6.67279">
        <ele>280</ele>
        <time>2014-04-06T06:51:36Z</time>
      </trkpt>
      <trkpt lat="47.42046" lon="6.67277">
        <ele>280</ele>
        <time>2014-04-06T06:51:38Z</time>
      </trkpt>
      <trkpt lat="47.42036" lon="6.67274">
        <ele>281</ele>
        <time>2014-04-06T06:51:41Z</time>
      </trkpt>
      <trkpt lat="47.4203" lon="6.67272">
        <ele>281</ele>
        <time>2014-04-06T06:51:43Z</time>
      </trkpt>
      <trkpt lat="47.4202" lon="6.67268">
        <ele>282</ele>
        <time>2014-04-06T06:51:46Z</time>
      </trkpt>
      <trkpt lat="47.42013" lon="6.67266">
        <ele>282</ele>
        <time>2014-04-06T06:51:48Z</time>
      </trkpt>
      <trkpt lat="47.42007" lon="6.67264">
        <ele>283</ele>
        <time>2014-04-06T06:51:50Z</time>
      </trkpt>
      <trkpt lat="47.41997" lon="6.67261">
        <ele>283</ele>
        <time>2014-04-06T06:51:53Z</time>
      </trkpt>
      <trkpt lat="47.4199" lon="6.67259">
        <ele>284</ele>
        <time>2014-04-06T06:51:55Z</time>
      </trkpt>
      <trkpt lat="47.41984" lon="6.67257">
        <ele>284</ele>
        <time>2014-04-06T06:51:57Z</time>
      </trkpt>
      <trkpt lat="47.41978" lon="6.67255">
        <ele>284</ele>
        <time>2014-04-06T06:51:59Z</time>
      </trkpt>
      <trkpt lat="47.41972" lon="6.67253">
        <ele>285</ele>
        <time>2014-04-06T06:52:02Z</time>
      </trkpt>
      <trkpt lat="47.41962" lon="6.67251">
        <ele>285</ele>
        <time>2014-04-06T06:52:04Z</time>
      </trkpt>
      <trkpt lat="47.41956" lon="6.6725">
        <ele>285</ele>
        <time>2014-04-06T06:52:06Z</time>
      </trkpt>
      <trkpt lat="47.4195" lon="6.6725">
        <ele>286</ele>
        <time>2014-04-06T06:52:08Z</time>
      </trkpt>
      <trkpt lat="47.41941" lon="6.6725">
        <ele>286</ele>
        <time>2014-04-06T06:52:11Z</time>
      </trkpt>
      <trkpt lat="47.41935" lon="6.67251">
        <ele>286</ele>
        <time>2014-04-06T06:52:13Z</time>
      </trkpt>
      <trkpt lat="47.41927" lon="6.67251">
        <ele>287</ele>
        <time>2014-04-06T06:52:16Z</time>
      </trkpt>
      <trkpt lat="47.41922" lon="6.67252">
        <ele>287</ele>
        <time>2014-04-06T06:52:18Z</time>
      </trkpt>
      <trkpt lat="47.41918" lon="6.67251">
        <ele>287</ele>
        <time>2014-04-06T06:52:20Z</time>
      </trkpt>
      <trkpt lat="47.41913" lon="6.67252">
        <ele>287</ele>
        <time>2014-04-06T06:52:23Z</time>
      </trkpt>
      <trkpt lat="47.4191" lon="6.67252">
        <ele>288</ele>
        <time>2014-04-06T06:52:25Z</time>
      </trkpt>
      <trkpt lat="47.41906" lon="6.67251">
        <ele>288</ele>
        <time>2014-04-06T06:52:27Z</time>
      </trkpt>
      <trkpt lat="47.419" lon="6.67248">
        <ele>288</ele>
        <time>2014-04-06T06:52:30Z</time>
      </trkpt>
      <trkpt lat="47.41893" lon="6.67245">
        <ele>289</ele>
        <time>2014-04-06T06:52:33Z</time>
      </trkpt>
      <trkpt lat="47.41889" lon="6.67244">
        <ele>289</ele>
        <time>2014-04-06T06:52:35Z</time>
      </trkpt>
      <trkpt lat="47.41883" lon="6.67243">
        <ele>289</ele>
        <time>2014-04-06T06:52:38Z</time>
      </trkpt>
      <trkpt lat="47.41876" lon="6.67241">
        <ele>290</ele>
        <time>2014-04-06T06:52:41Z</time>
      </trkpt>
      <trkpt lat="47.4187" lon="6.6724">
        <ele>290</ele>
        <time>2014-04-06T06:52:43Z</time>
      </trkpt>
      <trkpt lat="47.41864" lon="6.67239">
        <ele>291</ele>
        <time>2014-04-06T06:52:45Z</time>
      </trkpt>
      <trkpt lat="47.41858" lon="6.67239">
        <ele>291</ele>
        <time>2014-04-06T06:52:47Z</time>
      </trkpt>
      <trkpt lat="47.41851" lon="6.67239">
        <ele>291</ele>
        <time>2014-04-06T06:52:49Z</time>
      </trkpt>
      <trkpt lat="47.41842" lon="6.67241">
        <ele>292</ele>
        <time>2014-04-06T06:52:52Z</time>
      </trkpt>
      <trkpt lat="47.41837" lon="6.67242">
        <ele>292</ele>
        <time>2014-04-06T06:52:54Z</time>
      </trkpt>
      <trkpt lat="47.41831" lon="6.67243">
        <ele>293</ele>
        <time>2014-04-06T06:52:56Z</time>
      </trkpt>
      <trkpt lat="47.41823" lon="6.67246">
        <ele>293</ele>
        <time>2014-04-06T06:52:59Z</time>
      </trkpt>
      <trkpt lat="47.41818" lon="6.67248">
        <ele>293</ele>
        <time>2014-04-06T06:53:01Z</time>
      </trkpt>
      <trkpt lat="47.41813" lon="6.6725">
        <ele>294</ele>
        <time>2014-04-06T06:53:03Z</time>
      </trkpt>
      <trkpt lat="47.41808" lon="6.67252">
        <ele>294</ele>
        <time>2014-04-06T06:53:06Z</time>
      </trkpt>
      <trkpt lat="47.41801" lon="6.67256">
        <ele>295</ele>
        <time>2014-04-06T06:53:08Z</time>
      </trkpt>
      <trkpt lat="47.41795" lon="6.67259">
        <ele>295</ele>
        <time>2014-04-06T06:53:10Z</time>
      </trkpt>
      <trkpt lat="47.4179" lon="6.67261">
        <ele>295</ele>
        <time>2014-04-06T06:53:12Z</time>
      </trkpt>
      <trkpt lat="47.41783" lon="6.67263">
        <ele>296</ele>
        <time>2014-04-06T06:53:15Z</time>
      </trkpt>
      <trkpt lat="47.41779" lon="6.67264">
        <ele>297</ele>
        <time>2014-04-06T06:53:17Z</time>
      </trkpt>
      <trkpt lat="47.41772" lon="6.67266">
        <ele>297</ele>
        <time>2014-04-06T06:53:20Z</time>
      </trkpt>
      <trkpt lat="47.41768" lon="6.67267">
        <ele>298</ele>
        <time>2014-04-06T06:53:22Z</time>
      </trkpt>
      <trkpt lat="47.41764" lon="6.67267">
        <ele>298</ele>
        <time>2014-04-06T06:53:24Z</time>
      </trkpt>
      <trkpt lat="47.41757" lon="6.67269">
        <ele>298</ele>
        <time>2014-04-06T06:53:27Z</time>
      </trkpt>
      <trkpt lat="47.41753" lon="6.67271">
        <ele>299</ele>
        <time>2014-04-06T06:53:29Z</time>
      </trkpt>
      <trkpt lat="47.41748" lon="6.67273">
        <ele>299</ele>
        <time>2014-04-06T06:53:31Z</time>
      </trkpt>
      <trkpt lat="47.4174" lon="6.67276">
        <ele>299</ele>
        <time>2014-04-06T06:53:34Z</time>
      </trkpt>
      <trkpt lat="47.41735" lon="6.67277">
        <ele>300</ele>
        <time>2014-04-06T06:53:36Z</time>
      </trkpt>
      <trkpt lat="47.4173" lon="6.67279">
        <ele>300</ele>
        <time>2014-04-06T06:53:38Z</time>
      </trkpt>
      <trkpt lat="47.41722" lon="6.67281">
        <ele>301</ele>
        <time>2014-04-06T06:53:41Z</time>
      </trkpt>
      <trkpt lat="47.41717" lon="6.67282">
        <ele>301</ele>
        <time>2014-04-06T06:53:43Z</time>
      </trkpt>
      <trkpt lat="47.41712" lon="6.67283">
        <ele>301</ele>
        <time>2014-04-06T06:53:45Z</time>
      </trkpt>
      <trkpt lat="47.41705" lon="6.67285">
        <ele>302</ele>
        <time>2014-04-06T06:53:48Z</time>
      </trkpt>
      <trkpt lat="47.41701" lon="6.67286">
        <ele>302</ele>
        <time>2014-04-06T06:53:50Z</time>
      </trkpt>
      <trkpt lat="47.41697" lon="6.67286">
        <ele>302</ele>
        <time>2014-04-06T06:53:52Z</time>
      </trkpt>
      <trkpt lat="47.41692" lon="6.67287">
        <ele>303</ele>
        <time>2014-04-06T06:53:54Z</time>
      </trkpt>
      <trkpt lat="47.41687" lon="6.67287">
        <ele>303</ele>
        <time>2014-04-06T06:53:56Z</time>
      </trkpt>
      <trkpt lat="47.41682" lon="6.67287">
        <ele>303</ele>
        <time>2014-04-06T06:53:58Z</time>
      </trkpt>
      <trkpt lat="47.41674" lon="6.67287">
        <ele>303</ele>
        <time>2014-04-06T06:54:01Z</time>
      </trkpt>
      <trkpt lat="47.4167" lon="6.67287">
        <ele>303</ele>
        <time>2014-04-06T06:54:03Z</time>
      </trkpt>
      <trkpt lat="47.41663" lon="6.67287">
        <ele>303</ele>
        <time>2014-04-06T06:54:06Z</time>
      </trkpt>
      <trkpt lat="47.41658" lon="6.67287">
        <ele>304</ele>
        <time>2014-04-06T06:54:08Z</time>
      </trkpt>
      <trkpt lat="47.41653" lon="6.67287">
        <ele>304</ele>
        <time>2014-04-06T06:54:10Z</time>
      </trkpt>
      <trkpt lat="47.41645" lon="6.67287">
        <ele>305</ele>
        <time>2014-04-06T06:54:13Z</time>
      </trkpt>
      <trkpt lat="47.4164" lon="6.67288">
        <ele>305</ele>
        <time>2014-04-06T06:54:15Z</time>
      </trkpt>
      <trkpt lat="47.41636" lon="6.67289">
        <ele>305</ele>
        <time>2014-04-06T06:54:17Z</time>
      </trkpt>
      <trkpt lat="47.41629" lon="6.67291">
        <ele>305</ele>
        <time>2014-04-06T06:54:20Z</time>
      </trkpt>
      <trkpt lat="47.41624" lon="6.67292">
        <ele>306</ele>
        <time>2014-04-06T06:54:22Z</time>
      </trkpt>
      <trkpt lat="47.41619" lon="6.67293">
        <ele>306</ele>
        <time>2014-04-06T06:54:24Z</time>
      </trkpt>
      <trkpt lat="47.41613" lon="6.67294">
        <ele>307</ele>
        <time>2014-04-06T06:54:27Z</time>
      </trkpt>
      <trkpt lat="47.41608" lon="6.67295">
        <ele>307</ele>
        <time>2014-04-06T06:54:29Z</time>
      </trkpt>
      <trkpt lat="47.41604" lon="6.67296">
        <ele>307</ele>
        <time>2014-04-06T06:54:31Z</time>
      </trkpt>
      <trkpt lat="47.416" lon="6.67298">
        <ele>307</ele>
        <time>2014-04-06T06:54:33Z</time>
      </trkpt>
      <trkpt lat="47.41595" lon="6.67299">
        <ele>307</ele>
        <time>2014-04-06T06:54:35Z</time>
      </trkpt>
      <trkpt lat="47.41592" lon="6.673">
        <ele>308</ele>
        <time>2014-04-06T06:54:37Z</time>
      </trkpt>
      <trkpt lat="47.41587" lon="6.67301">
        <ele>308</ele>
        <time>2014-04-06T06:54:39Z</time>
      </trkpt>
      <trkpt lat="47.41581" lon="6.67303">
        <ele>309</ele>
        <time>2014-04-06T06:54:42Z</time>
      </trkpt>
      <trkpt lat="47.41577" lon="6.67304">
        <ele>309</ele>
        <time>2014-04-06T06:54:44Z</time>
      </trkpt>
      <trkpt lat="47.41573" lon="6.67305">
        <ele>309</ele>
        <time>2014-04-06T06:54:46Z</time>
      </trkpt>
      <trkpt lat="47.41569" lon="6.67306">
        <ele>310</ele>
        <time>2014-04-06T06:54:48Z</time>
      </trkpt>
      <trkpt lat="47.41563" lon="6.67307">
        <ele>310</ele>
        <time>2014-04-06T06:54:51Z</time>
      </trkpt>
      <trkpt lat="47.41557" lon="6.67309">
        <ele>310</ele>
        <time>2014-04-06T06:54:54Z</time>
      </trkpt>
      <trkpt lat="47.41551" lon="6.67309">
        <ele>311</ele>
        <time>2014-04-06T06:54:57Z</time>
      </trkpt>
      <trkpt lat="47.41546" lon="6.67309">
        <ele>311</ele>
        <time>2014-04-06T06:54:59Z</time>
      </trkpt>
      <trkpt lat="47.4154" lon="6.67308">
        <ele>311</ele>
        <time>2014-04-06T06:55:02Z</time>
      </trkpt>
      <trkpt lat="47.41534" lon="6.67307">
        <ele>311</ele>
        <time>2014-04-06T06:55:05Z</time>
      </trkpt>
      <trkpt lat="47.41527" lon="6.67306">
        <ele>312</ele>
        <time>2014-04-06T06:55:08Z</time>
      </trkpt>
      <trkpt lat="47.41523" lon="6.67306">
        <ele>312</ele>
        <time>2014-04-06T06:55:10Z</time>
      </trkpt>
      <trkpt lat="47.41518" lon="6.67305">
        <ele>312</ele>
        <time>2014-04-06T06:55:12Z</time>
      </trkpt>
      <trkpt lat="47.41511" lon="6.67304">
        <ele>312</ele>
        <time>2014-04-06T06:55:15Z</time>
      </trkpt>
      <trkpt lat="47.41506" lon="6.67304">
        <ele>313</ele>
        <time>2014-04-06T06:55:17Z</time>
      </trkpt>
      <trkpt lat="47.41502" lon="6.67304">
        <ele>313</ele>
        <time>2014-04-06T06:55:20Z</time>
      </trkpt>
      <trkpt lat="47.41495" lon="6.67303">
        <ele>313</ele>
        <time>2014-04-06T06:55:22Z</time>
      </trkpt>
      <trkpt lat="47.41488" lon="6.67302">
        <ele>313</ele>
        <time>2014-04-06T06:55:25Z</time>
      </trkpt>
      <trkpt lat="47.4148" lon="6.67302">
        <ele>314</ele>
        <time>2014-04-06T06:55:28Z</time>
      </trkpt>
      <trkpt lat="47.41473" lon="6.67301">
        <ele>314</ele>
        <time>2014-04-06T06:55:31Z</time>
      </trkpt>
      <trkpt lat="47.41468" lon="6.67301">
        <ele>315</ele>
        <time>2014-04-06T06:55:33Z</time>
      </trkpt>
      <trkpt lat="47.41463" lon="6.673">
        <ele>315</ele>
        <time>2014-04-06T06:55:35Z</time>
      </trkpt>
      <trkpt lat="47.41455" lon="6.67298">
        <ele>315</ele>
        <time>2014-04-06T06:55:38Z</time>
      </trkpt>
      <trkpt lat="47.41448" lon="6.67297">
        <ele>316</ele>
        <time>2014-04-06T06:55:41Z</time>
      </trkpt>
      <trkpt lat="47.41439" lon="6.67297">
        <ele>316</ele>
        <time>2014-04-06T06:55:44Z</time>
      </trkpt>
      <trkpt lat="47.41431" lon="6.67295">
        <ele>316</ele>
        <time>2014-04-06T06:55:47Z</time>
      </trkpt>
      <trkpt lat="47.41426" lon="6.67294">
        <ele>317</ele>
        <time>2014-04-06T06:55:49Z</time>
      </trkpt>
      <trkpt lat="47.41418" lon="6.67294">
        <ele>317</ele>
        <time>2014-04-06T06:55:52Z</time>
      </trkpt>
      <trkpt lat="47.41412" lon="6.67294">
        <ele>317</ele>
        <time>2014-04-06T06:55:55Z</time>
      </trkpt>
      <trkpt lat="47.41407" lon="6.67294">
        <ele>318</ele>
        <time>2014-04-06T06:55:57Z</time>
      </trkpt>
      <trkpt lat="47.414" lon="6.67293">
        <ele>318</ele>
        <time>2014-04-06T06:56:00Z</time>
      </trkpt>
      <trkpt lat="47.41394" lon="6.67292">
        <ele>319</ele>
        <time>2014-04-06T06:56:03Z</time>
      </trkpt>
      <trkpt lat="47.41387" lon="6.67291">
        <ele>319</ele>
        <time>2014-04-06T06:56:06Z</time>
      </trkpt>
      <trkpt lat="47.41382" lon="6.6729">
        <ele>319</ele>
        <time>2014-04-06T06:56:08Z</time>
      </trkpt>
      <trkpt lat="47.41376" lon="6.6729">
        <ele>320</ele>
        <time>2014-04-06T06:56:11Z</time>
      </trkpt>
      <trkpt lat="47.41373" lon="6.6729">
        <ele>321</ele>
        <time>2014-04-06T06:56:13Z</time>
      </trkpt>
      <trkpt lat="47.41369" lon="6.6729">
        <ele>321</ele>
        <time>2014-04-06T06:56:15Z</time>
      </trkpt>
      <trkpt lat="47.41365" lon="6.6729">
        <ele>322</ele>
        <time>2014-04-06T06:56:17Z</time>
      </trkpt>
      <trkpt lat="47.41359" lon="6.67289">
        <ele>322</ele>
        <time>2014-04-06T06:56:20Z</time>
      </trkpt>
      <trkpt lat="47.41356" lon="6.67288">
        <ele>322</ele>
        <time>2014-04-06T06:56:22Z</time>
      </trkpt>
      <trkpt lat="47.41352" lon="6.67286">
        <ele>322</ele>
        <time>2014-04-06T06:56:24Z</time>
      </trkpt>
      <trkpt lat="47.41348" lon="6.67284">
        <ele>322</ele>
        <time>2014-04-06T06:56:26Z</time>
      </trkpt>
      <trkpt lat="47.41344" lon="6.67283">
        <ele>323</ele>
        <time>2014-04-06T06:56:28Z</time>
      </trkpt>
      <trkpt lat="47.41338" lon="6.6728">
        <ele>324</ele>
        <time>2014-04-06T06:56:31Z</time>
      </trkpt>
      <trkpt lat="47.41333" lon="6.67278">
        <ele>324</ele>
        <time>2014-04-06T06:56:34Z</time>
      </trkpt>
      <trkpt lat="47.41328" lon="6.67276">
        <ele>325</ele>
        <time>2014-04-06T06:56:36Z</time>
      </trkpt>
      <trkpt lat="47.41323" lon="6.67275">
        <ele>325</ele>
        <time>2014-04-06T06:56:38Z</time>
      </trkpt>
      <trkpt lat="47.41318" lon="6.67273">
        <ele>326</ele>
        <time>2014-04-06T06:56:40Z</time>
      </trkpt>
      <trkpt lat="47.41309" lon="6.67269">
        <ele>326</ele>
        <time>2014-04-06T06:56:43Z</time>
      </trkpt>
      <trkpt lat="47.41302" lon="6.67269">
        <ele>327</ele>
        <time>2014-04-06T06:56:45Z</time>
      </trkpt>
      <trkpt lat="47.41294" lon="6.67266">
        <ele>327</ele>
        <time>2014-04-06T06:56:48Z</time>
      </trkpt>
      <trkpt lat="47.41286" lon="6.67263">
        <ele>328</ele>
        <time>2014-04-06T06:56:51Z</time>
      </trkpt>
      <trkpt lat="47.41277" lon="6.6726">
        <ele>328</ele>
        <time>2014-04-06T06:56:54Z</time>
      </trkpt>
      <trkpt lat="47.41271" lon="6.67258">
        <ele>329</ele>
        <time>2014-04-06T06:56:56Z</time>
      </trkpt>
      <trkpt lat="47.41266" lon="6.67256">
        <ele>329</ele>
        <time>2014-04-06T06:56:58Z</time>
      </trkpt>
      <trkpt lat="47.41261" lon="6.67254">
        <ele>329</ele>
        <time>2014-04-06T06:57:00Z</time>
      </trkpt>
      <trkpt lat="47.41253" lon="6.6725">
        <ele>330</ele>
        <time>2014-04-06T06:57:03Z</time>
      </trkpt>
      <trkpt lat="47.41247" lon="6.67247">
        <ele>330</ele>
        <time>2014-04-06T06:57:06Z</time>
      </trkpt>
      <trkpt lat="47.41243" lon="6.67244">
        <ele>330</ele>
        <time>2014-04-06T06:57:08Z</time>
      </trkpt>
      <trkpt lat="47.41239" lon="6.67241">
        <ele>331</ele>
        <time>2014-04-06T06:57:10Z</time>
      </trkpt>
      <trkpt lat="47.41233" lon="6.67238">
        <ele>331</ele>
        <time>2014-04-06T06:57:13Z</time>
      </trkpt>
      <trkpt lat="47.41227" lon="6.67236">
        <ele>332</ele>
        <time>2014-04-06T06:57:16Z</time>
      </trkpt>
      <trkpt lat="47.41222" lon="6.67232">
        <ele>333</ele>
        <time>2014-04-06T06:57:19Z</time>
      </trkpt>
      <trkpt lat="47.41215" lon="6.6723">
        <ele>333</ele>
        <time>2014-04-06T06:57:22Z</time>
      </trkpt>
      <trkpt lat="47.41212" lon="6.67228">
        <ele>333</ele>
        <time>2014-04-06T06:57:24Z</time>
      </trkpt>
      <trkpt lat="47.41206" lon="6.67227">
        <ele>333</ele>
        <time>2014-04-06T06:57:27Z</time>
      </trkpt>
      <trkpt lat="47.41203" lon="6.67225">
        <ele>334</ele>
        <time>2014-04-06T06:57:29Z</time>
      </trkpt>
      <trkpt lat="47.41198" lon="6.67223">
        <ele>334</ele>
        <time>2014-04-06T06:57:31Z</time>
      </trkpt>
      <trkpt lat="47.41191" lon="6.67221">
        <ele>335</ele>
        <time>2014-04-06T06:57:34Z</time>
      </trkpt>
      <trkpt lat="47.41184" lon="6.67218">
        <ele>335</ele>
        <time>2014-04-06T06:57:37Z</time>
      </trkpt>
      <trkpt lat="47.41178" lon="6.67216">
        <ele>336</ele>
        <time>2014-04-06T06:57:40Z</time>
      </trkpt>
      <trkpt lat="47.41173" lon="6.67215">
        <ele>337</ele>
        <time>2014-04-06T06:57:43Z</time>
      </trkpt>
      <trkpt lat="47.41169" lon="6.67214">
        <ele>337</ele>
        <time>2014-04-06T06:57:45Z</time>
      </trkpt>
      <trkpt lat="47.41162" lon="6.67213">
        <ele>337</ele>
        <time>2014-04-06T06:57:48Z</time>
      </trkpt>
      <trkpt lat="47.41159" lon="6.67212">
        <ele>337</ele>
        <time>2014-04-06T06:57:50Z</time>
      </trkpt>
      <trkpt lat="47.41153" lon="6.67211">
        <ele>338</ele>
        <time>2014-04-06T06:57:53Z</time>
      </trkpt>
      <trkpt lat="47.41147" lon="6.67209">
        <ele>338</ele>
        <time>2014-04-06T06:57:56Z</time>
      </trkpt>
      <trkpt lat="47.41141" lon="6.67206">
        <ele>339</ele>
        <time>2014-04-06T06:57:59Z</time>
      </trkpt>
      <trkpt lat="47.41136" lon="6.67205">
        <ele>340</ele>
        <time>2014-04-06T06:58:01Z</time>
      </trkpt>
      <trkpt lat="47.41132" lon="6.67204">
        <ele>340</ele>
        <time>2014-04-06T06:58:03Z</time>
      </trkpt>
      <trkpt lat="47.41127" lon="6.67203">
        <ele>340</ele>
        <time>2014-04-06T06:58:05Z</time>
      </trkpt>
      <trkpt lat="47.4112" lon="6.67203">
        <ele>341</ele>
        <time>2014-04-06T06:58:08Z</time>
      </trkpt>
      <trkpt lat="47.41115" lon="6.67204">
        <ele>341</ele>
        <time>2014-04-06T06:58:11Z</time>
      </trkpt>
      <trkpt lat="47.41113" lon="6.67205">
        <ele>341</ele>
        <time>2014-04-06T06:58:13Z</time>
      </trkpt>
      <trkpt lat="47.4111" lon="6.67207">
        <ele>342</ele>
        <time>2014-04-06T06:58:15Z</time>
      </trkpt>
      <trkpt lat="47.41107" lon="6.67208">
        <ele>342</ele>
        <time>2014-04-06T06:58:17Z</time>
      </trkpt>
      <trkpt lat="47.41103" lon="6.67209">
        <ele>342</ele>
        <time>2014-04-06T06:58:20Z</time>
      </trkpt>
      <trkpt lat="47.411" lon="6.67211">
        <ele>342</ele>
        <time>2014-04-06T06:58:22Z</time>
      </trkpt>
      <trkpt lat="47.41096" lon="6.67214">
        <ele>343</ele>
        <time>2014-04-06T06:58:25Z</time>
      </trkpt>
      <trkpt lat="47.41093" lon="6.67215">
        <ele>344</ele>
        <time>2014-04-06T06:58:27Z</time>
      </trkpt>
      <trkpt lat="47.4109" lon="6.67217">
        <ele>344</ele>
        <time>2014-04-06T06:58:29Z</time>
      </trkpt>
      <trkpt lat="47.41086" lon="6.6722">
        <ele>344</ele>
        <time>2014-04-06T06:58:31Z</time>
      </trkpt>
      <trkpt lat="47.41081" lon="6.67224">
        <ele>344</ele>
        <time>2014-04-06T06:58:34Z</time>
      </trkpt>
      <trkpt lat="47.41077" lon="6.67228">
        <ele>345</ele>
        <time>2014-04-06T06:58:36Z</time>
      </trkpt>
      <trkpt lat="47.41073" lon="6.67231">
        <ele>345</ele>
        <time>2014-04-06T06:58:38Z</time>
      </trkpt>
      <trkpt lat="47.41068" lon="6.67234">
        <ele>346</ele>
        <time>2014-04-06T06:58:40Z</time>
      </trkpt>
      <trkpt lat="47.41064" lon="6.67237">
        <ele>346</ele>
        <time>2014-04-06T06:58:42Z</time>
      </trkpt>
      <trkpt lat="47.41057" lon="6.67241">
        <ele>347</ele>
        <time>2014-04-06T06:58:45Z</time>
      </trkpt>
      <trkpt lat="47.41052" lon="6.67243">
        <ele>347</ele>
        <time>2014-04-06T06:58:47Z</time>
      </trkpt>
      <trkpt lat="47.41048" lon="6.67246">
        <ele>347</ele>
        <time>2014-04-06T06:58:49Z</time>
      </trkpt>
      <trkpt lat="47.41044" lon="6.67248">
        <ele>348</ele>
        <time>2014-04-06T06:58:51Z</time>
      </trkpt>
      <trkpt lat="47.41037" lon="6.67253">
        <ele>348</ele>
        <time>2014-04-06T06:58:54Z</time>
      </trkpt>
      <trkpt lat="47.41032" lon="6.67255">
        <ele>348</ele>
        <time>2014-04-06T06:58:56Z</time>
      </trkpt>
      <trkpt lat="47.41027" lon="6.67256">
        <ele>348</ele>
        <time>2014-04-06T06:58:58Z</time>
      </trkpt>
      <trkpt lat="47.41023" lon="6.67258">
        <ele>349</ele>
        <time>2014-04-06T06:59:00Z</time>
      </trkpt>
      <trkpt lat="47.41017" lon="6.67261">
        <ele>349</ele>
        <time>2014-04-06T06:59:03Z</time>
      </trkpt>
      <trkpt lat="47.41013" lon="6.67262">
        <ele>350</ele>
        <time>2014-04-06T06:59:05Z</time>
      </trkpt>
      <trkpt lat="47.4101" lon="6.67264">
        <ele>350</ele>
        <time>2014-04-06T06:59:07Z</time>
      </trkpt>
      <trkpt lat="47.41007" lon="6.67265">
        <ele>351</ele>
        <time>2014-04-06T06:59:09Z</time>
      </trkpt>
      <trkpt lat="47.41003" lon="6.67267">
        <ele>351</ele>
        <time>2014-04-06T06:59:12Z</time>
      </trkpt>
      <trkpt lat="47.41" lon="6.67269">
        <ele>352</ele>
        <time>2014-04-06T06:59:14Z</time>
      </trkpt>
      <trkpt lat="47.40994" lon="6.67272">
        <ele>352</ele>
        <time>2014-04-06T06:59:17Z</time>
      </trkpt>
      <trkpt lat="47.4099" lon="6.67275">
        <ele>352</ele>
        <time>2014-04-06T06:59:19Z</time>
      </trkpt>
      <trkpt lat="47.40987" lon="6.67277">
        <ele>352</ele>
        <time>2014-04-06T06:59:21Z</time>
      </trkpt>
      <trkpt lat="47.40984" lon="6.67279">
        <ele>353</ele>
        <time>2014-04-06T06:59:23Z</time>
      </trkpt>
      <trkpt lat="47.40979" lon="6.67283">
        <ele>353</ele>
        <time>2014-04-06T06:59:26Z</time>
      </trkpt>
      <trkpt lat="47.40977" lon="6.67286">
        <ele>354</ele>
        <time>2014-04-06T06:59:28Z</time>
      </trkpt>
      <trkpt lat="47.40973" lon="6.67289">
        <ele>354</ele>
        <time>2014-04-06T06:59:30Z</time>
      </trkpt>
      <trkpt lat="47.4097" lon="6.67292">
        <ele>354</ele>
        <time>2014-04-06T06:59:32Z</time>
      </trkpt>
      <trkpt lat="47.40966" lon="6.67295">
        <ele>355</ele>
        <time>2014-04-06T06:59:34Z</time>
      </trkpt>
      <trkpt lat="47.40962" lon="6.67299">
        <ele>355</ele>
        <time>2014-04-06T06:59:37Z</time>
      </trkpt>
      <trkpt lat="47.40958" lon="6.67301">
        <ele>355</ele>
        <time>2014-04-06T06:59:39Z</time>
      </trkpt>
      <trkpt lat="47.40955" lon="6.67305">
        <ele>356</ele>
        <time>2014-04-06T06:59:41Z</time>
      </trkpt>
      <trkpt lat="47.40951" lon="6.67307">
        <ele>356</ele>
        <time>2014-04-06T06:59:43Z</time>
      </trkpt>
      <trkpt lat="47.40945" lon="6.67311">
        <ele>357</ele>
        <time>2014-04-06T06:59:46Z</time>
      </trkpt>
      <trkpt lat="47.40942" lon="6.67314">
        <ele>357</ele>
        <time>2014-04-06T06:59:48Z</time>
      </trkpt>
      <trkpt lat="47.40938" lon="6.67317">
        <ele>357</ele>
        <time>2014-04-06T06:59:50Z</time>
      </trkpt>
      <trkpt lat="47.40934" lon="6.6732">
        <ele>357</ele>
        <time>2014-04-06T06:59:52Z</time>
      </trkpt>
      <trkpt lat="47.40928" lon="6.67324">
        <ele>358</ele>
        <time>2014-04-06T06:59:55Z</time>
      </trkpt>
      <trkpt lat="47.40923" lon="6.67327">
        <ele>358</ele>
        <time>2014-04-06T06:59:57Z</time>
      </trkpt>
      <trkpt lat="47.40919" lon="6.67331">
        <ele>359</ele>
        <time>2014-04-06T06:59:59Z</time>
      </trkpt>
      <trkpt lat="47.40916" lon="6.67334">
        <ele>359</ele>
        <time>2014-04-06T07:00:01Z</time>
      </trkpt>
      <trkpt lat="47.40909" lon="6.67339">
        <ele>360</ele>
        <time>2014-04-06T07:00:04Z</time>
      </trkpt>
      <trkpt lat="47.40905" lon="6.67343">
        <ele>359</ele>
        <time>2014-04-06T07:00:06Z</time>
      </trkpt>
      <trkpt lat="47.40902" lon="6.67346">
        <ele>360</ele>
        <time>2014-04-06T07:00:08Z</time>
      </trkpt>
      <trkpt lat="47.40899" lon="6.6735">
        <ele>360</ele>
        <time>2014-04-06T07:00:10Z</time>
      </trkpt>
      <trkpt lat="47.40895" lon="6.67354">
        <ele>360</ele>
        <time>2014-04-06T07:00:12Z</time>
      </trkpt>
      <trkpt lat="47.4089" lon="6.67361">
        <ele>361</ele>
        <time>2014-04-06T07:00:15Z</time>
      </trkpt>
      <trkpt lat="47.40886" lon="6.67366">
        <ele>362</ele>
        <time>2014-04-06T07:00:17Z</time>
      </trkpt>
      <trkpt lat="47.4088" lon="6.67376">
        <ele>363</ele>
        <time>2014-04-06T07:00:20Z</time>
      </trkpt>
      <trkpt lat="47.40877" lon="6.67381">
        <ele>363</ele>
        <time>2014-04-06T07:00:22Z</time>
      </trkpt>
      <trkpt lat="47.40873" lon="6.67385">
        <ele>363</ele>
        <time>2014-04-06T07:00:24Z</time>
      </trkpt>
      <trkpt lat="47.40869" lon="6.67391">
        <ele>364</ele>
        <time>2014-04-06T07:00:26Z</time>
      </trkpt>
      <trkpt lat="47.40864" lon="6.674">
        <ele>365</ele>
        <time>2014-04-06T07:00:29Z</time>
      </trkpt>
      <trkpt lat="47.40858" lon="6.67408">
        <ele>365</ele>
        <time>2014-04-06T07:00:32Z</time>
      </trkpt>
      <trkpt lat="47.40854" lon="6.67413">
        <ele>365</ele>
        <time>2014-04-06T07:00:34Z</time>
      </trkpt>
      <trkpt lat="47.40847" lon="6.67422">
        <ele>366</ele>
        <time>2014-04-06T07:00:37Z</time>
      </trkpt>
      <trkpt lat="47.40842" lon="6.67429">
        <ele>366</ele>
        <time>2014-04-06T07:00:40Z</time>
      </trkpt>
      <trkpt lat="47.40838" lon="6.67433">
        <ele>367</ele>
        <time>2014-04-06T07:00:42Z</time>
      </trkpt>
      <trkpt lat="47.40832" lon="6.67438">
        <ele>367</ele>
        <time>2014-04-06T07:00:45Z</time>
      </trkpt>
      <trkpt lat="47.40828" lon="6.67441">
        <ele>367</ele>
        <time>2014-04-06T07:00:47Z</time>
      </trkpt>
      <trkpt lat="47.40823" lon="6.67442">
        <ele>368</ele>
        <time>2014-04-06T07:00:49Z</time>
      </trkpt>
      <trkpt lat="47.40815" lon="6.67443">
        <ele>369</ele>
        <time>2014-04-06T07:00:52Z</time>
      </trkpt>
      <trkpt lat="47.40811" lon="6.67444">
        <ele>369</ele>
        <time>2014-04-06T07:00:54Z</time>
      </trkpt>
      <trkpt lat="47.40807" lon="6.67444">
        <ele>370</ele>
        <time>2014-04-06T07:00:56Z</time>
      </trkpt>
      <trkpt lat="47.40801" lon="6.67446">
        <ele>370</ele>
        <time>2014-04-06T07:00:59Z</time>
      </trkpt>
      <trkpt lat="47.40797" lon="6.67446">
        <ele>370</ele>
        <time>2014-04-06T07:01:01Z</time>
      </trkpt>
      <trkpt lat="47.40792" lon="6.67447">
        <ele>370</ele>
        <time>2014-04-06T07:01:03Z</time>
      </trkpt>
      <trkpt lat="47.40787" lon="6.67447">
        <ele>371</ele>
        <time>2014-04-06T07:01:06Z</time>
      </trkpt>
      <trkpt lat="47.40783" lon="6.67447">
        <ele>371</ele>
        <time>2014-04-06T07:01:08Z</time>
      </trkpt>
      <trkpt lat="47.40779" lon="6.67446">
        <ele>372</ele>
        <time>2014-04-06T07:01:10Z</time>
      </trkpt>
      <trkpt lat="47.40773" lon="6.67445">
        <ele>372</ele>
        <time>2014-04-06T07:01:13Z</time>
      </trkpt>
      <trkpt lat="47.40769" lon="6.67446">
        <ele>372</ele>
        <time>2014-04-06T07:01:15Z</time>
      </trkpt>
      <trkpt lat="47.40765" lon="6.67446">
        <ele>373</ele>
        <time>2014-04-06T07:01:17Z</time>
      </trkpt>
      <trkpt lat="47.40762" lon="6.67446">
        <ele>373</ele>
        <time>2014-04-06T07:01:19Z</time>
      </trkpt>
      <trkpt lat="47.40756" lon="6.67447">
        <ele>373</ele>
        <time>2014-04-06T07:01:22Z</time>
      </trkpt>
      <trkpt lat="47.40751" lon="6.67449">
        <ele>374</ele>
        <time>2014-04-06T07:01:24Z</time>
      </trkpt>
      <trkpt lat="47.40746" lon="6.67451">
        <ele>374</ele>
        <time>2014-04-06T07:01:26Z</time>
      </trkpt>
      <trkpt lat="47.40741" lon="6.67453">
        <ele>374</ele>
        <time>2014-04-06T07:01:28Z</time>
      </trkpt>
      <trkpt lat="47.40737" lon="6.67455">
        <ele>375</ele>
        <time>2014-04-06T07:01:30Z</time>
      </trkpt>
      <trkpt lat="47.40731" lon="6.67457">
        <ele>375</ele>
        <time>2014-04-06T07:01:33Z</time>
      </trkpt>
      <trkpt lat="47.40725" lon="6.6746">
        <ele>376</ele>
        <time>2014-04-06T07:01:36Z</time>
      </trkpt>
      <trkpt lat="47.40719" lon="6.67463">
        <ele>376</ele>
        <time>2014-04-06T07:01:39Z</time>
      </trkpt>
      <trkpt lat="47.40712" lon="6.67465">
        <ele>377</ele>
        <time>2014-04-06T07:01:42Z</time>
      </trkpt>
      <trkpt lat="47.40708" lon="6.67466">
        <ele>377</ele>
        <time>2014-04-06T07:01:44Z</time>
      </trkpt>
      <trkpt lat="47.40701" lon="6.67467">
        <ele>378</ele>
        <time>2014-04-06T07:01:47Z</time>
      </trkpt>
      <trkpt lat="47.40693" lon="6.67469">
        <ele>378</ele>
        <time>2014-04-06T07:01:50Z</time>
      </trkpt>
      <trkpt lat="47.40689" lon="6.6747">
        <ele>378</ele>
        <time>2014-04-06T07:01:52Z</time>
      </trkpt>
      <trkpt lat="47.40682" lon="6.6747">
        <ele>379</ele>
        <time>2014-04-06T07:01:55Z</time>
      </trkpt>
      <trkpt lat="47.40678" lon="6.6747">
        <ele>379</ele>
        <time>2014-04-06T07:01:57Z</time>
      </trkpt>
      <trkpt lat="47.40674" lon="6.67471">
        <ele>379</ele>
        <time>2014-04-06T07:01:59Z</time>
      </trkpt>
      <trkpt lat="47.40666" lon="6.67472">
        <ele>380</ele>
        <time>2014-04-06T07:02:02Z</time>
      </trkpt>
      <trkpt lat="47.40662" lon="6.67473">
        <ele>381</ele>
        <time>2014-04-06T07:02:04Z</time>
      </trkpt>
      <trkpt lat="47.40654" lon="6.67473">
        <ele>381</ele>
        <time>2014-04-06T07:02:07Z</time>
      </trkpt>
      <trkpt lat="47.40649" lon="6.67474">
        <ele>381</ele>
        <time>2014-04-06T07:02:09Z</time>
      </trkpt>
      <trkpt lat="47.40644" lon="6.67473">
        <ele>381</ele>
        <time>2014-04-06T07:02:11Z</time>
      </trkpt>
      <trkpt lat="47.40636" lon="6.67473">
        <ele>382</ele>
        <time>2014-04-06T07:02:14Z</time>
      </trkpt>
      <trkpt lat="47.40631" lon="6.67472">
        <ele>382</ele>
        <time>2014-04-06T07:02:16Z</time>
      </trkpt>
      <trkpt lat="47.40624" lon="6.67473">
        <ele>383</ele>
        <time>2014-04-06T07:02:19Z</time>
      </trkpt>
      <trkpt lat="47.4062" lon="6.67474">
        <ele>384</ele>
        <time>2014-04-06T07:02:21Z</time>
      </trkpt>
      <trkpt lat="47.40615" lon="6.67478">
        <ele>384</ele>
        <time>2014-04-06T07:02:24Z</time>
      </trkpt>
      <trkpt lat="47.40611" lon="6.6748">
        <ele>385</ele>
        <time>2014-04-06T07:02:26Z</time>
      </trkpt>
      <trkpt lat="47.40604" lon="6.67484">
        <ele>385</ele>
        <time>2014-04-06T07:02:29Z</time>
      </trkpt>
      <trkpt lat="47.406" lon="6.67487">
        <ele>386</ele>
        <time>2014-04-06T07:02:31Z</time>
      </trkpt>
      <trkpt lat="47.40597" lon="6.67488">
        <ele>386</ele>
        <time>2014-04-06T07:02:33Z</time>
      </trkpt>
      <trkpt lat="47.40594" lon="6.6749">
        <ele>386</ele>
        <time>2014-04-06T07:02:35Z</time>
      </trkpt>
      <trkpt lat="47.40588" lon="6.67494">
        <ele>387</ele>
        <time>2014-04-06T07:02:38Z</time>
      </trkpt>
      <trkpt lat="47.40581" lon="6.67497">
        <ele>387</ele>
        <time>2014-04-06T07:02:41Z</time>
      </trkpt>
      <trkpt lat="47.40576" lon="6.67499">
        <ele>387</ele>
        <time>2014-04-06T07:02:43Z</time>
      </trkpt>
      <trkpt lat="47.40569" lon="6.67502">
        <ele>388</ele>
        <time>2014-04-06T07:02:46Z</time>
      </trkpt>
      <trkpt lat="47.40563" lon="6.67504">
        <ele>388</ele>
        <time>2014-04-06T07:02:49Z</time>
      </trkpt>
      <trkpt lat="47.40557" lon="6.67506">
        <ele>389</ele>
        <time>2014-04-06T07:02:52Z</time>
      </trkpt>
      <trkpt lat="47.4055" lon="6.67507">
        <ele>389</ele>
        <time>2014-04-06T07:02:55Z</time>
      </trkpt>
      <trkpt lat="47.40545" lon="6.67508">
        <ele>389</ele>
        <time>2014-04-06T07:02:57Z</time>
      </trkpt>
      <trkpt lat="47.40539" lon="6.67508">
        <ele>390</ele>
        <time>2014-04-06T07:02:59Z</time>
      </trkpt>
      <trkpt lat="47.40532" lon="6.67509">
        <ele>390</ele>
        <time>2014-04-06T07:03:02Z</time>
      </trkpt>
      <trkpt lat="47.40525" lon="6.67509">
        <ele>391</ele>
        <time>2014-04-06T07:03:05Z</time>
      </trkpt>
      <trkpt lat="47.40521" lon="6.67509">
        <ele>391</ele>
        <time>2014-04-06T07:03:07Z</time>
      </trkpt>
      <trkpt lat="47.40517" lon="6.67509">
        <ele>392</ele>
        <time>2014-04-06T07:03:09Z</time>
      </trkpt>
      <trkpt lat="47.4051" lon="6.67509">
        <ele>392</ele>
        <time>2014-04-06T07:03:12Z</time>
      </trkpt>
      <trkpt lat="47.40505" lon="6.67509">
        <ele>392</ele>
        <time>2014-04-06T07:03:14Z</time>
      </trkpt>
      <trkpt lat="47.40501" lon="6.67509">
        <ele>392</ele>
        <time>2014-04-06T07:03:16Z</time>
      </trkpt>
      <trkpt lat="47.40496" lon="6.67509">
        <ele>393</ele>
        <time>2014-04-06T07:03:18Z</time>
      </trkpt>
      <trkpt lat="47.4049" lon="6.67509">
        <ele>393</ele>
        <time>2014-04-06T07:03:21Z</time>
      </trkpt>
      <trkpt lat="47.40485" lon="6.67508">
        <ele>394</ele>
        <time>2014-04-06T07:03:23Z</time>
      </trkpt>
      <trkpt lat="47.40478" lon="6.67508">
        <ele>394</ele>
        <time>2014-04-06T07:03:26Z</time>
      </trkpt>
      <trkpt lat="47.4047" lon="6.67509">
        <ele>395</ele>
        <time>2014-04-06T07:03:29Z</time>
      </trkpt>
      <trkpt lat="47.40466" lon="6.67509">
        <ele>395</ele>
        <time>2014-04-06T07:03:31Z</time>
      </trkpt>
      <trkpt lat="47.40462" lon="6.67509">
        <ele>395</ele>
        <time>2014-04-06T07:03:33Z</time>
      </trkpt>
      <trkpt lat="47.40458" lon="6.67509">
        <ele>395</ele>
        <time>2014-04-06T07:03:35Z</time>
      </trkpt>
      <trkpt lat="47.40454" lon="6.67509">
        <ele>395</ele>
        <time>2014-04-06T07:03:37Z</time>
      </trkpt>
      <trkpt lat="47.40449" lon="6.6751">
        <ele>396</ele>
        <time>2014-04-06T07:03:39Z</time>
      </trkpt>
      <trkpt lat="47.40443" lon="6.6751">
        <ele>396</ele>
        <time>2014-04-06T07:03:42Z</time>
      </trkpt>
      <trkpt lat="47.40439" lon="6.6751">
        <ele>397</ele>
        <time>2014-04-06T07:03:44Z</time>
      </trkpt>
      <trkpt lat="47.40432" lon="6.67511">
        <ele>397</ele>
        <time>2014-04-06T07:03:47Z</time>
      </trkpt>
      <trkpt lat="47.40424" lon="6.67511">
        <ele>398</ele>
        <time>2014-04-06T07:03:50Z</time>
      </trkpt>
      <trkpt lat="47.40419" lon="6.67511">
        <ele>398</ele>
        <time>2014-04-06T07:03:52Z</time>
      </trkpt>
      <trkpt lat="47.40414" lon="6.6751">
        <ele>398</ele>
        <time>2014-04-06T07:03:54Z</time>
      </trkpt>
      <trkpt lat="47.40409" lon="6.67509">
        <ele>399</ele>
        <time>2014-04-06T07:03:56Z</time>
      </trkpt>
      <trkpt lat="47.40403" lon="6.67508">
        <ele>399</ele>
        <time>2014-04-06T07:03:59Z</time>
      </trkpt>
      <trkpt lat="47.40398" lon="6.67506">
        <ele>400</ele>
        <time>2014-04-06T07:04:01Z</time>
      </trkpt>
      <trkpt lat="47.40393" lon="6.67506">
        <ele>400</ele>
        <time>2014-04-06T07:04:03Z</time>
      </trkpt>
      <trkpt lat="47.40388" lon="6.67506">
        <ele>400</ele>
        <time>2014-04-06T07:04:05Z</time>
      </trkpt>
      <trkpt lat="47.40382" lon="6.67506">
        <ele>401</ele>
        <time>2014-04-06T07:04:08Z</time>
      </trkpt>
      <trkpt lat="47.40377" lon="6.67507">
        <ele>401</ele>
        <time>2014-04-06T07:04:10Z</time>
      </trkpt>
      <trkpt lat="47.40371" lon="6.67507">
        <ele>402</ele>
        <time>2014-04-06T07:04:12Z</time>
      </trkpt>
      <trkpt lat="47.40363" lon="6.67508">
        <ele>403</ele>
        <time>2014-04-06T07:04:15Z</time>
      </trkpt>
      <trkpt lat="47.40358" lon="6.67508">
        <ele>403</ele>
        <time>2014-04-06T07:04:17Z</time>
      </trkpt>
      <trkpt lat="47.40352" lon="6.67508">
        <ele>403</ele>
        <time>2014-04-06T07:04:19Z</time>
      </trkpt>
      <trkpt lat="47.40348" lon="6.67509">
        <ele>404</ele>
        <time>2014-04-06T07:04:21Z</time>
      </trkpt>
      <trkpt lat="47.40342" lon="6.67511">
        <ele>404</ele>
        <time>2014-04-06T07:04:24Z</time>
      </trkpt>
      <trkpt lat="47.40335" lon="6.67512">
        <ele>404</ele>
        <time>2014-04-06T07:04:27Z</time>
      </trkpt>
      <trkpt lat="47.40332" lon="6.67513">
        <ele>405</ele>
        <time>2014-04-06T07:04:29Z</time>
      </trkpt>
      <trkpt lat="47.40326" lon="6.67515">
        <ele>405</ele>
        <time>2014-04-06T07:04:32Z</time>
      </trkpt>
      <trkpt lat="47.40321" lon="6.67517">
        <ele>406</ele>
        <time>2014-04-06T07:04:34Z</time>
      </trkpt>
      <trkpt lat="47.40314" lon="6.67519">
        <ele>406</ele>
        <time>2014-04-06T07:04:37Z</time>
      </trkpt>
      <trkpt lat="47.40309" lon="6.6752">
        <ele>407</ele>
        <time>2014-04-06T07:04:39Z</time>
      </trkpt>
      <trkpt lat="47.40301" lon="6.67523">
        <ele>407</ele>
        <time>2014-04-06T07:04:42Z</time>
      </trkpt>
      <trkpt lat="47.40294" lon="6.67526">
        <ele>407</ele>
        <time>2014-04-06T07:04:45Z</time>
      </trkpt>
      <trkpt lat="47.4029" lon="6.67527">
        <ele>407</ele>
        <time>2014-04-06T07:04:48Z</time>
      </trkpt>
      <trkpt lat="47.40287" lon="6.67529">
        <ele>408</ele>
        <time>2014-04-06T07:04:50Z</time>
      </trkpt>
      <trkpt lat="47.40284" lon="6.67531">
        <ele>408</ele>
        <time>2014-04-06T07:04:52Z</time>
      </trkpt>
      <trkpt lat="47.40279" lon="6.67534">
        <ele>409</ele>
        <time>2014-04-06T07:04:55Z</time>
      </trkpt>
      <trkpt lat="47.40271" lon="6.67537">
        <ele>410</ele>
        <time>2014-04-06T07:04:58Z</time>
      </trkpt>
      <trkpt lat="47.40266" lon="6.67538">
        <ele>410</ele>
        <time>2014-04-06T07:05:00Z</time>
      </trkpt>
      <trkpt lat="47.4026" lon="6.67541">
        <ele>410</ele>
        <time>2014-04-06T07:05:03Z</time>
      </trkpt>
      <trkpt lat="47.40253" lon="6.67544">
        <ele>411</ele>
        <time>2014-04-06T07:05:06Z</time>
      </trkpt>
      <trkpt lat="47.40248" lon="6.67545">
        <ele>411</ele>
        <time>2014-04-06T07:05:08Z</time>
      </trkpt>
      <trkpt lat="47.40242" lon="6.67546">
        <ele>412</ele>
        <time>2014-04-06T07:05:11Z</time>
      </trkpt>
      <trkpt lat="47.40239" lon="6.67546">
        <ele>412</ele>
        <time>2014-04-06T07:05:13Z</time>
      </trkpt>
      <trkpt lat="47.40234" lon="6.67547">
        <ele>413</ele>
        <time>2014-04-06T07:05:16Z</time>
      </trkpt>
      <trkpt lat="47.40226" lon="6.67547">
        <ele>413</ele>
        <time>2014-04-06T07:05:19Z</time>
      </trkpt>
      <trkpt lat="47.4022" lon="6.67547">
        <ele>414</ele>
        <time>2014-04-06T07:05:21Z</time>
      </trkpt>
      <trkpt lat="47.40215" lon="6.67547">
        <ele>414</ele>
        <time>2014-04-06T07:05:23Z</time>
      </trkpt>
      <trkpt lat="47.40208" lon="6.67546">
        <ele>414</ele>
        <time>2014-04-06T07:05:26Z</time>
      </trkpt>
      <trkpt lat="47.40204" lon="6.67545">
        <ele>415</ele>
        <time>2014-04-06T07:05:28Z</time>
      </trkpt>
      <trkpt lat="47.40197" lon="6.67543">
        <ele>415</ele>
        <time>2014-04-06T07:05:31Z</time>
      </trkpt>
      <trkpt lat="47.40192" lon="6.67542">
        <ele>415</ele>
        <time>2014-04-06T07:05:33Z</time>
      </trkpt>
      <trkpt lat="47.40187" lon="6.67541">
        <ele>416</ele>
        <time>2014-04-06T07:05:35Z</time>
      </trkpt>
      <trkpt lat="47.40179" lon="6.67538">
        <ele>416</ele>
        <time>2014-04-06T07:05:38Z</time>
      </trkpt>
      <trkpt lat="47.40174" lon="6.67537">
        <ele>416</ele>
        <time>2014-04-06T07:05:40Z</time>
      </trkpt>
      <trkpt lat="47.4017" lon="6.67534">
        <ele>416</ele>
        <time>2014-04-06T07:05:42Z</time>
      </trkpt>
      <trkpt lat="47.40164" lon="6.67531">
        <ele>417</ele>
        <time>2014-04-06T07:05:45Z</time>
      </trkpt>
      <trkpt lat="47.4016" lon="6.67528">
        <ele>417</ele>
        <time>2014-04-06T07:05:47Z</time>
      </trkpt>
      <trkpt lat="47.40156" lon="6.67525">
        <ele>417</ele>
        <time>2014-04-06T07:05:49Z</time>
      </trkpt>
      <trkpt lat="47.40153" lon="6.67519">
        <ele>417</ele>
        <time>2014-04-06T07:05:51Z</time>
      </trkpt>
      <trkpt lat="47.40149" lon="6.67513">
        <ele>417</ele>
        <time>2014-04-06T07:05:53Z</time>
      </trkpt>
      <trkpt lat="47.40146" lon="6.67507">
        <ele>418</ele>
        <time>2014-04-06T07:05:55Z</time>
      </trkpt>
      <trkpt lat="47.40141" lon="6.67499">
        <ele>418</ele>
        <time>2014-04-06T07:05:58Z</time>
      </trkpt>
      <trkpt lat="47.40137" lon="6.67494">
        <ele>418</ele>
        <time>2014-04-06T07:06:00Z</time>
      </trkpt>
      <trkpt lat="47.40135" lon="6.67489">
        <ele>419</ele>
        <time>2014-04-06T07:06:02Z</time>
      </trkpt>
      <trkpt lat="47.4013" lon="6.67482">
        <ele>419</ele>
        <time>2014-04-06T07:06:05Z</time>
      </trkpt>
      <trkpt lat="47.40127" lon="6.67477">
        <ele>419</ele>
        <time>2014-04-06T07:06:07Z</time>
      </trkpt>
      <trkpt lat="47.40124" lon="6.67472">
        <ele>420</ele>
        <time>2014-04-06T07:06:09Z</time>
      </trkpt>
      <trkpt lat="47.40119" lon="6.67466">
        <ele>420</ele>
        <time>2014-04-06T07:06:12Z</time>
      </trkpt>
      <trkpt lat="47.40115" lon="6.67463">
        <ele>420</ele>
        <time>2014-04-06T07:06:14Z</time>
      </trkpt>
      <trkpt lat="47.40111" lon="6.6746">
        <ele>421</ele>
        <time>2014-04-06T07:06:16Z</time>
      </trkpt>
      <trkpt lat="47.40105" lon="6.67456">
        <ele>421</ele>
        <time>2014-04-06T07:06:19Z</time>
      </trkpt>
      <trkpt lat="47.401" lon="6.67454">
        <ele>422</ele>
        <time>2014-04-06T07:06:21Z</time>
      </trkpt>
      <trkpt lat="47.40096" lon="6.67451">
        <ele>422</ele>
        <time>2014-04-06T07:06:23Z</time>
      </trkpt>
      <trkpt lat="47.4009" lon="6.67448">
        <ele>422</ele>
        <time>2014-04-06T07:06:26Z</time>
      </trkpt>
      <trkpt lat="47.40089" lon="6.67449">
        <ele>423</ele>
        <time>2014-04-06T07:06:29Z</time>
      </trkpt>
      <trkpt lat="47.40088" lon="6.67449">
        <ele>423</ele>
        <time>2014-04-06T07:06:32Z</time>
      </trkpt>
      <trkpt lat="47.40085" lon="6.67447">
        <ele>423</ele>
        <time>2014-04-06T07:06:35Z</time>
      </trkpt>
      <trkpt lat="47.40081" lon="6.67446">
        <ele>423</ele>
        <time>2014-04-06T07:06:37Z</time>
      </trkpt>
      <trkpt lat="47.40077" lon="6.67445">
        <ele>423</ele>
        <time>2014-04-06T07:06:39Z</time>
      </trkpt>
      <trkpt lat="47.4007" lon="6.67443">
        <ele>423</ele>
        <time>2014-04-06T07:06:42Z</time>
      </trkpt>
      <trkpt lat="47.40066" lon="6.67441">
        <ele>424</ele>
        <time>2014-04-06T07:06:44Z</time>
      </trkpt>
      <trkpt lat="47.40062" lon="6.67441">
        <ele>424</ele>
        <time>2014-04-06T07:06:46Z</time>
      </trkpt>
      <trkpt lat="47.40056" lon="6.67439">
        <ele>425</ele>
        <time>2014-04-06T07:06:49Z</time>
      </trkpt>
      <trkpt lat="47.40053" lon="6.67436">
        <ele>425</ele>
        <time>2014-04-06T07:06:51Z</time>
      </trkpt>
      <trkpt lat="47.40048" lon="6.67431">
        <ele>425</ele>
        <time>2014-04-06T07:06:54Z</time>
      </trkpt>
      <trkpt lat="47.40045" lon="6.67429">
        <ele>425</ele>
        <time>2014-04-06T07:06:56Z</time>
      </trkpt>
      <trkpt lat="47.40041" lon="6.67428">
        <ele>425</ele>
        <time>2014-04-06T07:06:58Z</time>
      </trkpt>
      <trkpt lat="47.40036" lon="6.67428">
        <ele>426</ele>
        <time>2014-04-06T07:07:01Z</time>
      </trkpt>
      <trkpt lat="47.40032" lon="6.67428">
        <ele>426</ele>
        <time>2014-04-06T07:07:03Z</time>
      </trkpt>
      <trkpt lat="47.40028" lon="6.67428">
        <ele>426</ele>
        <time>2014-04-06T07:07:05Z</time>
      </trkpt>
      <trkpt lat="47.40022" lon="6.67427">
        <ele>427</ele>
        <time>2014-04-06T07:07:08Z</time>
      </trkpt>
      <trkpt lat="47.40018" lon="6.67426">
        <ele>427</ele>
        <time>2014-04-06T07:07:10Z</time>
      </trkpt>
      <trkpt lat="47.40012" lon="6.67425">
        <ele>427</ele>
        <time>2014-04-06T07:07:13Z</time>
      </trkpt>
      <trkpt lat="47.40008" lon="6.67424">
        <ele>427</ele>
        <time>2014-04-06T07:07:15Z</time>
      </trkpt>
      <trkpt lat="47.40004" lon="6.67423">
        <ele>428</ele>
        <time>2014-04-06T07:07:17Z</time>
      </trkpt>
      <trkpt lat="47.39998" lon="6.6742">
        <ele>428</ele>
        <time>2014-04-06T07:07:20Z</time>
      </trkpt>
      <trkpt lat="47.39994" lon="6.67418">
        <ele>428</ele>
        <time>2014-04-06T07:07:22Z</time>
      </trkpt>
      <trkpt lat="47.39991" lon="6.67416">
        <ele>429</ele>
        <time>2014-04-06T07:07:24Z</time>
      </trkpt>
      <trkpt lat="47.39987" lon="6.67415">
        <ele>429</ele>
        <time>2014-04-06T07:07:26Z</time>
      </trkpt>
      <trkpt lat="47.39981" lon="6.67414">
        <ele>429</ele>
        <time>2014-04-06T07:07:29Z</time>
      </trkpt>
      <trkpt lat="47.39976" lon="6.67413">
        <ele>430</ele>
        <time>2014-04-06T07:07:32Z</time>
      </trkpt>
      <trkpt lat="47.39973" lon="6.67412">
        <ele>430</ele>
        <time>2014-04-06T07:07:34Z</time>
      </trkpt>
      <trkpt lat="47.39967" lon="6.6741">
        <ele>430</ele>
        <time>2014-04-06T07:07:37Z</time>
      </trkpt>
      <trkpt lat="47.39964" lon="6.67409">
        <ele>430</ele>
        <time>2014-04-06T07:07:39Z</time>
      </trkpt>
      <trkpt lat="47.3996" lon="6.67408">
        <ele>430</ele>
        <time>2014-04-06T07:07:41Z</time>
      </trkpt>
      <trkpt lat="47.39955" lon="6.67406">
        <ele>430</ele>
        <time>2014-04-06T07:07:44Z</time>
      </trkpt>
      <trkpt lat="47.39949" lon="6.67405">
        <ele>430</ele>
        <time>2014-04-06T07:07:47Z</time>
      </trkpt>
      <trkpt lat="47.39946" lon="6.67403">
        <ele>431</ele>
        <time>2014-04-06T07:07:49Z</time>
      </trkpt>
      <trkpt lat="47.39943" lon="6.67403">
        <ele>431</ele>
        <time>2014-04-06T07:07:51Z</time>
      </trkpt>
      <trkpt lat="47.39938" lon="6.67401">
        <ele>431</ele>
        <time>2014-04-06T07:07:54Z</time>
      </trkpt>
      <trkpt lat="47.39934" lon="6.674">
        <ele>432</ele>
        <time>2014-04-06T07:07:56Z</time>
      </trkpt>
      <trkpt lat="47.39931" lon="6.67399">
        <ele>432</ele>
        <time>2014-04-06T07:07:58Z</time>
      </trkpt>
      <trkpt lat="47.39926" lon="6.67397">
        <ele>432</ele>
        <time>2014-04-06T07:08:01Z</time>
      </trkpt>
      <trkpt lat="47.39921" lon="6.67396">
        <ele>432</ele>
        <time>2014-04-06T07:08:04Z</time>
      </trkpt>
      <trkpt lat="47.39917" lon="6.67394">
        <ele>432</ele>
        <time>2014-04-06T07:08:07Z</time>
      </trkpt>
      <trkpt lat="47.39912" lon="6.67392">
        <ele>432</ele>
        <time>2014-04-06T07:08:10Z</time>
      </trkpt>
      <trkpt lat="47.39909" lon="6.67391">
        <ele>432</ele>
        <time>2014-04-06T07:08:12Z</time>
      </trkpt>
      <trkpt lat="47.39904" lon="6.67389">
        <ele>433</ele>
        <time>2014-04-06T07:08:15Z</time>
      </trkpt>
      <trkpt lat="47.39899" lon="6.67387">
        <ele>433</ele>
        <time>2014-04-06T07:08:18Z</time>
      </trkpt>
      <trkpt lat="47.39896" lon="6.67386">
        <ele>433</ele>
        <time>2014-04-06T07:08:20Z</time>
      </trkpt>
      <trkpt lat="47.39891" lon="6.67384">
        <ele>434</ele>
        <time>2014-04-06T07:08:23Z</time>
      </trkpt>
      <trkpt lat="47.39888" lon="6.67383">
        <ele>434</ele>
        <time>2014-04-06T07:08:25Z</time>
      </trkpt>
      <trkpt lat="47.39883" lon="6.67381">
        <ele>434</ele>
        <time>2014-04-06T07:08:28Z</time>
      </trkpt>
      <trkpt lat="47.39878" lon="6.6738">
        <ele>434</ele>
        <time>2014-04-06T07:08:31Z</time>
      </trkpt>
      <trkpt lat="47.39875" lon="6.67378">
        <ele>435</ele>
        <time>2014-04-06T07:08:33Z</time>
      </trkpt>
      <trkpt lat="47.3987" lon="6.67377">
        <ele>435</ele>
        <time>2014-04-06T07:08:36Z</time>
      </trkpt>
      <trkpt lat="47.39865" lon="6.67375">
        <ele>435</ele>
        <time>2014-04-06T07:08:39Z</time>
      </trkpt>
      <trkpt lat="47.3986" lon="6.67373">
        <ele>435</ele>
        <time>2014-04-06T07:08:42Z</time>
      </trkpt>
      <trkpt lat="47.39855" lon="6.67371">
        <ele>436</ele>
        <time>2014-04-06T07:08:45Z</time>
      </trkpt>
      <trkpt lat="47.39852" lon="6.6737">
        <ele>436</ele>
        <time>2014-04-06T07:08:47Z</time>
      </trkpt>
      <trkpt lat="47.39847" lon="6.67368">
        <ele>436</ele>
        <time>2014-04-06T07:08:50Z</time>
      </trkpt>
      <trkpt lat="47.39842" lon="6.67366">
        <ele>437</ele>
        <time>2014-04-06T07:08:53Z</time>
      </trkpt>
      <trkpt lat="47.39839" lon="6.67365">
        <ele>437</ele>
        <time>2014-04-06T07:08:55Z</time>
      </trkpt>
      <trkpt lat="47.39835" lon="6.67363">
        <ele>437</ele>
        <time>2014-04-06T07:08:58Z</time>
      </trkpt>
      <trkpt lat="47.39831" lon="6.67362">
        <ele>437</ele>
        <time>2014-04-06T07:09:00Z</time>
      </trkpt>
      <trkpt lat="47.39828" lon="6.6736">
        <ele>437</ele>
        <time>2014-04-06T07:09:02Z</time>
      </trkpt>
      <trkpt lat="47.39823" lon="6.67358">
        <ele>438</ele>
        <time>2014-04-06T07:09:05Z</time>
      </trkpt>
      <trkpt lat="47.3982" lon="6.67356">
        <ele>438</ele>
        <time>2014-04-06T07:09:07Z</time>
      </trkpt>
      <trkpt lat="47.39817" lon="6.67355">
        <ele>438</ele>
        <time>2014-04-06T07:09:09Z</time>
      </trkpt>
      <trkpt lat="47.39812" lon="6.67353">
        <ele>438</ele>
        <time>2014-04-06T07:09:12Z</time>
      </trkpt>
      <trkpt lat="47.39809" lon="6.67351">
        <ele>438</ele>
        <time>2014-04-06T07:09:14Z</time>
      </trkpt>
      <trkpt lat="47.39806" lon="6.67352">
        <ele>439</ele>
        <time>2014-04-06T07:09:17Z</time>
      </trkpt>
      <trkpt lat="47.39806" lon="6.67356">
        <ele>439</ele>
        <time>2014-04-06T07:09:19Z</time>
      </trkpt>
      <trkpt lat="47.39808" lon="6.6736">
        <ele>440</ele>
        <time>2014-04-06T07:09:21Z</time>
      </trkpt>
      <trkpt lat="47.39811" lon="6.67364">
        <ele>440</ele>
        <time>2014-04-06T07:09:23Z</time>
      </trkpt>
      <trkpt lat="47.39812" lon="6.67368">
        <ele>440</ele>
        <time>2014-04-06T07:09:25Z</time>
      </trkpt>
      <trkpt lat="47.39814" lon="6.67372">
        <ele>440</ele>
        <time>2014-04-06T07:09:27Z</time>
      </trkpt>
      <trkpt lat="47.39815" lon="6.67376">
        <ele>440</ele>
        <time>2014-04-06T07:09:29Z</time>
      </trkpt>
      <trkpt lat="47.39816" lon="6.6738">
        <ele>439</ele>
        <time>2014-04-06T07:09:31Z</time>
      </trkpt>
      <trkpt lat="47.39818" lon="6.67385">
        <ele>439</ele>
        <time>2014-04-06T07:09:34Z</time>
      </trkpt>
      <trkpt lat="47.3982" lon="6.67389">
        <ele>439</ele>
        <time>2014-04-06T07:09:36Z</time>
      </trkpt>
      <trkpt lat="47.39822" lon="6.67392">
        <ele>439</ele>
        <time>2014-04-06T07:09:38Z</time>
      </trkpt>
      <trkpt lat="47.39824" lon="6.67395">
        <ele>439</ele>
        <time>2014-04-06T07:09:40Z</time>
      </trkpt>
      <trkpt lat="47.39826" lon="6.67401">
        <ele>439</ele>
        <time>2014-04-06T07:09:43Z</time>
      </trkpt>
      <trkpt lat="47.39828" lon="6.67405">
        <ele>439</ele>
        <time>2014-04-06T07:09:45Z</time>
      </trkpt>
      <trkpt lat="47.39829" lon="6.67409">
        <ele>439</ele>
        <time>2014-04-06T07:09:47Z</time>
      </trkpt>
      <trkpt lat="47.39832" lon="6.67415">
        <ele>440</ele>
        <time>2014-04-06T07:09:50Z</time>
      </trkpt>
      <trkpt lat="47.39833" lon="6.67419">
        <ele>440</ele>
        <time>2014-04-06T07:09:52Z</time>
      </trkpt>
      <trkpt lat="47.39835" lon="6.67422">
        <ele>440</ele>
        <time>2014-04-06T07:09:54Z</time>
      </trkpt>
      <trkpt lat="47.39838" lon="6.67428">
        <ele>440</ele>
        <time>2014-04-06T07:09:57Z</time>
      </trkpt>
      <trkpt lat="47.3984" lon="6.67432">
        <ele>440</ele>
        <time>2014-04-06T07:09:59Z</time>
      </trkpt>
      <trkpt lat="47.39843" lon="6.67437">
        <ele>440</ele>
        <time>2014-04-06T07:10:02Z</time>
      </trkpt>
      <trkpt lat="47.39845" lon="6.6744">
        <ele>440</ele>
        <time>2014-04-06T07:10:04Z</time>
      </trkpt>
      <trkpt lat="47.39847" lon="6.67444">
        <ele>439</ele>
        <time>2014-04-06T07:10:06Z</time>
      </trkpt>
      <trkpt lat="47.39849" lon="6.67447">
        <ele>439</ele>
        <time>2014-04-06T07:10:08Z</time>
      </trkpt>
      <trkpt lat="47.39851" lon="6.67452">
        <ele>439</ele>
        <time>2014-04-06T07:10:11Z</time>
      </trkpt>
      <trkpt lat="47.39853" lon="6.67454">
        <ele>439</ele>
        <time>2014-04-06T07:10:13Z</time>
      </trkpt>
      <trkpt lat="47.39854" lon="6.67456">
        <ele>439</ele>
        <time>2014-04-06T07:10:15Z</time>
      </trkpt>
      <trkpt lat="47.39856" lon="6.67459">
        <ele>439</ele>
        <time>2014-04-06T07:10:17Z</time>
      </trkpt>
      <trkpt lat="47.39859" lon="6.67462">
        <ele>439</ele>
        <time>2014-04-06T07:10:20Z</time>
      </trkpt>
      <trkpt lat="47.39861" lon="6.67464">
        <ele>439</ele>
        <time>2014-04-06T07:10:22Z</time>
      </trkpt>
      <trkpt lat="47.39864" lon="6.67466">
        <ele>439</ele>
        <time>2014-04-06T07:10:24Z</time>
      </trkpt>
      <trkpt lat="47.39866" lon="6.67468">
        <ele>439</ele>
        <time>2014-04-06T07:10:26Z</time>
      </trkpt>
      <trkpt lat="47.39868" lon="6.6747">
        <ele>439</ele>
        <time>2014-04-06T07:10:28Z</time>
      </trkpt>
      <trkpt lat="47.39871" lon="6.67471">
        <ele>439</ele>
        <time>2014-04-06T07:10:30Z</time>
      </trkpt>
      <trkpt lat="47.39875" lon="6.67474">
        <ele>439</ele>
        <time>2014-04-06T07:10:33Z</time>
      </trkpt>
      <trkpt lat="47.39877" lon="6.67475">
        <ele>438</ele>
        <time>2014-04-06T07:10:35Z</time>
      </trkpt>
      <trkpt lat="47.3988" lon="6.67477">
        <ele>439</ele>
        <time>2014-04-06T07:10:37Z</time>
      </trkpt>
      <trkpt lat="47.39883" lon="6.67478">
        <ele>438</ele>
        <time>2014-04-06T07:10:39Z</time>
      </trkpt>
      <trkpt lat="47.39886" lon="6.67479">
        <ele>438</ele>
        <time>2014-04-06T07:10:41Z</time>
      </trkpt>
      <trkpt lat="47.39888" lon="6.6748">
        <ele>438</ele>
        <time>2014-04-06T07:10:43Z</time>
      </trkpt>
      <trkpt lat="47.39893" lon="6.67482">
        <ele>438</ele>
        <time>2014-04-06T07:10:46Z</time>
      </trkpt>
      <trkpt lat="47.39895" lon="6.67484">
        <ele>438</ele>
        <time>2014-04-06T07:10:48Z</time>
      </trkpt>
      <trkpt lat="47.39898" lon="6.67485">
        <ele>438</ele>
        <time>2014-04-06T07:10:50Z</time>
      </trkpt>
      <trkpt lat="47.39901" lon="6.67486">
        <ele>438</ele>
        <time>2014-04-06T07:10:52Z</time>
      </trkpt>
      <trkpt lat="47.39906" lon="6.67489">
        <ele>438</ele>
        <time>2014-04-06T07:10:55Z</time>
      </trkpt>
      <trkpt lat="47.39909" lon="6.67491">
        <ele>438</ele>
        <time>2014-04-06T07:10:57Z</time>
      </trkpt>
      <trkpt lat="47.39912" lon="6.67493">
        <ele>438</ele>
        <time>2014-04-06T07:10:59Z</time>
      </trkpt>
      <trkpt lat="47.39915" lon="6.67495">
        <ele>438</ele>
        <time>2014-04-06T07:11:01Z</time>
      </trkpt>
      <trkpt lat="47.39918" lon="6.67498">
        <ele>438</ele>
        <time>2014-04-06T07:11:03Z</time>
      </trkpt>
      <trkpt lat="47.39921" lon="6.675">
        <ele>438</ele>
        <time>2014-04-06T07:11:05Z</time>
      </trkpt>
      <trkpt lat="47.39923" lon="6.67499">
        <ele>437</ele>
        <time>2014-04-06T07:11:07Z</time>
      </trkpt>
      <trkpt lat="47.39922" lon="6.67496">
        <ele>437</ele>
        <time>2014-04-06T07:11:10Z</time>
      </trkpt>
      <trkpt lat="47.39919" lon="6.67494">
        <ele>437</ele>
        <time>2014-04-06T07:11:13Z</time>
      </trkpt>
      <trkpt lat="47.39918" lon="6.67493">
        <ele>437</ele>
        <time>2014-04-06T07:11:15Z</time>
      </trkpt>
      <trkpt lat="47.39916" lon="6.67492">
        <ele>437</ele>
        <time>2014-04-06T07:11:17Z</time>
      </trkpt>
      <trkpt lat="47.39914" lon="6.6749">
        <ele>437</ele>
        <time>2014-04-06T07:11:19Z</time>
      </trkpt>
      <trkpt lat="47.39911" lon="6.67489">
        <ele>437</ele>
        <time>2014-04-06T07:11:22Z</time>
      </trkpt>
      <trkpt lat="47.39908" lon="6.67486">
        <ele>437</ele>
        <time>2014-04-06T07:11:25Z</time>
      </trkpt>
      <trkpt lat="47.39906" lon="6.67484">
        <ele>437</ele>
        <time>2014-04-06T07:11:27Z</time>
      </trkpt>
      <trkpt lat="47.39903" lon="6.67483">
        <ele>437</ele>
        <time>2014-04-06T07:11:30Z</time>
      </trkpt>
      <trkpt lat="47.39899" lon="6.67481">
        <ele>438</ele>
        <time>2014-04-06T07:11:33Z</time>
      </trkpt>
      <trkpt lat="47.39896" lon="6.6748">
        <ele>437</ele>
        <time>2014-04-06T07:11:36Z</time>
      </trkpt>
      <trkpt lat="47.39894" lon="6.67479">
        <ele>437</ele>
        <time>2014-04-06T07:11:38Z</time>
      </trkpt>
      <trkpt lat="47.39891" lon="6.67478">
        <ele>437</ele>
        <time>2014-04-06T07:11:40Z</time>
      </trkpt>
      <trkpt lat="47.39888" lon="6.67476">
        <ele>437</ele>
        <time>2014-04-06T07:11:43Z</time>
      </trkpt>
      <trkpt lat="47.39885" lon="6.67475">
        <ele>437</ele>
        <time>2014-04-06T07:11:45Z</time>
      </trkpt>
      <trkpt lat="47.39883" lon="6.67474">
        <ele>437</ele>
        <time>2014-04-06T07:11:47Z</time>
      </trkpt>
      <trkpt lat="47.39879" lon="6.67473">
        <ele>438</ele>
        <time>2014-04-06T07:11:50Z</time>
      </trkpt>
      <trkpt lat="47.39877" lon="6.67472">
        <ele>438</ele>
        <time>2014-04-06T07:11:52Z</time>
      </trkpt>
      <trkpt lat="47.39875" lon="6.67469">
        <ele>438</ele>
        <time>2014-04-06T07:11:54Z</time>
      </trkpt>
      <trkpt lat="47.39872" lon="6.67467">
        <ele>438</ele>
        <time>2014-04-06T07:11:56Z</time>
      </trkpt>
      <trkpt lat="47.39869" lon="6.67466">
        <ele>438</ele>
        <time>2014-04-06T07:11:58Z</time>
      </trkpt>
      <trkpt lat="47.39866" lon="6.67463">
        <ele>438</ele>
        <time>2014-04-06T07:12:00Z</time>
      </trkpt>
      <trkpt lat="47.39863" lon="6.67461">
        <ele>438</ele>
        <time>2014-04-06T07:12:02Z</time>
      </trkpt>
      <trkpt lat="47.39859" lon="6.67459">
        <ele>438</ele>
        <time>2014-04-06T07:12:05Z</time>
      </trkpt>
      <trkpt lat="47.39856" lon="6.67455">
        <ele>438</ele>
        <time>2014-04-06T07:12:08Z</time>
      </trkpt>
      <trkpt lat="47.39854" lon="6.67453">
        <ele>438</ele>
        <time>2014-04-06T07:12:10Z</time>
      </trkpt>
      <trkpt lat="47.39851" lon="6.67451">
        <ele>438</ele>
        <time>2014-04-06T07:12:12Z</time>
      </trkpt>
      <trkpt lat="47.39849" lon="6.67448">
        <ele>439</ele>
        <time>2014-04-06T07:12:14Z</time>
      </trkpt>
      <trkpt lat="47.39848" lon="6.67445">
        <ele>439</ele>
        <time>2014-04-06T07:12:16Z</time>
      </trkpt>
      <trkpt lat="47.39845" lon="6.67441">
        <ele>439</ele>
        <time>2014-04-06T07:12:19Z</time>
      </trkpt>
      <trkpt lat="47.39843" lon="6.67439">
        <ele>439</ele>
        <time>2014-04-06T07:12:21Z</time>
      </trkpt>
      <trkpt lat="47.39842" lon="6.67436">
        <ele>439</ele>
        <time>2014-04-06T07:12:23Z</time>
      </trkpt>
      <trkpt lat="47.3984" lon="6.67432">
        <ele>439</ele>
        <time>2014-04-06T07:12:26Z</time>
      </trkpt>
      <trkpt lat="47.39838" lon="6.67428">
        <ele>439</ele>
        <time>2014-04-06T07:12:28Z</time>
      </trkpt>
      <trkpt lat="47.39837" lon="6.67425">
        <ele>439</ele>
        <time>2014-04-06T07:12:30Z</time>
      </trkpt>
      <trkpt lat="47.39835" lon="6.67419">
        <ele>439</ele>
        <time>2014-04-06T07:12:33Z</time>
      </trkpt>
      <trkpt lat="47.39833" lon="6.67417">
        <ele>439</ele>
        <time>2014-04-06T07:12:35Z</time>
      </trkpt>
      <trkpt lat="47.39831" lon="6.67414">
        <ele>439</ele>
        <time>2014-04-06T07:12:37Z</time>
      </trkpt>
      <trkpt lat="47.3983" lon="6.6741">
        <ele>439</ele>
        <time>2014-04-06T07:12:39Z</time>
      </trkpt>
      <trkpt lat="47.39829" lon="6.67407">
        <ele>439</ele>
        <time>2014-04-06T07:12:41Z</time>
      </trkpt>
      <trkpt lat="47.39827" lon="6.67403">
        <ele>439</ele>
        <time>2014-04-06T07:12:43Z</time>
      </trkpt>
      <trkpt lat="47.39826" lon="6.674">
        <ele>439</ele>
        <time>2014-04-06T07:12:45Z</time>
      </trkpt>
      <trkpt lat="47.39825" lon="6.67395">
        <ele>439</ele>
        <time>2014-04-06T07:12:48Z</time>
      </trkpt>
      <trkpt lat="47.39823" lon="6.6739">
        <ele>439</ele>
        <time>2014-04-06T07:12:50Z</time>
      </trkpt>
      <trkpt lat="47.39821" lon="6.67386">
        <ele>439</ele>
        <time>2014-04-06T07:12:52Z</time>
      </trkpt>
      <trkpt lat="47.39819" lon="6.67383">
        <ele>439</ele>
        <time>2014-04-06T07:12:54Z</time>
      </trkpt>
      <trkpt lat="47.39817" lon="6.67379">
        <ele>439</ele>
        <time>2014-04-06T07:12:57Z</time>
      </trkpt>
      <trkpt lat="47.39816" lon="6.67376">
        <ele>439</ele>
        <time>2014-04-06T07:12:59Z</time>
      </trkpt>
      <trkpt lat="47.39816" lon="6.67374">
        <ele>439</ele>
        <time>2014-04-06T07:13:01Z</time>
      </trkpt>
      <trkpt lat="47.39816" lon="6.67374">
        <ele>439</ele>
        <time>2014-04-06T07:13:04Z</time>
      </trkpt>
      <trkpt lat="47.39815" lon="6.67374">
        <ele>439</ele>
        <time>2014-04-06T07:13:08Z</time>
      </trkpt>
      <trkpt lat="47.39815" lon="6.67374">
        <ele>439</ele>
        <time>2014-04-06T07:13:11Z</time>
      </trkpt>
      <trkpt lat="47.39815" lon="6.67374">
        <ele>439</ele>
        <time>2014-04-06T07:13:14Z</time>
      </trkpt>
      <trkpt lat="47.39815" lon="6.67374">
        <ele>439</ele>
        <time>2014-04-06T07:13:17Z</time>
      </trkpt>
      <trkpt lat="47.39815" lon="6.67374">
        <ele>439</ele>
        <time>2014-04-06T07:13:19Z</time>
      </trkpt>
      <trkpt lat="47.39815" lon="6.67373">
        <ele>439</ele>
        <time>2014-04-06T07:13:22Z</time>
      </trkpt>
      <trkpt lat="47.39816" lon="6.67374">
        <ele>439</ele>
        <time>2014-04-06T07:13:25Z</time>
      </trkpt>
      <trkpt lat="47.39816" lon="6.67373">
        <ele>439</ele>
        <time>2014-04-06T07:13:32Z</time>
      </trkpt>
      <trkpt lat="47.39816" lon="6.67373">
        <ele>439</ele>
        <time>2014-04-06T07:13:34Z</time>
      </trkpt>
      <trkpt lat="47.39815" lon="6.67373">
        <ele>439</ele>
        <time>2014-04-06T07:13:37Z</time>
      </trkpt>
      <trkpt lat="47.39815" lon="6.67372">
        <ele>439</ele>
        <time>2014-04-06T07:13:40Z</time>
      </trkpt>
      <trkpt lat="47.39815" lon="6.67372">
        <ele>439</ele>
        <time>2014-04-06T07:13:45Z</time>
      </trkpt>
      <trkpt lat="47.39815" lon="6.67371">
        <ele>439</ele>
        <time>2014-04-06T07:13:48Z</time>
      </trkpt>
      <trkpt lat="47.39815" lon="6.6737">
        <ele>439</ele>
        <time>2014-04-06T07:13:51Z</time>
      </trkpt>
      <trkpt lat="47.39815" lon="6.67369">
        <ele>439</ele>
        <time>2014-04-06T07:13:53Z</time>
      </trkpt>
      <trkpt lat="47.39815" lon="6.67369">
        <ele>439</ele>
        <time>2014-04-06T07:13:55Z</time>
      </trkpt>
      <trkpt lat="47.39815" lon="6.67369">
        <ele>439</ele>
        <time>2014-04-06T07:13:58Z</time>
      </trkpt>
      <trkpt lat="47.39815" lon="6.67369">
        <ele>438</ele>
        <time>2014-04-06T07:14:03Z</time>
      </trkpt>
      <trkpt lat="47.39815" lon="6.67369">
        <ele>438</ele>
        <time>2014-04-06T07:14:07Z</time>
      </trkpt>
      <trkpt lat="47.39815" lon="6.6737">
        <ele>438</ele>
        <time>2014-04-06T07:14:10Z</time>
      </trkpt>
      <trkpt lat="47.39815" lon="6.6737">
        <ele>438</ele>
        <time>2014-04-06T07:14:12Z</time>
      </trkpt>
      <trkpt lat="47.39815" lon="6.6737">
        <ele>438</ele>
        <time>2014-04-06T07:14:15Z</time>
      </trkpt>
      <trkpt lat="47.39815" lon="6.67371">
        <ele>438</ele>
        <time>2014-04-06T07:14:17Z</time>
      </trkpt>
      <trkpt lat="47.39815" lon="6.67371">
        <ele>438</ele>
        <time>2014-04-06T07:14:20Z</time>
      </trkpt>
      <trkpt lat="47.39816" lon="6.67372">
        <ele>438</ele>
        <time>2014-04-06T07:14:23Z</time>
      </trkpt>
      <trkpt lat="47.39816" lon="6.67372">
        <ele>439</ele>
        <time>2014-04-06T07:14:26Z</time>
      </trkpt>
      <trkpt lat="47.39815" lon="6.67371">
        <ele>439</ele>
        <time>2014-04-06T07:14:29Z</time>
      </trkpt>
      <trkpt lat="47.39813" lon="6.67369">
        <ele>439</ele>
        <time>2014-04-06T07:14:32Z</time>
      </trkpt>
      <trkpt lat="47.39813" lon="6.67367">
        <ele>439</ele>
        <time>2014-04-06T07:14:34Z</time>
      </trkpt>
      <trkpt lat="47.39812" lon="6.67365">
        <ele>439</ele>
        <time>2014-04-06T07:14:36Z</time>
      </trkpt>
      <trkpt lat="47.39811" lon="6.67363">
        <ele>439</ele>
        <time>2014-04-06T07:14:38Z</time>
      </trkpt>
      <trkpt lat="47.39809" lon="6.67359">
        <ele>439</ele>
        <time>2014-04-06T07:14:41Z</time>
      </trkpt>
      <trkpt lat="47.39808" lon="6.67357">
        <ele>439</ele>
        <time>2014-04-06T07:14:43Z</time>
      </trkpt>
      <trkpt lat="47.39807" lon="6.67355">
        <ele>439</ele>
        <time>2014-04-06T07:14:45Z</time>
      </trkpt>
      <trkpt lat="47.39805" lon="6.67353">
        <ele>439</ele>
        <time>2014-04-06T07:14:47Z</time>
      </trkpt>
      <trkpt lat="47.39804" lon="6.67351">
        <ele>439</ele>
        <time>2014-04-06T07:14:49Z</time>
      </trkpt>
      <trkpt lat="47.39802" lon="6.67348">
        <ele>439</ele>
        <time>2014-04-06T07:14:52Z</time>
      </trkpt>
      <trkpt lat="47.39801" lon="6.67346">
        <ele>439</ele>
        <time>2014-04-06T07:14:55Z</time>
      </trkpt>
      <trkpt lat="47.398" lon="6.67346">
        <ele>439</ele>
        <time>2014-04-06T07:14:58Z</time>
      </trkpt>
      <trkpt lat="47.398" lon="6.67346">
        <ele>439</ele>
        <time>2014-04-06T07:15:06Z</time>
      </trkpt>
      <trkpt lat="47.39801" lon="6.67346">
        <ele>439</ele>
        <time>2014-04-06T07:15:09Z</time>
      </trkpt>
      <trkpt lat="47.39801" lon="6.67346">
        <ele>439</ele>
        <time>2014-04-06T07:15:13Z</time>
      </trkpt>
      <trkpt lat="47.39801" lon="6.67346">
        <ele>439</ele>
        <time>2014-04-06T07:15:17Z</time>
      </trkpt>
      <trkpt lat="47.39801" lon="6.67346">
        <ele>439</ele>
        <time>2014-04-06T07:15:23Z</time>
      </trkpt>
      <trkpt lat="47.39801" lon="6.67346">
        <ele>439</ele>
        <time>2014-04-06T07:15:31Z</time>
      </trkpt>
      <trkpt lat="47.39801" lon="6.67346">
        <ele>439</ele>
        <time>2014-04-06T07:15:39Z</time>
      </trkpt>
      <trkpt lat="47.39801" lon="6.67346">
        <ele>439</ele>
        <time>2014-04-06T07:15:43Z</time>
      </trkpt>
      <trkpt lat="47.39801" lon="6.67346">
        <ele>439</ele>
        <time>2014-04-06T07:15:47Z</time>
      </trkpt>
      <trkpt lat="47.39801" lon="6.67346">
        <ele>439</ele>
        <time>2014-04-06T07:15:50Z</time>
      </trkpt>
      <trkpt lat="47.39801" lon="6.67346">
        <ele>439</ele>
        <time>2014-04-06T07:15:55Z</time>
      </trkpt>
      <trkpt lat="47.39801" lon="6.67346">
        <ele>439</ele>
        <time>2014-04-06T07:16:01Z</time>
      </trkpt>
      <trkpt lat="47.39801" lon="6.67346">
        <ele>439</ele>
        <time>2014-04-06T07:16:04Z</time>
      </trkpt>
      <trkpt lat="47.39801" lon="6.67346">
        <ele>439</ele>
        <time>2014-04-06T07:16:12Z</time>
      </trkpt>
      <trkpt lat="47.39801" lon="6.67345">
        <ele>439</ele>
        <time>2014-04-06T07:16:16Z</time>
      </trkpt>
      <trkpt lat="47.39801" lon="6.67345">
        <ele>439</ele>
        <time>2014-04-06T07:16:19Z</time>
      </trkpt>
      <trkpt lat="47.39801" lon="6.67345">
        <ele>439</ele>
        <time>2014-04-06T07:16:24Z</time>
      </trkpt>
      <trkpt lat="47.39801" lon="6.67345">
        <ele>439</ele>
        <time>2014-04-06T07:16:26Z</time>
      </trkpt>
      <trkpt lat="47.39801" lon="6.67345">
        <ele>439</ele>
        <time>2014-04-06T07:16:29Z</time>
      </trkpt>
      <trkpt lat="47.39802" lon="6.67345">
        <ele>439</ele>
        <time>2014-04-06T07:16:34Z</time>
      </trkpt>
      <trkpt lat="47.39802" lon="6.67345">
        <ele>439</ele>
        <time>2014-04-06T07:16:37Z</time>
      </trkpt>
      <trkpt lat="47.39802" lon="6.67345">
        <ele>439</ele>
        <time>2014-04-06T07:16:40Z</time>
      </trkpt>
      <trkpt lat="47.39802" lon="6.67345">
        <ele>439</ele>
        <time>2014-04-06T07:16:47Z</time>
      </trkpt>
      <trkpt lat="47.39802" lon="6.67345">
        <ele>439</ele>
        <time>2014-04-06T07:16:52Z</time>
      </trkpt>
      <trkpt lat="47.39802" lon="6.67345">
        <ele>439</ele>
        <time>2014-04-06T07:16:55Z</time>
      </trkpt>
      <trkpt lat="47.39801" lon="6.67345">
        <ele>439</ele>
        <time>2014-04-06T07:16:58Z</time>
      </trkpt>
      <trkpt lat="47.39799" lon="6.67341">
        <ele>439</ele>
        <time>2014-04-06T07:17:01Z</time>
      </trkpt>
      <trkpt lat="47.39797" lon="6.67338">
        <ele>439</ele>
        <time>2014-04-06T07:17:03Z</time>
      </trkpt>
      <trkpt lat="47.39795" lon="6.67335">
        <ele>439</ele>
        <time>2014-04-06T07:17:05Z</time>
      </trkpt>
      <trkpt lat="47.39792" lon="6.67331">
        <ele>439</ele>
        <time>2014-04-06T07:17:08Z</time>
      </trkpt>
      <trkpt lat="47.39789" lon="6.67327">
        <ele>439</ele>
        <time>2014-04-06T07:17:10Z</time>
      </trkpt>
      <trkpt lat="47.39787" lon="6.67324">
        <ele>440</ele>
        <time>2014-04-06T07:17:12Z</time>
      </trkpt>
      <trkpt lat="47.39785" lon="6.6732">
        <ele>440</ele>
        <time>2014-04-06T07:17:14Z</time>
      </trkpt>
      <trkpt lat="47.39781" lon="6.67315">
        <ele>440</ele>
        <time>2014-04-06T07:17:17Z</time>
      </trkpt>
      <trkpt lat="47.39779" lon="6.67311">
        <ele>441</ele>
        <time>2014-04-06T07:17:19Z</time>
      </trkpt>
      <trkpt lat="47.39776" lon="6.67308">
        <ele>441</ele>
        <time>2014-04-06T07:17:21Z</time>
      </trkpt>
      <trkpt lat="47.39771" lon="6.67303">
        <ele>441</ele>
        <time>2014-04-06T07:17:24Z</time>
      </trkpt>
      <trkpt lat="47.39768" lon="6.67299">
        <ele>442</ele>
        <time>2014-04-06T07:17:26Z</time>
      </trkpt>
      <trkpt lat="47.39765" lon="6.67295">
        <ele>442</ele>
        <time>2014-04-06T07:17:28Z</time>
      </trkpt>
      <trkpt lat="47.39759" lon="6.6729">
        <ele>442</ele>
        <time>2014-04-06T07:17:31Z</time>
      </trkpt>
      <trkpt lat="47.39756" lon="6.67286">
        <ele>442</ele>
        <time>2014-04-06T07:17:33Z</time>
      </trkpt>
      <trkpt lat="47.39753" lon="6.67282">
        <ele>442</ele>
        <time>2014-04-06T07:17:35Z</time>
      </trkpt>
      <trkpt lat="47.39749" lon="6.67279">
        <ele>443</ele>
        <time>2014-04-06T07:17:37Z</time>
      </trkpt>
      <trkpt lat="47.39745" lon="6.67276">
        <ele>443</ele>
        <time>2014-04-06T07:17:39Z</time>
      </trkpt>
      <trkpt lat="47.39742" lon="6.67272">
        <ele>443</ele>
        <time>2014-04-06T07:17:41Z</time>
      </trkpt>
      <trkpt lat="47.39738" lon="6.67269">
        <ele>443</ele>
        <time>2014-04-06T07:17:43Z</time>
      </trkpt>
      <trkpt lat="47.39735" lon="6.67265">
        <ele>444</ele>
        <time>2014-04-06T07:17:45Z</time>
      </trkpt>
      <trkpt lat="47.39729" lon="6.6726">
        <ele>444</ele>
        <time>2014-04-06T07:17:48Z</time>
      </trkpt>
      <trkpt lat="47.39726" lon="6.67256">
        <ele>444</ele>
        <time>2014-04-06T07:17:50Z</time>
      </trkpt>
      <trkpt lat="47.39722" lon="6.67253">
        <ele>444</ele>
        <time>2014-04-06T07:17:52Z</time>
      </trkpt>
      <trkpt lat="47.39717" lon="6.67248">
        <ele>445</ele>
        <time>2014-04-06T07:17:55Z</time>
      </trkpt>
      <trkpt lat="47.39713" lon="6.67244">
        <ele>446</ele>
        <time>2014-04-06T07:17:57Z</time>
      </trkpt>
      <trkpt lat="47.39709" lon="6.67241">
        <ele>446</ele>
        <time>2014-04-06T07:17:59Z</time>
      </trkpt>
      <trkpt lat="47.39706" lon="6.67238">
        <ele>447</ele>
        <time>2014-04-06T07:18:01Z</time>
      </trkpt>
      <trkpt lat="47.397" lon="6.67233">
        <ele>447</ele>
        <time>2014-04-06T07:18:04Z</time>
      </trkpt>
      <trkpt lat="47.39697" lon="6.6723">
        <ele>448</ele>
        <time>2014-04-06T07:18:06Z</time>
      </trkpt>
      <trkpt lat="47.39694" lon="6.67227">
        <ele>448</ele>
        <time>2014-04-06T07:18:08Z</time>
      </trkpt>
      <trkpt lat="47.39691" lon="6.67224">
        <ele>448</ele>
        <time>2014-04-06T07:18:10Z</time>
      </trkpt>
      <trkpt lat="47.39687" lon="6.6722">
        <ele>449</ele>
        <time>2014-04-06T07:18:12Z</time>
      </trkpt>
      <trkpt lat="47.39683" lon="6.67216">
        <ele>449</ele>
        <time>2014-04-06T07:18:15Z</time>
      </trkpt>
      <trkpt lat="47.39679" lon="6.67213">
        <ele>450</ele>
        <time>2014-04-06T07:18:17Z</time>
      </trkpt>
      <trkpt lat="47.39676" lon="6.6721">
        <ele>450</ele>
        <time>2014-04-06T07:18:19Z</time>
      </trkpt>
      <trkpt lat="47.39673" lon="6.67207">
        <ele>450</ele>
        <time>2014-04-06T07:18:21Z</time>
      </trkpt>
      <trkpt lat="47.39668" lon="6.67203">
        <ele>451</ele>
        <time>2014-04-06T07:18:24Z</time>
      </trkpt>
      <trkpt lat="47.39664" lon="6.67201">
        <ele>451</ele>
        <time>2014-04-06T07:18:26Z</time>
      </trkpt>
      <trkpt lat="47.39661" lon="6.67198">
        <ele>451</ele>
        <time>2014-04-06T07:18:28Z</time>
      </trkpt>
      <trkpt lat="47.39658" lon="6.67196">
        <ele>451</ele>
        <time>2014-04-06T07:18:30Z</time>
      </trkpt>
      <trkpt lat="47.39655" lon="6.67194">
        <ele>452</ele>
        <time>2014-04-06T07:18:32Z</time>
      </trkpt>
      <trkpt lat="47.39652" lon="6.67192">
        <ele>452</ele>
        <time>2014-04-06T07:18:34Z</time>
      </trkpt>
      <trkpt lat="47.39648" lon="6.6719">
        <ele>452</ele>
        <time>2014-04-06T07:18:36Z</time>
      </trkpt>
      <trkpt lat="47.39643" lon="6.67188">
        <ele>452</ele>
        <time>2014-04-06T07:18:39Z</time>
      </trkpt>
      <trkpt lat="47.39637" lon="6.6719">
        <ele>452</ele>
        <time>2014-04-06T07:18:42Z</time>
      </trkpt>
      <trkpt lat="47.39632" lon="6.67193">
        <ele>452</ele>
        <time>2014-04-06T07:18:44Z</time>
      </trkpt>
      <trkpt lat="47.39626" lon="6.67199">
        <ele>452</ele>
        <time>2014-04-06T07:18:46Z</time>
      </trkpt>
      <trkpt lat="47.39619" lon="6.67207">
        <ele>452</ele>
        <time>2014-04-06T07:18:48Z</time>
      </trkpt>
      <trkpt lat="47.39609" lon="6.67223">
        <ele>452</ele>
        <time>2014-04-06T07:18:51Z</time>
      </trkpt>
      <trkpt lat="47.39603" lon="6.67236">
        <ele>452</ele>
        <time>2014-04-06T07:18:53Z</time>
      </trkpt>
      <trkpt lat="47.39599" lon="6.67249">
        <ele>452</ele>
        <time>2014-04-06T07:18:55Z</time>
      </trkpt>
      <trkpt lat="47.39593" lon="6.67268">
        <ele>452</ele>
        <time>2014-04-06T07:18:58Z</time>
      </trkpt>
      <trkpt lat="47.3959" lon="6.67279">
        <ele>451</ele>
        <time>2014-04-06T07:19:00Z</time>
      </trkpt>
      <trkpt lat="47.39586" lon="6.67295">
        <ele>451</ele>
        <time>2014-04-06T07:19:03Z</time>
      </trkpt>
      <trkpt lat="47.39583" lon="6.67304">
        <ele>452</ele>
        <time>2014-04-06T07:19:05Z</time>
      </trkpt>
      <trkpt lat="47.3958" lon="6.67317">
        <ele>453</ele>
        <time>2014-04-06T07:19:08Z</time>
      </trkpt>
      <trkpt lat="47.39576" lon="6.67329">
        <ele>454</ele>
        <time>2014-04-06T07:19:11Z</time>
      </trkpt>
      <trkpt lat="47.39577" lon="6.67338">
        <ele>454</ele>
        <time>2014-04-06T07:19:13Z</time>
      </trkpt>
      <trkpt lat="47.39578" lon="6.67346">
        <ele>454</ele>
        <time>2014-04-06T07:19:15Z</time>
      </trkpt>
      <trkpt lat="47.39579" lon="6.67353">
        <ele>454</ele>
        <time>2014-04-06T07:19:17Z</time>
      </trkpt>
      <trkpt lat="47.3958" lon="6.67365">
        <ele>454</ele>
        <time>2014-04-06T07:19:20Z</time>
      </trkpt>
      <trkpt lat="47.39581" lon="6.67373">
        <ele>454</ele>
        <time>2014-04-06T07:19:22Z</time>
      </trkpt>
      <trkpt lat="47.39581" lon="6.67382">
        <ele>454</ele>
        <time>2014-04-06T07:19:24Z</time>
      </trkpt>
      <trkpt lat="47.39581" lon="6.67391">
        <ele>454</ele>
        <time>2014-04-06T07:19:26Z</time>
      </trkpt>
      <trkpt lat="47.39581" lon="6.67405">
        <ele>455</ele>
        <time>2014-04-06T07:19:29Z</time>
      </trkpt>
      <trkpt lat="47.39582" lon="6.67414">
        <ele>455</ele>
        <time>2014-04-06T07:19:31Z</time>
      </trkpt>
      <trkpt lat="47.39582" lon="6.67423">
        <ele>455</ele>
        <time>2014-04-06T07:19:33Z</time>
      </trkpt>
      <trkpt lat="47.39582" lon="6.67432">
        <ele>455</ele>
        <time>2014-04-06T07:19:35Z</time>
      </trkpt>
      <trkpt lat="47.39583" lon="6.67446">
        <ele>456</ele>
        <time>2014-04-06T07:19:38Z</time>
      </trkpt>
      <trkpt lat="47.39582" lon="6.67455">
        <ele>456</ele>
        <time>2014-04-06T07:19:40Z</time>
      </trkpt>
      <trkpt lat="47.39582" lon="6.67464">
        <ele>456</ele>
        <time>2014-04-06T07:19:42Z</time>
      </trkpt>
      <trkpt lat="47.3958" lon="6.67477">
        <ele>456</ele>
        <time>2014-04-06T07:19:45Z</time>
      </trkpt>
      <trkpt lat="47.39579" lon="6.67489">
        <ele>457</ele>
        <time>2014-04-06T07:19:48Z</time>
      </trkpt>
      <trkpt lat="47.39579" lon="6.67498">
        <ele>457</ele>
        <time>2014-04-06T07:19:50Z</time>
      </trkpt>
      <trkpt lat="47.39579" lon="6.67511">
        <ele>458</ele>
        <time>2014-04-06T07:19:53Z</time>
      </trkpt>
      <trkpt lat="47.39579" lon="6.67518">
        <ele>458</ele>
        <time>2014-04-06T07:19:55Z</time>
      </trkpt>
      <trkpt lat="47.39578" lon="6.67529">
        <ele>458</ele>
        <time>2014-04-06T07:19:58Z</time>
      </trkpt>
      <trkpt lat="47.39578" lon="6.67537">
        <ele>458</ele>
        <time>2014-04-06T07:20:00Z</time>
      </trkpt>
      <trkpt lat="47.39577" lon="6.67548">
        <ele>459</ele>
        <time>2014-04-06T07:20:03Z</time>
      </trkpt>
      <trkpt lat="47.39577" lon="6.67554">
        <ele>459</ele>
        <time>2014-04-06T07:20:05Z</time>
      </trkpt>
      <trkpt lat="47.39578" lon="6.6756">
        <ele>459</ele>
        <time>2014-04-06T07:20:08Z</time>
      </trkpt>
      <trkpt lat="47.39578" lon="6.67563">
        <ele>459</ele>
        <time>2014-04-06T07:20:11Z</time>
      </trkpt>
      <trkpt lat="47.39578" lon="6.67564">
        <ele>459</ele>
        <time>2014-04-06T07:20:14Z</time>
      </trkpt>
      <trkpt lat="47.39579" lon="6.67564">
        <ele>459</ele>
        <time>2014-04-06T07:20:18Z</time>
      </trkpt>
      <trkpt lat="47.39579" lon="6.67563">
        <ele>459</ele>
        <time>2014-04-06T07:20:22Z</time>
      </trkpt>
      <trkpt lat="47.39579" lon="6.67563">
        <ele>459</ele>
        <time>2014-04-06T07:20:26Z</time>
      </trkpt>
      <trkpt lat="47.39579" lon="6.67563">
        <ele>459</ele>
        <time>2014-04-06T07:20:28Z</time>
      </trkpt>
      <trkpt lat="47.39579" lon="6.67563">
        <ele>459</ele>
        <time>2014-04-06T07:20:30Z</time>
      </trkpt>
      <trkpt lat="47.39579" lon="6.67562">
        <ele>459</ele>
        <time>2014-04-06T07:20:34Z</time>
      </trkpt>
      <trkpt lat="47.39579" lon="6.67562">
        <ele>459</ele>
        <time>2014-04-06T07:20:37Z</time>
      </trkpt>
      <trkpt lat="47.39578" lon="6.67562">
        <ele>459</ele>
        <time>2014-04-06T07:20:40Z</time>
      </trkpt>
      <trkpt lat="47.39578" lon="6.67562">
        <ele>459</ele>
        <time>2014-04-06T07:20:42Z</time>
      </trkpt>
      <trkpt lat="47.39578" lon="6.67562">
        <ele>459</ele>
        <time>2014-04-06T07:20:45Z</time>
      </trkpt>
      <trkpt lat="47.39578" lon="6.67562">
        <ele>459</ele>
        <time>2014-04-06T07:20:49Z</time>
      </trkpt>
      <trkpt lat="47.39578" lon="6.67561">
        <ele>459</ele>
        <time>2014-04-06T07:20:52Z</time>
      </trkpt>
      <trkpt lat="47.39577" lon="6.67561">
        <ele>458</ele>
        <time>2014-04-06T07:20:57Z</time>
      </trkpt>
      <trkpt lat="47.39577" lon="6.67562">
        <ele>458</ele>
        <time>2014-04-06T07:21:00Z</time>
      </trkpt>
      <trkpt lat="47.39577" lon="6.67562">
        <ele>458</ele>
        <time>2014-04-06T07:21:03Z</time>
      </trkpt>
      <trkpt lat="47.39577" lon="6.67562">
        <ele>458</ele>
        <time>2014-04-06T07:21:12Z</time>
      </trkpt>
      <trkpt lat="47.39577" lon="6.67562">
        <ele>459</ele>
        <time>2014-04-06T07:21:24Z</time>
      </trkpt>
      <trkpt lat="47.39577" lon="6.67562">
        <ele>459</ele>
        <time>2014-04-06T07:21:30Z</time>
      </trkpt>
      <trkpt lat="47.39577" lon="6.67561">
        <ele>459</ele>
        <time>2014-04-06T07:21:33Z</time>
      </trkpt>
      <trkpt lat="47.39577" lon="6.67561">
        <ele>459</ele>
        <time>2014-04-06T07:21:39Z</time>
      </trkpt>
      <trkpt lat="47.39577" lon="6.67561">
        <ele>459</ele>
        <time>2014-04-06T07:21:44Z</time>
      </trkpt>
      <trkpt lat="47.39577" lon="6.67561">
        <ele>459</ele>
        <time>2014-04-06T07:21:49Z</time>
      </trkpt>
      <trkpt lat="47.39577" lon="6.67561">
        <ele>459</ele>
        <time>2014-04-06T07:21:56Z</time>
      </trkpt>
      <trkpt lat="47.39577" lon="6.67561">
        <ele>459</ele>
        <time>2014-04-06T07:22:11Z</time>
      </trkpt>
      <trkpt lat="47.39577" lon="6.67561">
        <ele>459</ele>
        <time>2014-04-06T07:22:18Z</time>
      </trkpt>
      <trkpt lat="47.39577" lon="6.67561">
        <ele>459</ele>
        <time>2014-04-06T07:22:23Z</time>
      </trkpt>
      <trkpt lat="47.39577" lon="6.67561">
        <ele>459</ele>
        <time>2014-04-06T07:22:27Z</time>
      </trkpt>
      <trkpt lat="47.39577" lon="6.67561">
        <ele>459</ele>
        <time>2014-04-06T07:22:29Z</time>
      </trkpt>
      <trkpt lat="47.39577" lon="6.67562">
        <ele>459</ele>
        <time>2014-04-06T07:22:33Z</time>
      </trkpt>
      <trkpt lat="47.39577" lon="6.67562">
        <ele>459</ele>
        <time>2014-04-06T07:22:36Z</time>
      </trkpt>
      <trkpt lat="47.39577" lon="6.67562">
        <ele>459</ele>
        <time>2014-04-06T07:22:38Z</time>
      </trkpt>
      <trkpt lat="47.39577" lon="6.67562">
        <ele>459</ele>
        <time>2014-04-06T07:22:44Z</time>
      </trkpt>
      <trkpt lat="47.39577" lon="6.67562">
        <ele>459</ele>
        <time>2014-04-06T07:22:47Z</time>
      </trkpt>
      <trkpt lat="47.39577" lon="6.67562">
        <ele>459</ele>
        <time>2014-04-06T07:22:49Z</time>
      </trkpt>
      <trkpt lat="47.39578" lon="6.67562">
        <ele>459</ele>
        <time>2014-04-06T07:22:53Z</time>
      </trkpt>
      <trkpt lat="47.39578" lon="6.67563">
        <ele>459</ele>
        <time>2014-04-06T07:22:55Z</time>
      </trkpt>
      <trkpt lat="47.39578" lon="6.67563">
        <ele>459</ele>
        <time>2014-04-06T07:23:00Z</time>
      </trkpt>
      <trkpt lat="47.39578" lon="6.67563">
        <ele>459</ele>
        <time>2014-04-06T07:23:03Z</time>
      </trkpt>
      <trkpt lat="47.39578" lon="6.67563">
        <ele>459</ele>
        <time>2014-04-06T07:23:06Z</time>
      </trkpt>
      <trkpt lat="47.39578" lon="6.67563">
        <ele>459</ele>
        <time>2014-04-06T07:23:09Z</time>
      </trkpt>
      <trkpt lat="47.39578" lon="6.67563">
        <ele>459</ele>
        <time>2014-04-06T07:23:13Z</time>
      </trkpt>
      <trkpt lat="47.39578" lon="6.67564">
        <ele>459</ele>
        <time>2014-04-06T07:23:18Z</time>
      </trkpt>
      <trkpt lat="47.39578" lon="6.67564">
        <ele>459</ele>
        <time>2014-04-06T07:23:23Z</time>
      </trkpt>
      <trkpt lat="47.39578" lon="6.67564">
        <ele>459</ele>
        <time>2014-04-06T07:23:27Z</time>
      </trkpt>
      <trkpt lat="47.39578" lon="6.67564">
        <ele>459</ele>
        <time>2014-04-06T07:23:31Z</time>
      </trkpt>
      <trkpt lat="47.39578" lon="6.67564">
        <ele>459</ele>
        <time>2014-04-06T07:23:35Z</time>
      </trkpt>
      <trkpt lat="47.39577" lon="6.67564">
        <ele>459</ele>
        <time>2014-04-06T07:23:37Z</time>
      </trkpt>
      <trkpt lat="47.39577" lon="6.67564">
        <ele>459</ele>
        <time>2014-04-06T07:23:40Z</time>
      </trkpt>
      <trkpt lat="47.39577" lon="6.67564">
        <ele>459</ele>
        <time>2014-04-06T07:23:44Z</time>
      </trkpt>
      <trkpt lat="47.39577" lon="6.67565">
        <ele>459</ele>
        <time>2014-04-06T07:23:50Z</time>
      </trkpt>
      <trkpt lat="47.39577" lon="6.67565">
        <ele>459</ele>
        <time>2014-04-06T07:23:53Z</time>
      </trkpt>
      <trkpt lat="47.39577" lon="6.67565">
        <ele>459</ele>
        <time>2014-04-06T07:23:58Z</time>
      </trkpt>
      <trkpt lat="47.39577" lon="6.67565">
        <ele>459</ele>
        <time>2014-04-06T07:24:07Z</time>
      </trkpt>
      <trkpt lat="47.39577" lon="6.67565">
        <ele>459</ele>
        <time>2014-04-06T07:24:15Z</time>
      </trkpt>
      <trkpt lat="47.39577" lon="6.67565">
        <ele>459</ele>
        <time>2014-04-06T07:24:22Z</time>
      </trkpt>
      <trkpt lat="47.39578" lon="6.67565">
        <ele>460</ele>
        <time>2014-04-06T07:24:27Z</time>
      </trkpt>
      <trkpt lat="47.39578" lon="6.67565">
        <ele>460</ele>
        <time>2014-04-06T07:24:32Z</time>
      </trkpt>
      <trkpt lat="47.39578" lon="6.67565">
        <ele>459</ele>
        <time>2014-04-06T07:24:36Z</time>
      </trkpt>
      <trkpt lat="47.39578" lon="6.67565">
        <ele>460</ele>
        <time>2014-04-06T07:24:38Z</time>
      </trkpt>
      <trkpt lat="47.39578" lon="6.67565">
        <ele>459</ele>
        <time>2014-04-06T07:24:43Z</time>
      </trkpt>
      <trkpt lat="47.39578" lon="6.67565">
        <ele>459</ele>
        <time>2014-04-06T07:24:51Z</time>
      </trkpt>
      <trkpt lat="47.39579" lon="6.67565">
        <ele>460</ele>
        <time>2014-04-06T07:24:57Z</time>
      </trkpt>
      <trkpt lat="47.39579" lon="6.67565">
        <ele>460</ele>
        <time>2014-04-06T07:25:02Z</time>
      </trkpt>
      <trkpt lat="47.39579" lon="6.67565">
        <ele>460</ele>
        <time>2014-04-06T07:25:06Z</time>
      </trkpt>
      <trkpt lat="47.39579" lon="6.67565">
        <ele>460</ele>
        <time>2014-04-06T07:25:12Z</time>
      </trkpt>
      <trkpt lat="47.39579" lon="6.67565">
        <ele>460</ele>
        <time>2014-04-06T07:25:15Z</time>
      </trkpt>
      <trkpt lat="47.39579" lon="6.67565">
        <ele>460</ele>
        <time>2014-04-06T07:25:46Z</time>
      </trkpt>
      <trkpt lat="47.39579" lon="6.67565">
        <ele>460</ele>
        <time>2014-04-06T07:25:56Z</time>
      </trkpt>
      <trkpt lat="47.39579" lon="6.67565">
        <ele>460</ele>
        <time>2014-04-06T07:26:05Z</time>
      </trkpt>
      <trkpt lat="47.39579" lon="6.67565">
        <ele>460</ele>
        <time>2014-04-06T07:26:10Z</time>
      </trkpt>
      <trkpt lat="47.39579" lon="6.67565">
        <ele>460</ele>
        <time>2014-04-06T07:26:13Z</time>
      </trkpt>
      <trkpt lat="47.3958" lon="6.67565">
        <ele>460</ele>
        <time>2014-04-06T07:26:16Z</time>
      </trkpt>
      <trkpt lat="47.3958" lon="6.67564">
        <ele>459</ele>
        <time>2014-04-06T07:26:20Z</time>
      </trkpt>
      <trkpt lat="47.3958" lon="6.67564">
        <ele>459</ele>
        <time>2014-04-06T07:26:23Z</time>
      </trkpt>
      <trkpt lat="47.3958" lon="6.67564">
        <ele>460</ele>
        <time>2014-04-06T07:26:26Z</time>
      </trkpt>
      <trkpt lat="47.3958" lon="6.67564">
        <ele>460</ele>
        <time>2014-04-06T07:26:28Z</time>
      </trkpt>
      <trkpt lat="47.39579" lon="6.67564">
        <ele>460</ele>
        <time>2014-04-06T07:26:31Z</time>
      </trkpt>
      <trkpt lat="47.39579" lon="6.67564">
        <ele>460</ele>
        <time>2014-04-06T07:26:33Z</time>
      </trkpt>
      <trkpt lat="47.39577" lon="6.67565">
        <ele>460</ele>
        <time>2014-04-06T07:26:36Z</time>
      </trkpt>
      <trkpt lat="47.39577" lon="6.67566">
        <ele>459</ele>
        <time>2014-04-06T07:26:41Z</time>
      </trkpt>
      <trkpt lat="47.39576" lon="6.67567">
        <ele>459</ele>
        <time>2014-04-06T07:26:44Z</time>
      </trkpt>
      <trkpt lat="47.39576" lon="6.67568">
        <ele>459</ele>
        <time>2014-04-06T07:26:46Z</time>
      </trkpt>
      <trkpt lat="47.39574" lon="6.67572">
        <ele>459</ele>
        <time>2014-04-06T07:26:49Z</time>
      </trkpt>
      <trkpt lat="47.39576" lon="6.67577">
        <ele>459</ele>
        <time>2014-04-06T07:26:52Z</time>
      </trkpt>
      <trkpt lat="47.39579" lon="6.67577">
        <ele>459</ele>
        <time>2014-04-06T07:26:54Z</time>
      </trkpt>
      <trkpt lat="47.3958" lon="6.67574">
        <ele>459</ele>
        <time>2014-04-06T07:26:56Z</time>
      </trkpt>
      <trkpt lat="47.39577" lon="6.6757">
        <ele>460</ele>
        <time>2014-04-06T07:26:59Z</time>
      </trkpt>
      <trkpt lat="47.39575" lon="6.6757">
        <ele>460</ele>
        <time>2014-04-06T07:27:01Z</time>
      </trkpt>
      <trkpt lat="47.39574" lon="6.67575">
        <ele>460</ele>
        <time>2014-04-06T07:27:04Z</time>
      </trkpt>
      <trkpt lat="47.39573" lon="6.67582">
        <ele>460</ele>
        <time>2014-04-06T07:27:07Z</time>
      </trkpt>
      <trkpt lat="47.39571" lon="6.67589">
        <ele>460</ele>
        <time>2014-04-06T07:27:10Z</time>
      </trkpt>
      <trkpt lat="47.39569" lon="6.67593">
        <ele>460</ele>
        <time>2014-04-06T07:27:12Z</time>
      </trkpt>
      <trkpt lat="47.39568" lon="6.67601">
        <ele>460</ele>
        <time>2014-04-06T07:27:15Z</time>
      </trkpt>
      <trkpt lat="47.39566" lon="6.67607">
        <ele>460</ele>
        <time>2014-04-06T07:27:17Z</time>
      </trkpt>
      <trkpt lat="47.39562" lon="6.67619">
        <ele>459</ele>
        <time>2014-04-06T07:27:20Z</time>
      </trkpt>
      <trkpt lat="47.39559" lon="6.67627">
        <ele>459</ele>
        <time>2014-04-06T07:27:22Z</time>
      </trkpt>
      <trkpt lat="47.39556" lon="6.67637">
        <ele>459</ele>
        <time>2014-04-06T07:27:24Z</time>
      </trkpt>
      <trkpt lat="47.39551" lon="6.67651">
        <ele>458</ele>
        <time>2014-04-06T07:27:27Z</time>
      </trkpt>
      <trkpt lat="47.39547" lon="6.67662">
        <ele>458</ele>
        <time>2014-04-06T07:27:29Z</time>
      </trkpt>
      <trkpt lat="47.39542" lon="6.67675">
        <ele>458</ele>
        <time>2014-04-06T07:27:31Z</time>
      </trkpt>
      <trkpt lat="47.39537" lon="6.67689">
        <ele>458</ele>
        <time>2014-04-06T07:27:33Z</time>
      </trkpt>
      <trkpt lat="47.39532" lon="6.67703">
        <ele>458</ele>
        <time>2014-04-06T07:27:35Z</time>
      </trkpt>
      <trkpt lat="47.39525" lon="6.67726">
        <ele>457</ele>
        <time>2014-04-06T07:27:38Z</time>
      </trkpt>
      <trkpt lat="47.39521" lon="6.67741">
        <ele>457</ele>
        <time>2014-04-06T07:27:40Z</time>
      </trkpt>
      <trkpt lat="47.39517" lon="6.67756">
        <ele>457</ele>
        <time>2014-04-06T07:27:42Z</time>
      </trkpt>
      <trkpt lat="47.39513" lon="6.67769">
        <ele>457</ele>
        <time>2014-04-06T07:27:44Z</time>
      </trkpt>
      <trkpt lat="47.3951" lon="6.67783">
        <ele>457</ele>
        <time>2014-04-06T07:27:46Z</time>
      </trkpt>
      <trkpt lat="47.39506" lon="6.67797">
        <ele>456</ele>
        <time>2014-04-06T07:27:48Z</time>
      </trkpt>
      <trkpt lat="47.39503" lon="6.67813">
        <ele>456</ele>
        <time>2014-04-06T07:27:50Z</time>
      </trkpt>
      <trkpt lat="47.39499" lon="6.67839">
        <ele>456</ele>
        <time>2014-04-06T07:27:53Z</time>
      </trkpt>
      <trkpt lat="47.39499" lon="6.6786">
        <ele>456</ele>
        <time>2014-04-06T07:27:55Z</time>
      </trkpt>
      <trkpt lat="47.39501" lon="6.67881">
        <ele>455</ele>
        <time>2014-04-06T07:27:57Z</time>
      </trkpt>
      <trkpt lat="47.39503" lon="6.67902">
        <ele>456</ele>
        <time>2014-04-06T07:27:59Z</time>
      </trkpt>
      <trkpt lat="47.39508" lon="6.67934">
        <ele>455</ele>
        <time>2014-04-06T07:28:02Z</time>
      </trkpt>
      <trkpt lat="47.39513" lon="6.67956">
        <ele>454</ele>
        <time>2014-04-06T07:28:04Z</time>
      </trkpt>
      <trkpt lat="47.39523" lon="6.67975">
        <ele>453</ele>
        <time>2014-04-06T07:28:06Z</time>
      </trkpt>
      <trkpt lat="47.39546" lon="6.67996">
        <ele>452</ele>
        <time>2014-04-06T07:28:09Z</time>
      </trkpt>
      <trkpt lat="47.39555" lon="6.68013">
        <ele>451</ele>
        <time>2014-04-06T07:28:11Z</time>
      </trkpt>
      <trkpt lat="47.39552" lon="6.68041">
        <ele>449</ele>
        <time>2014-04-06T07:28:14Z</time>
      </trkpt>
      <trkpt lat="47.39544" lon="6.68059">
        <ele>447</ele>
        <time>2014-04-06T07:28:16Z</time>
      </trkpt>
      <trkpt lat="47.39532" lon="6.68086">
        <ele>446</ele>
        <time>2014-04-06T07:28:19Z</time>
      </trkpt>
      <trkpt lat="47.39525" lon="6.68105">
        <ele>445</ele>
        <time>2014-04-06T07:28:21Z</time>
      </trkpt>
      <trkpt lat="47.39518" lon="6.68123">
        <ele>445</ele>
        <time>2014-04-06T07:28:23Z</time>
      </trkpt>
      <trkpt lat="47.39512" lon="6.68139">
        <ele>444</ele>
        <time>2014-04-06T07:28:25Z</time>
      </trkpt>
      <trkpt lat="47.39508" lon="6.68155">
        <ele>444</ele>
        <time>2014-04-06T07:28:27Z</time>
      </trkpt>
      <trkpt lat="47.39504" lon="6.68178">
        <ele>444</ele>
        <time>2014-04-06T07:28:30Z</time>
      </trkpt>
      <trkpt lat="47.39502" lon="6.68191">
        <ele>444</ele>
        <time>2014-04-06T07:28:32Z</time>
      </trkpt>
      <trkpt lat="47.39499" lon="6.6821">
        <ele>444</ele>
        <time>2014-04-06T07:28:35Z</time>
      </trkpt>
      <trkpt lat="47.39498" lon="6.68222">
        <ele>444</ele>
        <time>2014-04-06T07:28:37Z</time>
      </trkpt>
      <trkpt lat="47.39497" lon="6.68232">
        <ele>444</ele>
        <time>2014-04-06T07:28:39Z</time>
      </trkpt>
      <trkpt lat="47.39495" lon="6.68248">
        <ele>444</ele>
        <time>2014-04-06T07:28:42Z</time>
      </trkpt>
      <trkpt lat="47.39493" lon="6.68261">
        <ele>444</ele>
        <time>2014-04-06T07:28:45Z</time>
      </trkpt>
      <trkpt lat="47.39492" lon="6.6827">
        <ele>444</ele>
        <time>2014-04-06T07:28:47Z</time>
      </trkpt>
      <trkpt lat="47.3949" lon="6.68282">
        <ele>444</ele>
        <time>2014-04-06T07:28:50Z</time>
      </trkpt>
      <trkpt lat="47.39489" lon="6.68292">
        <ele>444</ele>
        <time>2014-04-06T07:28:52Z</time>
      </trkpt>
      <trkpt lat="47.39489" lon="6.68301">
        <ele>444</ele>
        <time>2014-04-06T07:28:54Z</time>
      </trkpt>
      <trkpt lat="47.39488" lon="6.68314">
        <ele>444</ele>
        <time>2014-04-06T07:28:57Z</time>
      </trkpt>
      <trkpt lat="47.39487" lon="6.68323">
        <ele>445</ele>
        <time>2014-04-06T07:28:59Z</time>
      </trkpt>
      <trkpt lat="47.39487" lon="6.68331">
        <ele>445</ele>
        <time>2014-04-06T07:29:01Z</time>
      </trkpt>
      <trkpt lat="47.39486" lon="6.6834">
        <ele>445</ele>
        <time>2014-04-06T07:29:03Z</time>
      </trkpt>
      <trkpt lat="47.39485" lon="6.68353">
        <ele>445</ele>
        <time>2014-04-06T07:29:06Z</time>
      </trkpt>
      <trkpt lat="47.39484" lon="6.68362">
        <ele>445</ele>
        <time>2014-04-06T07:29:08Z</time>
      </trkpt>
      <trkpt lat="47.39483" lon="6.68376">
        <ele>446</ele>
        <time>2014-04-06T07:29:11Z</time>
      </trkpt>
      <trkpt lat="47.39482" lon="6.68386">
        <ele>446</ele>
        <time>2014-04-06T07:29:13Z</time>
      </trkpt>
      <trkpt lat="47.3948" lon="6.684">
        <ele>446</ele>
        <time>2014-04-06T07:29:16Z</time>
      </trkpt>
      <trkpt lat="47.39479" lon="6.68409">
        <ele>446</ele>
        <time>2014-04-06T07:29:18Z</time>
      </trkpt>
      <trkpt lat="47.39478" lon="6.68423">
        <ele>446</ele>
        <time>2014-04-06T07:29:21Z</time>
      </trkpt>
      <trkpt lat="47.39476" lon="6.68435">
        <ele>447</ele>
        <time>2014-04-06T07:29:24Z</time>
      </trkpt>
      <trkpt lat="47.39474" lon="6.68443">
        <ele>447</ele>
        <time>2014-04-06T07:29:26Z</time>
      </trkpt>
      <trkpt lat="47.39473" lon="6.68455">
        <ele>448</ele>
        <time>2014-04-06T07:29:29Z</time>
      </trkpt>
      <trkpt lat="47.39472" lon="6.68461">
        <ele>449</ele>
        <time>2014-04-06T07:29:31Z</time>
      </trkpt>
      <trkpt lat="47.39471" lon="6.68469">
        <ele>449</ele>
        <time>2014-04-06T07:29:33Z</time>
      </trkpt>
      <trkpt lat="47.3947" lon="6.68477">
        <ele>449</ele>
        <time>2014-04-06T07:29:35Z</time>
      </trkpt>
      <trkpt lat="47.3947" lon="6.68485">
        <ele>449</ele>
        <time>2014-04-06T07:29:37Z</time>
      </trkpt>
      <trkpt lat="47.39468" lon="6.68493">
        <ele>449</ele>
        <time>2014-04-06T07:29:39Z</time>
      </trkpt>
      <trkpt lat="47.39467" lon="6.68505">
        <ele>449</ele>
        <time>2014-04-06T07:29:42Z</time>
      </trkpt>
      <trkpt lat="47.39466" lon="6.68518">
        <ele>450</ele>
        <time>2014-04-06T07:29:45Z</time>
      </trkpt>
      <trkpt lat="47.39464" lon="6.68531">
        <ele>450</ele>
        <time>2014-04-06T07:29:48Z</time>
      </trkpt>
      <trkpt lat="47.39463" lon="6.68538">
        <ele>451</ele>
        <time>2014-04-06T07:29:50Z</time>
      </trkpt>
      <trkpt lat="47.39462" lon="6.68546">
        <ele>451</ele>
        <time>2014-04-06T07:29:52Z</time>
      </trkpt>
      <trkpt lat="47.39461" lon="6.68559">
        <ele>451</ele>
        <time>2014-04-06T07:29:55Z</time>
      </trkpt>
      <trkpt lat="47.39459" lon="6.68571">
        <ele>452</ele>
        <time>2014-04-06T07:29:58Z</time>
      </trkpt>
      <trkpt lat="47.39458" lon="6.68579">
        <ele>452</ele>
        <time>2014-04-06T07:30:00Z</time>
      </trkpt>
      <trkpt lat="47.39457" lon="6.68591">
        <ele>453</ele>
        <time>2014-04-06T07:30:03Z</time>
      </trkpt>
      <trkpt lat="47.39457" lon="6.68599">
        <ele>453</ele>
        <time>2014-04-06T07:30:05Z</time>
      </trkpt>
      <trkpt lat="47.39456" lon="6.68611">
        <ele>453</ele>
        <time>2014-04-06T07:30:08Z</time>
      </trkpt>
      <trkpt lat="47.39455" lon="6.68619">
        <ele>453</ele>
        <time>2014-04-06T07:30:10Z</time>
      </trkpt>
      <trkpt lat="47.39455" lon="6.68627">
        <ele>454</ele>
        <time>2014-04-06T07:30:12Z</time>
      </trkpt>
      <trkpt lat="47.39454" lon="6.68635">
        <ele>454</ele>
        <time>2014-04-06T07:30:14Z</time>
      </trkpt>
      <trkpt lat="47.39454" lon="6.68643">
        <ele>455</ele>
        <time>2014-04-06T07:30:16Z</time>
      </trkpt>
      <trkpt lat="47.39453" lon="6.6865">
        <ele>455</ele>
        <time>2014-04-06T07:30:18Z</time>
      </trkpt>
      <trkpt lat="47.39453" lon="6.68658">
        <ele>456</ele>
        <time>2014-04-06T07:30:20Z</time>
      </trkpt>
      <trkpt lat="47.39452" lon="6.68667">
        <ele>456</ele>
        <time>2014-04-06T07:30:22Z</time>
      </trkpt>
      <trkpt lat="47.39452" lon="6.68674">
        <ele>456</ele>
        <time>2014-04-06T07:30:24Z</time>
      </trkpt>
      <trkpt lat="47.39451" lon="6.68686">
        <ele>456</ele>
        <time>2014-04-06T07:30:27Z</time>
      </trkpt>
      <trkpt lat="47.3945" lon="6.68693">
        <ele>457</ele>
        <time>2014-04-06T07:30:29Z</time>
      </trkpt>
      <trkpt lat="47.3945" lon="6.687">
        <ele>457</ele>
        <time>2014-04-06T07:30:31Z</time>
      </trkpt>
      <trkpt lat="47.39449" lon="6.68708">
        <ele>457</ele>
        <time>2014-04-06T07:30:33Z</time>
      </trkpt>
      <trkpt lat="47.39449" lon="6.68715">
        <ele>458</ele>
        <time>2014-04-06T07:30:35Z</time>
      </trkpt>
      <trkpt lat="47.39448" lon="6.68722">
        <ele>458</ele>
        <time>2014-04-06T07:30:37Z</time>
      </trkpt>
      <trkpt lat="47.39447" lon="6.68733">
        <ele>458</ele>
        <time>2014-04-06T07:30:40Z</time>
      </trkpt>
      <trkpt lat="47.39447" lon="6.68741">
        <ele>459</ele>
        <time>2014-04-06T07:30:42Z</time>
      </trkpt>
      <trkpt lat="47.39446" lon="6.68752">
        <ele>459</ele>
        <time>2014-04-06T07:30:45Z</time>
      </trkpt>
      <trkpt lat="47.39446" lon="6.68759">
        <ele>459</ele>
        <time>2014-04-06T07:30:47Z</time>
      </trkpt>
      <trkpt lat="47.39445" lon="6.68771">
        <ele>460</ele>
        <time>2014-04-06T07:30:50Z</time>
      </trkpt>
      <trkpt lat="47.39444" lon="6.68782">
        <ele>460</ele>
        <time>2014-04-06T07:30:53Z</time>
      </trkpt>
      <trkpt lat="47.39443" lon="6.68793">
        <ele>460</ele>
        <time>2014-04-06T07:30:56Z</time>
      </trkpt>
      <trkpt lat="47.39442" lon="6.68801">
        <ele>460</ele>
        <time>2014-04-06T07:30:58Z</time>
      </trkpt>
      <trkpt lat="47.39442" lon="6.68808">
        <ele>461</ele>
        <time>2014-04-06T07:31:00Z</time>
      </trkpt>
      <trkpt lat="47.39441" lon="6.68815">
        <ele>460</ele>
        <time>2014-04-06T07:31:02Z</time>
      </trkpt>
      <trkpt lat="47.3944" lon="6.68826">
        <ele>461</ele>
        <time>2014-04-06T07:31:05Z</time>
      </trkpt>
      <trkpt lat="47.39439" lon="6.68837">
        <ele>461</ele>
        <time>2014-04-06T07:31:08Z</time>
      </trkpt>
      <trkpt lat="47.39438" lon="6.68848">
        <ele>462</ele>
        <time>2014-04-06T07:31:11Z</time>
      </trkpt>
      <trkpt lat="47.39437" lon="6.68855">
        <ele>462</ele>
        <time>2014-04-06T07:31:13Z</time>
      </trkpt>
      <trkpt lat="47.39436" lon="6.68866">
        <ele>462</ele>
        <time>2014-04-06T07:31:16Z</time>
      </trkpt>
      <trkpt lat="47.39435" lon="6.68873">
        <ele>462</ele>
        <time>2014-04-06T07:31:18Z</time>
      </trkpt>
      <trkpt lat="47.39434" lon="6.6888">
        <ele>462</ele>
        <time>2014-04-06T07:31:20Z</time>
      </trkpt>
      <trkpt lat="47.39432" lon="6.6889">
        <ele>462</ele>
        <time>2014-04-06T07:31:23Z</time>
      </trkpt>
      <trkpt lat="47.39431" lon="6.68897">
        <ele>463</ele>
        <time>2014-04-06T07:31:25Z</time>
      </trkpt>
      <trkpt lat="47.39429" lon="6.68908">
        <ele>463</ele>
        <time>2014-04-06T07:31:28Z</time>
      </trkpt>
      <trkpt lat="47.39428" lon="6.68916">
        <ele>463</ele>
        <time>2014-04-06T07:31:30Z</time>
      </trkpt>
      <trkpt lat="47.39428" lon="6.68923">
        <ele>463</ele>
        <time>2014-04-06T07:31:32Z</time>
      </trkpt>
      <trkpt lat="47.39426" lon="6.68934">
        <ele>464</ele>
        <time>2014-04-06T07:31:35Z</time>
      </trkpt>
      <trkpt lat="47.39425" lon="6.68945">
        <ele>464</ele>
        <time>2014-04-06T07:31:38Z</time>
      </trkpt>
      <trkpt lat="47.39423" lon="6.68952">
        <ele>464</ele>
        <time>2014-04-06T07:31:40Z</time>
      </trkpt>
      <trkpt lat="47.39422" lon="6.68964">
        <ele>464</ele>
        <time>2014-04-06T07:31:43Z</time>
      </trkpt>
      <trkpt lat="47.3942" lon="6.68975">
        <ele>464</ele>
        <time>2014-04-06T07:31:46Z</time>
      </trkpt>
      <trkpt lat="47.39419" lon="6.68982">
        <ele>464</ele>
        <time>2014-04-06T07:31:48Z</time>
      </trkpt>
      <trkpt lat="47.39418" lon="6.68989">
        <ele>464</ele>
        <time>2014-04-06T07:31:50Z</time>
      </trkpt>
      <trkpt lat="47.39416" lon="6.69">
        <ele>464</ele>
        <time>2014-04-06T07:31:53Z</time>
      </trkpt>
      <trkpt lat="47.39413" lon="6.69012">
        <ele>464</ele>
        <time>2014-04-06T07:31:56Z</time>
      </trkpt>
      <trkpt lat="47.39411" lon="6.6902">
        <ele>464</ele>
        <time>2014-04-06T07:31:58Z</time>
      </trkpt>
      <trkpt lat="47.39408" lon="6.69034">
        <ele>464</ele>
        <time>2014-04-06T07:32:01Z</time>
      </trkpt>
      <trkpt lat="47.39405" lon="6.6905">
        <ele>463</ele>
        <time>2014-04-06T07:32:04Z</time>
      </trkpt>
      <trkpt lat="47.39403" lon="6.69067">
        <ele>463</ele>
        <time>2014-04-06T07:32:07Z</time>
      </trkpt>
      <trkpt lat="47.394" lon="6.69087">
        <ele>463</ele>
        <time>2014-04-06T07:32:10Z</time>
      </trkpt>
      <trkpt lat="47.39398" lon="6.69109">
        <ele>463</ele>
        <time>2014-04-06T07:32:13Z</time>
      </trkpt>
      <trkpt lat="47.39395" lon="6.69135">
        <ele>463</ele>
        <time>2014-04-06T07:32:16Z</time>
      </trkpt>
      <trkpt lat="47.39392" lon="6.69153">
        <ele>462</ele>
        <time>2014-04-06T07:32:18Z</time>
      </trkpt>
      <trkpt lat="47.39394" lon="6.69169">
        <ele>462</ele>
        <time>2014-04-06T07:32:20Z</time>
      </trkpt>
      <trkpt lat="47.39398" lon="6.69186">
        <ele>461</ele>
        <time>2014-04-06T07:32:22Z</time>
      </trkpt>
      <trkpt lat="47.39402" lon="6.69203">
        <ele>461</ele>
        <time>2014-04-06T07:32:24Z</time>
      </trkpt>
      <trkpt lat="47.39407" lon="6.69232">
        <ele>460</ele>
        <time>2014-04-06T07:32:27Z</time>
      </trkpt>
      <trkpt lat="47.39409" lon="6.69253">
        <ele>460</ele>
        <time>2014-04-06T07:32:29Z</time>
      </trkpt>
      <trkpt lat="47.39412" lon="6.69284">
        <ele>459</ele>
        <time>2014-04-06T07:32:32Z</time>
      </trkpt>
      <trkpt lat="47.39415" lon="6.69312">
        <ele>457</ele>
        <time>2014-04-06T07:32:35Z</time>
      </trkpt>
      <trkpt lat="47.39413" lon="6.69344">
        <ele>456</ele>
        <time>2014-04-06T07:32:38Z</time>
      </trkpt>
      <trkpt lat="47.39411" lon="6.69363">
        <ele>455</ele>
        <time>2014-04-06T07:32:40Z</time>
      </trkpt>
      <trkpt lat="47.39405" lon="6.69376">
        <ele>453</ele>
        <time>2014-04-06T07:32:42Z</time>
      </trkpt>
      <trkpt lat="47.39383" lon="6.69389">
        <ele>452</ele>
        <time>2014-04-06T07:32:45Z</time>
      </trkpt>
      <trkpt lat="47.39366" lon="6.69386">
        <ele>451</ele>
        <time>2014-04-06T07:32:47Z</time>
      </trkpt>
      <trkpt lat="47.39342" lon="6.69385">
        <ele>448</ele>
        <time>2014-04-06T07:32:50Z</time>
      </trkpt>
      <trkpt lat="47.39328" lon="6.6939">
        <ele>446</ele>
        <time>2014-04-06T07:32:52Z</time>
      </trkpt>
      <trkpt lat="47.39316" lon="6.69398">
        <ele>444</ele>
        <time>2014-04-06T07:32:54Z</time>
      </trkpt>
      <trkpt lat="47.39306" lon="6.69416">
        <ele>443</ele>
        <time>2014-04-06T07:32:56Z</time>
      </trkpt>
      <trkpt lat="47.39291" lon="6.69442">
        <ele>441</ele>
        <time>2014-04-06T07:32:59Z</time>
      </trkpt>
      <trkpt lat="47.39278" lon="6.69454">
        <ele>440</ele>
        <time>2014-04-06T07:33:01Z</time>
      </trkpt>
      <trkpt lat="47.39263" lon="6.69461">
        <ele>439</ele>
        <time>2014-04-06T07:33:03Z</time>
      </trkpt>
      <trkpt lat="47.39242" lon="6.69475">
        <ele>437</ele>
        <time>2014-04-06T07:33:06Z</time>
      </trkpt>
      <trkpt lat="47.3923" lon="6.69497">
        <ele>434</ele>
        <time>2014-04-06T07:33:09Z</time>
      </trkpt>
      <trkpt lat="47.39224" lon="6.69518">
        <ele>433</ele>
        <time>2014-04-06T07:33:12Z</time>
      </trkpt>
      <trkpt lat="47.39223" lon="6.69529">
        <ele>432</ele>
        <time>2014-04-06T07:33:14Z</time>
      </trkpt>
      <trkpt lat="47.39223" lon="6.69538">
        <ele>432</ele>
        <time>2014-04-06T07:33:16Z</time>
      </trkpt>
      <trkpt lat="47.39223" lon="6.69547">
        <ele>432</ele>
        <time>2014-04-06T07:33:18Z</time>
      </trkpt>
      <trkpt lat="47.39223" lon="6.69559">
        <ele>431</ele>
        <time>2014-04-06T07:33:21Z</time>
      </trkpt>
      <trkpt lat="47.39224" lon="6.69567">
        <ele>432</ele>
        <time>2014-04-06T07:33:23Z</time>
      </trkpt>
      <trkpt lat="47.39225" lon="6.69576">
        <ele>432</ele>
        <time>2014-04-06T07:33:25Z</time>
      </trkpt>
      <trkpt lat="47.39227" lon="6.69583">
        <ele>432</ele>
        <time>2014-04-06T07:33:27Z</time>
      </trkpt>
      <trkpt lat="47.39229" lon="6.69595">
        <ele>432</ele>
        <time>2014-04-06T07:33:30Z</time>
      </trkpt>
      <trkpt lat="47.3923" lon="6.69603">
        <ele>432</ele>
        <time>2014-04-06T07:33:32Z</time>
      </trkpt>
      <trkpt lat="47.39232" lon="6.6961">
        <ele>432</ele>
        <time>2014-04-06T07:33:34Z</time>
      </trkpt>
      <trkpt lat="47.39233" lon="6.69617">
        <ele>432</ele>
        <time>2014-04-06T07:33:36Z</time>
      </trkpt>
      <trkpt lat="47.39234" lon="6.69628">
        <ele>432</ele>
        <time>2014-04-06T07:33:39Z</time>
      </trkpt>
      <trkpt lat="47.39235" lon="6.69639">
        <ele>433</ele>
        <time>2014-04-06T07:33:42Z</time>
      </trkpt>
      <trkpt lat="47.39236" lon="6.69647">
        <ele>433</ele>
        <time>2014-04-06T07:33:44Z</time>
      </trkpt>
      <trkpt lat="47.39238" lon="6.69654">
        <ele>433</ele>
        <time>2014-04-06T07:33:46Z</time>
      </trkpt>
      <trkpt lat="47.3924" lon="6.69664">
        <ele>434</ele>
        <time>2014-04-06T07:33:49Z</time>
      </trkpt>
      <trkpt lat="47.39241" lon="6.69671">
        <ele>434</ele>
        <time>2014-04-06T07:33:51Z</time>
      </trkpt>
      <trkpt lat="47.39243" lon="6.69677">
        <ele>434</ele>
        <time>2014-04-06T07:33:53Z</time>
      </trkpt>
      <trkpt lat="47.39245" lon="6.69684">
        <ele>434</ele>
        <time>2014-04-06T07:33:55Z</time>
      </trkpt>
      <trkpt lat="47.39248" lon="6.69693">
        <ele>434</ele>
        <time>2014-04-06T07:33:58Z</time>
      </trkpt>
      <trkpt lat="47.3925" lon="6.69703">
        <ele>434</ele>
        <time>2014-04-06T07:34:01Z</time>
      </trkpt>
      <trkpt lat="47.3925" lon="6.69713">
        <ele>435</ele>
        <time>2014-04-06T07:34:04Z</time>
      </trkpt>
      <trkpt lat="47.3925" lon="6.69718">
        <ele>435</ele>
        <time>2014-04-06T07:34:06Z</time>
      </trkpt>
      <trkpt lat="47.39252" lon="6.69727">
        <ele>435</ele>
        <time>2014-04-06T07:34:09Z</time>
      </trkpt>
      <trkpt lat="47.39254" lon="6.69735">
        <ele>435</ele>
        <time>2014-04-06T07:34:12Z</time>
      </trkpt>
      <trkpt lat="47.39256" lon="6.69744">
        <ele>435</ele>
        <time>2014-04-06T07:34:15Z</time>
      </trkpt>
      <trkpt lat="47.39257" lon="6.69749">
        <ele>435</ele>
        <time>2014-04-06T07:34:17Z</time>
      </trkpt>
      <trkpt lat="47.39258" lon="6.69755">
        <ele>436</ele>
        <time>2014-04-06T07:34:19Z</time>
      </trkpt>
      <trkpt lat="47.39259" lon="6.69761">
        <ele>436</ele>
        <time>2014-04-06T07:34:21Z</time>
      </trkpt>
      <trkpt lat="47.3926" lon="6.69769">
        <ele>436</ele>
        <time>2014-04-06T07:34:24Z</time>
      </trkpt>
      <trkpt lat="47.3926" lon="6.69775">
        <ele>437</ele>
        <time>2014-04-06T07:34:26Z</time>
      </trkpt>
      <trkpt lat="47.3926" lon="6.6978">
        <ele>437</ele>
        <time>2014-04-06T07:34:28Z</time>
      </trkpt>
      <trkpt lat="47.39261" lon="6.69785">
        <ele>437</ele>
        <time>2014-04-06T07:34:30Z</time>
      </trkpt>
      <trkpt lat="47.39262" lon="6.69794">
        <ele>437</ele>
        <time>2014-04-06T07:34:33Z</time>
      </trkpt>
      <trkpt lat="47.39262" lon="6.69799">
        <ele>437</ele>
        <time>2014-04-06T07:34:35Z</time>
      </trkpt>
      <trkpt lat="47.39263" lon="6.69807">
        <ele>437</ele>
        <time>2014-04-06T07:34:38Z</time>
      </trkpt>
      <trkpt lat="47.39264" lon="6.69816">
        <ele>438</ele>
        <time>2014-04-06T07:34:41Z</time>
      </trkpt>
      <trkpt lat="47.39266" lon="6.69824">
        <ele>438</ele>
        <time>2014-04-06T07:34:44Z</time>
      </trkpt>
      <trkpt lat="47.39267" lon="6.6983">
        <ele>438</ele>
        <time>2014-04-06T07:34:46Z</time>
      </trkpt>
      <trkpt lat="47.39267" lon="6.69835">
        <ele>438</ele>
        <time>2014-04-06T07:34:48Z</time>
      </trkpt>
      <trkpt lat="47.39269" lon="6.69843">
        <ele>439</ele>
        <time>2014-04-06T07:34:51Z</time>
      </trkpt>
      <trkpt lat="47.3927" lon="6.69849">
        <ele>439</ele>
        <time>2014-04-06T07:34:53Z</time>
      </trkpt>
      <trkpt lat="47.39271" lon="6.69857">
        <ele>439</ele>
        <time>2014-04-06T07:34:56Z</time>
      </trkpt>
      <trkpt lat="47.39273" lon="6.69865">
        <ele>439</ele>
        <time>2014-04-06T07:34:59Z</time>
      </trkpt>
      <trkpt lat="47.39274" lon="6.69871">
        <ele>439</ele>
        <time>2014-04-06T07:35:01Z</time>
      </trkpt>
      <trkpt lat="47.39275" lon="6.69877">
        <ele>439</ele>
        <time>2014-04-06T07:35:03Z</time>
      </trkpt>
      <trkpt lat="47.39276" lon="6.69885">
        <ele>440</ele>
        <time>2014-04-06T07:35:06Z</time>
      </trkpt>
      <trkpt lat="47.39277" lon="6.69891">
        <ele>440</ele>
        <time>2014-04-06T07:35:08Z</time>
      </trkpt>
      <trkpt lat="47.39278" lon="6.699">
        <ele>441</ele>
        <time>2014-04-06T07:35:11Z</time>
      </trkpt>
      <trkpt lat="47.3928" lon="6.69909">
        <ele>441</ele>
        <time>2014-04-06T07:35:14Z</time>
      </trkpt>
      <trkpt lat="47.39281" lon="6.69918">
        <ele>441</ele>
        <time>2014-04-06T07:35:17Z</time>
      </trkpt>
      <trkpt lat="47.39282" lon="6.69923">
        <ele>441</ele>
        <time>2014-04-06T07:35:19Z</time>
      </trkpt>
      <trkpt lat="47.39283" lon="6.69933">
        <ele>441</ele>
        <time>2014-04-06T07:35:22Z</time>
      </trkpt>
      <trkpt lat="47.39285" lon="6.69944">
        <ele>442</ele>
        <time>2014-04-06T07:35:25Z</time>
      </trkpt>
      <trkpt lat="47.39286" lon="6.69951">
        <ele>442</ele>
        <time>2014-04-06T07:35:27Z</time>
      </trkpt>
      <trkpt lat="47.39287" lon="6.69962">
        <ele>442</ele>
        <time>2014-04-06T07:35:30Z</time>
      </trkpt>
      <trkpt lat="47.39288" lon="6.69973">
        <ele>443</ele>
        <time>2014-04-06T07:35:33Z</time>
      </trkpt>
      <trkpt lat="47.39289" lon="6.69981">
        <ele>443</ele>
        <time>2014-04-06T07:35:35Z</time>
      </trkpt>
      <trkpt lat="47.3929" lon="6.69988">
        <ele>443</ele>
        <time>2014-04-06T07:35:37Z</time>
      </trkpt>
      <trkpt lat="47.39291" lon="6.69995">
        <ele>444</ele>
        <time>2014-04-06T07:35:39Z</time>
      </trkpt>
      <trkpt lat="47.39291" lon="6.70002">
        <ele>444</ele>
        <time>2014-04-06T07:35:41Z</time>
      </trkpt>
      <trkpt lat="47.39292" lon="6.70009">
        <ele>444</ele>
        <time>2014-04-06T07:35:43Z</time>
      </trkpt>
      <trkpt lat="47.39293" lon="6.70016">
        <ele>444</ele>
        <time>2014-04-06T07:35:45Z</time>
      </trkpt>
      <trkpt lat="47.39293" lon="6.70023">
        <ele>444</ele>
        <time>2014-04-06T07:35:47Z</time>
      </trkpt>
      <trkpt lat="47.39294" lon="6.70034">
        <ele>444</ele>
        <time>2014-04-06T07:35:50Z</time>
      </trkpt>
      <trkpt lat="47.39294" lon="6.70042">
        <ele>444</ele>
        <time>2014-04-06T07:35:52Z</time>
      </trkpt>
      <trkpt lat="47.39295" lon="6.70052">
        <ele>445</ele>
        <time>2014-04-06T07:35:55Z</time>
      </trkpt>
      <trkpt lat="47.39296" lon="6.70064">
        <ele>445</ele>
        <time>2014-04-06T07:35:58Z</time>
      </trkpt>
      <trkpt lat="47.39297" lon="6.70075">
        <ele>446</ele>
        <time>2014-04-06T07:36:01Z</time>
      </trkpt>
      <trkpt lat="47.39298" lon="6.70083">
        <ele>446</ele>
        <time>2014-04-06T07:36:03Z</time>
      </trkpt>
      <trkpt lat="47.39299" lon="6.7009">
        <ele>446</ele>
        <time>2014-04-06T07:36:05Z</time>
      </trkpt>
      <trkpt lat="47.39301" lon="6.70101">
        <ele>446</ele>
        <time>2014-04-06T07:36:08Z</time>
      </trkpt>
      <trkpt lat="47.39302" lon="6.70109">
        <ele>447</ele>
        <time>2014-04-06T07:36:10Z</time>
      </trkpt>
      <trkpt lat="47.39304" lon="6.70117">
        <ele>447</ele>
        <time>2014-04-06T07:36:12Z</time>
      </trkpt>
      <trkpt lat="47.39305" lon="6.70124">
        <ele>447</ele>
        <time>2014-04-06T07:36:14Z</time>
      </trkpt>
      <trkpt lat="47.39307" lon="6.70131">
        <ele>447</ele>
        <time>2014-04-06T07:36:16Z</time>
      </trkpt>
      <trkpt lat="47.39308" lon="6.70139">
        <ele>448</ele>
        <time>2014-04-06T07:36:18Z</time>
      </trkpt>
      <trkpt lat="47.39309" lon="6.70147">
        <ele>448</ele>
        <time>2014-04-06T07:36:20Z</time>
      </trkpt>
      <trkpt lat="47.3931" lon="6.70158">
        <ele>448</ele>
        <time>2014-04-06T07:36:23Z</time>
      </trkpt>
      <trkpt lat="47.39312" lon="6.70169">
        <ele>448</ele>
        <time>2014-04-06T07:36:26Z</time>
      </trkpt>
      <trkpt lat="47.39313" lon="6.70177">
        <ele>449</ele>
        <time>2014-04-06T07:36:28Z</time>
      </trkpt>
      <trkpt lat="47.39314" lon="6.70185">
        <ele>449</ele>
        <time>2014-04-06T07:36:30Z</time>
      </trkpt>
      <trkpt lat="47.39316" lon="6.70196">
        <ele>450</ele>
        <time>2014-04-06T07:36:33Z</time>
      </trkpt>
      <trkpt lat="47.39317" lon="6.70203">
        <ele>450</ele>
        <time>2014-04-06T07:36:35Z</time>
      </trkpt>
      <trkpt lat="47.39318" lon="6.70215">
        <ele>450</ele>
        <time>2014-04-06T07:36:38Z</time>
      </trkpt>
      <trkpt lat="47.3932" lon="6.70222">
        <ele>451</ele>
        <time>2014-04-06T07:36:40Z</time>
      </trkpt>
      <trkpt lat="47.3932" lon="6.7023">
        <ele>451</ele>
        <time>2014-04-06T07:36:42Z</time>
      </trkpt>
      <trkpt lat="47.39322" lon="6.70241">
        <ele>451</ele>
        <time>2014-04-06T07:36:45Z</time>
      </trkpt>
      <trkpt lat="47.39323" lon="6.70253">
        <ele>451</ele>
        <time>2014-04-06T07:36:48Z</time>
      </trkpt>
      <trkpt lat="47.39324" lon="6.70261">
        <ele>451</ele>
        <time>2014-04-06T07:36:50Z</time>
      </trkpt>
      <trkpt lat="47.39324" lon="6.70268">
        <ele>452</ele>
        <time>2014-04-06T07:36:52Z</time>
      </trkpt>
      <trkpt lat="47.39325" lon="6.70276">
        <ele>452</ele>
        <time>2014-04-06T07:36:54Z</time>
      </trkpt>
      <trkpt lat="47.39326" lon="6.70284">
        <ele>452</ele>
        <time>2014-04-06T07:36:56Z</time>
      </trkpt>
      <trkpt lat="47.39327" lon="6.70292">
        <ele>452</ele>
        <time>2014-04-06T07:36:58Z</time>
      </trkpt>
      <trkpt lat="47.39328" lon="6.70299">
        <ele>453</ele>
        <time>2014-04-06T07:37:00Z</time>
      </trkpt>
      <trkpt lat="47.39329" lon="6.70311">
        <ele>453</ele>
        <time>2014-04-06T07:37:03Z</time>
      </trkpt>
      <trkpt lat="47.3933" lon="6.70319">
        <ele>454</ele>
        <time>2014-04-06T07:37:05Z</time>
      </trkpt>
      <trkpt lat="47.3933" lon="6.70327">
        <ele>454</ele>
        <time>2014-04-06T07:37:07Z</time>
      </trkpt>
      <trkpt lat="47.3933" lon="6.70335">
        <ele>454</ele>
        <time>2014-04-06T07:37:09Z</time>
      </trkpt>
      <trkpt lat="47.3933" lon="6.70342">
        <ele>454</ele>
        <time>2014-04-06T07:37:11Z</time>
      </trkpt>
      <trkpt lat="47.39329" lon="6.70349">
        <ele>455</ele>
        <time>2014-04-06T07:37:13Z</time>
      </trkpt>
      <trkpt lat="47.39328" lon="6.70359">
        <ele>455</ele>
        <time>2014-04-06T07:37:16Z</time>
      </trkpt>
      <trkpt lat="47.3933" lon="6.70368">
        <ele>456</ele>
        <time>2014-04-06T07:37:19Z</time>
      </trkpt>
      <trkpt lat="47.39332" lon="6.70373">
        <ele>456</ele>
        <time>2014-04-06T07:37:21Z</time>
      </trkpt>
      <trkpt lat="47.39333" lon="6.7038">
        <ele>456</ele>
        <time>2014-04-06T07:37:23Z</time>
      </trkpt>
      <trkpt lat="47.39334" lon="6.70388">
        <ele>457</ele>
        <time>2014-04-06T07:37:25Z</time>
      </trkpt>
      <trkpt lat="47.39334" lon="6.70395">
        <ele>457</ele>
        <time>2014-04-06T07:37:27Z</time>
      </trkpt>
      <trkpt lat="47.39336" lon="6.70405">
        <ele>457</ele>
        <time>2014-04-06T07:37:30Z</time>
      </trkpt>
      <trkpt lat="47.39337" lon="6.70414">
        <ele>458</ele>
        <time>2014-04-06T07:37:33Z</time>
      </trkpt>
      <trkpt lat="47.39338" lon="6.70423">
        <ele>458</ele>
        <time>2014-04-06T07:37:36Z</time>
      </trkpt>
      <trkpt lat="47.39338" lon="6.70429">
        <ele>458</ele>
        <time>2014-04-06T07:37:38Z</time>
      </trkpt>
      <trkpt lat="47.39338" lon="6.70438">
        <ele>459</ele>
        <time>2014-04-06T07:37:41Z</time>
      </trkpt>
      <trkpt lat="47.39338" lon="6.70445">
        <ele>459</ele>
        <time>2014-04-06T07:37:43Z</time>
      </trkpt>
      <trkpt lat="47.39337" lon="6.70453">
        <ele>459</ele>
        <time>2014-04-06T07:37:46Z</time>
      </trkpt>
      <trkpt lat="47.39336" lon="6.70459">
        <ele>460</ele>
        <time>2014-04-06T07:37:48Z</time>
      </trkpt>
      <trkpt lat="47.39334" lon="6.70468">
        <ele>460</ele>
        <time>2014-04-06T07:37:51Z</time>
      </trkpt>
      <trkpt lat="47.39333" lon="6.70474">
        <ele>461</ele>
        <time>2014-04-06T07:37:53Z</time>
      </trkpt>
      <trkpt lat="47.39334" lon="6.70482">
        <ele>461</ele>
        <time>2014-04-06T07:37:56Z</time>
      </trkpt>
      <trkpt lat="47.39336" lon="6.7049">
        <ele>461</ele>
        <time>2014-04-06T07:37:58Z</time>
      </trkpt>
      <trkpt lat="47.39338" lon="6.70496">
        <ele>462</ele>
        <time>2014-04-06T07:38:00Z</time>
      </trkpt>
      <trkpt lat="47.39342" lon="6.70505">
        <ele>462</ele>
        <time>2014-04-06T07:38:03Z</time>
      </trkpt>
      <trkpt lat="47.39345" lon="6.70511">
        <ele>462</ele>
        <time>2014-04-06T07:38:05Z</time>
      </trkpt>
      <trkpt lat="47.39348" lon="6.70518">
        <ele>462</ele>
        <time>2014-04-06T07:38:07Z</time>
      </trkpt>
      <trkpt lat="47.39351" lon="6.70524">
        <ele>462</ele>
        <time>2014-04-06T07:38:09Z</time>
      </trkpt>
      <trkpt lat="47.39354" lon="6.7053">
        <ele>462</ele>
        <time>2014-04-06T07:38:11Z</time>
      </trkpt>
      <trkpt lat="47.39357" lon="6.70539">
        <ele>463</ele>
        <time>2014-04-06T07:38:14Z</time>
      </trkpt>
      <trkpt lat="47.39359" lon="6.70544">
        <ele>463</ele>
        <time>2014-04-06T07:38:16Z</time>
      </trkpt>
      <trkpt lat="47.39361" lon="6.7055">
        <ele>463</ele>
        <time>2014-04-06T07:38:18Z</time>
      </trkpt>
      <trkpt lat="47.39365" lon="6.70559">
        <ele>463</ele>
        <time>2014-04-06T07:38:21Z</time>
      </trkpt>
      <trkpt lat="47.39367" lon="6.70566">
        <ele>463</ele>
        <time>2014-04-06T07:38:23Z</time>
      </trkpt>
      <trkpt lat="47.3937" lon="6.70576">
        <ele>463</ele>
        <time>2014-04-06T07:38:26Z</time>
      </trkpt>
      <trkpt lat="47.39372" lon="6.70581">
        <ele>463</ele>
        <time>2014-04-06T07:38:28Z</time>
      </trkpt>
      <trkpt lat="47.39374" lon="6.70593">
        <ele>463</ele>
        <time>2014-04-06T07:38:31Z</time>
      </trkpt>
      <trkpt lat="47.39376" lon="6.70604">
        <ele>463</ele>
        <time>2014-04-06T07:38:34Z</time>
      </trkpt>
      <trkpt lat="47.3938" lon="6.70613">
        <ele>464</ele>
        <time>2014-04-06T07:38:37Z</time>
      </trkpt>
      <trkpt lat="47.39383" lon="6.70622">
        <ele>464</ele>
        <time>2014-04-06T07:38:40Z</time>
      </trkpt>
      <trkpt lat="47.39385" lon="6.70629">
        <ele>464</ele>
        <time>2014-04-06T07:38:42Z</time>
      </trkpt>
      <trkpt lat="47.39386" lon="6.70635">
        <ele>464</ele>
        <time>2014-04-06T07:38:44Z</time>
      </trkpt>
      <trkpt lat="47.39388" lon="6.7064">
        <ele>464</ele>
        <time>2014-04-06T07:38:46Z</time>
      </trkpt>
      <trkpt lat="47.3939" lon="6.70649">
        <ele>464</ele>
        <time>2014-04-06T07:38:49Z</time>
      </trkpt>
      <trkpt lat="47.39391" lon="6.70656">
        <ele>464</ele>
        <time>2014-04-06T07:38:51Z</time>
      </trkpt>
      <trkpt lat="47.39393" lon="6.70666">
        <ele>465</ele>
        <time>2014-04-06T07:38:54Z</time>
      </trkpt>
      <trkpt lat="47.39395" lon="6.70671">
        <ele>464</ele>
        <time>2014-04-06T07:38:56Z</time>
      </trkpt>
      <trkpt lat="47.39396" lon="6.7068">
        <ele>464</ele>
        <time>2014-04-06T07:38:59Z</time>
      </trkpt>
      <trkpt lat="47.39397" lon="6.70685">
        <ele>464</ele>
        <time>2014-04-06T07:39:01Z</time>
      </trkpt>
      <trkpt lat="47.39398" lon="6.70692">
        <ele>464</ele>
        <time>2014-04-06T07:39:04Z</time>
      </trkpt>
      <trkpt lat="47.39399" lon="6.70697">
        <ele>464</ele>
        <time>2014-04-06T07:39:06Z</time>
      </trkpt>
      <trkpt lat="47.394" lon="6.70705">
        <ele>464</ele>
        <time>2014-04-06T07:39:09Z</time>
      </trkpt>
      <trkpt lat="47.39402" lon="6.70715">
        <ele>464</ele>
        <time>2014-04-06T07:39:12Z</time>
      </trkpt>
      <trkpt lat="47.39403" lon="6.70722">
        <ele>464</ele>
        <time>2014-04-06T07:39:14Z</time>
      </trkpt>
      <trkpt lat="47.39405" lon="6.7073">
        <ele>465</ele>
        <time>2014-04-06T07:39:17Z</time>
      </trkpt>
      <trkpt lat="47.39406" lon="6.70736">
        <ele>465</ele>
        <time>2014-04-06T07:39:19Z</time>
      </trkpt>
      <trkpt lat="47.39408" lon="6.7074">
        <ele>465</ele>
        <time>2014-04-06T07:39:21Z</time>
      </trkpt>
      <trkpt lat="47.3941" lon="6.70745">
        <ele>465</ele>
        <time>2014-04-06T07:39:23Z</time>
      </trkpt>
      <trkpt lat="47.39412" lon="6.70748">
        <ele>465</ele>
        <time>2014-04-06T07:39:25Z</time>
      </trkpt>
      <trkpt lat="47.39416" lon="6.70755">
        <ele>465</ele>
        <time>2014-04-06T07:39:28Z</time>
      </trkpt>
      <trkpt lat="47.39418" lon="6.7076">
        <ele>465</ele>
        <time>2014-04-06T07:39:30Z</time>
      </trkpt>
      <trkpt lat="47.3942" lon="6.70767">
        <ele>465</ele>
        <time>2014-04-06T07:39:33Z</time>
      </trkpt>
      <trkpt lat="47.39423" lon="6.70772">
        <ele>465</ele>
        <time>2014-04-06T07:39:35Z</time>
      </trkpt>
      <trkpt lat="47.39424" lon="6.70777">
        <ele>465</ele>
        <time>2014-04-06T07:39:37Z</time>
      </trkpt>
      <trkpt lat="47.39426" lon="6.70782">
        <ele>465</ele>
        <time>2014-04-06T07:39:39Z</time>
      </trkpt>
      <trkpt lat="47.39428" lon="6.70787">
        <ele>465</ele>
        <time>2014-04-06T07:39:41Z</time>
      </trkpt>
      <trkpt lat="47.39431" lon="6.70792">
        <ele>465</ele>
        <time>2014-04-06T07:39:43Z</time>
      </trkpt>
      <trkpt lat="47.39434" lon="6.708">
        <ele>465</ele>
        <time>2014-04-06T07:39:46Z</time>
      </trkpt>
      <trkpt lat="47.39437" lon="6.70806">
        <ele>466</ele>
        <time>2014-04-06T07:39:48Z</time>
      </trkpt>
      <trkpt lat="47.3944" lon="6.70815">
        <ele>466</ele>
        <time>2014-04-06T07:39:51Z</time>
      </trkpt>
      <trkpt lat="47.39442" lon="6.70821">
        <ele>466</ele>
        <time>2014-04-06T07:39:53Z</time>
      </trkpt>
      <trkpt lat="47.39445" lon="6.70829">
        <ele>466</ele>
        <time>2014-04-06T07:39:56Z</time>
      </trkpt>
      <trkpt lat="47.39448" lon="6.70837">
        <ele>466</ele>
        <time>2014-04-06T07:39:59Z</time>
      </trkpt>
      <trkpt lat="47.3945" lon="6.70842">
        <ele>466</ele>
        <time>2014-04-06T07:40:01Z</time>
      </trkpt>
      <trkpt lat="47.39454" lon="6.7085">
        <ele>466</ele>
        <time>2014-04-06T07:40:04Z</time>
      </trkpt>
      <trkpt lat="47.39456" lon="6.70859">
        <ele>466</ele>
        <time>2014-04-06T07:40:07Z</time>
      </trkpt>
      <trkpt lat="47.39459" lon="6.70865">
        <ele>466</ele>
        <time>2014-04-06T07:40:09Z</time>
      </trkpt>
      <trkpt lat="47.3946" lon="6.70871">
        <ele>466</ele>
        <time>2014-04-06T07:40:11Z</time>
      </trkpt>
      <trkpt lat="47.39462" lon="6.70878">
        <ele>466</ele>
        <time>2014-04-06T07:40:13Z</time>
      </trkpt>
      <trkpt lat="47.39466" lon="6.70887">
        <ele>466</ele>
        <time>2014-04-06T07:40:16Z</time>
      </trkpt>
      <trkpt lat="47.39469" lon="6.70893">
        <ele>466</ele>
        <time>2014-04-06T07:40:18Z</time>
      </trkpt>
      <trkpt lat="47.39472" lon="6.70899">
        <ele>466</ele>
        <time>2014-04-06T07:40:20Z</time>
      </trkpt>
      <trkpt lat="47.39476" lon="6.7091">
        <ele>466</ele>
        <time>2014-04-06T07:40:23Z</time>
      </trkpt>
      <trkpt lat="47.39478" lon="6.70919">
        <ele>467</ele>
        <time>2014-04-06T07:40:26Z</time>
      </trkpt>
      <trkpt lat="47.3948" lon="6.70926">
        <ele>467</ele>
        <time>2014-04-06T07:40:28Z</time>
      </trkpt>
      <trkpt lat="47.39482" lon="6.70936">
        <ele>467</ele>
        <time>2014-04-06T07:40:31Z</time>
      </trkpt>
      <trkpt lat="47.39485" lon="6.70942">
        <ele>467</ele>
        <time>2014-04-06T07:40:33Z</time>
      </trkpt>
      <trkpt lat="47.39486" lon="6.70949">
        <ele>467</ele>
        <time>2014-04-06T07:40:35Z</time>
      </trkpt>
      <trkpt lat="47.39486" lon="6.70958">
        <ele>467</ele>
        <time>2014-04-06T07:40:38Z</time>
      </trkpt>
      <trkpt lat="47.39485" lon="6.70962">
        <ele>467</ele>
        <time>2014-04-06T07:40:40Z</time>
      </trkpt>
      <trkpt lat="47.39483" lon="6.70968">
        <ele>468</ele>
        <time>2014-04-06T07:40:43Z</time>
      </trkpt>
      <trkpt lat="47.39481" lon="6.70973">
        <ele>468</ele>
        <time>2014-04-06T07:40:45Z</time>
      </trkpt>
      <trkpt lat="47.39479" lon="6.7098">
        <ele>469</ele>
        <time>2014-04-06T07:40:47Z</time>
      </trkpt>
      <trkpt lat="47.39478" lon="6.7099">
        <ele>469</ele>
        <time>2014-04-06T07:40:50Z</time>
      </trkpt>
      <trkpt lat="47.39479" lon="6.70995">
        <ele>470</ele>
        <time>2014-04-06T07:40:52Z</time>
      </trkpt>
      <trkpt lat="47.39479" lon="6.71001">
        <ele>470</ele>
        <time>2014-04-06T07:40:54Z</time>
      </trkpt>
      <trkpt lat="47.39481" lon="6.71009">
        <ele>470</ele>
        <time>2014-04-06T07:40:57Z</time>
      </trkpt>
      <trkpt lat="47.39482" lon="6.71017">
        <ele>470</ele>
        <time>2014-04-06T07:41:00Z</time>
      </trkpt>
      <trkpt lat="47.39483" lon="6.71024">
        <ele>471</ele>
        <time>2014-04-06T07:41:02Z</time>
      </trkpt>
      <trkpt lat="47.39484" lon="6.71033">
        <ele>471</ele>
        <time>2014-04-06T07:41:05Z</time>
      </trkpt>
      <trkpt lat="47.39485" lon="6.71042">
        <ele>471</ele>
        <time>2014-04-06T07:41:08Z</time>
      </trkpt>
      <trkpt lat="47.39484" lon="6.71048">
        <ele>472</ele>
        <time>2014-04-06T07:41:10Z</time>
      </trkpt>
      <trkpt lat="47.39483" lon="6.71058">
        <ele>472</ele>
        <time>2014-04-06T07:41:13Z</time>
      </trkpt>
      <trkpt lat="47.39483" lon="6.71065">
        <ele>472</ele>
        <time>2014-04-06T07:41:16Z</time>
      </trkpt>
      <trkpt lat="47.39485" lon="6.71074">
        <ele>472</ele>
        <time>2014-04-06T07:41:19Z</time>
      </trkpt>
      <trkpt lat="47.39487" lon="6.71079">
        <ele>472</ele>
        <time>2014-04-06T07:41:21Z</time>
      </trkpt>
      <trkpt lat="47.3949" lon="6.71086">
        <ele>472</ele>
        <time>2014-04-06T07:41:24Z</time>
      </trkpt>
      <trkpt lat="47.39492" lon="6.71091">
        <ele>472</ele>
        <time>2014-04-06T07:41:26Z</time>
      </trkpt>
      <trkpt lat="47.39495" lon="6.71097">
        <ele>472</ele>
        <time>2014-04-06T07:41:29Z</time>
      </trkpt>
      <trkpt lat="47.39498" lon="6.71102">
        <ele>472</ele>
        <time>2014-04-06T07:41:32Z</time>
      </trkpt>
      <trkpt lat="47.395" lon="6.71104">
        <ele>472</ele>
        <time>2014-04-06T07:41:34Z</time>
      </trkpt>
      <trkpt lat="47.39502" lon="6.71108">
        <ele>472</ele>
        <time>2014-04-06T07:41:36Z</time>
      </trkpt>
      <trkpt lat="47.39504" lon="6.71112">
        <ele>472</ele>
        <time>2014-04-06T07:41:38Z</time>
      </trkpt>
      <trkpt lat="47.39507" lon="6.71118">
        <ele>472</ele>
        <time>2014-04-06T07:41:41Z</time>
      </trkpt>
      <trkpt lat="47.39508" lon="6.71123">
        <ele>472</ele>
        <time>2014-04-06T07:41:43Z</time>
      </trkpt>
      <trkpt lat="47.39508" lon="6.71128">
        <ele>471</ele>
        <time>2014-04-06T07:41:45Z</time>
      </trkpt>
      <trkpt lat="47.39509" lon="6.71132">
        <ele>471</ele>
        <time>2014-04-06T07:41:47Z</time>
      </trkpt>
      <trkpt lat="47.39512" lon="6.71139">
        <ele>471</ele>
        <time>2014-04-06T07:41:50Z</time>
      </trkpt>
      <trkpt lat="47.39514" lon="6.71143">
        <ele>472</ele>
        <time>2014-04-06T07:41:52Z</time>
      </trkpt>
      <trkpt lat="47.39514" lon="6.71145">
        <ele>472</ele>
        <time>2014-04-06T07:41:54Z</time>
      </trkpt>
      <trkpt lat="47.39515" lon="6.71146">
        <ele>471</ele>
        <time>2014-04-06T07:41:57Z</time>
      </trkpt>
      <trkpt lat="47.39515" lon="6.71147">
        <ele>472</ele>
        <time>2014-04-06T07:42:00Z</time>
      </trkpt>
      <trkpt lat="47.39515" lon="6.71147">
        <ele>472</ele>
        <time>2014-04-06T07:42:03Z</time>
      </trkpt>
      <trkpt lat="47.39516" lon="6.71148">
        <ele>472</ele>
        <time>2014-04-06T07:42:06Z</time>
      </trkpt>
      <trkpt lat="47.39516" lon="6.71148">
        <ele>471</ele>
        <time>2014-04-06T07:42:09Z</time>
      </trkpt>
      <trkpt lat="47.39516" lon="6.71149">
        <ele>472</ele>
        <time>2014-04-06T07:42:11Z</time>
      </trkpt>
      <trkpt lat="47.39517" lon="6.71149">
        <ele>472</ele>
        <time>2014-04-06T07:42:13Z</time>
      </trkpt>
      <trkpt lat="47.39518" lon="6.7115">
        <ele>472</ele>
        <time>2014-04-06T07:42:16Z</time>
      </trkpt>
      <trkpt lat="47.39518" lon="6.71151">
        <ele>471</ele>
        <time>2014-04-06T07:42:18Z</time>
      </trkpt>
      <trkpt lat="47.39519" lon="6.71152">
        <ele>471</ele>
        <time>2014-04-06T07:42:21Z</time>
      </trkpt>
      <trkpt lat="47.3952" lon="6.71153">
        <ele>471</ele>
        <time>2014-04-06T07:42:24Z</time>
      </trkpt>
      <trkpt lat="47.39521" lon="6.71157">
        <ele>471</ele>
        <time>2014-04-06T07:42:26Z</time>
      </trkpt>
      <trkpt lat="47.39524" lon="6.71161">
        <ele>471</ele>
        <time>2014-04-06T07:42:28Z</time>
      </trkpt>
      <trkpt lat="47.39526" lon="6.71166">
        <ele>472</ele>
        <time>2014-04-06T07:42:30Z</time>
      </trkpt>
      <trkpt lat="47.3953" lon="6.71174">
        <ele>471</ele>
        <time>2014-04-06T07:42:33Z</time>
      </trkpt>
      <trkpt lat="47.39532" lon="6.71179">
        <ele>472</ele>
        <time>2014-04-06T07:42:35Z</time>
      </trkpt>
      <trkpt lat="47.39537" lon="6.71189">
        <ele>471</ele>
        <time>2014-04-06T07:42:38Z</time>
      </trkpt>
      <trkpt lat="47.39541" lon="6.71199">
        <ele>471</ele>
        <time>2014-04-06T07:42:41Z</time>
      </trkpt>
      <trkpt lat="47.39545" lon="6.71205">
        <ele>471</ele>
        <time>2014-04-06T07:42:43Z</time>
      </trkpt>
      <trkpt lat="47.39549" lon="6.7121">
        <ele>471</ele>
        <time>2014-04-06T07:42:45Z</time>
      </trkpt>
      <trkpt lat="47.39555" lon="6.71219">
        <ele>471</ele>
        <time>2014-04-06T07:42:48Z</time>
      </trkpt>
      <trkpt lat="47.39558" lon="6.71228">
        <ele>471</ele>
        <time>2014-04-06T07:42:50Z</time>
      </trkpt>
      <trkpt lat="47.3956" lon="6.71236">
        <ele>470</ele>
        <time>2014-04-06T07:42:52Z</time>
      </trkpt>
      <trkpt lat="47.39563" lon="6.71247">
        <ele>470</ele>
        <time>2014-04-06T07:42:55Z</time>
      </trkpt>
      <trkpt lat="47.39567" lon="6.71255">
        <ele>470</ele>
        <time>2014-04-06T07:42:57Z</time>
      </trkpt>
      <trkpt lat="47.39571" lon="6.71268">
        <ele>470</ele>
        <time>2014-04-06T07:43:00Z</time>
      </trkpt>
      <trkpt lat="47.39575" lon="6.71275">
        <ele>470</ele>
        <time>2014-04-06T07:43:02Z</time>
      </trkpt>
      <trkpt lat="47.39577" lon="6.71283">
        <ele>470</ele>
        <time>2014-04-06T07:43:04Z</time>
      </trkpt>
      <trkpt lat="47.39578" lon="6.71292">
        <ele>469</ele>
        <time>2014-04-06T07:43:06Z</time>
      </trkpt>
      <trkpt lat="47.3958" lon="6.71304">
        <ele>469</ele>
        <time>2014-04-06T07:43:09Z</time>
      </trkpt>
      <trkpt lat="47.39579" lon="6.71314">
        <ele>469</ele>
        <time>2014-04-06T07:43:11Z</time>
      </trkpt>
      <trkpt lat="47.39578" lon="6.71323">
        <ele>469</ele>
        <time>2014-04-06T07:43:13Z</time>
      </trkpt>
      <trkpt lat="47.3958" lon="6.71333">
        <ele>469</ele>
        <time>2014-04-06T07:43:15Z</time>
      </trkpt>
      <trkpt lat="47.39584" lon="6.71348">
        <ele>469</ele>
        <time>2014-04-06T07:43:18Z</time>
      </trkpt>
      <trkpt lat="47.39588" lon="6.71357">
        <ele>469</ele>
        <time>2014-04-06T07:43:20Z</time>
      </trkpt>
      <trkpt lat="47.39593" lon="6.71369">
        <ele>469</ele>
        <time>2014-04-06T07:43:23Z</time>
      </trkpt>
      <trkpt lat="47.39596" lon="6.71381">
        <ele>468</ele>
        <time>2014-04-06T07:43:26Z</time>
      </trkpt>
      <trkpt lat="47.39598" lon="6.71388">
        <ele>468</ele>
        <time>2014-04-06T07:43:28Z</time>
      </trkpt>
      <trkpt lat="47.39599" lon="6.71395">
        <ele>467</ele>
        <time>2014-04-06T07:43:30Z</time>
      </trkpt>
      <trkpt lat="47.39603" lon="6.71403">
        <ele>467</ele>
        <time>2014-04-06T07:43:32Z</time>
      </trkpt>
      <trkpt lat="47.39606" lon="6.71419">
        <ele>466</ele>
        <time>2014-04-06T07:43:35Z</time>
      </trkpt>
      <trkpt lat="47.39607" lon="6.71433">
        <ele>466</ele>
        <time>2014-04-06T07:43:37Z</time>
      </trkpt>
      <trkpt lat="47.39611" lon="6.71444">
        <ele>465</ele>
        <time>2014-04-06T07:43:39Z</time>
      </trkpt>
      <trkpt lat="47.39616" lon="6.71454">
        <ele>464</ele>
        <time>2014-04-06T07:43:42Z</time>
      </trkpt>
      <trkpt lat="47.3962" lon="6.71457">
        <ele>463</ele>
        <time>2014-04-06T07:43:44Z</time>
      </trkpt>
      <trkpt lat="47.39624" lon="6.71451">
        <ele>462</ele>
        <time>2014-04-06T07:43:47Z</time>
      </trkpt>
      <trkpt lat="47.39626" lon="6.71447">
        <ele>462</ele>
        <time>2014-04-06T07:43:49Z</time>
      </trkpt>
      <trkpt lat="47.39629" lon="6.71442">
        <ele>462</ele>
        <time>2014-04-06T07:43:52Z</time>
      </trkpt>
      <trkpt lat="47.39634" lon="6.71441">
        <ele>462</ele>
        <time>2014-04-06T07:43:54Z</time>
      </trkpt>
      <trkpt lat="47.3964" lon="6.7144">
        <ele>462</ele>
        <time>2014-04-06T07:43:57Z</time>
      </trkpt>
      <trkpt lat="47.39645" lon="6.71439">
        <ele>462</ele>
        <time>2014-04-06T07:43:59Z</time>
      </trkpt>
      <trkpt lat="47.39654" lon="6.71437">
        <ele>462</ele>
        <time>2014-04-06T07:44:02Z</time>
      </trkpt>
      <trkpt lat="47.39664" lon="6.71434">
        <ele>462</ele>
        <time>2014-04-06T07:44:05Z</time>
      </trkpt>
      <trkpt lat="47.39672" lon="6.71431">
        <ele>461</ele>
        <time>2014-04-06T07:44:07Z</time>
      </trkpt>
      <trkpt lat="47.39681" lon="6.71427">
        <ele>461</ele>
        <time>2014-04-06T07:44:09Z</time>
      </trkpt>
      <trkpt lat="47.39691" lon="6.71422">
        <ele>461</ele>
        <time>2014-04-06T07:44:11Z</time>
      </trkpt>
      <trkpt lat="47.39707" lon="6.71415">
        <ele>460</ele>
        <time>2014-04-06T07:44:14Z</time>
      </trkpt>
      <trkpt lat="47.39723" lon="6.71406">
        <ele>460</ele>
        <time>2014-04-06T07:44:17Z</time>
      </trkpt>
      <trkpt lat="47.39734" lon="6.714">
        <ele>460</ele>
        <time>2014-04-06T07:44:19Z</time>
      </trkpt>
      <trkpt lat="47.39743" lon="6.71395">
        <ele>458</ele>
        <time>2014-04-06T07:44:21Z</time>
      </trkpt>
      <trkpt lat="47.39751" lon="6.7139">
        <ele>457</ele>
        <time>2014-04-06T07:44:24Z</time>
      </trkpt>
      <trkpt lat="47.39754" lon="6.71388">
        <ele>455</ele>
        <time>2014-04-06T07:44:27Z</time>
      </trkpt>
      <trkpt lat="47.39754" lon="6.71388">
        <ele>454</ele>
        <time>2014-04-06T07:44:30Z</time>
      </trkpt>
      <trkpt lat="47.39755" lon="6.71388">
        <ele>454</ele>
        <time>2014-04-06T07:44:32Z</time>
      </trkpt>
      <trkpt lat="47.39759" lon="6.71384">
        <ele>454</ele>
        <time>2014-04-06T07:44:35Z</time>
      </trkpt>
      <trkpt lat="47.39763" lon="6.71379">
        <ele>453</ele>
        <time>2014-04-06T07:44:37Z</time>
      </trkpt>
      <trkpt lat="47.39773" lon="6.71372">
        <ele>453</ele>
        <time>2014-04-06T07:44:40Z</time>
      </trkpt>
      <trkpt lat="47.39782" lon="6.71365">
        <ele>453</ele>
        <time>2014-04-06T07:44:42Z</time>
      </trkpt>
      <trkpt lat="47.39798" lon="6.71351">
        <ele>452</ele>
        <time>2014-04-06T07:44:45Z</time>
      </trkpt>
      <trkpt lat="47.39811" lon="6.7134">
        <ele>452</ele>
        <time>2014-04-06T07:44:48Z</time>
      </trkpt>
      <trkpt lat="47.39821" lon="6.7133">
        <ele>451</ele>
        <time>2014-04-06T07:44:50Z</time>
      </trkpt>
      <trkpt lat="47.39834" lon="6.71321">
        <ele>450</ele>
        <time>2014-04-06T07:44:52Z</time>
      </trkpt>
      <trkpt lat="47.39848" lon="6.71313">
        <ele>449</ele>
        <time>2014-04-06T07:44:54Z</time>
      </trkpt>
      <trkpt lat="47.39869" lon="6.7131">
        <ele>449</ele>
        <time>2014-04-06T07:44:57Z</time>
      </trkpt>
      <trkpt lat="47.3989" lon="6.71315">
        <ele>447</ele>
        <time>2014-04-06T07:45:00Z</time>
      </trkpt>
      <trkpt lat="47.39909" lon="6.71315">
        <ele>446</ele>
        <time>2014-04-06T07:45:03Z</time>
      </trkpt>
      <trkpt lat="47.39921" lon="6.71309">
        <ele>445</ele>
        <time>2014-04-06T07:45:05Z</time>
      </trkpt>
      <trkpt lat="47.39931" lon="6.713">
        <ele>444</ele>
        <time>2014-04-06T07:45:07Z</time>
      </trkpt>
      <trkpt lat="47.39945" lon="6.71284">
        <ele>443</ele>
        <time>2014-04-06T07:45:10Z</time>
      </trkpt>
      <trkpt lat="47.39957" lon="6.71268">
        <ele>442</ele>
        <time>2014-04-06T07:45:13Z</time>
      </trkpt>
      <trkpt lat="47.39967" lon="6.71252">
        <ele>442</ele>
        <time>2014-04-06T07:45:16Z</time>
      </trkpt>
      <trkpt lat="47.39976" lon="6.71235">
        <ele>441</ele>
        <time>2014-04-06T07:45:19Z</time>
      </trkpt>
      <trkpt lat="47.39983" lon="6.71225">
        <ele>441</ele>
        <time>2014-04-06T07:45:21Z</time>
      </trkpt>
      <trkpt lat="47.39989" lon="6.71217">
        <ele>440</ele>
        <time>2014-04-06T07:45:23Z</time>
      </trkpt>
      <trkpt lat="47.39994" lon="6.71213">
        <ele>439</ele>
        <time>2014-04-06T07:45:25Z</time>
      </trkpt>
      <trkpt lat="47.39999" lon="6.71205">
        <ele>439</ele>
        <time>2014-04-06T07:45:28Z</time>
      </trkpt>
      <trkpt lat="47.4" lon="6.71199">
        <ele>439</ele>
        <time>2014-04-06T07:45:30Z</time>
      </trkpt>
      <trkpt lat="47.39999" lon="6.71194">
        <ele>439</ele>
        <time>2014-04-06T07:45:32Z</time>
      </trkpt>
      <trkpt lat="47.39998" lon="6.71187">
        <ele>439</ele>
        <time>2014-04-06T07:45:35Z</time>
      </trkpt>
      <trkpt lat="47.39998" lon="6.71183">
        <ele>439</ele>
        <time>2014-04-06T07:45:37Z</time>
      </trkpt>
      <trkpt lat="47.39997" lon="6.71176">
        <ele>439</ele>
        <time>2014-04-06T07:45:40Z</time>
      </trkpt>
      <trkpt lat="47.39996" lon="6.71171">
        <ele>439</ele>
        <time>2014-04-06T07:45:42Z</time>
      </trkpt>
      <trkpt lat="47.39995" lon="6.71162">
        <ele>439</ele>
        <time>2014-04-06T07:45:45Z</time>
      </trkpt>
      <trkpt lat="47.39994" lon="6.71155">
        <ele>440</ele>
        <time>2014-04-06T07:45:47Z</time>
      </trkpt>
      <trkpt lat="47.39991" lon="6.71143">
        <ele>440</ele>
        <time>2014-04-06T07:45:50Z</time>
      </trkpt>
      <trkpt lat="47.39991" lon="6.71136">
        <ele>441</ele>
        <time>2014-04-06T07:45:52Z</time>
      </trkpt>
      <trkpt lat="47.39989" lon="6.71129">
        <ele>441</ele>
        <time>2014-04-06T07:45:54Z</time>
      </trkpt>
      <trkpt lat="47.39987" lon="6.71119">
        <ele>441</ele>
        <time>2014-04-06T07:45:57Z</time>
      </trkpt>
      <trkpt lat="47.39986" lon="6.71111">
        <ele>441</ele>
        <time>2014-04-06T07:45:59Z</time>
      </trkpt>
      <trkpt lat="47.39983" lon="6.71099">
        <ele>441</ele>
        <time>2014-04-06T07:46:02Z</time>
      </trkpt>
      <trkpt lat="47.39982" lon="6.7109">
        <ele>442</ele>
        <time>2014-04-06T07:46:04Z</time>
      </trkpt>
      <trkpt lat="47.3998" lon="6.71082">
        <ele>442</ele>
        <time>2014-04-06T07:46:06Z</time>
      </trkpt>
      <trkpt lat="47.39979" lon="6.71076">
        <ele>442</ele>
        <time>2014-04-06T07:46:08Z</time>
      </trkpt>
      <trkpt lat="47.39978" lon="6.71069">
        <ele>442</ele>
        <time>2014-04-06T07:46:10Z</time>
      </trkpt>
      <trkpt lat="47.39976" lon="6.71061">
        <ele>442</ele>
        <time>2014-04-06T07:46:12Z</time>
      </trkpt>
      <trkpt lat="47.39974" lon="6.71053">
        <ele>442</ele>
        <time>2014-04-06T07:46:14Z</time>
      </trkpt>
      <trkpt lat="47.39972" lon="6.7104">
        <ele>442</ele>
        <time>2014-04-06T07:46:17Z</time>
      </trkpt>
      <trkpt lat="47.39968" lon="6.71023">
        <ele>441</ele>
        <time>2014-04-06T07:46:20Z</time>
      </trkpt>
      <trkpt lat="47.39965" lon="6.71011">
        <ele>441</ele>
        <time>2014-04-06T07:46:22Z</time>
      </trkpt>
      <trkpt lat="47.39961" lon="6.70998">
        <ele>439</ele>
        <time>2014-04-06T07:46:24Z</time>
      </trkpt>
      <trkpt lat="47.39957" lon="6.70984">
        <ele>438</ele>
        <time>2014-04-06T07:46:26Z</time>
      </trkpt>
      <trkpt lat="47.39954" lon="6.70974">
        <ele>436</ele>
        <time>2014-04-06T07:46:28Z</time>
      </trkpt>
      <trkpt lat="47.39954" lon="6.70964">
        <ele>434</ele>
        <time>2014-04-06T07:46:30Z</time>
      </trkpt>
      <trkpt lat="47.3996" lon="6.70948">
        <ele>432</ele>
        <time>2014-04-06T07:46:33Z</time>
      </trkpt>
      <trkpt lat="47.39963" lon="6.70938">
        <ele>431</ele>
        <time>2014-04-06T07:46:35Z</time>
      </trkpt>
      <trkpt lat="47.39967" lon="6.70925">
        <ele>431</ele>
        <time>2014-04-06T07:46:38Z</time>
      </trkpt>
      <trkpt lat="47.39972" lon="6.70914">
        <ele>431</ele>
        <time>2014-04-06T07:46:41Z</time>
      </trkpt>
      <trkpt lat="47.39975" lon="6.70905">
        <ele>432</ele>
        <time>2014-04-06T07:46:43Z</time>
      </trkpt>
      <trkpt lat="47.39978" lon="6.70895">
        <ele>432</ele>
        <time>2014-04-06T07:46:45Z</time>
      </trkpt>
      <trkpt lat="47.39983" lon="6.70881">
        <ele>432</ele>
        <time>2014-04-06T07:46:48Z</time>
      </trkpt>
      <trkpt lat="47.39986" lon="6.7087">
        <ele>432</ele>
        <time>2014-04-06T07:46:50Z</time>
      </trkpt>
      <trkpt lat="47.39989" lon="6.70861">
        <ele>432</ele>
        <time>2014-04-06T07:46:52Z</time>
      </trkpt>
      <trkpt lat="47.39992" lon="6.70852">
        <ele>433</ele>
        <time>2014-04-06T07:46:54Z</time>
      </trkpt>
      <trkpt lat="47.39997" lon="6.70837">
        <ele>433</ele>
        <time>2014-04-06T07:46:57Z</time>
      </trkpt>
      <trkpt lat="47.39999" lon="6.70828">
        <ele>433</ele>
        <time>2014-04-06T07:46:59Z</time>
      </trkpt>
      <trkpt lat="47.40003" lon="6.70814">
        <ele>433</ele>
        <time>2014-04-06T07:47:02Z</time>
      </trkpt>
      <trkpt lat="47.40006" lon="6.70799">
        <ele>433</ele>
        <time>2014-04-06T07:47:05Z</time>
      </trkpt>
      <trkpt lat="47.40009" lon="6.70789">
        <ele>433</ele>
        <time>2014-04-06T07:47:07Z</time>
      </trkpt>
      <trkpt lat="47.40013" lon="6.70779">
        <ele>433</ele>
        <time>2014-04-06T07:47:10Z</time>
      </trkpt>
      <trkpt lat="47.40015" lon="6.70772">
        <ele>433</ele>
        <time>2014-04-06T07:47:12Z</time>
      </trkpt>
      <trkpt lat="47.40018" lon="6.70763">
        <ele>432</ele>
        <time>2014-04-06T07:47:14Z</time>
      </trkpt>
      <trkpt lat="47.40023" lon="6.70747">
        <ele>432</ele>
        <time>2014-04-06T07:47:17Z</time>
      </trkpt>
      <trkpt lat="47.40025" lon="6.70737">
        <ele>432</ele>
        <time>2014-04-06T07:47:19Z</time>
      </trkpt>
      <trkpt lat="47.40026" lon="6.70726">
        <ele>432</ele>
        <time>2014-04-06T07:47:21Z</time>
      </trkpt>
      <trkpt lat="47.40026" lon="6.7071">
        <ele>432</ele>
        <time>2014-04-06T07:47:24Z</time>
      </trkpt>
      <trkpt lat="47.40025" lon="6.70698">
        <ele>432</ele>
        <time>2014-04-06T07:47:26Z</time>
      </trkpt>
      <trkpt lat="47.40025" lon="6.70679">
        <ele>431</ele>
        <time>2014-04-06T07:47:29Z</time>
      </trkpt>
      <trkpt lat="47.40024" lon="6.70668">
        <ele>431</ele>
        <time>2014-04-06T07:47:31Z</time>
      </trkpt>
      <trkpt lat="47.40022" lon="6.70651">
        <ele>430</ele>
        <time>2014-04-06T07:47:34Z</time>
      </trkpt>
      <trkpt lat="47.4002" lon="6.70638">
        <ele>429</ele>
        <time>2014-04-06T07:47:36Z</time>
      </trkpt>
      <trkpt lat="47.40017" lon="6.70619">
        <ele>429</ele>
        <time>2014-04-06T07:47:39Z</time>
      </trkpt>
      <trkpt lat="47.40014" lon="6.70606">
        <ele>428</ele>
        <time>2014-04-06T07:47:41Z</time>
      </trkpt>
      <trkpt lat="47.40012" lon="6.70589">
        <ele>428</ele>
        <time>2014-04-06T07:47:44Z</time>
      </trkpt>
      <trkpt lat="47.4001" lon="6.70576">
        <ele>427</ele>
        <time>2014-04-06T07:47:46Z</time>
      </trkpt>
      <trkpt lat="47.40008" lon="6.70561">
        <ele>427</ele>
        <time>2014-04-06T07:47:48Z</time>
      </trkpt>
      <trkpt lat="47.40007" lon="6.70546">
        <ele>427</ele>
        <time>2014-04-06T07:47:50Z</time>
      </trkpt>
      <trkpt lat="47.40004" lon="6.7052">
        <ele>426</ele>
        <time>2014-04-06T07:47:53Z</time>
      </trkpt>
      <trkpt lat="47.40001" lon="6.705">
        <ele>426</ele>
        <time>2014-04-06T07:47:55Z</time>
      </trkpt>
      <trkpt lat="47.39996" lon="6.70468">
        <ele>425</ele>
        <time>2014-04-06T07:47:58Z</time>
      </trkpt>
      <trkpt lat="47.39992" lon="6.70446">
        <ele>423</ele>
        <time>2014-04-06T07:48:00Z</time>
      </trkpt>
      <trkpt lat="47.39986" lon="6.70412">
        <ele>421</ele>
        <time>2014-04-06T07:48:03Z</time>
      </trkpt>
      <trkpt lat="47.39983" lon="6.70394">
        <ele>419</ele>
        <time>2014-04-06T07:48:05Z</time>
      </trkpt>
      <trkpt lat="47.39982" lon="6.7038">
        <ele>415</ele>
        <time>2014-04-06T07:48:08Z</time>
      </trkpt>
      <trkpt lat="47.39983" lon="6.70377">
        <ele>414</ele>
        <time>2014-04-06T07:48:10Z</time>
      </trkpt>
      <trkpt lat="47.39983" lon="6.70375">
        <ele>413</ele>
        <time>2014-04-06T07:48:12Z</time>
      </trkpt>
      <trkpt lat="47.39983" lon="6.70371">
        <ele>413</ele>
        <time>2014-04-06T07:48:15Z</time>
      </trkpt>
      <trkpt lat="47.39983" lon="6.70368">
        <ele>412</ele>
        <time>2014-04-06T07:48:17Z</time>
      </trkpt>
      <trkpt lat="47.39984" lon="6.70366">
        <ele>412</ele>
        <time>2014-04-06T07:48:19Z</time>
      </trkpt>
      <trkpt lat="47.39984" lon="6.70364">
        <ele>412</ele>
        <time>2014-04-06T07:48:22Z</time>
      </trkpt>
      <trkpt lat="47.39984" lon="6.70362">
        <ele>412</ele>
        <time>2014-04-06T07:48:24Z</time>
      </trkpt>
      <trkpt lat="47.39984" lon="6.7036">
        <ele>412</ele>
        <time>2014-04-06T07:48:27Z</time>
      </trkpt>
      <trkpt lat="47.39984" lon="6.70359">
        <ele>412</ele>
        <time>2014-04-06T07:48:29Z</time>
      </trkpt>
      <trkpt lat="47.39985" lon="6.70358">
        <ele>412</ele>
        <time>2014-04-06T07:48:31Z</time>
      </trkpt>
      <trkpt lat="47.39985" lon="6.70357">
        <ele>412</ele>
        <time>2014-04-06T07:48:34Z</time>
      </trkpt>
      <trkpt lat="47.39985" lon="6.70355">
        <ele>412</ele>
        <time>2014-04-06T07:48:37Z</time>
      </trkpt>
      <trkpt lat="47.39985" lon="6.70354">
        <ele>412</ele>
        <time>2014-04-06T07:48:40Z</time>
      </trkpt>
      <trkpt lat="47.39985" lon="6.70354">
        <ele>412</ele>
        <time>2014-04-06T07:48:42Z</time>
      </trkpt>
      <trkpt lat="47.39985" lon="6.70353">
        <ele>412</ele>
        <time>2014-04-06T07:48:45Z</time>
      </trkpt>
      <trkpt lat="47.39986" lon="6.70352">
        <ele>412</ele>
        <time>2014-04-06T07:48:47Z</time>
      </trkpt>
      <trkpt lat="47.39986" lon="6.70352">
        <ele>412</ele>
        <time>2014-04-06T07:48:49Z</time>
      </trkpt>
      <trkpt lat="47.39986" lon="6.70351">
        <ele>412</ele>
        <time>2014-04-06T07:48:51Z</time>
      </trkpt>
      <trkpt lat="47.39986" lon="6.70351">
        <ele>412</ele>
        <time>2014-04-06T07:48:54Z</time>
      </trkpt>
      <trkpt lat="47.39986" lon="6.7035">
        <ele>412</ele>
        <time>2014-04-06T07:48:57Z</time>
      </trkpt>
      <trkpt lat="47.39987" lon="6.7035">
        <ele>412</ele>
        <time>2014-04-06T07:49:00Z</time>
      </trkpt>
      <trkpt lat="47.39987" lon="6.7035">
        <ele>412</ele>
        <time>2014-04-06T07:49:04Z</time>
      </trkpt>
      <trkpt lat="47.39987" lon="6.7035">
        <ele>412</ele>
        <time>2014-04-06T07:49:07Z</time>
      </trkpt>
      <trkpt lat="47.39987" lon="6.7035">
        <ele>412</ele>
        <time>2014-04-06T07:49:10Z</time>
      </trkpt>
      <trkpt lat="47.39987" lon="6.7035">
        <ele>412</ele>
        <time>2014-04-06T07:49:13Z</time>
      </trkpt>
      <trkpt lat="47.39987" lon="6.7035">
        <ele>412</ele>
        <time>2014-04-06T07:49:15Z</time>
      </trkpt>
      <trkpt lat="47.39987" lon="6.7035">
        <ele>412</ele>
        <time>2014-04-06T07:49:17Z</time>
      </trkpt>
      <trkpt lat="47.3999" lon="6.70348">
        <ele>412</ele>
        <time>2014-04-06T07:49:20Z</time>
      </trkpt>
      <trkpt lat="47.39993" lon="6.70351">
        <ele>412</ele>
        <time>2014-04-06T07:49:22Z</time>
      </trkpt>
      <trkpt lat="47.4" lon="6.7035">
        <ele>412</ele>
        <time>2014-04-06T07:49:25Z</time>
      </trkpt>
      <trkpt lat="47.40005" lon="6.70353">
        <ele>412</ele>
        <time>2014-04-06T07:49:27Z</time>
      </trkpt>
      <trkpt lat="47.40011" lon="6.70353">
        <ele>412</ele>
        <time>2014-04-06T07:49:29Z</time>
      </trkpt>
      <trkpt lat="47.40023" lon="6.70355">
        <ele>412</ele>
        <time>2014-04-06T07:49:32Z</time>
      </trkpt>
      <trkpt lat="47.40031" lon="6.70355">
        <ele>410</ele>
        <time>2014-04-06T07:49:34Z</time>
      </trkpt>
      <trkpt lat="47.40036" lon="6.70358">
        <ele>409</ele>
        <time>2014-04-06T07:49:36Z</time>
      </trkpt>
      <trkpt lat="47.40052" lon="6.70363">
        <ele>408</ele>
        <time>2014-04-06T07:49:39Z</time>
      </trkpt>
      <trkpt lat="47.40063" lon="6.70373">
        <ele>408</ele>
        <time>2014-04-06T07:49:41Z</time>
      </trkpt>
      <trkpt lat="47.40077" lon="6.70387">
        <ele>407</ele>
        <time>2014-04-06T07:49:44Z</time>
      </trkpt>
      <trkpt lat="47.40087" lon="6.70382">
        <ele>407</ele>
        <time>2014-04-06T07:49:46Z</time>
      </trkpt>
      <trkpt lat="47.40093" lon="6.70377">
        <ele>406</ele>
        <time>2014-04-06T07:49:48Z</time>
      </trkpt>
      <trkpt lat="47.401" lon="6.70374">
        <ele>406</ele>
        <time>2014-04-06T07:49:51Z</time>
      </trkpt>
      <trkpt lat="47.40106" lon="6.70374">
        <ele>405</ele>
        <time>2014-04-06T07:49:53Z</time>
      </trkpt>
      <trkpt lat="47.40118" lon="6.70377">
        <ele>404</ele>
        <time>2014-04-06T07:49:56Z</time>
      </trkpt>
      <trkpt lat="47.40126" lon="6.70378">
        <ele>403</ele>
        <time>2014-04-06T07:49:59Z</time>
      </trkpt>
      <trkpt lat="47.40136" lon="6.70379">
        <ele>402</ele>
        <time>2014-04-06T07:50:02Z</time>
      </trkpt>
      <trkpt lat="47.4014" lon="6.70379">
        <ele>401</ele>
        <time>2014-04-06T07:50:04Z</time>
      </trkpt>
      <trkpt lat="47.40143" lon="6.70379">
        <ele>401</ele>
        <time>2014-04-06T07:50:06Z</time>
      </trkpt>
      <trkpt lat="47.40146" lon="6.70379">
        <ele>400</ele>
        <time>2014-04-06T07:50:09Z</time>
      </trkpt>
      <trkpt lat="47.40149" lon="6.70379">
        <ele>400</ele>
        <time>2014-04-06T07:50:11Z</time>
      </trkpt>
      <trkpt lat="47.40154" lon="6.70381">
        <ele>399</ele>
        <time>2014-04-06T07:50:13Z</time>
      </trkpt>
      <trkpt lat="47.40159" lon="6.70385">
        <ele>399</ele>
        <time>2014-04-06T07:50:15Z</time>
      </trkpt>
      <trkpt lat="47.40166" lon="6.70388">
        <ele>399</ele>
        <time>2014-04-06T07:50:18Z</time>
      </trkpt>
      <trkpt lat="47.40172" lon="6.70392">
        <ele>398</ele>
        <time>2014-04-06T07:50:20Z</time>
      </trkpt>
      <trkpt lat="47.40178" lon="6.70397">
        <ele>398</ele>
        <time>2014-04-06T07:50:22Z</time>
      </trkpt>
      <trkpt lat="47.40187" lon="6.70404">
        <ele>396</ele>
        <time>2014-04-06T07:50:25Z</time>
      </trkpt>
      <trkpt lat="47.40192" lon="6.70407">
        <ele>396</ele>
        <time>2014-04-06T07:50:27Z</time>
      </trkpt>
      <trkpt lat="47.40197" lon="6.70409">
        <ele>395</ele>
        <time>2014-04-06T07:50:30Z</time>
      </trkpt>
      <trkpt lat="47.40201" lon="6.7041">
        <ele>395</ele>
        <time>2014-04-06T07:50:32Z</time>
      </trkpt>
      <trkpt lat="47.40207" lon="6.70415">
        <ele>395</ele>
        <time>2014-04-06T07:50:34Z</time>
      </trkpt>
      <trkpt lat="47.40216" lon="6.70424">
        <ele>396</ele>
        <time>2014-04-06T07:50:36Z</time>
      </trkpt>
      <trkpt lat="47.40225" lon="6.70433">
        <ele>396</ele>
        <time>2014-04-06T07:50:38Z</time>
      </trkpt>
      <trkpt lat="47.40235" lon="6.70441">
        <ele>395</ele>
        <time>2014-04-06T07:50:40Z</time>
      </trkpt>
      <trkpt lat="47.40251" lon="6.70451">
        <ele>395</ele>
        <time>2014-04-06T07:50:43Z</time>
      </trkpt>
      <trkpt lat="47.4026" lon="6.70458">
        <ele>395</ele>
        <time>2014-04-06T07:50:45Z</time>
      </trkpt>
      <trkpt lat="47.40272" lon="6.70472">
        <ele>395</ele>
        <time>2014-04-06T07:50:48Z</time>
      </trkpt>
      <trkpt lat="47.40279" lon="6.70482">
        <ele>395</ele>
        <time>2014-04-06T07:50:50Z</time>
      </trkpt>
      <trkpt lat="47.40291" lon="6.70494">
        <ele>394</ele>
        <time>2014-04-06T07:50:53Z</time>
      </trkpt>
      <trkpt lat="47.40296" lon="6.70498">
        <ele>394</ele>
        <time>2014-04-06T07:50:55Z</time>
      </trkpt>
      <trkpt lat="47.403" lon="6.705">
        <ele>392</ele>
        <time>2014-04-06T07:50:57Z</time>
      </trkpt>
      <trkpt lat="47.4031" lon="6.70507">
        <ele>390</ele>
        <time>2014-04-06T07:51:00Z</time>
      </trkpt>
      <trkpt lat="47.40316" lon="6.70513">
        <ele>389</ele>
        <time>2014-04-06T07:51:02Z</time>
      </trkpt>
      <trkpt lat="47.40322" lon="6.70522">
        <ele>387</ele>
        <time>2014-04-06T07:51:04Z</time>
      </trkpt>
      <trkpt lat="47.40332" lon="6.70534">
        <ele>385</ele>
        <time>2014-04-06T07:51:07Z</time>
      </trkpt>
      <trkpt lat="47.40341" lon="6.70546">
        <ele>384</ele>
        <time>2014-04-06T07:51:09Z</time>
      </trkpt>
      <trkpt lat="47.40355" lon="6.7056">
        <ele>383</ele>
        <time>2014-04-06T07:51:12Z</time>
      </trkpt>
      <trkpt lat="47.40364" lon="6.70568">
        <ele>382</ele>
        <time>2014-04-06T07:51:14Z</time>
      </trkpt>
      <trkpt lat="47.40377" lon="6.70578">
        <ele>382</ele>
        <time>2014-04-06T07:51:17Z</time>
      </trkpt>
      <trkpt lat="47.40382" lon="6.70583">
        <ele>382</ele>
        <time>2014-04-06T07:51:19Z</time>
      </trkpt>
      <trkpt lat="47.40392" lon="6.70593">
        <ele>381</ele>
        <time>2014-04-06T07:51:22Z</time>
      </trkpt>
      <trkpt lat="47.40399" lon="6.70602">
        <ele>380</ele>
        <time>2014-04-06T07:51:24Z</time>
      </trkpt>
      <trkpt lat="47.40407" lon="6.70616">
        <ele>379</ele>
        <time>2014-04-06T07:51:27Z</time>
      </trkpt>
      <trkpt lat="47.40414" lon="6.70623">
        <ele>378</ele>
        <time>2014-04-06T07:51:29Z</time>
      </trkpt>
      <trkpt lat="47.40419" lon="6.70627">
        <ele>377</ele>
        <time>2014-04-06T07:51:31Z</time>
      </trkpt>
      <trkpt lat="47.40424" lon="6.70631">
        <ele>376</ele>
        <time>2014-04-06T07:51:33Z</time>
      </trkpt>
      <trkpt lat="47.4043" lon="6.70635">
        <ele>375</ele>
        <time>2014-04-06T07:51:35Z</time>
      </trkpt>
      <trkpt lat="47.4044" lon="6.70637">
        <ele>375</ele>
        <time>2014-04-06T07:51:38Z</time>
      </trkpt>
      <trkpt lat="47.40451" lon="6.70639">
        <ele>374</ele>
        <time>2014-04-06T07:51:41Z</time>
      </trkpt>
      <trkpt lat="47.40459" lon="6.70639">
        <ele>374</ele>
        <time>2014-04-06T07:51:43Z</time>
      </trkpt>
      <trkpt lat="47.40467" lon="6.7064">
        <ele>374</ele>
        <time>2014-04-06T07:51:45Z</time>
      </trkpt>
      <trkpt lat="47.4048" lon="6.70638">
        <ele>373</ele>
        <time>2014-04-06T07:51:48Z</time>
      </trkpt>
      <trkpt lat="47.40487" lon="6.70636">
        <ele>373</ele>
        <time>2014-04-06T07:51:50Z</time>
      </trkpt>
      <trkpt lat="47.40499" lon="6.70634">
        <ele>373</ele>
        <time>2014-04-06T07:51:53Z</time>
      </trkpt>
      <trkpt lat="47.40508" lon="6.70631">
        <ele>373</ele>
        <time>2014-04-06T07:51:55Z</time>
      </trkpt>
      <trkpt lat="47.40519" lon="6.70629">
        <ele>373</ele>
        <time>2014-04-06T07:51:58Z</time>
      </trkpt>
      <trkpt lat="47.40527" lon="6.70627">
        <ele>373</ele>
        <time>2014-04-06T07:52:00Z</time>
      </trkpt>
      <trkpt lat="47.4054" lon="6.70623">
        <ele>373</ele>
        <time>2014-04-06T07:52:03Z</time>
      </trkpt>
      <trkpt lat="47.40549" lon="6.7062">
        <ele>373</ele>
        <time>2014-04-06T07:52:05Z</time>
      </trkpt>
      <trkpt lat="47.40561" lon="6.70614">
        <ele>373</ele>
        <time>2014-04-06T07:52:08Z</time>
      </trkpt>
      <trkpt lat="47.4057" lon="6.70609">
        <ele>372</ele>
        <time>2014-04-06T07:52:10Z</time>
      </trkpt>
      <trkpt lat="47.40581" lon="6.70603">
        <ele>372</ele>
        <time>2014-04-06T07:52:12Z</time>
      </trkpt>
      <trkpt lat="47.40595" lon="6.70591">
        <ele>371</ele>
        <time>2014-04-06T07:52:15Z</time>
      </trkpt>
      <trkpt lat="47.40604" lon="6.70581">
        <ele>371</ele>
        <time>2014-04-06T07:52:17Z</time>
      </trkpt>
      <trkpt lat="47.40617" lon="6.70567">
        <ele>370</ele>
        <time>2014-04-06T07:52:20Z</time>
      </trkpt>
      <trkpt lat="47.40626" lon="6.70557">
        <ele>370</ele>
        <time>2014-04-06T07:52:22Z</time>
      </trkpt>
      <trkpt lat="47.40635" lon="6.70547">
        <ele>370</ele>
        <time>2014-04-06T07:52:24Z</time>
      </trkpt>
      <trkpt lat="47.40645" lon="6.70533">
        <ele>370</ele>
        <time>2014-04-06T07:52:27Z</time>
      </trkpt>
      <trkpt lat="47.40652" lon="6.70524">
        <ele>370</ele>
        <time>2014-04-06T07:52:30Z</time>
      </trkpt>
      <trkpt lat="47.40657" lon="6.7052">
        <ele>370</ele>
        <time>2014-04-06T07:52:32Z</time>
      </trkpt>
      <trkpt lat="47.40659" lon="6.70512">
        <ele>370</ele>
        <time>2014-04-06T07:52:34Z</time>
      </trkpt>
      <trkpt lat="47.4066" lon="6.70505">
        <ele>370</ele>
        <time>2014-04-06T07:52:36Z</time>
      </trkpt>
      <trkpt lat="47.40664" lon="6.70492">
        <ele>369</ele>
        <time>2014-04-06T07:52:39Z</time>
      </trkpt>
      <trkpt lat="47.40667" lon="6.7048">
        <ele>368</ele>
        <time>2014-04-06T07:52:42Z</time>
      </trkpt>
      <trkpt lat="47.40668" lon="6.7047">
        <ele>367</ele>
        <time>2014-04-06T07:52:44Z</time>
      </trkpt>
      <trkpt lat="47.40671" lon="6.70456">
        <ele>366</ele>
        <time>2014-04-06T07:52:47Z</time>
      </trkpt>
      <trkpt lat="47.40672" lon="6.70446">
        <ele>365</ele>
        <time>2014-04-06T07:52:49Z</time>
      </trkpt>
      <trkpt lat="47.40674" lon="6.70436">
        <ele>363</ele>
        <time>2014-04-06T07:52:52Z</time>
      </trkpt>
      <trkpt lat="47.40675" lon="6.70431">
        <ele>362</ele>
        <time>2014-04-06T07:52:54Z</time>
      </trkpt>
      <trkpt lat="47.40679" lon="6.7042">
        <ele>361</ele>
        <time>2014-04-06T07:52:57Z</time>
      </trkpt>
      <trkpt lat="47.40683" lon="6.70419">
        <ele>360</ele>
        <time>2014-04-06T07:52:59Z</time>
      </trkpt>
      <trkpt lat="47.40688" lon="6.70419">
        <ele>359</ele>
        <time>2014-04-06T07:53:01Z</time>
      </trkpt>
      <trkpt lat="47.40694" lon="6.70418">
        <ele>358</ele>
        <time>2014-04-06T07:53:03Z</time>
      </trkpt>
      <trkpt lat="47.40698" lon="6.70415">
        <ele>357</ele>
        <time>2014-04-06T07:53:05Z</time>
      </trkpt>
      <trkpt lat="47.40703" lon="6.7041">
        <ele>356</ele>
        <time>2014-04-06T07:53:08Z</time>
      </trkpt>
      <trkpt lat="47.40707" lon="6.70409">
        <ele>355</ele>
        <time>2014-04-06T07:53:10Z</time>
      </trkpt>
      <trkpt lat="47.40718" lon="6.70413">
        <ele>354</ele>
        <time>2014-04-06T07:53:13Z</time>
      </trkpt>
      <trkpt lat="47.40724" lon="6.70413">
        <ele>354</ele>
        <time>2014-04-06T07:53:15Z</time>
      </trkpt>
      <trkpt lat="47.40729" lon="6.70415">
        <ele>353</ele>
        <time>2014-04-06T07:53:18Z</time>
      </trkpt>
      <trkpt lat="47.40734" lon="6.70417">
        <ele>353</ele>
        <time>2014-04-06T07:53:20Z</time>
      </trkpt>
      <trkpt lat="47.40747" lon="6.70417">
        <ele>353</ele>
        <time>2014-04-06T07:53:23Z</time>
      </trkpt>
      <trkpt lat="47.40755" lon="6.70417">
        <ele>354</ele>
        <time>2014-04-06T07:53:25Z</time>
      </trkpt>
      <trkpt lat="47.40764" lon="6.70416">
        <ele>353</ele>
        <time>2014-04-06T07:53:27Z</time>
      </trkpt>
      <trkpt lat="47.40779" lon="6.70415">
        <ele>353</ele>
        <time>2014-04-06T07:53:30Z</time>
      </trkpt>
      <trkpt lat="47.40789" lon="6.70414">
        <ele>353</ele>
        <time>2014-04-06T07:53:32Z</time>
      </trkpt>
      <trkpt lat="47.40805" lon="6.70416">
        <ele>352</ele>
        <time>2014-04-06T07:53:35Z</time>
      </trkpt>
      <trkpt lat="47.40818" lon="6.70419">
        <ele>352</ele>
        <time>2014-04-06T07:53:37Z</time>
      </trkpt>
      <trkpt lat="47.40827" lon="6.70423">
        <ele>352</ele>
        <time>2014-04-06T07:53:39Z</time>
      </trkpt>
      <trkpt lat="47.40834" lon="6.70427">
        <ele>351</ele>
        <time>2014-04-06T07:53:41Z</time>
      </trkpt>
      <trkpt lat="47.40847" lon="6.70425">
        <ele>350</ele>
        <time>2014-04-06T07:53:44Z</time>
      </trkpt>
      <trkpt lat="47.40864" lon="6.70421">
        <ele>348</ele>
        <time>2014-04-06T07:53:47Z</time>
      </trkpt>
      <trkpt lat="47.40876" lon="6.70416">
        <ele>347</ele>
        <time>2014-04-06T07:53:49Z</time>
      </trkpt>
      <trkpt lat="47.4089" lon="6.7041">
        <ele>344</ele>
        <time>2014-04-06T07:53:52Z</time>
      </trkpt>
      <trkpt lat="47.40898" lon="6.704">
        <ele>343</ele>
        <time>2014-04-06T07:53:54Z</time>
      </trkpt>
      <trkpt lat="47.40905" lon="6.70388">
        <ele>340</ele>
        <time>2014-04-06T07:53:57Z</time>
      </trkpt>
      <trkpt lat="47.4091" lon="6.70385">
        <ele>339</ele>
        <time>2014-04-06T07:53:59Z</time>
      </trkpt>
      <trkpt lat="47.40914" lon="6.70385">
        <ele>339</ele>
        <time>2014-04-06T07:54:02Z</time>
      </trkpt>
      <trkpt lat="47.40916" lon="6.70385">
        <ele>339</ele>
        <time>2014-04-06T07:54:04Z</time>
      </trkpt>
      <trkpt lat="47.40919" lon="6.70384">
        <ele>339</ele>
        <time>2014-04-06T07:54:07Z</time>
      </trkpt>
      <trkpt lat="47.40922" lon="6.70384">
        <ele>338</ele>
        <time>2014-04-06T07:54:10Z</time>
      </trkpt>
      <trkpt lat="47.40924" lon="6.70384">
        <ele>339</ele>
        <time>2014-04-06T07:54:13Z</time>
      </trkpt>
      <trkpt lat="47.40926" lon="6.70384">
        <ele>339</ele>
        <time>2014-04-06T07:54:15Z</time>
      </trkpt>
      <trkpt lat="47.40928" lon="6.70384">
        <ele>339</ele>
        <time>2014-04-06T07:54:18Z</time>
      </trkpt>
      <trkpt lat="47.40929" lon="6.70384">
        <ele>338</ele>
        <time>2014-04-06T07:54:21Z</time>
      </trkpt>
      <trkpt lat="47.4093" lon="6.70384">
        <ele>338</ele>
        <time>2014-04-06T07:54:24Z</time>
      </trkpt>
      <trkpt lat="47.40932" lon="6.70384">
        <ele>339</ele>
        <time>2014-04-06T07:54:27Z</time>
      </trkpt>
      <trkpt lat="47.40933" lon="6.70384">
        <ele>339</ele>
        <time>2014-04-06T07:54:30Z</time>
      </trkpt>
      <trkpt lat="47.40935" lon="6.70384">
        <ele>338</ele>
        <time>2014-04-06T07:54:33Z</time>
      </trkpt>
      <trkpt lat="47.40937" lon="6.70384">
        <ele>338</ele>
        <time>2014-04-06T07:54:36Z</time>
      </trkpt>
      <trkpt lat="47.40938" lon="6.70384">
        <ele>338</ele>
        <time>2014-04-06T07:54:38Z</time>
      </trkpt>
      <trkpt lat="47.40939" lon="6.70384">
        <ele>338</ele>
        <time>2014-04-06T07:54:40Z</time>
      </trkpt>
      <trkpt lat="47.4094" lon="6.70384">
        <ele>338</ele>
        <time>2014-04-06T07:54:43Z</time>
      </trkpt>
      <trkpt lat="47.40942" lon="6.70384">
        <ele>338</ele>
        <time>2014-04-06T07:54:45Z</time>
      </trkpt>
      <trkpt lat="47.40943" lon="6.70384">
        <ele>338</ele>
        <time>2014-04-06T07:54:47Z</time>
      </trkpt>
      <trkpt lat="47.40944" lon="6.70385">
        <ele>339</ele>
        <time>2014-04-06T07:54:50Z</time>
      </trkpt>
      <trkpt lat="47.40945" lon="6.70385">
        <ele>339</ele>
        <time>2014-04-06T07:54:52Z</time>
      </trkpt>
      <trkpt lat="47.40946" lon="6.70385">
        <ele>338</ele>
        <time>2014-04-06T07:54:54Z</time>
      </trkpt>
      <trkpt lat="47.40947" lon="6.70385">
        <ele>338</ele>
        <time>2014-04-06T07:54:57Z</time>
      </trkpt>
      <trkpt lat="47.40947" lon="6.70385">
        <ele>339</ele>
        <time>2014-04-06T07:55:00Z</time>
      </trkpt>
      <trkpt lat="47.40947" lon="6.70385">
        <ele>338</ele>
        <time>2014-04-06T07:55:03Z</time>
      </trkpt>
      <trkpt lat="47.40947" lon="6.70385">
        <ele>338</ele>
        <time>2014-04-06T07:55:10Z</time>
      </trkpt>
      <trkpt lat="47.40947" lon="6.70385">
        <ele>338</ele>
        <time>2014-04-06T07:55:13Z</time>
      </trkpt>
      <trkpt lat="47.40947" lon="6.70385">
        <ele>338</ele>
        <time>2014-04-06T07:55:16Z</time>
      </trkpt>
      <trkpt lat="47.40946" lon="6.70385">
        <ele>338</ele>
        <time>2014-04-06T07:55:21Z</time>
      </trkpt>
      <trkpt lat="47.40947" lon="6.70386">
        <ele>338</ele>
        <time>2014-04-06T07:55:24Z</time>
      </trkpt>
      <trkpt lat="47.40946" lon="6.70386">
        <ele>338</ele>
        <time>2014-04-06T07:55:27Z</time>
      </trkpt>
      <trkpt lat="47.40945" lon="6.70386">
        <ele>338</ele>
        <time>2014-04-06T07:55:29Z</time>
      </trkpt>
      <trkpt lat="47.40944" lon="6.70387">
        <ele>338</ele>
        <time>2014-04-06T07:55:33Z</time>
      </trkpt>
      <trkpt lat="47.40944" lon="6.70387">
        <ele>338</ele>
        <time>2014-04-06T07:55:35Z</time>
      </trkpt>
      <trkpt lat="47.40943" lon="6.70387">
        <ele>338</ele>
        <time>2014-04-06T07:55:37Z</time>
      </trkpt>
      <trkpt lat="47.40943" lon="6.70387">
        <ele>338</ele>
        <time>2014-04-06T07:55:40Z</time>
      </trkpt>
      <trkpt lat="47.40942" lon="6.70387">
        <ele>338</ele>
        <time>2014-04-06T07:55:43Z</time>
      </trkpt>
      <trkpt lat="47.40942" lon="6.70387">
        <ele>338</ele>
        <time>2014-04-06T07:55:45Z</time>
      </trkpt>
      <trkpt lat="47.40942" lon="6.70387">
        <ele>338</ele>
        <time>2014-04-06T07:55:48Z</time>
      </trkpt>
      <trkpt lat="47.40941" lon="6.70388">
        <ele>338</ele>
        <time>2014-04-06T07:55:51Z</time>
      </trkpt>
      <trkpt lat="47.40941" lon="6.70388">
        <ele>338</ele>
        <time>2014-04-06T07:55:54Z</time>
      </trkpt>
      <trkpt lat="47.4094" lon="6.70388">
        <ele>338</ele>
        <time>2014-04-06T07:55:57Z</time>
      </trkpt>
      <trkpt lat="47.4094" lon="6.70388">
        <ele>338</ele>
        <time>2014-04-06T07:56:01Z</time>
      </trkpt>
      <trkpt lat="47.4094" lon="6.70387">
        <ele>338</ele>
        <time>2014-04-06T07:56:03Z</time>
      </trkpt>
      <trkpt lat="47.4094" lon="6.70387">
        <ele>338</ele>
        <time>2014-04-06T07:56:07Z</time>
      </trkpt>
      <trkpt lat="47.4094" lon="6.70387">
        <ele>338</ele>
        <time>2014-04-06T07:56:10Z</time>
      </trkpt>
      <trkpt lat="47.4094" lon="6.70387">
        <ele>338</ele>
        <time>2014-04-06T07:56:13Z</time>
      </trkpt>
      <trkpt lat="47.40939" lon="6.70387">
        <ele>338</ele>
        <time>2014-04-06T07:56:15Z</time>
      </trkpt>
      <trkpt lat="47.40939" lon="6.70387">
        <ele>338</ele>
        <time>2014-04-06T07:56:18Z</time>
      </trkpt>
      <trkpt lat="47.40939" lon="6.70386">
        <ele>338</ele>
        <time>2014-04-06T07:56:21Z</time>
      </trkpt>
      <trkpt lat="47.40939" lon="6.70386">
        <ele>338</ele>
        <time>2014-04-06T07:56:23Z</time>
      </trkpt>
      <trkpt lat="47.40938" lon="6.70386">
        <ele>338</ele>
        <time>2014-04-06T07:56:26Z</time>
      </trkpt>
      <trkpt lat="47.40938" lon="6.70386">
        <ele>338</ele>
        <time>2014-04-06T07:56:28Z</time>
      </trkpt>
      <trkpt lat="47.40937" lon="6.70386">
        <ele>338</ele>
        <time>2014-04-06T07:56:32Z</time>
      </trkpt>
      <trkpt lat="47.40937" lon="6.70386">
        <ele>338</ele>
        <time>2014-04-06T07:56:36Z</time>
      </trkpt>
      <trkpt lat="47.40937" lon="6.70385">
        <ele>338</ele>
        <time>2014-04-06T07:56:39Z</time>
      </trkpt>
      <trkpt lat="47.40937" lon="6.70385">
        <ele>338</ele>
        <time>2014-04-06T07:56:41Z</time>
      </trkpt>
      <trkpt lat="47.40937" lon="6.70385">
        <ele>338</ele>
        <time>2014-04-06T07:56:45Z</time>
      </trkpt>
      <trkpt lat="47.40937" lon="6.70384">
        <ele>338</ele>
        <time>2014-04-06T07:56:48Z</time>
      </trkpt>
      <trkpt lat="47.40937" lon="6.70384">
        <ele>338</ele>
        <time>2014-04-06T07:56:51Z</time>
      </trkpt>
      <trkpt lat="47.40937" lon="6.70384">
        <ele>338</ele>
        <time>2014-04-06T07:56:54Z</time>
      </trkpt>
      <trkpt lat="47.40936" lon="6.70384">
        <ele>339</ele>
        <time>2014-04-06T07:56:57Z</time>
      </trkpt>
      <trkpt lat="47.40936" lon="6.70384">
        <ele>339</ele>
        <time>2014-04-06T07:57:00Z</time>
      </trkpt>
      <trkpt lat="47.40936" lon="6.70383">
        <ele>339</ele>
        <time>2014-04-06T07:57:03Z</time>
      </trkpt>
      <trkpt lat="47.40937" lon="6.70383">
        <ele>339</ele>
        <time>2014-04-06T07:57:05Z</time>
      </trkpt>
      <trkpt lat="47.40937" lon="6.70383">
        <ele>338</ele>
        <time>2014-04-06T07:57:08Z</time>
      </trkpt>
      <trkpt lat="47.40937" lon="6.70382">
        <ele>338</ele>
        <time>2014-04-06T07:57:11Z</time>
      </trkpt>
      <trkpt lat="47.40937" lon="6.70383">
        <ele>338</ele>
        <time>2014-04-06T07:57:14Z</time>
      </trkpt>
      <trkpt lat="47.40937" lon="6.70382">
        <ele>339</ele>
        <time>2014-04-06T07:57:19Z</time>
      </trkpt>
      <trkpt lat="47.40937" lon="6.70382">
        <ele>339</ele>
        <time>2014-04-06T07:57:22Z</time>
      </trkpt>
      <trkpt lat="47.40939" lon="6.70384">
        <ele>338</ele>
        <time>2014-04-06T07:57:25Z</time>
      </trkpt>
      <trkpt lat="47.40944" lon="6.70384">
        <ele>338</ele>
        <time>2014-04-06T07:57:27Z</time>
      </trkpt>
      <trkpt lat="47.40952" lon="6.70385">
        <ele>338</ele>
        <time>2014-04-06T07:57:29Z</time>
      </trkpt>
      <trkpt lat="47.4096" lon="6.70388">
        <ele>338</ele>
        <time>2014-04-06T07:57:31Z</time>
      </trkpt>
      <trkpt lat="47.40973" lon="6.70393">
        <ele>338</ele>
        <time>2014-04-06T07:57:34Z</time>
      </trkpt>
      <trkpt lat="47.40983" lon="6.70397">
        <ele>338</ele>
        <time>2014-04-06T07:57:36Z</time>
      </trkpt>
      <trkpt lat="47.40999" lon="6.70402">
        <ele>337</ele>
        <time>2014-04-06T07:57:39Z</time>
      </trkpt>
      <trkpt lat="47.41011" lon="6.70406">
        <ele>336</ele>
        <time>2014-04-06T07:57:41Z</time>
      </trkpt>
      <trkpt lat="47.41031" lon="6.70416">
        <ele>336</ele>
        <time>2014-04-06T07:57:44Z</time>
      </trkpt>
      <trkpt lat="47.41041" lon="6.70423">
        <ele>335</ele>
        <time>2014-04-06T07:57:46Z</time>
      </trkpt>
      <trkpt lat="47.41054" lon="6.70424">
        <ele>333</ele>
        <time>2014-04-06T07:57:49Z</time>
      </trkpt>
      <trkpt lat="47.41062" lon="6.70423">
        <ele>331</ele>
        <time>2014-04-06T07:57:51Z</time>
      </trkpt>
      <trkpt lat="47.41069" lon="6.70421">
        <ele>329</ele>
        <time>2014-04-06T07:57:53Z</time>
      </trkpt>
      <trkpt lat="47.41074" lon="6.70417">
        <ele>326</ele>
        <time>2014-04-06T07:57:55Z</time>
      </trkpt>
      <trkpt lat="47.41079" lon="6.70402">
        <ele>324</ele>
        <time>2014-04-06T07:57:58Z</time>
      </trkpt>
      <trkpt lat="47.41083" lon="6.70381">
        <ele>323</ele>
        <time>2014-04-06T07:58:01Z</time>
      </trkpt>
      <trkpt lat="47.41089" lon="6.70367">
        <ele>322</ele>
        <time>2014-04-06T07:58:03Z</time>
      </trkpt>
      <trkpt lat="47.41096" lon="6.70352">
        <ele>322</ele>
        <time>2014-04-06T07:58:05Z</time>
      </trkpt>
      <trkpt lat="47.41108" lon="6.70327">
        <ele>321</ele>
        <time>2014-04-06T07:58:08Z</time>
      </trkpt>
      <trkpt lat="47.41116" lon="6.70309">
        <ele>320</ele>
        <time>2014-04-06T07:58:10Z</time>
      </trkpt>
      <trkpt lat="47.41121" lon="6.70288">
        <ele>319</ele>
        <time>2014-04-06T07:58:12Z</time>
      </trkpt>
      <trkpt lat="47.41124" lon="6.70264">
        <ele>317</ele>
        <time>2014-04-06T07:58:15Z</time>
      </trkpt>
      <trkpt lat="47.41127" lon="6.70256">
        <ele>315</ele>
        <time>2014-04-06T07:58:17Z</time>
      </trkpt>
      <trkpt lat="47.41129" lon="6.70251">
        <ele>313</ele>
        <time>2014-04-06T07:58:19Z</time>
      </trkpt>
      <trkpt lat="47.41133" lon="6.70245">
        <ele>310</ele>
        <time>2014-04-06T07:58:22Z</time>
      </trkpt>
      <trkpt lat="47.41137" lon="6.70238">
        <ele>310</ele>
        <time>2014-04-06T07:58:24Z</time>
      </trkpt>
      <trkpt lat="47.4114" lon="6.70232">
        <ele>309</ele>
        <time>2014-04-06T07:58:27Z</time>
      </trkpt>
      <trkpt lat="47.41141" lon="6.70226">
        <ele>308</ele>
        <time>2014-04-06T07:58:30Z</time>
      </trkpt>
      <trkpt lat="47.4114" lon="6.70217">
        <ele>306</ele>
        <time>2014-04-06T07:58:33Z</time>
      </trkpt>
      <trkpt lat="47.41142" lon="6.70208">
        <ele>304</ele>
        <time>2014-04-06T07:58:35Z</time>
      </trkpt>
      <trkpt lat="47.41143" lon="6.70202">
        <ele>302</ele>
        <time>2014-04-06T07:58:37Z</time>
      </trkpt>
      <trkpt lat="47.41144" lon="6.70199">
        <ele>301</ele>
        <time>2014-04-06T07:58:39Z</time>
      </trkpt>
      <trkpt lat="47.41144" lon="6.70193">
        <ele>299</ele>
        <time>2014-04-06T07:58:41Z</time>
      </trkpt>
      <trkpt lat="47.41146" lon="6.70188">
        <ele>298</ele>
        <time>2014-04-06T07:58:43Z</time>
      </trkpt>
      <trkpt lat="47.41149" lon="6.70183">
        <ele>297</ele>
        <time>2014-04-06T07:58:46Z</time>
      </trkpt>
      <trkpt lat="47.4115" lon="6.70182">
        <ele>296</ele>
        <time>2014-04-06T07:58:48Z</time>
      </trkpt>
      <trkpt lat="47.4115" lon="6.70181">
        <ele>296</ele>
        <time>2014-04-06T07:58:50Z</time>
      </trkpt>
      <trkpt lat="47.4115" lon="6.7018">
        <ele>296</ele>
        <time>2014-04-06T07:58:52Z</time>
      </trkpt>
      <trkpt lat="47.41151" lon="6.70179">
        <ele>295</ele>
        <time>2014-04-06T07:58:55Z</time>
      </trkpt>
      <trkpt lat="47.4115" lon="6.70178">
        <ele>295</ele>
        <time>2014-04-06T07:58:58Z</time>
      </trkpt>
      <trkpt lat="47.41149" lon="6.70178">
        <ele>295</ele>
        <time>2014-04-06T07:59:00Z</time>
      </trkpt>
      <trkpt lat="47.41147" lon="6.70178">
        <ele>295</ele>
        <time>2014-04-06T07:59:03Z</time>
      </trkpt>
      <trkpt lat="47.41146" lon="6.70178">
        <ele>295</ele>
        <time>2014-04-06T07:59:06Z</time>
      </trkpt>
      <trkpt lat="47.41145" lon="6.70177">
        <ele>296</ele>
        <time>2014-04-06T07:59:09Z</time>
      </trkpt>
      <trkpt lat="47.41145" lon="6.70176">
        <ele>296</ele>
        <time>2014-04-06T07:59:11Z</time>
      </trkpt>
      <trkpt lat="47.41145" lon="6.70175">
        <ele>295</ele>
        <time>2014-04-06T07:59:13Z</time>
      </trkpt>
      <trkpt lat="47.41145" lon="6.70174">
        <ele>295</ele>
        <time>2014-04-06T07:59:16Z</time>
      </trkpt>
      <trkpt lat="47.41145" lon="6.70173">
        <ele>295</ele>
        <time>2014-04-06T07:59:18Z</time>
      </trkpt>
      <trkpt lat="47.41145" lon="6.70172">
        <ele>295</ele>
        <time>2014-04-06T07:59:20Z</time>
      </trkpt>
      <trkpt lat="47.41145" lon="6.70171">
        <ele>296</ele>
        <time>2014-04-06T07:59:22Z</time>
      </trkpt>
      <trkpt lat="47.41145" lon="6.70169">
        <ele>295</ele>
        <time>2014-04-06T07:59:25Z</time>
      </trkpt>
      <trkpt lat="47.41145" lon="6.70168">
        <ele>295</ele>
        <time>2014-04-06T07:59:27Z</time>
      </trkpt>
      <trkpt lat="47.41146" lon="6.70167">
        <ele>295</ele>
        <time>2014-04-06T07:59:30Z</time>
      </trkpt>
      <trkpt lat="47.41147" lon="6.70166">
        <ele>296</ele>
        <time>2014-04-06T07:59:33Z</time>
      </trkpt>
      <trkpt lat="47.41148" lon="6.70165">
        <ele>296</ele>
        <time>2014-04-06T07:59:35Z</time>
      </trkpt>
      <trkpt lat="47.4115" lon="6.70164">
        <ele>296</ele>
        <time>2014-04-06T07:59:37Z</time>
      </trkpt>
      <trkpt lat="47.41151" lon="6.70163">
        <ele>296</ele>
        <time>2014-04-06T07:59:39Z</time>
      </trkpt>
      <trkpt lat="47.41153" lon="6.70162">
        <ele>296</ele>
        <time>2014-04-06T07:59:42Z</time>
      </trkpt>
      <trkpt lat="47.41154" lon="6.70162">
        <ele>296</ele>
        <time>2014-04-06T07:59:44Z</time>
      </trkpt>
      <trkpt lat="47.41156" lon="6.70161">
        <ele>296</ele>
        <time>2014-04-06T07:59:47Z</time>
      </trkpt>
      <trkpt lat="47.41157" lon="6.70161">
        <ele>296</ele>
        <time>2014-04-06T07:59:49Z</time>
      </trkpt>
      <trkpt lat="47.41158" lon="6.70159">
        <ele>296</ele>
        <time>2014-04-06T07:59:51Z</time>
      </trkpt>
      <trkpt lat="47.4116" lon="6.70158">
        <ele>296</ele>
        <time>2014-04-06T07:59:53Z</time>
      </trkpt>
      <trkpt lat="47.41161" lon="6.70158">
        <ele>295</ele>
        <time>2014-04-06T07:59:56Z</time>
      </trkpt>
      <trkpt lat="47.41161" lon="6.70157">
        <ele>295</ele>
        <time>2014-04-06T07:59:59Z</time>
      </trkpt>
      <trkpt lat="47.41161" lon="6.70157">
        <ele>295</ele>
        <time>2014-04-06T08:00:01Z</time>
      </trkpt>
      <trkpt lat="47.41162" lon="6.70156">
        <ele>295</ele>
        <time>2014-04-06T08:00:04Z</time>
      </trkpt>
      <trkpt lat="47.41162" lon="6.70156">
        <ele>295</ele>
        <time>2014-04-06T08:00:06Z</time>
      </trkpt>
      <trkpt lat="47.41162" lon="6.70155">
        <ele>295</ele>
        <time>2014-04-06T08:00:09Z</time>
      </trkpt>
      <trkpt lat="47.41164" lon="6.70155">
        <ele>295</ele>
        <time>2014-04-06T08:00:11Z</time>
      </trkpt>
      <trkpt lat="47.41166" lon="6.70155">
        <ele>295</ele>
        <time>2014-04-06T08:00:13Z</time>
      </trkpt>
      <trkpt lat="47.41168" lon="6.70154">
        <ele>295</ele>
        <time>2014-04-06T08:00:15Z</time>
      </trkpt>
      <trkpt lat="47.41171" lon="6.70153">
        <ele>295</ele>
        <time>2014-04-06T08:00:18Z</time>
      </trkpt>
      <trkpt lat="47.41172" lon="6.70153">
        <ele>296</ele>
        <time>2014-04-06T08:00:20Z</time>
      </trkpt>
      <trkpt lat="47.41174" lon="6.70153">
        <ele>296</ele>
        <time>2014-04-06T08:00:23Z</time>
      </trkpt>
      <trkpt lat="47.41175" lon="6.70154">
        <ele>296</ele>
        <time>2014-04-06T08:00:25Z</time>
      </trkpt>
      <trkpt lat="47.41177" lon="6.70154">
        <ele>296</ele>
        <time>2014-04-06T08:00:28Z</time>
      </trkpt>
      <trkpt lat="47.4118" lon="6.70155">
        <ele>296</ele>
        <time>2014-04-06T08:00:30Z</time>
      </trkpt>
      <trkpt lat="47.41185" lon="6.70155">
        <ele>296</ele>
        <time>2014-04-06T08:00:33Z</time>
      </trkpt>
      <trkpt lat="47.4119" lon="6.70155">
        <ele>296</ele>
        <time>2014-04-06T08:00:35Z</time>
      </trkpt>
      <trkpt lat="47.41201" lon="6.70155">
        <ele>296</ele>
        <time>2014-04-06T08:00:38Z</time>
      </trkpt>
      <trkpt lat="47.4121" lon="6.70154">
        <ele>296</ele>
        <time>2014-04-06T08:00:40Z</time>
      </trkpt>
      <trkpt lat="47.41222" lon="6.70153">
        <ele>295</ele>
        <time>2014-04-06T08:00:43Z</time>
      </trkpt>
      <trkpt lat="47.41229" lon="6.70154">
        <ele>295</ele>
        <time>2014-04-06T08:00:45Z</time>
      </trkpt>
      <trkpt lat="47.41242" lon="6.70154">
        <ele>295</ele>
        <time>2014-04-06T08:00:48Z</time>
      </trkpt>
      <trkpt lat="47.41252" lon="6.70154">
        <ele>295</ele>
        <time>2014-04-06T08:00:50Z</time>
      </trkpt>
      <trkpt lat="47.41266" lon="6.70151">
        <ele>294</ele>
        <time>2014-04-06T08:00:53Z</time>
      </trkpt>
      <trkpt lat="47.4128" lon="6.70147">
        <ele>295</ele>
        <time>2014-04-06T08:00:56Z</time>
      </trkpt>
      <trkpt lat="47.41288" lon="6.70143">
        <ele>295</ele>
        <time>2014-04-06T08:00:58Z</time>
      </trkpt>
      <trkpt lat="47.41294" lon="6.70139">
        <ele>296</ele>
        <time>2014-04-06T08:01:00Z</time>
      </trkpt>
      <trkpt lat="47.41301" lon="6.70134">
        <ele>296</ele>
        <time>2014-04-06T08:01:03Z</time>
      </trkpt>
      <trkpt lat="47.41305" lon="6.7013">
        <ele>296</ele>
        <time>2014-04-06T08:01:05Z</time>
      </trkpt>
      <trkpt lat="47.41311" lon="6.70121">
        <ele>297</ele>
        <time>2014-04-06T08:01:08Z</time>
      </trkpt>
      <trkpt lat="47.41315" lon="6.70115">
        <ele>297</ele>
        <time>2014-04-06T08:01:10Z</time>
      </trkpt>
      <trkpt lat="47.41323" lon="6.70105">
        <ele>297</ele>
        <time>2014-04-06T08:01:13Z</time>
      </trkpt>
      <trkpt lat="47.41328" lon="6.70097">
        <ele>296</ele>
        <time>2014-04-06T08:01:15Z</time>
      </trkpt>
      <trkpt lat="47.41333" lon="6.7009">
        <ele>296</ele>
        <time>2014-04-06T08:01:17Z</time>
      </trkpt>
      <trkpt lat="47.41337" lon="6.70082">
        <ele>296</ele>
        <time>2014-04-06T08:01:19Z</time>
      </trkpt>
      <trkpt lat="47.41344" lon="6.70069">
        <ele>296</ele>
        <time>2014-04-06T08:01:22Z</time>
      </trkpt>
      <trkpt lat="47.41352" lon="6.70055">
        <ele>295</ele>
        <time>2014-04-06T08:01:25Z</time>
      </trkpt>
      <trkpt lat="47.41357" lon="6.70047">
        <ele>295</ele>
        <time>2014-04-06T08:01:27Z</time>
      </trkpt>
      <trkpt lat="47.41365" lon="6.70039">
        <ele>294</ele>
        <time>2014-04-06T08:01:30Z</time>
      </trkpt>
      <trkpt lat="47.41373" lon="6.70037">
        <ele>294</ele>
        <time>2014-04-06T08:01:32Z</time>
      </trkpt>
      <trkpt lat="47.41387" lon="6.70034">
        <ele>294</ele>
        <time>2014-04-06T08:01:35Z</time>
      </trkpt>
      <trkpt lat="47.41398" lon="6.70033">
        <ele>294</ele>
        <time>2014-04-06T08:01:37Z</time>
      </trkpt>
      <trkpt lat="47.41414" lon="6.70032">
        <ele>294</ele>
        <time>2014-04-06T08:01:40Z</time>
      </trkpt>
      <trkpt lat="47.41425" lon="6.70034">
        <ele>293</ele>
        <time>2014-04-06T08:01:42Z</time>
      </trkpt>
      <trkpt lat="47.41439" lon="6.70039">
        <ele>293</ele>
        <time>2014-04-06T08:01:45Z</time>
      </trkpt>
      <trkpt lat="47.41449" lon="6.70043">
        <ele>292</ele>
        <time>2014-04-06T08:01:47Z</time>
      </trkpt>
      <trkpt lat="47.41458" lon="6.70046">
        <ele>292</ele>
        <time>2014-04-06T08:01:49Z</time>
      </trkpt>
      <trkpt lat="47.41473" lon="6.70046">
        <ele>291</ele>
        <time>2014-04-06T08:01:52Z</time>
      </trkpt>
      <trkpt lat="47.41483" lon="6.70043">
        <ele>290</ele>
        <time>2014-04-06T08:01:54Z</time>
      </trkpt>
      <trkpt lat="47.41492" lon="6.70038">
        <ele>290</ele>
        <time>2014-04-06T08:01:56Z</time>
      </trkpt>
      <trkpt lat="47.41505" lon="6.70031">
        <ele>290</ele>
        <time>2014-04-06T08:01:59Z</time>
      </trkpt>
      <trkpt lat="47.41512" lon="6.70026">
        <ele>290</ele>
        <time>2014-04-06T08:02:01Z</time>
      </trkpt>
      <trkpt lat="47.4152" lon="6.70022">
        <ele>290</ele>
        <time>2014-04-06T08:02:03Z</time>
      </trkpt>
      <trkpt lat="47.41528" lon="6.70019">
        <ele>290</ele>
        <time>2014-04-06T08:02:05Z</time>
      </trkpt>
      <trkpt lat="47.41539" lon="6.70014">
        <ele>290</ele>
        <time>2014-04-06T08:02:08Z</time>
      </trkpt>
      <trkpt lat="47.41548" lon="6.70011">
        <ele>290</ele>
        <time>2014-04-06T08:02:11Z</time>
      </trkpt>
      <trkpt lat="47.41558" lon="6.70007">
        <ele>290</ele>
        <time>2014-04-06T08:02:14Z</time>
      </trkpt>
      <trkpt lat="47.41565" lon="6.70004">
        <ele>290</ele>
        <time>2014-04-06T08:02:16Z</time>
      </trkpt>
      <trkpt lat="47.41576" lon="6.69999">
        <ele>290</ele>
        <time>2014-04-06T08:02:19Z</time>
      </trkpt>
      <trkpt lat="47.41583" lon="6.69996">
        <ele>290</ele>
        <time>2014-04-06T08:02:21Z</time>
      </trkpt>
      <trkpt lat="47.41591" lon="6.69994">
        <ele>289</ele>
        <time>2014-04-06T08:02:23Z</time>
      </trkpt>
      <trkpt lat="47.41599" lon="6.69992">
        <ele>289</ele>
        <time>2014-04-06T08:02:25Z</time>
      </trkpt>
      <trkpt lat="47.41607" lon="6.6999">
        <ele>289</ele>
        <time>2014-04-06T08:02:27Z</time>
      </trkpt>
      <trkpt lat="47.41619" lon="6.69989">
        <ele>289</ele>
        <time>2014-04-06T08:02:30Z</time>
      </trkpt>
      <trkpt lat="47.41632" lon="6.69987">
        <ele>290</ele>
        <time>2014-04-06T08:02:33Z</time>
      </trkpt>
      <trkpt lat="47.4164" lon="6.69985">
        <ele>290</ele>
        <time>2014-04-06T08:02:35Z</time>
      </trkpt>
      <trkpt lat="47.41647" lon="6.69983">
        <ele>290</ele>
        <time>2014-04-06T08:02:37Z</time>
      </trkpt>
      <trkpt lat="47.4166" lon="6.69982">
        <ele>290</ele>
        <time>2014-04-06T08:02:40Z</time>
      </trkpt>
      <trkpt lat="47.41668" lon="6.69982">
        <ele>290</ele>
        <time>2014-04-06T08:02:42Z</time>
      </trkpt>
      <trkpt lat="47.41677" lon="6.69983">
        <ele>290</ele>
        <time>2014-04-06T08:02:44Z</time>
      </trkpt>
      <trkpt lat="47.41689" lon="6.69987">
        <ele>290</ele>
        <time>2014-04-06T08:02:47Z</time>
      </trkpt>
      <trkpt lat="47.41695" lon="6.69992">
        <ele>291</ele>
        <time>2014-04-06T08:02:49Z</time>
      </trkpt>
      <trkpt lat="47.41704" lon="6.69993">
        <ele>292</ele>
        <time>2014-04-06T08:02:52Z</time>
      </trkpt>
      <trkpt lat="47.41712" lon="6.69993">
        <ele>292</ele>
        <time>2014-04-06T08:02:54Z</time>
      </trkpt>
      <trkpt lat="47.41724" lon="6.69991">
        <ele>292</ele>
        <time>2014-04-06T08:02:57Z</time>
      </trkpt>
      <trkpt lat="47.41733" lon="6.6999">
        <ele>292</ele>
        <time>2014-04-06T08:02:59Z</time>
      </trkpt>
      <trkpt lat="47.41743" lon="6.69989">
        <ele>293</ele>
        <time>2014-04-06T08:03:01Z</time>
      </trkpt>
      <trkpt lat="47.41758" lon="6.69987">
        <ele>293</ele>
        <time>2014-04-06T08:03:04Z</time>
      </trkpt>
      <trkpt lat="47.41774" lon="6.69987">
        <ele>293</ele>
        <time>2014-04-06T08:03:07Z</time>
      </trkpt>
      <trkpt lat="47.41785" lon="6.69985">
        <ele>293</ele>
        <time>2014-04-06T08:03:09Z</time>
      </trkpt>
      <trkpt lat="47.41797" lon="6.69984">
        <ele>293</ele>
        <time>2014-04-06T08:03:11Z</time>
      </trkpt>
      <trkpt lat="47.41808" lon="6.69983">
        <ele>293</ele>
        <time>2014-04-06T08:03:13Z</time>
      </trkpt>
      <trkpt lat="47.41826" lon="6.69983">
        <ele>293</ele>
        <time>2014-04-06T08:03:16Z</time>
      </trkpt>
      <trkpt lat="47.41838" lon="6.69981">
        <ele>293</ele>
        <time>2014-04-06T08:03:18Z</time>
      </trkpt>
      <trkpt lat="47.41856" lon="6.69975">
        <ele>293</ele>
        <time>2014-04-06T08:03:21Z</time>
      </trkpt>
      <trkpt lat="47.41867" lon="6.69969">
        <ele>293</ele>
        <time>2014-04-06T08:03:23Z</time>
      </trkpt>
      <trkpt lat="47.41883" lon="6.69959">
        <ele>293</ele>
        <time>2014-04-06T08:03:26Z</time>
      </trkpt>
      <trkpt lat="47.419" lon="6.6995">
        <ele>293</ele>
        <time>2014-04-06T08:03:29Z</time>
      </trkpt>
      <trkpt lat="47.41911" lon="6.69946">
        <ele>294</ele>
        <time>2014-04-06T08:03:31Z</time>
      </trkpt>
      <trkpt lat="47.41922" lon="6.69944">
        <ele>293</ele>
        <time>2014-04-06T08:03:33Z</time>
      </trkpt>
      <trkpt lat="47.41938" lon="6.6994">
        <ele>293</ele>
        <time>2014-04-06T08:03:36Z</time>
      </trkpt>
      <trkpt lat="47.41952" lon="6.69935">
        <ele>294</ele>
        <time>2014-04-06T08:03:39Z</time>
      </trkpt>
      <trkpt lat="47.41965" lon="6.69931">
        <ele>294</ele>
        <time>2014-04-06T08:03:42Z</time>
      </trkpt>
      <trkpt lat="47.41974" lon="6.69929">
        <ele>294</ele>
        <time>2014-04-06T08:03:44Z</time>
      </trkpt>
      <trkpt lat="47.41987" lon="6.69925">
        <ele>294</ele>
        <time>2014-04-06T08:03:47Z</time>
      </trkpt>
      <trkpt lat="47.41996" lon="6.69924">
        <ele>294</ele>
        <time>2014-04-06T08:03:49Z</time>
      </trkpt>
      <trkpt lat="47.42004" lon="6.69923">
        <ele>294</ele>
        <time>2014-04-06T08:03:51Z</time>
      </trkpt>
      <trkpt lat="47.42012" lon="6.69922">
        <ele>294</ele>
        <time>2014-04-06T08:03:53Z</time>
      </trkpt>
      <trkpt lat="47.42021" lon="6.69921">
        <ele>294</ele>
        <time>2014-04-06T08:03:55Z</time>
      </trkpt>
      <trkpt lat="47.42033" lon="6.69921">
        <ele>295</ele>
        <time>2014-04-06T08:03:58Z</time>
      </trkpt>
      <trkpt lat="47.42041" lon="6.69921">
        <ele>295</ele>
        <time>2014-04-06T08:04:00Z</time>
      </trkpt>
      <trkpt lat="47.42048" lon="6.6992">
        <ele>295</ele>
        <time>2014-04-06T08:04:02Z</time>
      </trkpt>
      <trkpt lat="47.4206" lon="6.69917">
        <ele>295</ele>
        <time>2014-04-06T08:04:05Z</time>
      </trkpt>
      <trkpt lat="47.4207" lon="6.69915">
        <ele>294</ele>
        <time>2014-04-06T08:04:07Z</time>
      </trkpt>
      <trkpt lat="47.42081" lon="6.69913">
        <ele>294</ele>
        <time>2014-04-06T08:04:09Z</time>
      </trkpt>
      <trkpt lat="47.42092" lon="6.69909">
        <ele>293</ele>
        <time>2014-04-06T08:04:11Z</time>
      </trkpt>
      <trkpt lat="47.42109" lon="6.69899">
        <ele>293</ele>
        <time>2014-04-06T08:04:14Z</time>
      </trkpt>
      <trkpt lat="47.42123" lon="6.6989">
        <ele>292</ele>
        <time>2014-04-06T08:04:16Z</time>
      </trkpt>
      <trkpt lat="47.42146" lon="6.69877">
        <ele>291</ele>
        <time>2014-04-06T08:04:19Z</time>
      </trkpt>
      <trkpt lat="47.4216" lon="6.69865">
        <ele>290</ele>
        <time>2014-04-06T08:04:21Z</time>
      </trkpt>
      <trkpt lat="47.42174" lon="6.69853">
        <ele>290</ele>
        <time>2014-04-06T08:04:23Z</time>
      </trkpt>
      <trkpt lat="47.42191" lon="6.69842">
        <ele>289</ele>
        <time>2014-04-06T08:04:26Z</time>
      </trkpt>
      <trkpt lat="47.422" lon="6.69837">
        <ele>289</ele>
        <time>2014-04-06T08:04:28Z</time>
      </trkpt>
      <trkpt lat="47.4221" lon="6.69831">
        <ele>289</ele>
        <time>2014-04-06T08:04:31Z</time>
      </trkpt>
      <trkpt lat="47.42219" lon="6.69829">
        <ele>288</ele>
        <time>2014-04-06T08:04:34Z</time>
      </trkpt>
      <trkpt lat="47.42225" lon="6.69835">
        <ele>288</ele>
        <time>2014-04-06T08:04:37Z</time>
      </trkpt>
      <trkpt lat="47.4223" lon="6.69843">
        <ele>289</ele>
        <time>2014-04-06T08:04:40Z</time>
      </trkpt>
      <trkpt lat="47.42233" lon="6.69848">
        <ele>289</ele>
        <time>2014-04-06T08:04:42Z</time>
      </trkpt>
      <trkpt lat="47.42237" lon="6.69857">
        <ele>289</ele>
        <time>2014-04-06T08:04:45Z</time>
      </trkpt>
      <trkpt lat="47.4224" lon="6.69863">
        <ele>289</ele>
        <time>2014-04-06T08:04:47Z</time>
      </trkpt>
      <trkpt lat="47.42245" lon="6.69865">
        <ele>290</ele>
        <time>2014-04-06T08:04:50Z</time>
      </trkpt>
      <trkpt lat="47.42246" lon="6.69865">
        <ele>290</ele>
        <time>2014-04-06T08:04:53Z</time>
      </trkpt>
      <trkpt lat="47.42249" lon="6.69864">
        <ele>290</ele>
        <time>2014-04-06T08:04:55Z</time>
      </trkpt>
      <trkpt lat="47.42256" lon="6.69863">
        <ele>290</ele>
        <time>2014-04-06T08:04:58Z</time>
      </trkpt>
      <trkpt lat="47.42261" lon="6.69863">
        <ele>291</ele>
        <time>2014-04-06T08:05:00Z</time>
      </trkpt>
      <trkpt lat="47.4227" lon="6.69865">
        <ele>291</ele>
        <time>2014-04-06T08:05:03Z</time>
      </trkpt>
      <trkpt lat="47.42276" lon="6.69867">
        <ele>291</ele>
        <time>2014-04-06T08:05:05Z</time>
      </trkpt>
      <trkpt lat="47.42286" lon="6.69868">
        <ele>291</ele>
        <time>2014-04-06T08:05:08Z</time>
      </trkpt>
      <trkpt lat="47.42292" lon="6.69869">
        <ele>291</ele>
        <time>2014-04-06T08:05:10Z</time>
      </trkpt>
      <trkpt lat="47.42301" lon="6.69872">
        <ele>291</ele>
        <time>2014-04-06T08:05:13Z</time>
      </trkpt>
      <trkpt lat="47.42307" lon="6.69874">
        <ele>292</ele>
        <time>2014-04-06T08:05:15Z</time>
      </trkpt>
      <trkpt lat="47.42313" lon="6.69875">
        <ele>292</ele>
        <time>2014-04-06T08:05:17Z</time>
      </trkpt>
      <trkpt lat="47.4232" lon="6.69875">
        <ele>292</ele>
        <time>2014-04-06T08:05:19Z</time>
      </trkpt>
      <trkpt lat="47.42329" lon="6.69871">
        <ele>292</ele>
        <time>2014-04-06T08:05:22Z</time>
      </trkpt>
      <trkpt lat="47.42333" lon="6.69864">
        <ele>292</ele>
        <time>2014-04-06T08:05:24Z</time>
      </trkpt>
      <trkpt lat="47.42336" lon="6.69851">
        <ele>293</ele>
        <time>2014-04-06T08:05:27Z</time>
      </trkpt>
      <trkpt lat="47.42336" lon="6.69841">
        <ele>294</ele>
        <time>2014-04-06T08:05:29Z</time>
      </trkpt>
      <trkpt lat="47.42335" lon="6.69826">
        <ele>295</ele>
        <time>2014-04-06T08:05:32Z</time>
      </trkpt>
      <trkpt lat="47.42334" lon="6.6981">
        <ele>295</ele>
        <time>2014-04-06T08:05:35Z</time>
      </trkpt>
      <trkpt lat="47.42333" lon="6.698">
        <ele>296</ele>
        <time>2014-04-06T08:05:37Z</time>
      </trkpt>
      <trkpt lat="47.42332" lon="6.69784">
        <ele>297</ele>
        <time>2014-04-06T08:05:40Z</time>
      </trkpt>
      <trkpt lat="47.42332" lon="6.69773">
        <ele>297</ele>
        <time>2014-04-06T08:05:42Z</time>
      </trkpt>
      <trkpt lat="47.42332" lon="6.69758">
        <ele>298</ele>
        <time>2014-04-06T08:05:45Z</time>
      </trkpt>
      <trkpt lat="47.42332" lon="6.69747">
        <ele>298</ele>
        <time>2014-04-06T08:05:47Z</time>
      </trkpt>
      <trkpt lat="47.42333" lon="6.69732">
        <ele>298</ele>
        <time>2014-04-06T08:05:50Z</time>
      </trkpt>
      <trkpt lat="47.42334" lon="6.69721">
        <ele>299</ele>
        <time>2014-04-06T08:05:52Z</time>
      </trkpt>
      <trkpt lat="47.42336" lon="6.6971">
        <ele>299</ele>
        <time>2014-04-06T08:05:54Z</time>
      </trkpt>
      <trkpt lat="47.42338" lon="6.69698">
        <ele>300</ele>
        <time>2014-04-06T08:05:56Z</time>
      </trkpt>
      <trkpt lat="47.42342" lon="6.69688">
        <ele>300</ele>
        <time>2014-04-06T08:05:58Z</time>
      </trkpt>
      <trkpt lat="47.42347" lon="6.69677">
        <ele>301</ele>
        <time>2014-04-06T08:06:00Z</time>
      </trkpt>
      <trkpt lat="47.42353" lon="6.69668">
        <ele>301</ele>
        <time>2014-04-06T08:06:02Z</time>
      </trkpt>
      <trkpt lat="47.42362" lon="6.69656">
        <ele>302</ele>
        <time>2014-04-06T08:06:05Z</time>
      </trkpt>
      <trkpt lat="47.42368" lon="6.69649">
        <ele>302</ele>
        <time>2014-04-06T08:06:07Z</time>
      </trkpt>
      <trkpt lat="47.42376" lon="6.69643">
        <ele>302</ele>
        <time>2014-04-06T08:06:09Z</time>
      </trkpt>
      <trkpt lat="47.42387" lon="6.69634">
        <ele>303</ele>
        <time>2014-04-06T08:06:12Z</time>
      </trkpt>
      <trkpt lat="47.42394" lon="6.69627">
        <ele>304</ele>
        <time>2014-04-06T08:06:14Z</time>
      </trkpt>
      <trkpt lat="47.42405" lon="6.69616">
        <ele>304</ele>
        <time>2014-04-06T08:06:17Z</time>
      </trkpt>
      <trkpt lat="47.42411" lon="6.69607">
        <ele>305</ele>
        <time>2014-04-06T08:06:19Z</time>
      </trkpt>
      <trkpt lat="47.42418" lon="6.69599">
        <ele>305</ele>
        <time>2014-04-06T08:06:21Z</time>
      </trkpt>
      <trkpt lat="47.42427" lon="6.69586">
        <ele>306</ele>
        <time>2014-04-06T08:06:24Z</time>
      </trkpt>
      <trkpt lat="47.42433" lon="6.69578">
        <ele>307</ele>
        <time>2014-04-06T08:06:26Z</time>
      </trkpt>
      <trkpt lat="47.42438" lon="6.69571">
        <ele>307</ele>
        <time>2014-04-06T08:06:28Z</time>
      </trkpt>
      <trkpt lat="47.42445" lon="6.69566">
        <ele>307</ele>
        <time>2014-04-06T08:06:30Z</time>
      </trkpt>
      <trkpt lat="47.42452" lon="6.69567">
        <ele>308</ele>
        <time>2014-04-06T08:06:32Z</time>
      </trkpt>
      <trkpt lat="47.42458" lon="6.69579">
        <ele>308</ele>
        <time>2014-04-06T08:06:35Z</time>
      </trkpt>
      <trkpt lat="47.42457" lon="6.69595">
        <ele>309</ele>
        <time>2014-04-06T08:06:38Z</time>
      </trkpt>
      <trkpt lat="47.42451" lon="6.69604">
        <ele>310</ele>
        <time>2014-04-06T08:06:40Z</time>
      </trkpt>
      <trkpt lat="47.42446" lon="6.69613">
        <ele>310</ele>
        <time>2014-04-06T08:06:42Z</time>
      </trkpt>
      <trkpt lat="47.4244" lon="6.69622">
        <ele>311</ele>
        <time>2014-04-06T08:06:44Z</time>
      </trkpt>
      <trkpt lat="47.42435" lon="6.69631">
        <ele>311</ele>
        <time>2014-04-06T08:06:46Z</time>
      </trkpt>
      <trkpt lat="47.42431" lon="6.6964">
        <ele>312</ele>
        <time>2014-04-06T08:06:48Z</time>
      </trkpt>
      <trkpt lat="47.42425" lon="6.69656">
        <ele>312</ele>
        <time>2014-04-06T08:06:51Z</time>
      </trkpt>
      <trkpt lat="47.42421" lon="6.69671">
        <ele>313</ele>
        <time>2014-04-06T08:06:54Z</time>
      </trkpt>
      <trkpt lat="47.42419" lon="6.69688">
        <ele>313</ele>
        <time>2014-04-06T08:06:57Z</time>
      </trkpt>
      <trkpt lat="47.42418" lon="6.69698">
        <ele>314</ele>
        <time>2014-04-06T08:06:59Z</time>
      </trkpt>
      <trkpt lat="47.42417" lon="6.69709">
        <ele>314</ele>
        <time>2014-04-06T08:07:01Z</time>
      </trkpt>
      <trkpt lat="47.42416" lon="6.6972">
        <ele>314</ele>
        <time>2014-04-06T08:07:03Z</time>
      </trkpt>
      <trkpt lat="47.42414" lon="6.69735">
        <ele>315</ele>
        <time>2014-04-06T08:07:06Z</time>
      </trkpt>
      <trkpt lat="47.42413" lon="6.69745">
        <ele>315</ele>
        <time>2014-04-06T08:07:08Z</time>
      </trkpt>
      <trkpt lat="47.42411" lon="6.69755">
        <ele>316</ele>
        <time>2014-04-06T08:07:10Z</time>
      </trkpt>
      <trkpt lat="47.4241" lon="6.69764">
        <ele>316</ele>
        <time>2014-04-06T08:07:12Z</time>
      </trkpt>
      <trkpt lat="47.42408" lon="6.69773">
        <ele>316</ele>
        <time>2014-04-06T08:07:14Z</time>
      </trkpt>
      <trkpt lat="47.42407" lon="6.69783">
        <ele>317</ele>
        <time>2014-04-06T08:07:16Z</time>
      </trkpt>
      <trkpt lat="47.42406" lon="6.69792">
        <ele>317</ele>
        <time>2014-04-06T08:07:18Z</time>
      </trkpt>
      <trkpt lat="47.42406" lon="6.69802">
        <ele>317</ele>
        <time>2014-04-06T08:07:20Z</time>
      </trkpt>
      <trkpt lat="47.42406" lon="6.69815">
        <ele>317</ele>
        <time>2014-04-06T08:07:23Z</time>
      </trkpt>
      <trkpt lat="47.42406" lon="6.69824">
        <ele>318</ele>
        <time>2014-04-06T08:07:25Z</time>
      </trkpt>
      <trkpt lat="47.42408" lon="6.69836">
        <ele>319</ele>
        <time>2014-04-06T08:07:28Z</time>
      </trkpt>
      <trkpt lat="47.42407" lon="6.69844">
        <ele>319</ele>
        <time>2014-04-06T08:07:30Z</time>
      </trkpt>
      <trkpt lat="47.42407" lon="6.69851">
        <ele>319</ele>
        <time>2014-04-06T08:07:32Z</time>
      </trkpt>
      <trkpt lat="47.42409" lon="6.69856">
        <ele>320</ele>
        <time>2014-04-06T08:07:34Z</time>
      </trkpt>
      <trkpt lat="47.42411" lon="6.69861">
        <ele>320</ele>
        <time>2014-04-06T08:07:37Z</time>
      </trkpt>
      <trkpt lat="47.42411" lon="6.69867">
        <ele>320</ele>
        <time>2014-04-06T08:07:39Z</time>
      </trkpt>
      <trkpt lat="47.42412" lon="6.69874">
        <ele>321</ele>
        <time>2014-04-06T08:07:41Z</time>
      </trkpt>
      <trkpt lat="47.42415" lon="6.69883">
        <ele>321</ele>
        <time>2014-04-06T08:07:44Z</time>
      </trkpt>
      <trkpt lat="47.42417" lon="6.6989">
        <ele>321</ele>
        <time>2014-04-06T08:07:46Z</time>
      </trkpt>
      <trkpt lat="47.42422" lon="6.699">
        <ele>322</ele>
        <time>2014-04-06T08:07:49Z</time>
      </trkpt>
      <trkpt lat="47.42425" lon="6.69907">
        <ele>322</ele>
        <time>2014-04-06T08:07:51Z</time>
      </trkpt>
      <trkpt lat="47.42429" lon="6.69912">
        <ele>323</ele>
        <time>2014-04-06T08:07:53Z</time>
      </trkpt>
      <trkpt lat="47.42432" lon="6.69919">
        <ele>323</ele>
        <time>2014-04-06T08:07:55Z</time>
      </trkpt>
      <trkpt lat="47.42438" lon="6.69928">
        <ele>323</ele>
        <time>2014-04-06T08:07:58Z</time>
      </trkpt>
      <trkpt lat="47.42441" lon="6.69935">
        <ele>324</ele>
        <time>2014-04-06T08:08:00Z</time>
      </trkpt>
      <trkpt lat="47.42447" lon="6.69945">
        <ele>325</ele>
        <time>2014-04-06T08:08:03Z</time>
      </trkpt>
      <trkpt lat="47.42451" lon="6.69951">
        <ele>325</ele>
        <time>2014-04-06T08:08:05Z</time>
      </trkpt>
      <trkpt lat="47.42458" lon="6.69961">
        <ele>326</ele>
        <time>2014-04-06T08:08:08Z</time>
      </trkpt>
      <trkpt lat="47.42462" lon="6.69967">
        <ele>326</ele>
        <time>2014-04-06T08:08:10Z</time>
      </trkpt>
      <trkpt lat="47.42469" lon="6.69976">
        <ele>326</ele>
        <time>2014-04-06T08:08:13Z</time>
      </trkpt>
      <trkpt lat="47.42474" lon="6.6998">
        <ele>326</ele>
        <time>2014-04-06T08:08:15Z</time>
      </trkpt>
      <trkpt lat="47.42482" lon="6.69987">
        <ele>327</ele>
        <time>2014-04-06T08:08:18Z</time>
      </trkpt>
      <trkpt lat="47.42486" lon="6.69991">
        <ele>327</ele>
        <time>2014-04-06T08:08:20Z</time>
      </trkpt>
      <trkpt lat="47.4249" lon="6.69996">
        <ele>328</ele>
        <time>2014-04-06T08:08:22Z</time>
      </trkpt>
      <trkpt lat="47.42496" lon="6.70001">
        <ele>329</ele>
        <time>2014-04-06T08:08:25Z</time>
      </trkpt>
      <trkpt lat="47.42501" lon="6.70004">
        <ele>329</ele>
        <time>2014-04-06T08:08:27Z</time>
      </trkpt>
      <trkpt lat="47.42505" lon="6.70008">
        <ele>330</ele>
        <time>2014-04-06T08:08:29Z</time>
      </trkpt>
      <trkpt lat="47.42512" lon="6.70014">
        <ele>330</ele>
        <time>2014-04-06T08:08:32Z</time>
      </trkpt>
      <trkpt lat="47.42516" lon="6.70018">
        <ele>331</ele>
        <time>2014-04-06T08:08:34Z</time>
      </trkpt>
      <trkpt lat="47.42522" lon="6.70022">
        <ele>331</ele>
        <time>2014-04-06T08:08:36Z</time>
      </trkpt>
      <trkpt lat="47.42527" lon="6.70024">
        <ele>331</ele>
        <time>2014-04-06T08:08:38Z</time>
      </trkpt>
      <trkpt lat="47.42533" lon="6.70027">
        <ele>331</ele>
        <time>2014-04-06T08:08:40Z</time>
      </trkpt>
      <trkpt lat="47.42538" lon="6.70031">
        <ele>332</ele>
        <time>2014-04-06T08:08:42Z</time>
      </trkpt>
      <trkpt lat="47.42544" lon="6.70035">
        <ele>332</ele>
        <time>2014-04-06T08:08:44Z</time>
      </trkpt>
      <trkpt lat="47.42551" lon="6.7004">
        <ele>332</ele>
        <time>2014-04-06T08:08:47Z</time>
      </trkpt>
      <trkpt lat="47.42557" lon="6.70044">
        <ele>333</ele>
        <time>2014-04-06T08:08:49Z</time>
      </trkpt>
      <trkpt lat="47.42562" lon="6.70047">
        <ele>334</ele>
        <time>2014-04-06T08:08:51Z</time>
      </trkpt>
      <trkpt lat="47.4257" lon="6.70053">
        <ele>334</ele>
        <time>2014-04-06T08:08:54Z</time>
      </trkpt>
      <trkpt lat="47.42575" lon="6.70057">
        <ele>334</ele>
        <time>2014-04-06T08:08:56Z</time>
      </trkpt>
      <trkpt lat="47.42584" lon="6.70063">
        <ele>335</ele>
        <time>2014-04-06T08:08:59Z</time>
      </trkpt>
      <trkpt lat="47.42589" lon="6.70068">
        <ele>335</ele>
        <time>2014-04-06T08:09:01Z</time>
      </trkpt>
      <trkpt lat="47.42598" lon="6.70077">
        <ele>335</ele>
        <time>2014-04-06T08:09:04Z</time>
      </trkpt>
      <trkpt lat="47.42604" lon="6.70082">
        <ele>336</ele>
        <time>2014-04-06T08:09:06Z</time>
      </trkpt>
      <trkpt lat="47.42612" lon="6.7009">
        <ele>337</ele>
        <time>2014-04-06T08:09:09Z</time>
      </trkpt>
      <trkpt lat="47.42618" lon="6.70095">
        <ele>337</ele>
        <time>2014-04-06T08:09:11Z</time>
      </trkpt>
      <trkpt lat="47.42626" lon="6.70103">
        <ele>338</ele>
        <time>2014-04-06T08:09:14Z</time>
      </trkpt>
      <trkpt lat="47.42632" lon="6.70108">
        <ele>338</ele>
        <time>2014-04-06T08:09:16Z</time>
      </trkpt>
      <trkpt lat="47.4264" lon="6.70117">
        <ele>339</ele>
        <time>2014-04-06T08:09:19Z</time>
      </trkpt>
      <trkpt lat="47.42645" lon="6.70123">
        <ele>339</ele>
        <time>2014-04-06T08:09:21Z</time>
      </trkpt>
      <trkpt lat="47.4265" lon="6.70129">
        <ele>340</ele>
        <time>2014-04-06T08:09:23Z</time>
      </trkpt>
      <trkpt lat="47.42655" lon="6.70135">
        <ele>340</ele>
        <time>2014-04-06T08:09:25Z</time>
      </trkpt>
      <trkpt lat="47.42662" lon="6.70145">
        <ele>340</ele>
        <time>2014-04-06T08:09:28Z</time>
      </trkpt>
      <trkpt lat="47.42667" lon="6.70151">
        <ele>341</ele>
        <time>2014-04-06T08:09:30Z</time>
      </trkpt>
      <trkpt lat="47.42675" lon="6.7016">
        <ele>341</ele>
        <time>2014-04-06T08:09:33Z</time>
      </trkpt>
      <trkpt lat="47.4268" lon="6.70166">
        <ele>341</ele>
        <time>2014-04-06T08:09:35Z</time>
      </trkpt>
      <trkpt lat="47.42687" lon="6.70176">
        <ele>342</ele>
        <time>2014-04-06T08:09:38Z</time>
      </trkpt>
      <trkpt lat="47.42692" lon="6.70182">
        <ele>343</ele>
        <time>2014-04-06T08:09:40Z</time>
      </trkpt>
      <trkpt lat="47.427" lon="6.70192">
        <ele>343</ele>
        <time>2014-04-06T08:09:43Z</time>
      </trkpt>
      <trkpt lat="47.42705" lon="6.70198">
        <ele>343</ele>
        <time>2014-04-06T08:09:45Z</time>
      </trkpt>
      <trkpt lat="47.4271" lon="6.70205">
        <ele>343</ele>
        <time>2014-04-06T08:09:47Z</time>
      </trkpt>
      <trkpt lat="47.42718" lon="6.70214">
        <ele>344</ele>
        <time>2014-04-06T08:09:50Z</time>
      </trkpt>
      <trkpt lat="47.42723" lon="6.7022">
        <ele>345</ele>
        <time>2014-04-06T08:09:52Z</time>
      </trkpt>
      <trkpt lat="47.42728" lon="6.70225">
        <ele>345</ele>
        <time>2014-04-06T08:09:54Z</time>
      </trkpt>
      <trkpt lat="47.42737" lon="6.70232">
        <ele>346</ele>
        <time>2014-04-06T08:09:57Z</time>
      </trkpt>
      <trkpt lat="47.42743" lon="6.70236">
        <ele>347</ele>
        <time>2014-04-06T08:09:59Z</time>
      </trkpt>
      <trkpt lat="47.42751" lon="6.7024">
        <ele>347</ele>
        <time>2014-04-06T08:10:02Z</time>
      </trkpt>
      <trkpt lat="47.42757" lon="6.70242">
        <ele>348</ele>
        <time>2014-04-06T08:10:04Z</time>
      </trkpt>
      <trkpt lat="47.42762" lon="6.70245">
        <ele>348</ele>
        <time>2014-04-06T08:10:06Z</time>
      </trkpt>
      <trkpt lat="47.42768" lon="6.70247">
        <ele>348</ele>
        <time>2014-04-06T08:10:08Z</time>
      </trkpt>
      <trkpt lat="47.42773" lon="6.7025">
        <ele>348</ele>
        <time>2014-04-06T08:10:10Z</time>
      </trkpt>
      <trkpt lat="47.42781" lon="6.70255">
        <ele>348</ele>
        <time>2014-04-06T08:10:13Z</time>
      </trkpt>
      <trkpt lat="47.42786" lon="6.70259">
        <ele>348</ele>
        <time>2014-04-06T08:10:15Z</time>
      </trkpt>
      <trkpt lat="47.42791" lon="6.70263">
        <ele>349</ele>
        <time>2014-04-06T08:10:17Z</time>
      </trkpt>
      <trkpt lat="47.428" lon="6.7027">
        <ele>350</ele>
        <time>2014-04-06T08:10:20Z</time>
      </trkpt>
      <trkpt lat="47.42804" lon="6.70276">
        <ele>350</ele>
        <time>2014-04-06T08:10:22Z</time>
      </trkpt>
      <trkpt lat="47.42811" lon="6.70285">
        <ele>351</ele>
        <time>2014-04-06T08:10:25Z</time>
      </trkpt>
      <trkpt lat="47.42815" lon="6.70291">
        <ele>351</ele>
        <time>2014-04-06T08:10:27Z</time>
      </trkpt>
      <trkpt lat="47.42821" lon="6.70301">
        <ele>352</ele>
        <time>2014-04-06T08:10:30Z</time>
      </trkpt>
      <trkpt lat="47.42826" lon="6.70311">
        <ele>352</ele>
        <time>2014-04-06T08:10:33Z</time>
      </trkpt>
      <trkpt lat="47.42832" lon="6.70321">
        <ele>352</ele>
        <time>2014-04-06T08:10:36Z</time>
      </trkpt>
      <trkpt lat="47.42836" lon="6.70327">
        <ele>352</ele>
        <time>2014-04-06T08:10:38Z</time>
      </trkpt>
      <trkpt lat="47.4284" lon="6.70333">
        <ele>352</ele>
        <time>2014-04-06T08:10:40Z</time>
      </trkpt>
      <trkpt lat="47.42843" lon="6.7034">
        <ele>353</ele>
        <time>2014-04-06T08:10:42Z</time>
      </trkpt>
      <trkpt lat="47.42847" lon="6.70347">
        <ele>353</ele>
        <time>2014-04-06T08:10:44Z</time>
      </trkpt>
      <trkpt lat="47.42852" lon="6.70358">
        <ele>354</ele>
        <time>2014-04-06T08:10:47Z</time>
      </trkpt>
      <trkpt lat="47.42857" lon="6.70368">
        <ele>354</ele>
        <time>2014-04-06T08:10:50Z</time>
      </trkpt>
      <trkpt lat="47.4286" lon="6.70376">
        <ele>355</ele>
        <time>2014-04-06T08:10:52Z</time>
      </trkpt>
      <trkpt lat="47.42862" lon="6.70384">
        <ele>355</ele>
        <time>2014-04-06T08:10:54Z</time>
      </trkpt>
      <trkpt lat="47.42863" lon="6.70393">
        <ele>355</ele>
        <time>2014-04-06T08:10:56Z</time>
      </trkpt>
      <trkpt lat="47.42865" lon="6.70407">
        <ele>356</ele>
        <time>2014-04-06T08:10:59Z</time>
      </trkpt>
      <trkpt lat="47.42866" lon="6.70416">
        <ele>356</ele>
        <time>2014-04-06T08:11:01Z</time>
      </trkpt>
      <trkpt lat="47.42865" lon="6.70424">
        <ele>357</ele>
        <time>2014-04-06T08:11:03Z</time>
      </trkpt>
      <trkpt lat="47.42864" lon="6.70438">
        <ele>357</ele>
        <time>2014-04-06T08:11:06Z</time>
      </trkpt>
      <trkpt lat="47.42862" lon="6.70447">
        <ele>357</ele>
        <time>2014-04-06T08:11:08Z</time>
      </trkpt>
      <trkpt lat="47.42859" lon="6.70455">
        <ele>358</ele>
        <time>2014-04-06T08:11:10Z</time>
      </trkpt>
      <trkpt lat="47.42854" lon="6.70466">
        <ele>358</ele>
        <time>2014-04-06T08:11:13Z</time>
      </trkpt>
      <trkpt lat="47.4285" lon="6.70472">
        <ele>358</ele>
        <time>2014-04-06T08:11:15Z</time>
      </trkpt>
      <trkpt lat="47.42847" lon="6.70479">
        <ele>358</ele>
        <time>2014-04-06T08:11:17Z</time>
      </trkpt>
      <trkpt lat="47.42841" lon="6.70488">
        <ele>358</ele>
        <time>2014-04-06T08:11:20Z</time>
      </trkpt>
      <trkpt lat="47.42838" lon="6.70494">
        <ele>359</ele>
        <time>2014-04-06T08:11:22Z</time>
      </trkpt>
      <trkpt lat="47.42834" lon="6.70503">
        <ele>359</ele>
        <time>2014-04-06T08:11:25Z</time>
      </trkpt>
      <trkpt lat="47.42831" lon="6.70509">
        <ele>359</ele>
        <time>2014-04-06T08:11:27Z</time>
      </trkpt>
      <trkpt lat="47.42829" lon="6.70514">
        <ele>360</ele>
        <time>2014-04-06T08:11:29Z</time>
      </trkpt>
      <trkpt lat="47.42826" lon="6.7052">
        <ele>360</ele>
        <time>2014-04-06T08:11:31Z</time>
      </trkpt>
      <trkpt lat="47.42823" lon="6.70526">
        <ele>360</ele>
        <time>2014-04-06T08:11:33Z</time>
      </trkpt>
      <trkpt lat="47.4282" lon="6.70532">
        <ele>360</ele>
        <time>2014-04-06T08:11:35Z</time>
      </trkpt>
      <trkpt lat="47.4282" lon="6.70538">
        <ele>361</ele>
        <time>2014-04-06T08:11:37Z</time>
      </trkpt>
      <trkpt lat="47.42825" lon="6.70544">
        <ele>361</ele>
        <time>2014-04-06T08:11:40Z</time>
      </trkpt>
      <trkpt lat="47.42827" lon="6.70553">
        <ele>361</ele>
        <time>2014-04-06T08:11:43Z</time>
      </trkpt>
      <trkpt lat="47.42831" lon="6.70561">
        <ele>362</ele>
        <time>2014-04-06T08:11:46Z</time>
      </trkpt>
      <trkpt lat="47.42836" lon="6.70569">
        <ele>362</ele>
        <time>2014-04-06T08:11:49Z</time>
      </trkpt>
      <trkpt lat="47.42839" lon="6.70574">
        <ele>362</ele>
        <time>2014-04-06T08:11:51Z</time>
      </trkpt>
      <trkpt lat="47.42843" lon="6.70583">
        <ele>363</ele>
        <time>2014-04-06T08:11:54Z</time>
      </trkpt>
      <trkpt lat="47.42846" lon="6.70589">
        <ele>363</ele>
        <time>2014-04-06T08:11:56Z</time>
      </trkpt>
      <trkpt lat="47.4285" lon="6.70598">
        <ele>363</ele>
        <time>2014-04-06T08:11:59Z</time>
      </trkpt>
      <trkpt lat="47.42854" lon="6.70607">
        <ele>364</ele>
        <time>2014-04-06T08:12:02Z</time>
      </trkpt>
      <trkpt lat="47.42857" lon="6.70613">
        <ele>364</ele>
        <time>2014-04-06T08:12:04Z</time>
      </trkpt>
      <trkpt lat="47.4286" lon="6.70619">
        <ele>364</ele>
        <time>2014-04-06T08:12:06Z</time>
      </trkpt>
      <trkpt lat="47.42863" lon="6.70625">
        <ele>364</ele>
        <time>2014-04-06T08:12:08Z</time>
      </trkpt>
      <trkpt lat="47.42866" lon="6.70631">
        <ele>364</ele>
        <time>2014-04-06T08:12:10Z</time>
      </trkpt>
      <trkpt lat="47.42871" lon="6.70639">
        <ele>364</ele>
        <time>2014-04-06T08:12:13Z</time>
      </trkpt>
      <trkpt lat="47.42874" lon="6.70644">
        <ele>365</ele>
        <time>2014-04-06T08:12:15Z</time>
      </trkpt>
      <trkpt lat="47.42875" lon="6.70651">
        <ele>365</ele>
        <time>2014-04-06T08:12:17Z</time>
      </trkpt>
      <trkpt lat="47.42878" lon="6.7066">
        <ele>365</ele>
        <time>2014-04-06T08:12:20Z</time>
      </trkpt>
      <trkpt lat="47.4288" lon="6.70667">
        <ele>365</ele>
        <time>2014-04-06T08:12:22Z</time>
      </trkpt>
      <trkpt lat="47.42883" lon="6.70677">
        <ele>366</ele>
        <time>2014-04-06T08:12:25Z</time>
      </trkpt>
      <trkpt lat="47.42885" lon="6.70683">
        <ele>366</ele>
        <time>2014-04-06T08:12:27Z</time>
      </trkpt>
      <trkpt lat="47.42889" lon="6.70692">
        <ele>366</ele>
        <time>2014-04-06T08:12:30Z</time>
      </trkpt>
      <trkpt lat="47.42891" lon="6.70701">
        <ele>367</ele>
        <time>2014-04-06T08:12:33Z</time>
      </trkpt>
      <trkpt lat="47.42895" lon="6.70709">
        <ele>367</ele>
        <time>2014-04-06T08:12:36Z</time>
      </trkpt>
      <trkpt lat="47.42897" lon="6.70715">
        <ele>368</ele>
        <time>2014-04-06T08:12:38Z</time>
      </trkpt>
      <trkpt lat="47.429" lon="6.7072">
        <ele>368</ele>
        <time>2014-04-06T08:12:40Z</time>
      </trkpt>
      <trkpt lat="47.42903" lon="6.70724">
        <ele>368</ele>
        <time>2014-04-06T08:12:42Z</time>
      </trkpt>
      <trkpt lat="47.42907" lon="6.70732">
        <ele>368</ele>
        <time>2014-04-06T08:12:45Z</time>
      </trkpt>
      <trkpt lat="47.4291" lon="6.70736">
        <ele>368</ele>
        <time>2014-04-06T08:12:47Z</time>
      </trkpt>
      <trkpt lat="47.42914" lon="6.70743">
        <ele>369</ele>
        <time>2014-04-06T08:12:50Z</time>
      </trkpt>
      <trkpt lat="47.42917" lon="6.70748">
        <ele>369</ele>
        <time>2014-04-06T08:12:52Z</time>
      </trkpt>
      <trkpt lat="47.4292" lon="6.70753">
        <ele>369</ele>
        <time>2014-04-06T08:12:54Z</time>
      </trkpt>
      <trkpt lat="47.42922" lon="6.70757">
        <ele>369</ele>
        <time>2014-04-06T08:12:56Z</time>
      </trkpt>
      <trkpt lat="47.42925" lon="6.70762">
        <ele>369</ele>
        <time>2014-04-06T08:12:58Z</time>
      </trkpt>
      <trkpt lat="47.42927" lon="6.70767">
        <ele>369</ele>
        <time>2014-04-06T08:13:00Z</time>
      </trkpt>
      <trkpt lat="47.4293" lon="6.70775">
        <ele>369</ele>
        <time>2014-04-06T08:13:03Z</time>
      </trkpt>
      <trkpt lat="47.42934" lon="6.70782">
        <ele>370</ele>
        <time>2014-04-06T08:13:06Z</time>
      </trkpt>
      <trkpt lat="47.42937" lon="6.70787">
        <ele>370</ele>
        <time>2014-04-06T08:13:08Z</time>
      </trkpt>
      <trkpt lat="47.42939" lon="6.70794">
        <ele>370</ele>
        <time>2014-04-06T08:13:11Z</time>
      </trkpt>
      <trkpt lat="47.42941" lon="6.70799">
        <ele>371</ele>
        <time>2014-04-06T08:13:13Z</time>
      </trkpt>
      <trkpt lat="47.42942" lon="6.70805">
        <ele>371</ele>
        <time>2014-04-06T08:13:15Z</time>
      </trkpt>
      <trkpt lat="47.42945" lon="6.70807">
        <ele>371</ele>
        <time>2014-04-06T08:13:17Z</time>
      </trkpt>
      <trkpt lat="47.42946" lon="6.70803">
        <ele>371</ele>
        <time>2014-04-06T08:13:19Z</time>
      </trkpt>
      <trkpt lat="47.42944" lon="6.70798">
        <ele>371</ele>
        <time>2014-04-06T08:13:22Z</time>
      </trkpt>
      <trkpt lat="47.42941" lon="6.70792">
        <ele>371</ele>
        <time>2014-04-06T08:13:25Z</time>
      </trkpt>
      <trkpt lat="47.42938" lon="6.70787">
        <ele>371</ele>
        <time>2014-04-06T08:13:27Z</time>
      </trkpt>
      <trkpt lat="47.42935" lon="6.70781">
        <ele>371</ele>
        <time>2014-04-06T08:13:30Z</time>
      </trkpt>
      <trkpt lat="47.42932" lon="6.70778">
        <ele>371</ele>
        <time>2014-04-06T08:13:32Z</time>
      </trkpt>
      <trkpt lat="47.42929" lon="6.70776">
        <ele>371</ele>
        <time>2014-04-06T08:13:34Z</time>
      </trkpt>
      <trkpt lat="47.42926" lon="6.70776">
        <ele>371</ele>
        <time>2014-04-06T08:13:36Z</time>
      </trkpt>
      <trkpt lat="47.42924" lon="6.70776">
        <ele>371</ele>
        <time>2014-04-06T08:13:38Z</time>
      </trkpt>
      <trkpt lat="47.42924" lon="6.70775">
        <ele>371</ele>
        <time>2014-04-06T08:13:41Z</time>
      </trkpt>
      <trkpt lat="47.42924" lon="6.70775">
        <ele>371</ele>
        <time>2014-04-06T08:13:44Z</time>
      </trkpt>
      <trkpt lat="47.42924" lon="6.70775">
        <ele>371</ele>
        <time>2014-04-06T08:13:46Z</time>
      </trkpt>
      <trkpt lat="47.42924" lon="6.70775">
        <ele>370</ele>
        <time>2014-04-06T08:13:49Z</time>
      </trkpt>
      <trkpt lat="47.42923" lon="6.70774">
        <ele>370</ele>
        <time>2014-04-06T08:13:54Z</time>
      </trkpt>
      <trkpt lat="47.42923" lon="6.70774">
        <ele>370</ele>
        <time>2014-04-06T08:13:59Z</time>
      </trkpt>
      <trkpt lat="47.42923" lon="6.70774">
        <ele>370</ele>
        <time>2014-04-06T08:14:01Z</time>
      </trkpt>
      <trkpt lat="47.42923" lon="6.70774">
        <ele>370</ele>
        <time>2014-04-06T08:14:05Z</time>
      </trkpt>
      <trkpt lat="47.42923" lon="6.70773">
        <ele>370</ele>
        <time>2014-04-06T08:14:08Z</time>
      </trkpt>
      <trkpt lat="47.42923" lon="6.70773">
        <ele>370</ele>
        <time>2014-04-06T08:14:11Z</time>
      </trkpt>
      <trkpt lat="47.42923" lon="6.70773">
        <ele>370</ele>
        <time>2014-04-06T08:14:15Z</time>
      </trkpt>
      <trkpt lat="47.42923" lon="6.70773">
        <ele>370</ele>
        <time>2014-04-06T08:14:18Z</time>
      </trkpt>
      <trkpt lat="47.42923" lon="6.70773">
        <ele>370</ele>
        <time>2014-04-06T08:14:20Z</time>
      </trkpt>
      <trkpt lat="47.42923" lon="6.70773">
        <ele>370</ele>
        <time>2014-04-06T08:14:28Z</time>
      </trkpt>
      <trkpt lat="47.42923" lon="6.70773">
        <ele>370</ele>
        <time>2014-04-06T08:14:35Z</time>
      </trkpt>
      <trkpt lat="47.42923" lon="6.70773">
        <ele>370</ele>
        <time>2014-04-06T08:14:37Z</time>
      </trkpt>
      <trkpt lat="47.42924" lon="6.70773">
        <ele>370</ele>
        <time>2014-04-06T08:14:43Z</time>
      </trkpt>
      <trkpt lat="47.42924" lon="6.70773">
        <ele>370</ele>
        <time>2014-04-06T08:14:48Z</time>
      </trkpt>
      <trkpt lat="47.42924" lon="6.70773">
        <ele>370</ele>
        <time>2014-04-06T08:14:53Z</time>
      </trkpt>
      <trkpt lat="47.42924" lon="6.70773">
        <ele>370</ele>
        <time>2014-04-06T08:14:58Z</time>
      </trkpt>
      <trkpt lat="47.42924" lon="6.70773">
        <ele>370</ele>
        <time>2014-04-06T08:15:02Z</time>
      </trkpt>
      <trkpt lat="47.42924" lon="6.70773">
        <ele>370</ele>
        <time>2014-04-06T08:15:06Z</time>
      </trkpt>
      <trkpt lat="47.42925" lon="6.70773">
        <ele>370</ele>
        <time>2014-04-06T08:15:10Z</time>
      </trkpt>
      <trkpt lat="47.42925" lon="6.70773">
        <ele>370</ele>
        <time>2014-04-06T08:15:14Z</time>
      </trkpt>
      <trkpt lat="47.42925" lon="6.70773">
        <ele>370</ele>
        <time>2014-04-06T08:15:18Z</time>
      </trkpt>
      <trkpt lat="47.42925" lon="6.70773">
        <ele>370</ele>
        <time>2014-04-06T08:15:22Z</time>
      </trkpt>
      <trkpt lat="47.42925" lon="6.70773">
        <ele>371</ele>
        <time>2014-04-06T08:15:26Z</time>
      </trkpt>
      <trkpt lat="47.42926" lon="6.70773">
        <ele>371</ele>
        <time>2014-04-06T08:15:31Z</time>
      </trkpt>
      <trkpt lat="47.42926" lon="6.70773">
        <ele>371</ele>
        <time>2014-04-06T08:15:34Z</time>
      </trkpt>
      <trkpt lat="47.42926" lon="6.70773">
        <ele>371</ele>
        <time>2014-04-06T08:15:38Z</time>
      </trkpt>
      <trkpt lat="47.42926" lon="6.70773">
        <ele>371</ele>
        <time>2014-04-06T08:15:42Z</time>
      </trkpt>
      <trkpt lat="47.42926" lon="6.70773">
        <ele>370</ele>
        <time>2014-04-06T08:15:46Z</time>
      </trkpt>
      <trkpt lat="47.42926" lon="6.70773">
        <ele>370</ele>
        <time>2014-04-06T08:15:49Z</time>
      </trkpt>
      <trkpt lat="47.42926" lon="6.70773">
        <ele>370</ele>
        <time>2014-04-06T08:15:51Z</time>
      </trkpt>
      <trkpt lat="47.42925" lon="6.70773">
        <ele>370</ele>
        <time>2014-04-06T08:15:54Z</time>
      </trkpt>
      <trkpt lat="47.42923" lon="6.70773">
        <ele>370</ele>
        <time>2014-04-06T08:15:56Z</time>
      </trkpt>
      <trkpt lat="47.4292" lon="6.70776">
        <ele>370</ele>
        <time>2014-04-06T08:15:58Z</time>
      </trkpt>
      <trkpt lat="47.42915" lon="6.70779">
        <ele>370</ele>
        <time>2014-04-06T08:16:01Z</time>
      </trkpt>
      <trkpt lat="47.42912" lon="6.70781">
        <ele>370</ele>
        <time>2014-04-06T08:16:03Z</time>
      </trkpt>
      <trkpt lat="47.42908" lon="6.70783">
        <ele>371</ele>
        <time>2014-04-06T08:16:05Z</time>
      </trkpt>
      <trkpt lat="47.42903" lon="6.70786">
        <ele>371</ele>
        <time>2014-04-06T08:16:08Z</time>
      </trkpt>
      <trkpt lat="47.42899" lon="6.70787">
        <ele>372</ele>
        <time>2014-04-06T08:16:10Z</time>
      </trkpt>
      <trkpt lat="47.42895" lon="6.70789">
        <ele>372</ele>
        <time>2014-04-06T08:16:12Z</time>
      </trkpt>
      <trkpt lat="47.42889" lon="6.70791">
        <ele>373</ele>
        <time>2014-04-06T08:16:15Z</time>
      </trkpt>
      <trkpt lat="47.42885" lon="6.70793">
        <ele>373</ele>
        <time>2014-04-06T08:16:17Z</time>
      </trkpt>
      <trkpt lat="47.42881" lon="6.70795">
        <ele>373</ele>
        <time>2014-04-06T08:16:19Z</time>
      </trkpt>
      <trkpt lat="47.42873" lon="6.70798">
        <ele>373</ele>
        <time>2014-04-06T08:16:22Z</time>
      </trkpt>
      <trkpt lat="47.42868" lon="6.708">
        <ele>373</ele>
        <time>2014-04-06T08:16:24Z</time>
      </trkpt>
      <trkpt lat="47.42863" lon="6.70802">
        <ele>373</ele>
        <time>2014-04-06T08:16:26Z</time>
      </trkpt>
      <trkpt lat="47.42855" lon="6.70805">
        <ele>373</ele>
        <time>2014-04-06T08:16:29Z</time>
      </trkpt>
      <trkpt lat="47.4285" lon="6.70807">
        <ele>374</ele>
        <time>2014-04-06T08:16:31Z</time>
      </trkpt>
      <trkpt lat="47.42846" lon="6.70809">
        <ele>374</ele>
        <time>2014-04-06T08:16:33Z</time>
      </trkpt>
      <trkpt lat="47.42838" lon="6.70812">
        <ele>374</ele>
        <time>2014-04-06T08:16:36Z</time>
      </trkpt>
      <trkpt lat="47.42834" lon="6.70814">
        <ele>375</ele>
        <time>2014-04-06T08:16:38Z</time>
      </trkpt>
      <trkpt lat="47.42829" lon="6.70815">
        <ele>375</ele>
        <time>2014-04-06T08:16:40Z</time>
      </trkpt>
      <trkpt lat="47.42825" lon="6.70817">
        <ele>375</ele>
        <time>2014-04-06T08:16:42Z</time>
      </trkpt>
      <trkpt lat="47.4282" lon="6.70818">
        <ele>376</ele>
        <time>2014-04-06T08:16:44Z</time>
      </trkpt>
      <trkpt lat="47.42816" lon="6.7082">
        <ele>376</ele>
        <time>2014-04-06T08:16:46Z</time>
      </trkpt>
      <trkpt lat="47.42812" lon="6.70822">
        <ele>376</ele>
        <time>2014-04-06T08:16:48Z</time>
      </trkpt>
      <trkpt lat="47.42805" lon="6.70824">
        <ele>377</ele>
        <time>2014-04-06T08:16:51Z</time>
      </trkpt>
      <trkpt lat="47.428" lon="6.70826">
        <ele>377</ele>
        <time>2014-04-06T08:16:53Z</time>
      </trkpt>
      <trkpt lat="47.42794" lon="6.70829">
        <ele>378</ele>
        <time>2014-04-06T08:16:56Z</time>
      </trkpt>
      <trkpt lat="47.42789" lon="6.70832">
        <ele>378</ele>
        <time>2014-04-06T08:16:58Z</time>
      </trkpt>
      <trkpt lat="47.42785" lon="6.70838">
        <ele>378</ele>
        <time>2014-04-06T08:17:01Z</time>
      </trkpt>
      <trkpt lat="47.42783" lon="6.70845">
        <ele>379</ele>
        <time>2014-04-06T08:17:03Z</time>
      </trkpt>
      <trkpt lat="47.42784" lon="6.70855">
        <ele>380</ele>
        <time>2014-04-06T08:17:06Z</time>
      </trkpt>
      <trkpt lat="47.42786" lon="6.70864">
        <ele>380</ele>
        <time>2014-04-06T08:17:09Z</time>
      </trkpt>
      <trkpt lat="47.42788" lon="6.7087">
        <ele>380</ele>
        <time>2014-04-06T08:17:11Z</time>
      </trkpt>
      <trkpt lat="47.4279" lon="6.7088">
        <ele>380</ele>
        <time>2014-04-06T08:17:14Z</time>
      </trkpt>
      <trkpt lat="47.42791" lon="6.70887">
        <ele>380</ele>
        <time>2014-04-06T08:17:16Z</time>
      </trkpt>
      <trkpt lat="47.4279" lon="6.70894">
        <ele>380</ele>
        <time>2014-04-06T08:17:18Z</time>
      </trkpt>
      <trkpt lat="47.42787" lon="6.70899">
        <ele>381</ele>
        <time>2014-04-06T08:17:20Z</time>
      </trkpt>
      <trkpt lat="47.42781" lon="6.70904">
        <ele>381</ele>
        <time>2014-04-06T08:17:23Z</time>
      </trkpt>
      <trkpt lat="47.42777" lon="6.70905">
        <ele>382</ele>
        <time>2014-04-06T08:17:25Z</time>
      </trkpt>
      <trkpt lat="47.42773" lon="6.70908">
        <ele>382</ele>
        <time>2014-04-06T08:17:27Z</time>
      </trkpt>
      <trkpt lat="47.42766" lon="6.7091">
        <ele>382</ele>
        <time>2014-04-06T08:17:30Z</time>
      </trkpt>
      <trkpt lat="47.42762" lon="6.70913">
        <ele>382</ele>
        <time>2014-04-06T08:17:32Z</time>
      </trkpt>
      <trkpt lat="47.42757" lon="6.70915">
        <ele>382</ele>
        <time>2014-04-06T08:17:34Z</time>
      </trkpt>
      <trkpt lat="47.4275" lon="6.70917">
        <ele>383</ele>
        <time>2014-04-06T08:17:37Z</time>
      </trkpt>
      <trkpt lat="47.42746" lon="6.70919">
        <ele>383</ele>
        <time>2014-04-06T08:17:39Z</time>
      </trkpt>
      <trkpt lat="47.42739" lon="6.70922">
        <ele>383</ele>
        <time>2014-04-06T08:17:42Z</time>
      </trkpt>
      <trkpt lat="47.42735" lon="6.70924">
        <ele>383</ele>
        <time>2014-04-06T08:17:44Z</time>
      </trkpt>
      <trkpt lat="47.4273" lon="6.70927">
        <ele>383</ele>
        <time>2014-04-06T08:17:46Z</time>
      </trkpt>
      <trkpt lat="47.42725" lon="6.7093">
        <ele>384</ele>
        <time>2014-04-06T08:17:48Z</time>
      </trkpt>
      <trkpt lat="47.4272" lon="6.70933">
        <ele>383</ele>
        <time>2014-04-06T08:17:50Z</time>
      </trkpt>
      <trkpt lat="47.42714" lon="6.70935">
        <ele>383</ele>
        <time>2014-04-06T08:17:52Z</time>
      </trkpt>
      <trkpt lat="47.42709" lon="6.70938">
        <ele>383</ele>
        <time>2014-04-06T08:17:54Z</time>
      </trkpt>
      <trkpt lat="47.42701" lon="6.70946">
        <ele>383</ele>
        <time>2014-04-06T08:17:57Z</time>
      </trkpt>
      <trkpt lat="47.42698" lon="6.70953">
        <ele>383</ele>
        <time>2014-04-06T08:17:59Z</time>
      </trkpt>
      <trkpt lat="47.42696" lon="6.70961">
        <ele>383</ele>
        <time>2014-04-06T08:18:01Z</time>
      </trkpt>
      <trkpt lat="47.42696" lon="6.70968">
        <ele>383</ele>
        <time>2014-04-06T08:18:03Z</time>
      </trkpt>
      <trkpt lat="47.42695" lon="6.70979">
        <ele>384</ele>
        <time>2014-04-06T08:18:06Z</time>
      </trkpt>
      <trkpt lat="47.42695" lon="6.70986">
        <ele>385</ele>
        <time>2014-04-06T08:18:08Z</time>
      </trkpt>
      <trkpt lat="47.42695" lon="6.70993">
        <ele>385</ele>
        <time>2014-04-06T08:18:10Z</time>
      </trkpt>
      <trkpt lat="47.42694" lon="6.71004">
        <ele>386</ele>
        <time>2014-04-06T08:18:13Z</time>
      </trkpt>
      <trkpt lat="47.42694" lon="6.71012">
        <ele>386</ele>
        <time>2014-04-06T08:18:15Z</time>
      </trkpt>
      <trkpt lat="47.42694" lon="6.71023">
        <ele>387</ele>
        <time>2014-04-06T08:18:18Z</time>
      </trkpt>
      <trkpt lat="47.42694" lon="6.71031">
        <ele>388</ele>
        <time>2014-04-06T08:18:20Z</time>
      </trkpt>
      <trkpt lat="47.42694" lon="6.71042">
        <ele>388</ele>
        <time>2014-04-06T08:18:23Z</time>
      </trkpt>
      <trkpt lat="47.42694" lon="6.7105">
        <ele>389</ele>
        <time>2014-04-06T08:18:25Z</time>
      </trkpt>
      <trkpt lat="47.42695" lon="6.71058">
        <ele>389</ele>
        <time>2014-04-06T08:18:27Z</time>
      </trkpt>
      <trkpt lat="47.42695" lon="6.71069">
        <ele>390</ele>
        <time>2014-04-06T08:18:30Z</time>
      </trkpt>
      <trkpt lat="47.42695" lon="6.71077">
        <ele>390</ele>
        <time>2014-04-06T08:18:32Z</time>
      </trkpt>
      <trkpt lat="47.42695" lon="6.71089">
        <ele>391</ele>
        <time>2014-04-06T08:18:35Z</time>
      </trkpt>
      <trkpt lat="47.42695" lon="6.71096">
        <ele>391</ele>
        <time>2014-04-06T08:18:37Z</time>
      </trkpt>
      <trkpt lat="47.42695" lon="6.71104">
        <ele>392</ele>
        <time>2014-04-06T08:18:39Z</time>
      </trkpt>
      <trkpt lat="47.42694" lon="6.71111">
        <ele>392</ele>
        <time>2014-04-06T08:18:41Z</time>
      </trkpt>
      <trkpt lat="47.42694" lon="6.71122">
        <ele>393</ele>
        <time>2014-04-06T08:18:44Z</time>
      </trkpt>
      <trkpt lat="47.42693" lon="6.71128">
        <ele>393</ele>
        <time>2014-04-06T08:18:46Z</time>
      </trkpt>
      <trkpt lat="47.42692" lon="6.71134">
        <ele>394</ele>
        <time>2014-04-06T08:18:48Z</time>
      </trkpt>
      <trkpt lat="47.42691" lon="6.7114">
        <ele>394</ele>
        <time>2014-04-06T08:18:50Z</time>
      </trkpt>
      <trkpt lat="47.4269" lon="6.71146">
        <ele>395</ele>
        <time>2014-04-06T08:18:52Z</time>
      </trkpt>
      <trkpt lat="47.42687" lon="6.71155">
        <ele>395</ele>
        <time>2014-04-06T08:18:55Z</time>
      </trkpt>
      <trkpt lat="47.42685" lon="6.71161">
        <ele>395</ele>
        <time>2014-04-06T08:18:57Z</time>
      </trkpt>
      <trkpt lat="47.42683" lon="6.71169">
        <ele>396</ele>
        <time>2014-04-06T08:19:00Z</time>
      </trkpt>
      <trkpt lat="47.42682" lon="6.71174">
        <ele>396</ele>
        <time>2014-04-06T08:19:02Z</time>
      </trkpt>
      <trkpt lat="47.42679" lon="6.71182">
        <ele>397</ele>
        <time>2014-04-06T08:19:05Z</time>
      </trkpt>
      <trkpt lat="47.42678" lon="6.71188">
        <ele>398</ele>
        <time>2014-04-06T08:19:07Z</time>
      </trkpt>
      <trkpt lat="47.42676" lon="6.71195">
        <ele>398</ele>
        <time>2014-04-06T08:19:09Z</time>
      </trkpt>
      <trkpt lat="47.42675" lon="6.712">
        <ele>398</ele>
        <time>2014-04-06T08:19:11Z</time>
      </trkpt>
      <trkpt lat="47.42673" lon="6.71206">
        <ele>399</ele>
        <time>2014-04-06T08:19:13Z</time>
      </trkpt>
      <trkpt lat="47.4267" lon="6.71214">
        <ele>399</ele>
        <time>2014-04-06T08:19:16Z</time>
      </trkpt>
      <trkpt lat="47.42667" lon="6.71223">
        <ele>399</ele>
        <time>2014-04-06T08:19:19Z</time>
      </trkpt>
      <trkpt lat="47.42665" lon="6.71229">
        <ele>400</ele>
        <time>2014-04-06T08:19:21Z</time>
      </trkpt>
      <trkpt lat="47.42663" lon="6.71238">
        <ele>401</ele>
        <time>2014-04-06T08:19:24Z</time>
      </trkpt>
      <trkpt lat="47.42661" lon="6.71247">
        <ele>402</ele>
        <time>2014-04-06T08:19:27Z</time>
      </trkpt>
      <trkpt lat="47.42659" lon="6.71252">
        <ele>402</ele>
        <time>2014-04-06T08:19:29Z</time>
      </trkpt>
      <trkpt lat="47.42658" lon="6.71261">
        <ele>402</ele>
        <time>2014-04-06T08:19:32Z</time>
      </trkpt>
      <trkpt lat="47.42659" lon="6.71266">
        <ele>402</ele>
        <time>2014-04-06T08:19:34Z</time>
      </trkpt>
      <trkpt lat="47.42661" lon="6.71271">
        <ele>403</ele>
        <time>2014-04-06T08:19:36Z</time>
      </trkpt>
      <trkpt lat="47.42662" lon="6.71276">
        <ele>404</ele>
        <time>2014-04-06T08:19:38Z</time>
      </trkpt>
      <trkpt lat="47.42663" lon="6.71282">
        <ele>405</ele>
        <time>2014-04-06T08:19:40Z</time>
      </trkpt>
      <trkpt lat="47.42666" lon="6.71291">
        <ele>405</ele>
        <time>2014-04-06T08:19:43Z</time>
      </trkpt>
      <trkpt lat="47.42668" lon="6.71297">
        <ele>405</ele>
        <time>2014-04-06T08:19:45Z</time>
      </trkpt>
      <trkpt lat="47.42669" lon="6.71304">
        <ele>405</ele>
        <time>2014-04-06T08:19:47Z</time>
      </trkpt>
      <trkpt lat="47.42671" lon="6.71311">
        <ele>406</ele>
        <time>2014-04-06T08:19:49Z</time>
      </trkpt>
      <trkpt lat="47.42674" lon="6.71321">
        <ele>406</ele>
        <time>2014-04-06T08:19:52Z</time>
      </trkpt>
      <trkpt lat="47.42675" lon="6.71328">
        <ele>406</ele>
        <time>2014-04-06T08:19:54Z</time>
      </trkpt>
      <trkpt lat="47.42677" lon="6.71334">
        <ele>406</ele>
        <time>2014-04-06T08:19:56Z</time>
      </trkpt>
      <trkpt lat="47.4268" lon="6.71345">
        <ele>407</ele>
        <time>2014-04-06T08:19:59Z</time>
      </trkpt>
      <trkpt lat="47.42683" lon="6.71351">
        <ele>407</ele>
        <time>2014-04-06T08:20:01Z</time>
      </trkpt>
      <trkpt lat="47.42685" lon="6.71359">
        <ele>407</ele>
        <time>2014-04-06T08:20:03Z</time>
      </trkpt>
      <trkpt lat="47.42689" lon="6.71371">
        <ele>408</ele>
        <time>2014-04-06T08:20:06Z</time>
      </trkpt>
      <trkpt lat="47.42692" lon="6.71379">
        <ele>408</ele>
        <time>2014-04-06T08:20:08Z</time>
      </trkpt>
      <trkpt lat="47.42695" lon="6.71386">
        <ele>408</ele>
        <time>2014-04-06T08:20:10Z</time>
      </trkpt>
      <trkpt lat="47.42699" lon="6.71398">
        <ele>408</ele>
        <time>2014-04-06T08:20:13Z</time>
      </trkpt>
      <trkpt lat="47.42701" lon="6.71406">
        <ele>409</ele>
        <time>2014-04-06T08:20:15Z</time>
      </trkpt>
      <trkpt lat="47.42704" lon="6.71414">
        <ele>409</ele>
        <time>2014-04-06T08:20:17Z</time>
      </trkpt>
      <trkpt lat="47.42707" lon="6.71422">
        <ele>409</ele>
        <time>2014-04-06T08:20:19Z</time>
      </trkpt>
      <trkpt lat="47.42709" lon="6.7143">
        <ele>409</ele>
        <time>2014-04-06T08:20:21Z</time>
      </trkpt>
      <trkpt lat="47.42712" lon="6.71438">
        <ele>410</ele>
        <time>2014-04-06T08:20:23Z</time>
      </trkpt>
      <trkpt lat="47.42716" lon="6.7145">
        <ele>410</ele>
        <time>2014-04-06T08:20:26Z</time>
      </trkpt>
      <trkpt lat="47.42719" lon="6.71457">
        <ele>410</ele>
        <time>2014-04-06T08:20:28Z</time>
      </trkpt>
      <trkpt lat="47.42722" lon="6.71465">
        <ele>410</ele>
        <time>2014-04-06T08:20:30Z</time>
      </trkpt>
      <trkpt lat="47.42727" lon="6.71477">
        <ele>411</ele>
        <time>2014-04-06T08:20:33Z</time>
      </trkpt>
      <trkpt lat="47.4273" lon="6.71485">
        <ele>411</ele>
        <time>2014-04-06T08:20:35Z</time>
      </trkpt>
      <trkpt lat="47.42733" lon="6.71493">
        <ele>411</ele>
        <time>2014-04-06T08:20:37Z</time>
      </trkpt>
      <trkpt lat="47.42739" lon="6.71506">
        <ele>412</ele>
        <time>2014-04-06T08:20:40Z</time>
      </trkpt>
      <trkpt lat="47.42743" lon="6.71514">
        <ele>412</ele>
        <time>2014-04-06T08:20:42Z</time>
      </trkpt>
      <trkpt lat="47.42748" lon="6.71527">
        <ele>412</ele>
        <time>2014-04-06T08:20:45Z</time>
      </trkpt>
      <trkpt lat="47.42751" lon="6.71536">
        <ele>412</ele>
        <time>2014-04-06T08:20:47Z</time>
      </trkpt>
      <trkpt lat="47.42756" lon="6.7155">
        <ele>413</ele>
        <time>2014-04-06T08:20:50Z</time>
      </trkpt>
      <trkpt lat="47.42763" lon="6.71561">
        <ele>414</ele>
        <time>2014-04-06T08:20:53Z</time>
      </trkpt>
      <trkpt lat="47.42768" lon="6.71568">
        <ele>415</ele>
        <time>2014-04-06T08:20:55Z</time>
      </trkpt>
      <trkpt lat="47.42775" lon="6.71577">
        <ele>415</ele>
        <time>2014-04-06T08:20:58Z</time>
      </trkpt>
      <trkpt lat="47.42781" lon="6.71583">
        <ele>415</ele>
        <time>2014-04-06T08:21:00Z</time>
      </trkpt>
      <trkpt lat="47.42787" lon="6.71588">
        <ele>415</ele>
        <time>2014-04-06T08:21:02Z</time>
      </trkpt>
      <trkpt lat="47.42795" lon="6.71597">
        <ele>415</ele>
        <time>2014-04-06T08:21:05Z</time>
      </trkpt>
      <trkpt lat="47.42802" lon="6.71608">
        <ele>416</ele>
        <time>2014-04-06T08:21:08Z</time>
      </trkpt>
      <trkpt lat="47.4281" lon="6.7162">
        <ele>416</ele>
        <time>2014-04-06T08:21:11Z</time>
      </trkpt>
      <trkpt lat="47.42815" lon="6.71629">
        <ele>416</ele>
        <time>2014-04-06T08:21:13Z</time>
      </trkpt>
      <trkpt lat="47.42823" lon="6.7164">
        <ele>416</ele>
        <time>2014-04-06T08:21:16Z</time>
      </trkpt>
      <trkpt lat="47.42828" lon="6.71648">
        <ele>417</ele>
        <time>2014-04-06T08:21:18Z</time>
      </trkpt>
      <trkpt lat="47.42836" lon="6.71661">
        <ele>417</ele>
        <time>2014-04-06T08:21:21Z</time>
      </trkpt>
      <trkpt lat="47.42842" lon="6.71669">
        <ele>417</ele>
        <time>2014-04-06T08:21:23Z</time>
      </trkpt>
      <trkpt lat="47.42847" lon="6.71678">
        <ele>417</ele>
        <time>2014-04-06T08:21:25Z</time>
      </trkpt>
      <trkpt lat="47.42853" lon="6.71692">
        <ele>417</ele>
        <time>2014-04-06T08:21:28Z</time>
      </trkpt>
      <trkpt lat="47.42857" lon="6.717">
        <ele>417</ele>
        <time>2014-04-06T08:21:30Z</time>
      </trkpt>
      <trkpt lat="47.42861" lon="6.71709">
        <ele>417</ele>
        <time>2014-04-06T08:21:32Z</time>
      </trkpt>
      <trkpt lat="47.42867" lon="6.71723">
        <ele>418</ele>
        <time>2014-04-06T08:21:35Z</time>
      </trkpt>
      <trkpt lat="47.4287" lon="6.71732">
        <ele>418</ele>
        <time>2014-04-06T08:21:37Z</time>
      </trkpt>
      <trkpt lat="47.42874" lon="6.71741">
        <ele>419</ele>
        <time>2014-04-06T08:21:39Z</time>
      </trkpt>
      <trkpt lat="47.42877" lon="6.7175">
        <ele>419</ele>
        <time>2014-04-06T08:21:41Z</time>
      </trkpt>
      <trkpt lat="47.42881" lon="6.71759">
        <ele>419</ele>
        <time>2014-04-06T08:21:43Z</time>
      </trkpt>
      <trkpt lat="47.42887" lon="6.71773">
        <ele>419</ele>
        <time>2014-04-06T08:21:46Z</time>
      </trkpt>
      <trkpt lat="47.4289" lon="6.71782">
        <ele>419</ele>
        <time>2014-04-06T08:21:48Z</time>
      </trkpt>
      <trkpt lat="47.42895" lon="6.71791">
        <ele>420</ele>
        <time>2014-04-06T08:21:50Z</time>
      </trkpt>
      <trkpt lat="47.429" lon="6.71806">
        <ele>420</ele>
        <time>2014-04-06T08:21:53Z</time>
      </trkpt>
      <trkpt lat="47.42902" lon="6.71817">
        <ele>420</ele>
        <time>2014-04-06T08:21:55Z</time>
      </trkpt>
      <trkpt lat="47.42905" lon="6.71833">
        <ele>421</ele>
        <time>2014-04-06T08:21:58Z</time>
      </trkpt>
      <trkpt lat="47.42907" lon="6.71848">
        <ele>422</ele>
        <time>2014-04-06T08:22:01Z</time>
      </trkpt>
      <trkpt lat="47.42911" lon="6.71863">
        <ele>422</ele>
        <time>2014-04-06T08:22:04Z</time>
      </trkpt>
      <trkpt lat="47.42914" lon="6.71872">
        <ele>422</ele>
        <time>2014-04-06T08:22:06Z</time>
      </trkpt>
      <trkpt lat="47.42917" lon="6.71881">
        <ele>423</ele>
        <time>2014-04-06T08:22:08Z</time>
      </trkpt>
      <trkpt lat="47.42921" lon="6.7189">
        <ele>423</ele>
        <time>2014-04-06T08:22:10Z</time>
      </trkpt>
      <trkpt lat="47.42927" lon="6.71904">
        <ele>424</ele>
        <time>2014-04-06T08:22:13Z</time>
      </trkpt>
      <trkpt lat="47.42932" lon="6.71914">
        <ele>424</ele>
        <time>2014-04-06T08:22:15Z</time>
      </trkpt>
      <trkpt lat="47.42938" lon="6.71928">
        <ele>424</ele>
        <time>2014-04-06T08:22:18Z</time>
      </trkpt>
      <trkpt lat="47.42942" lon="6.71937">
        <ele>424</ele>
        <time>2014-04-06T08:22:20Z</time>
      </trkpt>
      <trkpt lat="47.42948" lon="6.7195">
        <ele>424</ele>
        <time>2014-04-06T08:22:23Z</time>
      </trkpt>
      <trkpt lat="47.42952" lon="6.71958">
        <ele>424</ele>
        <time>2014-04-06T08:22:25Z</time>
      </trkpt>
      <trkpt lat="47.42958" lon="6.71971">
        <ele>424</ele>
        <time>2014-04-06T08:22:28Z</time>
      </trkpt>
      <trkpt lat="47.42963" lon="6.71979">
        <ele>425</ele>
        <time>2014-04-06T08:22:30Z</time>
      </trkpt>
      <trkpt lat="47.42968" lon="6.71992">
        <ele>425</ele>
        <time>2014-04-06T08:22:33Z</time>
      </trkpt>
      <trkpt lat="47.42973" lon="6.72">
        <ele>425</ele>
        <time>2014-04-06T08:22:35Z</time>
      </trkpt>
      <trkpt lat="47.42978" lon="6.72012">
        <ele>425</ele>
        <time>2014-04-06T08:22:38Z</time>
      </trkpt>
      <trkpt lat="47.42984" lon="6.72024">
        <ele>425</ele>
        <time>2014-04-06T08:22:41Z</time>
      </trkpt>
      <trkpt lat="47.42989" lon="6.72035">
        <ele>425</ele>
        <time>2014-04-06T08:22:44Z</time>
      </trkpt>
      <trkpt lat="47.42992" lon="6.72041">
        <ele>425</ele>
        <time>2014-04-06T08:22:46Z</time>
      </trkpt>
      <trkpt lat="47.42995" lon="6.72046">
        <ele>425</ele>
        <time>2014-04-06T08:22:48Z</time>
      </trkpt>
      <trkpt lat="47.43" lon="6.72048">
        <ele>425</ele>
        <time>2014-04-06T08:22:51Z</time>
      </trkpt>
      <trkpt lat="47.43004" lon="6.72046">
        <ele>425</ele>
        <time>2014-04-06T08:22:54Z</time>
      </trkpt>
      <trkpt lat="47.43004" lon="6.72045">
        <ele>425</ele>
        <time>2014-04-06T08:22:56Z</time>
      </trkpt>
      <trkpt lat="47.43004" lon="6.72045">
        <ele>424</ele>
        <time>2014-04-06T08:23:13Z</time>
      </trkpt>
      <trkpt lat="47.43004" lon="6.72045">
        <ele>424</ele>
        <time>2014-04-06T08:23:18Z</time>
      </trkpt>
      <trkpt lat="47.43004" lon="6.72045">
        <ele>424</ele>
        <time>2014-04-06T08:23:24Z</time>
      </trkpt>
      <trkpt lat="47.43004" lon="6.72045">
        <ele>424</ele>
        <time>2014-04-06T08:23:31Z</time>
      </trkpt>
      <trkpt lat="47.43004" lon="6.72045">
        <ele>423</ele>
        <time>2014-04-06T08:23:35Z</time>
      </trkpt>
      <trkpt lat="47.43004" lon="6.72045">
        <ele>423</ele>
        <time>2014-04-06T08:23:37Z</time>
      </trkpt>
      <trkpt lat="47.43004" lon="6.72045">
        <ele>424</ele>
        <time>2014-04-06T08:23:45Z</time>
      </trkpt>
      <trkpt lat="47.43004" lon="6.72044">
        <ele>424</ele>
        <time>2014-04-06T08:23:49Z</time>
      </trkpt>
      <trkpt lat="47.43004" lon="6.72044">
        <ele>424</ele>
        <time>2014-04-06T08:23:54Z</time>
      </trkpt>
      <trkpt lat="47.43004" lon="6.72044">
        <ele>424</ele>
        <time>2014-04-06T08:23:57Z</time>
      </trkpt>
      <trkpt lat="47.43004" lon="6.72044">
        <ele>424</ele>
        <time>2014-04-06T08:24:00Z</time>
      </trkpt>
      <trkpt lat="47.43003" lon="6.72044">
        <ele>424</ele>
        <time>2014-04-06T08:24:07Z</time>
      </trkpt>
      <trkpt lat="47.43003" lon="6.72044">
        <ele>424</ele>
        <time>2014-04-06T08:24:19Z</time>
      </trkpt>
      <trkpt lat="47.43003" lon="6.72044">
        <ele>424</ele>
        <time>2014-04-06T08:24:29Z</time>
      </trkpt>
      <trkpt lat="47.43003" lon="6.72044">
        <ele>424</ele>
        <time>2014-04-06T08:24:32Z</time>
      </trkpt>
      <trkpt lat="47.43003" lon="6.72044">
        <ele>424</ele>
        <time>2014-04-06T08:24:35Z</time>
      </trkpt>
      <trkpt lat="47.43003" lon="6.72044">
        <ele>424</ele>
        <time>2014-04-06T08:24:38Z</time>
      </trkpt>
      <trkpt lat="47.43003" lon="6.72044">
        <ele>424</ele>
        <time>2014-04-06T08:24:40Z</time>
      </trkpt>
      <trkpt lat="47.43003" lon="6.72044">
        <ele>424</ele>
        <time>2014-04-06T08:24:46Z</time>
      </trkpt>
      <trkpt lat="47.43003" lon="6.72044">
        <ele>424</ele>
        <time>2014-04-06T08:24:54Z</time>
      </trkpt>
      <trkpt lat="47.43002" lon="6.72044">
        <ele>423</ele>
        <time>2014-04-06T08:25:05Z</time>
      </trkpt>
      <trkpt lat="47.43004" lon="6.72044">
        <ele>423</ele>
        <time>2014-04-06T08:25:08Z</time>
      </trkpt>
      <trkpt lat="47.43008" lon="6.72041">
        <ele>423</ele>
        <time>2014-04-06T08:25:11Z</time>
      </trkpt>
      <trkpt lat="47.43017" lon="6.72036">
        <ele>423</ele>
        <time>2014-04-06T08:25:14Z</time>
      </trkpt>
      <trkpt lat="47.43024" lon="6.7203">
        <ele>422</ele>
        <time>2014-04-06T08:25:16Z</time>
      </trkpt>
      <trkpt lat="47.43039" lon="6.72017">
        <ele>422</ele>
        <time>2014-04-06T08:25:19Z</time>
      </trkpt>
      <trkpt lat="47.43057" lon="6.72003">
        <ele>421</ele>
        <time>2014-04-06T08:25:22Z</time>
      </trkpt>
      <trkpt lat="47.4307" lon="6.71993">
        <ele>421</ele>
        <time>2014-04-06T08:25:24Z</time>
      </trkpt>
      <trkpt lat="47.43092" lon="6.71976">
        <ele>419</ele>
        <time>2014-04-06T08:25:27Z</time>
      </trkpt>
      <trkpt lat="47.43106" lon="6.71962">
        <ele>418</ele>
        <time>2014-04-06T08:25:29Z</time>
      </trkpt>
      <trkpt lat="47.43123" lon="6.71949">
        <ele>417</ele>
        <time>2014-04-06T08:25:31Z</time>
      </trkpt>
      <trkpt lat="47.43145" lon="6.71931">
        <ele>415</ele>
        <time>2014-04-06T08:25:34Z</time>
      </trkpt>
      <trkpt lat="47.43158" lon="6.71918">
        <ele>413</ele>
        <time>2014-04-06T08:25:36Z</time>
      </trkpt>
      <trkpt lat="47.43168" lon="6.71907">
        <ele>410</ele>
        <time>2014-04-06T08:25:38Z</time>
      </trkpt>
      <trkpt lat="47.43182" lon="6.71902">
        <ele>406</ele>
        <time>2014-04-06T08:25:41Z</time>
      </trkpt>
      <trkpt lat="47.43194" lon="6.71914">
        <ele>402</ele>
        <time>2014-04-06T08:25:44Z</time>
      </trkpt>
      <trkpt lat="47.43204" lon="6.71933">
        <ele>401</ele>
        <time>2014-04-06T08:25:47Z</time>
      </trkpt>
      <trkpt lat="47.43212" lon="6.71946">
        <ele>401</ele>
        <time>2014-04-06T08:25:49Z</time>
      </trkpt>
      <trkpt lat="47.4322" lon="6.71959">
        <ele>400</ele>
        <time>2014-04-06T08:25:51Z</time>
      </trkpt>
      <trkpt lat="47.43229" lon="6.71974">
        <ele>400</ele>
        <time>2014-04-06T08:25:53Z</time>
      </trkpt>
      <trkpt lat="47.43237" lon="6.71988">
        <ele>399</ele>
        <time>2014-04-06T08:25:55Z</time>
      </trkpt>
      <trkpt lat="47.43246" lon="6.72003">
        <ele>399</ele>
        <time>2014-04-06T08:25:57Z</time>
      </trkpt>
      <trkpt lat="47.43259" lon="6.72025">
        <ele>398</ele>
        <time>2014-04-06T08:26:00Z</time>
      </trkpt>
      <trkpt lat="47.43273" lon="6.72048">
        <ele>398</ele>
        <time>2014-04-06T08:26:03Z</time>
      </trkpt>
      <trkpt lat="47.43282" lon="6.72063">
        <ele>398</ele>
        <time>2014-04-06T08:26:05Z</time>
      </trkpt>
      <trkpt lat="47.43296" lon="6.72086">
        <ele>398</ele>
        <time>2014-04-06T08:26:08Z</time>
      </trkpt>
      <trkpt lat="47.4331" lon="6.72108">
        <ele>397</ele>
        <time>2014-04-06T08:26:11Z</time>
      </trkpt>
      <trkpt lat="47.43319" lon="6.72123">
        <ele>397</ele>
        <time>2014-04-06T08:26:13Z</time>
      </trkpt>
      <trkpt lat="47.43328" lon="6.72137">
        <ele>397</ele>
        <time>2014-04-06T08:26:15Z</time>
      </trkpt>
      <trkpt lat="47.43341" lon="6.72157">
        <ele>397</ele>
        <time>2014-04-06T08:26:18Z</time>
      </trkpt>
      <trkpt lat="47.43355" lon="6.72178">
        <ele>396</ele>
        <time>2014-04-06T08:26:21Z</time>
      </trkpt>
      <trkpt lat="47.43368" lon="6.72198">
        <ele>396</ele>
        <time>2014-04-06T08:26:24Z</time>
      </trkpt>
      <trkpt lat="47.43377" lon="6.72211">
        <ele>396</ele>
        <time>2014-04-06T08:26:26Z</time>
      </trkpt>
      <trkpt lat="47.4339" lon="6.72229">
        <ele>396</ele>
        <time>2014-04-06T08:26:29Z</time>
      </trkpt>
      <trkpt lat="47.43401" lon="6.72246">
        <ele>396</ele>
        <time>2014-04-06T08:26:32Z</time>
      </trkpt>
      <trkpt lat="47.43409" lon="6.72258">
        <ele>396</ele>
        <time>2014-04-06T08:26:34Z</time>
      </trkpt>
      <trkpt lat="47.43417" lon="6.72269">
        <ele>396</ele>
        <time>2014-04-06T08:26:36Z</time>
      </trkpt>
      <trkpt lat="47.43427" lon="6.72286">
        <ele>396</ele>
        <time>2014-04-06T08:26:39Z</time>
      </trkpt>
      <trkpt lat="47.43438" lon="6.72304">
        <ele>396</ele>
        <time>2014-04-06T08:26:42Z</time>
      </trkpt>
      <trkpt lat="47.43449" lon="6.72321">
        <ele>396</ele>
        <time>2014-04-06T08:26:45Z</time>
      </trkpt>
      <trkpt lat="47.43459" lon="6.72337">
        <ele>396</ele>
        <time>2014-04-06T08:26:48Z</time>
      </trkpt>
      <trkpt lat="47.43467" lon="6.72352">
        <ele>396</ele>
        <time>2014-04-06T08:26:51Z</time>
      </trkpt>
      <trkpt lat="47.43476" lon="6.72367">
        <ele>396</ele>
        <time>2014-04-06T08:26:54Z</time>
      </trkpt>
      <trkpt lat="47.43485" lon="6.72381">
        <ele>397</ele>
        <time>2014-04-06T08:26:57Z</time>
      </trkpt>
      <trkpt lat="47.43493" lon="6.72395">
        <ele>397</ele>
        <time>2014-04-06T08:27:00Z</time>
      </trkpt>
      <trkpt lat="47.43498" lon="6.72403">
        <ele>397</ele>
        <time>2014-04-06T08:27:02Z</time>
      </trkpt>
      <trkpt lat="47.43505" lon="6.72415">
        <ele>397</ele>
        <time>2014-04-06T08:27:05Z</time>
      </trkpt>
      <trkpt lat="47.4351" lon="6.72421">
        <ele>396</ele>
        <time>2014-04-06T08:27:07Z</time>
      </trkpt>
      <trkpt lat="47.43515" lon="6.72423">
        <ele>397</ele>
        <time>2014-04-06T08:27:09Z</time>
      </trkpt>
      <trkpt lat="47.43521" lon="6.72423">
        <ele>397</ele>
        <time>2014-04-06T08:27:11Z</time>
      </trkpt>
      <trkpt lat="47.43529" lon="6.72421">
        <ele>397</ele>
        <time>2014-04-06T08:27:13Z</time>
      </trkpt>
      <trkpt lat="47.43542" lon="6.72413">
        <ele>397</ele>
        <time>2014-04-06T08:27:16Z</time>
      </trkpt>
      <trkpt lat="47.43557" lon="6.72407">
        <ele>397</ele>
        <time>2014-04-06T08:27:19Z</time>
      </trkpt>
      <trkpt lat="47.43568" lon="6.72402">
        <ele>397</ele>
        <time>2014-04-06T08:27:21Z</time>
      </trkpt>
      <trkpt lat="47.43585" lon="6.72394">
        <ele>397</ele>
        <time>2014-04-06T08:27:24Z</time>
      </trkpt>
      <trkpt lat="47.43602" lon="6.72385">
        <ele>397</ele>
        <time>2014-04-06T08:27:27Z</time>
      </trkpt>
      <trkpt lat="47.43615" lon="6.72379">
        <ele>396</ele>
        <time>2014-04-06T08:27:29Z</time>
      </trkpt>
      <trkpt lat="47.43627" lon="6.72372">
        <ele>396</ele>
        <time>2014-04-06T08:27:31Z</time>
      </trkpt>
      <trkpt lat="47.43639" lon="6.72367">
        <ele>395</ele>
        <time>2014-04-06T08:27:33Z</time>
      </trkpt>
      <trkpt lat="47.43658" lon="6.72356">
        <ele>394</ele>
        <time>2014-04-06T08:27:36Z</time>
      </trkpt>
      <trkpt lat="47.4367" lon="6.72348">
        <ele>393</ele>
        <time>2014-04-06T08:27:38Z</time>
      </trkpt>
      <trkpt lat="47.43688" lon="6.72334">
        <ele>392</ele>
        <time>2014-04-06T08:27:41Z</time>
      </trkpt>
      <trkpt lat="47.43699" lon="6.72326">
        <ele>392</ele>
        <time>2014-04-06T08:27:43Z</time>
      </trkpt>
      <trkpt lat="47.43716" lon="6.72312">
        <ele>392</ele>
        <time>2014-04-06T08:27:46Z</time>
      </trkpt>
      <trkpt lat="47.43732" lon="6.72299">
        <ele>392</ele>
        <time>2014-04-06T08:27:49Z</time>
      </trkpt>
      <trkpt lat="47.43742" lon="6.72291">
        <ele>392</ele>
        <time>2014-04-06T08:27:51Z</time>
      </trkpt>
      <trkpt lat="47.43756" lon="6.7228">
        <ele>391</ele>
        <time>2014-04-06T08:27:54Z</time>
      </trkpt>
      <trkpt lat="47.43765" lon="6.72272">
        <ele>390</ele>
        <time>2014-04-06T08:27:56Z</time>
      </trkpt>
      <trkpt lat="47.43777" lon="6.72263">
        <ele>390</ele>
        <time>2014-04-06T08:27:59Z</time>
      </trkpt>
      <trkpt lat="47.43785" lon="6.72257">
        <ele>390</ele>
        <time>2014-04-06T08:28:01Z</time>
      </trkpt>
      <trkpt lat="47.43793" lon="6.7225">
        <ele>390</ele>
        <time>2014-04-06T08:28:03Z</time>
      </trkpt>
      <trkpt lat="47.438" lon="6.72244">
        <ele>390</ele>
        <time>2014-04-06T08:28:05Z</time>
      </trkpt>
      <trkpt lat="47.4381" lon="6.72235">
        <ele>390</ele>
        <time>2014-04-06T08:28:08Z</time>
      </trkpt>
      <trkpt lat="47.43815" lon="6.72228">
        <ele>390</ele>
        <time>2014-04-06T08:28:10Z</time>
      </trkpt>
      <trkpt lat="47.4382" lon="6.72223">
        <ele>390</ele>
        <time>2014-04-06T08:28:12Z</time>
      </trkpt>
      <trkpt lat="47.43825" lon="6.72218">
        <ele>389</ele>
        <time>2014-04-06T08:28:14Z</time>
      </trkpt>
      <trkpt lat="47.43831" lon="6.72211">
        <ele>390</ele>
        <time>2014-04-06T08:28:17Z</time>
      </trkpt>
      <trkpt lat="47.43835" lon="6.72205">
        <ele>389</ele>
        <time>2014-04-06T08:28:19Z</time>
      </trkpt>
      <trkpt lat="47.43839" lon="6.72199">
        <ele>389</ele>
        <time>2014-04-06T08:28:21Z</time>
      </trkpt>
      <trkpt lat="47.43844" lon="6.72194">
        <ele>389</ele>
        <time>2014-04-06T08:28:23Z</time>
      </trkpt>
      <trkpt lat="47.43851" lon="6.72187">
        <ele>389</ele>
        <time>2014-04-06T08:28:26Z</time>
      </trkpt>
      <trkpt lat="47.43859" lon="6.72179">
        <ele>389</ele>
        <time>2014-04-06T08:28:29Z</time>
      </trkpt>
      <trkpt lat="47.43864" lon="6.72174">
        <ele>389</ele>
        <time>2014-04-06T08:28:31Z</time>
      </trkpt>
      <trkpt lat="47.43869" lon="6.72168">
        <ele>389</ele>
        <time>2014-04-06T08:28:33Z</time>
      </trkpt>
      <trkpt lat="47.43875" lon="6.72163">
        <ele>389</ele>
        <time>2014-04-06T08:28:35Z</time>
      </trkpt>
      <trkpt lat="47.4388" lon="6.72158">
        <ele>389</ele>
        <time>2014-04-06T08:28:37Z</time>
      </trkpt>
      <trkpt lat="47.43886" lon="6.72153">
        <ele>389</ele>
        <time>2014-04-06T08:28:39Z</time>
      </trkpt>
      <trkpt lat="47.43895" lon="6.72146">
        <ele>389</ele>
        <time>2014-04-06T08:28:42Z</time>
      </trkpt>
      <trkpt lat="47.43903" lon="6.72139">
        <ele>389</ele>
        <time>2014-04-06T08:28:45Z</time>
      </trkpt>
      <trkpt lat="47.4391" lon="6.72131">
        <ele>390</ele>
        <time>2014-04-06T08:28:48Z</time>
      </trkpt>
      <trkpt lat="47.43915" lon="6.72125">
        <ele>390</ele>
        <time>2014-04-06T08:28:50Z</time>
      </trkpt>
      <trkpt lat="47.43921" lon="6.72115">
        <ele>390</ele>
        <time>2014-04-06T08:28:53Z</time>
      </trkpt>
      <trkpt lat="47.43924" lon="6.72107">
        <ele>391</ele>
        <time>2014-04-06T08:28:55Z</time>
      </trkpt>
      <trkpt lat="47.43927" lon="6.72099">
        <ele>391</ele>
        <time>2014-04-06T08:28:57Z</time>
      </trkpt>
      <trkpt lat="47.43929" lon="6.72086">
        <ele>392</ele>
        <time>2014-04-06T08:29:00Z</time>
      </trkpt>
      <trkpt lat="47.4393" lon="6.72077">
        <ele>392</ele>
        <time>2014-04-06T08:29:02Z</time>
      </trkpt>
      <trkpt lat="47.43929" lon="6.72068">
        <ele>392</ele>
        <time>2014-04-06T08:29:04Z</time>
      </trkpt>
      <trkpt lat="47.43928" lon="6.7206">
        <ele>392</ele>
        <time>2014-04-06T08:29:06Z</time>
      </trkpt>
      <trkpt lat="47.43926" lon="6.72051">
        <ele>392</ele>
        <time>2014-04-06T08:29:08Z</time>
      </trkpt>
      <trkpt lat="47.43924" lon="6.72037">
        <ele>392</ele>
        <time>2014-04-06T08:29:11Z</time>
      </trkpt>
      <trkpt lat="47.43922" lon="6.72027">
        <ele>392</ele>
        <time>2014-04-06T08:29:13Z</time>
      </trkpt>
      <trkpt lat="47.4392" lon="6.72017">
        <ele>392</ele>
        <time>2014-04-06T08:29:15Z</time>
      </trkpt>
      <trkpt lat="47.43916" lon="6.72002">
        <ele>393</ele>
        <time>2014-04-06T08:29:18Z</time>
      </trkpt>
      <trkpt lat="47.43914" lon="6.71991">
        <ele>392</ele>
        <time>2014-04-06T08:29:20Z</time>
      </trkpt>
      <trkpt lat="47.43911" lon="6.71975">
        <ele>393</ele>
        <time>2014-04-06T08:29:23Z</time>
      </trkpt>
      <trkpt lat="47.43908" lon="6.71964">
        <ele>393</ele>
        <time>2014-04-06T08:29:25Z</time>
      </trkpt>
      <trkpt lat="47.43906" lon="6.71952">
        <ele>393</ele>
        <time>2014-04-06T08:29:27Z</time>
      </trkpt>
      <trkpt lat="47.43903" lon="6.71935">
        <ele>393</ele>
        <time>2014-04-06T08:29:30Z</time>
      </trkpt>
      <trkpt lat="47.43901" lon="6.71922">
        <ele>393</ele>
        <time>2014-04-06T08:29:32Z</time>
      </trkpt>
      <trkpt lat="47.43897" lon="6.71904">
        <ele>393</ele>
        <time>2014-04-06T08:29:35Z</time>
      </trkpt>
      <trkpt lat="47.43894" lon="6.71891">
        <ele>394</ele>
        <time>2014-04-06T08:29:37Z</time>
      </trkpt>
      <trkpt lat="47.4389" lon="6.71872">
        <ele>394</ele>
        <time>2014-04-06T08:29:40Z</time>
      </trkpt>
      <trkpt lat="47.43887" lon="6.7186">
        <ele>394</ele>
        <time>2014-04-06T08:29:42Z</time>
      </trkpt>
      <trkpt lat="47.43882" lon="6.71841">
        <ele>394</ele>
        <time>2014-04-06T08:29:45Z</time>
      </trkpt>
      <trkpt lat="47.43879" lon="6.71829">
        <ele>394</ele>
        <time>2014-04-06T08:29:47Z</time>
      </trkpt>
      <trkpt lat="47.43875" lon="6.71818">
        <ele>394</ele>
        <time>2014-04-06T08:29:49Z</time>
      </trkpt>
      <trkpt lat="47.4387" lon="6.71801">
        <ele>394</ele>
        <time>2014-04-06T08:29:52Z</time>
      </trkpt>
      <trkpt lat="47.43866" lon="6.71791">
        <ele>394</ele>
        <time>2014-04-06T08:29:54Z</time>
      </trkpt>
      <trkpt lat="47.43861" lon="6.71775">
        <ele>394</ele>
        <time>2014-04-06T08:29:57Z</time>
      </trkpt>
      <trkpt lat="47.43858" lon="6.71766">
        <ele>395</ele>
        <time>2014-04-06T08:29:59Z</time>
      </trkpt>
      <trkpt lat="47.43855" lon="6.71752">
        <ele>395</ele>
        <time>2014-04-06T08:30:02Z</time>
      </trkpt>
      <trkpt lat="47.43852" lon="6.71743">
        <ele>395</ele>
        <time>2014-04-06T08:30:04Z</time>
      </trkpt>
      <trkpt lat="47.43848" lon="6.7173">
        <ele>395</ele>
        <time>2014-04-06T08:30:07Z</time>
      </trkpt>
      <trkpt lat="47.43844" lon="6.71716">
        <ele>395</ele>
        <time>2014-04-06T08:30:10Z</time>
      </trkpt>
      <trkpt lat="47.43841" lon="6.71705">
        <ele>395</ele>
        <time>2014-04-06T08:30:12Z</time>
      </trkpt>
      <trkpt lat="47.43838" lon="6.71695">
        <ele>395</ele>
        <time>2014-04-06T08:30:14Z</time>
      </trkpt>
      <trkpt lat="47.43837" lon="6.71686">
        <ele>395</ele>
        <time>2014-04-06T08:30:16Z</time>
      </trkpt>
      <trkpt lat="47.4384" lon="6.7168">
        <ele>395</ele>
        <time>2014-04-06T08:30:19Z</time>
      </trkpt>
      <trkpt lat="47.43842" lon="6.71677">
        <ele>394</ele>
        <time>2014-04-06T08:30:21Z</time>
      </trkpt>
      <trkpt lat="47.43846" lon="6.71675">
        <ele>394</ele>
        <time>2014-04-06T08:30:24Z</time>
      </trkpt>
      <trkpt lat="47.43848" lon="6.71674">
        <ele>395</ele>
        <time>2014-04-06T08:30:26Z</time>
      </trkpt>
      <trkpt lat="47.4385" lon="6.71674">
        <ele>395</ele>
        <time>2014-04-06T08:30:28Z</time>
      </trkpt>
      <trkpt lat="47.43853" lon="6.71675">
        <ele>395</ele>
        <time>2014-04-06T08:30:31Z</time>
      </trkpt>
      <trkpt lat="47.43856" lon="6.71676">
        <ele>396</ele>
        <time>2014-04-06T08:30:33Z</time>
      </trkpt>
      <trkpt lat="47.43858" lon="6.71676">
        <ele>396</ele>
        <time>2014-04-06T08:30:35Z</time>
      </trkpt>
      <trkpt lat="47.43863" lon="6.71679">
        <ele>396</ele>
        <time>2014-04-06T08:30:38Z</time>
      </trkpt>
      <trkpt lat="47.43867" lon="6.71682">
        <ele>396</ele>
        <time>2014-04-06T08:30:40Z</time>
      </trkpt>
      <trkpt lat="47.43871" lon="6.71683">
        <ele>396</ele>
        <time>2014-04-06T08:30:42Z</time>
      </trkpt>
      <trkpt lat="47.43875" lon="6.71687">
        <ele>397</ele>
        <time>2014-04-06T08:30:45Z</time>
      </trkpt>
      <trkpt lat="47.43878" lon="6.71687">
        <ele>397</ele>
        <time>2014-04-06T08:30:47Z</time>
      </trkpt>
      <trkpt lat="47.43882" lon="6.71688">
        <ele>397</ele>
        <time>2014-04-06T08:30:49Z</time>
      </trkpt>
      <trkpt lat="47.43886" lon="6.7169">
        <ele>397</ele>
        <time>2014-04-06T08:30:51Z</time>
      </trkpt>
      <trkpt lat="47.43891" lon="6.71694">
        <ele>398</ele>
        <time>2014-04-06T08:30:54Z</time>
      </trkpt>
      <trkpt lat="47.43895" lon="6.71696">
        <ele>398</ele>
        <time>2014-04-06T08:30:56Z</time>
      </trkpt>
      <trkpt lat="47.43901" lon="6.717">
        <ele>398</ele>
        <time>2014-04-06T08:30:59Z</time>
      </trkpt>
      <trkpt lat="47.43906" lon="6.71703">
        <ele>398</ele>
        <time>2014-04-06T08:31:02Z</time>
      </trkpt>
      <trkpt lat="47.4391" lon="6.71706">
        <ele>398</ele>
        <time>2014-04-06T08:31:04Z</time>
      </trkpt>
      <trkpt lat="47.43916" lon="6.71709">
        <ele>398</ele>
        <time>2014-04-06T08:31:07Z</time>
      </trkpt>
      <trkpt lat="47.43922" lon="6.71712">
        <ele>398</ele>
        <time>2014-04-06T08:31:10Z</time>
      </trkpt>
      <trkpt lat="47.43927" lon="6.71716">
        <ele>398</ele>
        <time>2014-04-06T08:31:13Z</time>
      </trkpt>
      <trkpt lat="47.43932" lon="6.71719">
        <ele>398</ele>
        <time>2014-04-06T08:31:16Z</time>
      </trkpt>
      <trkpt lat="47.43935" lon="6.7172">
        <ele>398</ele>
        <time>2014-04-06T08:31:18Z</time>
      </trkpt>
      <trkpt lat="47.43937" lon="6.71723">
        <ele>398</ele>
        <time>2014-04-06T08:31:20Z</time>
      </trkpt>
      <trkpt lat="47.43941" lon="6.71725">
        <ele>398</ele>
        <time>2014-04-06T08:31:22Z</time>
      </trkpt>
      <trkpt lat="47.43948" lon="6.71729">
        <ele>398</ele>
        <time>2014-04-06T08:31:25Z</time>
      </trkpt>
      <trkpt lat="47.43953" lon="6.71731">
        <ele>397</ele>
        <time>2014-04-06T08:31:27Z</time>
      </trkpt>
      <trkpt lat="47.4396" lon="6.71734">
        <ele>397</ele>
        <time>2014-04-06T08:31:29Z</time>
      </trkpt>
      <trkpt lat="47.43969" lon="6.7174">
        <ele>397</ele>
        <time>2014-04-06T08:31:32Z</time>
      </trkpt>
      <trkpt lat="47.43978" lon="6.71745">
        <ele>396</ele>
        <time>2014-04-06T08:31:34Z</time>
      </trkpt>
      <trkpt lat="47.43994" lon="6.71752">
        <ele>395</ele>
        <time>2014-04-06T08:31:37Z</time>
      </trkpt>
      <trkpt lat="47.44013" lon="6.71765">
        <ele>395</ele>
        <time>2014-04-06T08:31:40Z</time>
      </trkpt>
      <trkpt lat="47.44026" lon="6.71777">
        <ele>394</ele>
        <time>2014-04-06T08:31:42Z</time>
      </trkpt>
      <trkpt lat="47.44048" lon="6.71794">
        <ele>393</ele>
        <time>2014-04-06T08:31:44Z</time>
      </trkpt>
      <trkpt lat="47.44062" lon="6.71802">
        <ele>392</ele>
        <time>2014-04-06T08:31:47Z</time>
      </trkpt>
      <trkpt lat="47.44076" lon="6.7181">
        <ele>391</ele>
        <time>2014-04-06T08:31:49Z</time>
      </trkpt>
      <trkpt lat="47.44096" lon="6.71824">
        <ele>389</ele>
        <time>2014-04-06T08:31:52Z</time>
      </trkpt>
      <trkpt lat="47.44114" lon="6.71838">
        <ele>389</ele>
        <time>2014-04-06T08:31:55Z</time>
      </trkpt>
      <trkpt lat="47.44124" lon="6.71847">
        <ele>388</ele>
        <time>2014-04-06T08:31:57Z</time>
      </trkpt>
      <trkpt lat="47.44139" lon="6.71857">
        <ele>387</ele>
        <time>2014-04-06T08:32:00Z</time>
      </trkpt>
      <trkpt lat="47.44148" lon="6.71865">
        <ele>386</ele>
        <time>2014-04-06T08:32:02Z</time>
      </trkpt>
      <trkpt lat="47.44157" lon="6.71874">
        <ele>386</ele>
        <time>2014-04-06T08:32:04Z</time>
      </trkpt>
      <trkpt lat="47.4417" lon="6.71885">
        <ele>385</ele>
        <time>2014-04-06T08:32:07Z</time>
      </trkpt>
      <trkpt lat="47.44177" lon="6.71891">
        <ele>386</ele>
        <time>2014-04-06T08:32:09Z</time>
      </trkpt>
      <trkpt lat="47.44183" lon="6.71896">
        <ele>386</ele>
        <time>2014-04-06T08:32:11Z</time>
      </trkpt>
      <trkpt lat="47.44191" lon="6.719">
        <ele>386</ele>
        <time>2014-04-06T08:32:14Z</time>
      </trkpt>
      <trkpt lat="47.44196" lon="6.719">
        <ele>386</ele>
        <time>2014-04-06T08:32:16Z</time>
      </trkpt>
      <trkpt lat="47.44199" lon="6.71901">
        <ele>386</ele>
        <time>2014-04-06T08:32:18Z</time>
      </trkpt>
      <trkpt lat="47.44204" lon="6.71903">
        <ele>386</ele>
        <time>2014-04-06T08:32:21Z</time>
      </trkpt>
      <trkpt lat="47.44206" lon="6.71904">
        <ele>385</ele>
        <time>2014-04-06T08:32:23Z</time>
      </trkpt>
      <trkpt lat="47.44208" lon="6.71904">
        <ele>385</ele>
        <time>2014-04-06T08:32:25Z</time>
      </trkpt>
      <trkpt lat="47.44211" lon="6.71905">
        <ele>385</ele>
        <time>2014-04-06T08:32:28Z</time>
      </trkpt>
      <trkpt lat="47.44213" lon="6.71906">
        <ele>385</ele>
        <time>2014-04-06T08:32:31Z</time>
      </trkpt>
      <trkpt lat="47.44215" lon="6.71907">
        <ele>385</ele>
        <time>2014-04-06T08:32:33Z</time>
      </trkpt>
      <trkpt lat="47.44216" lon="6.71906">
        <ele>386</ele>
        <time>2014-04-06T08:32:35Z</time>
      </trkpt>
      <trkpt lat="47.4422" lon="6.71902">
        <ele>385</ele>
        <time>2014-04-06T08:32:38Z</time>
      </trkpt>
      <trkpt lat="47.44221" lon="6.719">
        <ele>385</ele>
        <time>2014-04-06T08:32:40Z</time>
      </trkpt>
      <trkpt lat="47.44222" lon="6.719">
        <ele>385</ele>
        <time>2014-04-06T08:32:42Z</time>
      </trkpt>
      <trkpt lat="47.44223" lon="6.71901">
        <ele>385</ele>
        <time>2014-04-06T08:32:44Z</time>
      </trkpt>
      <trkpt lat="47.44223" lon="6.719">
        <ele>385</ele>
        <time>2014-04-06T08:32:46Z</time>
      </trkpt>
      <trkpt lat="47.44225" lon="6.71897">
        <ele>385</ele>
        <time>2014-04-06T08:32:49Z</time>
      </trkpt>
      <trkpt lat="47.44226" lon="6.71893">
        <ele>385</ele>
        <time>2014-04-06T08:32:51Z</time>
      </trkpt>
      <trkpt lat="47.44227" lon="6.71887">
        <ele>385</ele>
        <time>2014-04-06T08:32:54Z</time>
      </trkpt>
      <trkpt lat="47.44228" lon="6.71881">
        <ele>385</ele>
        <time>2014-04-06T08:32:56Z</time>
      </trkpt>
      <trkpt lat="47.44229" lon="6.71875">
        <ele>385</ele>
        <time>2014-04-06T08:32:58Z</time>
      </trkpt>
      <trkpt lat="47.44231" lon="6.71865">
        <ele>385</ele>
        <time>2014-04-06T08:33:01Z</time>
      </trkpt>
      <trkpt lat="47.44233" lon="6.71857">
        <ele>384</ele>
        <time>2014-04-06T08:33:03Z</time>
      </trkpt>
      <trkpt lat="47.44234" lon="6.71842">
        <ele>385</ele>
        <time>2014-04-06T08:33:06Z</time>
      </trkpt>
      <trkpt lat="47.44234" lon="6.71832">
        <ele>385</ele>
        <time>2014-04-06T08:33:08Z</time>
      </trkpt>
      <trkpt lat="47.44231" lon="6.71822">
        <ele>384</ele>
        <time>2014-04-06T08:33:10Z</time>
      </trkpt>
      <trkpt lat="47.44224" lon="6.71802">
        <ele>384</ele>
        <time>2014-04-06T08:33:13Z</time>
      </trkpt>
      <trkpt lat="47.44223" lon="6.71785">
        <ele>384</ele>
        <time>2014-04-06T08:33:15Z</time>
      </trkpt>
      <trkpt lat="47.44225" lon="6.71763">
        <ele>383</ele>
        <time>2014-04-06T08:33:18Z</time>
      </trkpt>
      <trkpt lat="47.44228" lon="6.7175">
        <ele>382</ele>
        <time>2014-04-06T08:33:20Z</time>
      </trkpt>
      <trkpt lat="47.44231" lon="6.71732">
        <ele>380</ele>
        <time>2014-04-06T08:33:23Z</time>
      </trkpt>
      <trkpt lat="47.44233" lon="6.71715">
        <ele>380</ele>
        <time>2014-04-06T08:33:25Z</time>
      </trkpt>
      <trkpt lat="47.44235" lon="6.71701">
        <ele>380</ele>
        <time>2014-04-06T08:33:27Z</time>
      </trkpt>
      <trkpt lat="47.44235" lon="6.71677">
        <ele>380</ele>
        <time>2014-04-06T08:33:30Z</time>
      </trkpt>
      <trkpt lat="47.44238" lon="6.71652">
        <ele>379</ele>
        <time>2014-04-06T08:33:33Z</time>
      </trkpt>
      <trkpt lat="47.44239" lon="6.71635">
        <ele>379</ele>
        <time>2014-04-06T08:33:35Z</time>
      </trkpt>
      <trkpt lat="47.4424" lon="6.7162">
        <ele>379</ele>
        <time>2014-04-06T08:33:37Z</time>
      </trkpt>
      <trkpt lat="47.44246" lon="6.71598">
        <ele>378</ele>
        <time>2014-04-06T08:33:40Z</time>
      </trkpt>
      <trkpt lat="47.4425" lon="6.71584">
        <ele>378</ele>
        <time>2014-04-06T08:33:42Z</time>
      </trkpt>
      <trkpt lat="47.44252" lon="6.7157">
        <ele>377</ele>
        <time>2014-04-06T08:33:44Z</time>
      </trkpt>
      <trkpt lat="47.44255" lon="6.71547">
        <ele>378</ele>
        <time>2014-04-06T08:33:47Z</time>
      </trkpt>
      <trkpt lat="47.44259" lon="6.71527">
        <ele>377</ele>
        <time>2014-04-06T08:33:49Z</time>
      </trkpt>
      <trkpt lat="47.44263" lon="6.71506">
        <ele>377</ele>
        <time>2014-04-06T08:33:51Z</time>
      </trkpt>
      <trkpt lat="47.4427" lon="6.71479">
        <ele>375</ele>
        <time>2014-04-06T08:33:54Z</time>
      </trkpt>
      <trkpt lat="47.44277" lon="6.71461">
        <ele>373</ele>
        <time>2014-04-06T08:33:56Z</time>
      </trkpt>
      <trkpt lat="47.44294" lon="6.71442">
        <ele>370</ele>
        <time>2014-04-06T08:33:59Z</time>
      </trkpt>
      <trkpt lat="47.44306" lon="6.71429">
        <ele>369</ele>
        <time>2014-04-06T08:34:01Z</time>
      </trkpt>
      <trkpt lat="47.44321" lon="6.71405">
        <ele>368</ele>
        <time>2014-04-06T08:34:04Z</time>
      </trkpt>
      <trkpt lat="47.44328" lon="6.71388">
        <ele>367</ele>
        <time>2014-04-06T08:34:06Z</time>
      </trkpt>
      <trkpt lat="47.44337" lon="6.71374">
        <ele>366</ele>
        <time>2014-04-06T08:34:08Z</time>
      </trkpt>
      <trkpt lat="47.4435" lon="6.71358">
        <ele>365</ele>
        <time>2014-04-06T08:34:11Z</time>
      </trkpt>
      <trkpt lat="47.44364" lon="6.71342">
        <ele>363</ele>
        <time>2014-04-06T08:34:14Z</time>
      </trkpt>
      <trkpt lat="47.4438" lon="6.71325">
        <ele>362</ele>
        <time>2014-04-06T08:34:17Z</time>
      </trkpt>
      <trkpt lat="47.44387" lon="6.71313">
        <ele>361</ele>
        <time>2014-04-06T08:34:19Z</time>
      </trkpt>
      <trkpt lat="47.44394" lon="6.71303">
        <ele>361</ele>
        <time>2014-04-06T08:34:21Z</time>
      </trkpt>
      <trkpt lat="47.44405" lon="6.7128">
        <ele>361</ele>
        <time>2014-04-06T08:34:24Z</time>
      </trkpt>
      <trkpt lat="47.44413" lon="6.71267">
        <ele>361</ele>
        <time>2014-04-06T08:34:26Z</time>
      </trkpt>
      <trkpt lat="47.44424" lon="6.7125">
        <ele>360</ele>
        <time>2014-04-06T08:34:28Z</time>
      </trkpt>
      <trkpt lat="47.44434" lon="6.7124">
        <ele>360</ele>
        <time>2014-04-06T08:34:31Z</time>
      </trkpt>
      <trkpt lat="47.44448" lon="6.71221">
        <ele>359</ele>
        <time>2014-04-06T08:34:33Z</time>
      </trkpt>
      <trkpt lat="47.44457" lon="6.71208">
        <ele>358</ele>
        <time>2014-04-06T08:34:36Z</time>
      </trkpt>
      <trkpt lat="47.44469" lon="6.71196">
        <ele>358</ele>
        <time>2014-04-06T08:34:38Z</time>
      </trkpt>
      <trkpt lat="47.44479" lon="6.71183">
        <ele>358</ele>
        <time>2014-04-06T08:34:40Z</time>
      </trkpt>
      <trkpt lat="47.44494" lon="6.71165">
        <ele>357</ele>
        <time>2014-04-06T08:34:42Z</time>
      </trkpt>
      <trkpt lat="47.44505" lon="6.71154">
        <ele>356</ele>
        <time>2014-04-06T08:34:45Z</time>
      </trkpt>
      <trkpt lat="47.44518" lon="6.7114">
        <ele>356</ele>
        <time>2014-04-06T08:34:47Z</time>
      </trkpt>
      <trkpt lat="47.44536" lon="6.71121">
        <ele>356</ele>
        <time>2014-04-06T08:34:50Z</time>
      </trkpt>
      <trkpt lat="47.44548" lon="6.71111">
        <ele>355</ele>
        <time>2014-04-06T08:34:52Z</time>
      </trkpt>
      <trkpt lat="47.44565" lon="6.71095">
        <ele>355</ele>
        <time>2014-04-06T08:34:55Z</time>
      </trkpt>
      <trkpt lat="47.44582" lon="6.71077">
        <ele>354</ele>
        <time>2014-04-06T08:34:57Z</time>
      </trkpt>
      <trkpt lat="47.44597" lon="6.71058">
        <ele>354</ele>
        <time>2014-04-06T08:35:00Z</time>
      </trkpt>
      <trkpt lat="47.44608" lon="6.71048">
        <ele>353</ele>
        <time>2014-04-06T08:35:03Z</time>
      </trkpt>
      <trkpt lat="47.4462" lon="6.71041">
        <ele>353</ele>
        <time>2014-04-06T08:35:05Z</time>
      </trkpt>
      <trkpt lat="47.4464" lon="6.71031">
        <ele>353</ele>
        <time>2014-04-06T08:35:07Z</time>
      </trkpt>
      <trkpt lat="47.44652" lon="6.7102">
        <ele>353</ele>
        <time>2014-04-06T08:35:10Z</time>
      </trkpt>
      <trkpt lat="47.44662" lon="6.71006">
        <ele>352</ele>
        <time>2014-04-06T08:35:12Z</time>
      </trkpt>
      <trkpt lat="47.44674" lon="6.70995">
        <ele>351</ele>
        <time>2014-04-06T08:35:14Z</time>
      </trkpt>
      <trkpt lat="47.44695" lon="6.70979">
        <ele>350</ele>
        <time>2014-04-06T08:35:16Z</time>
      </trkpt>
      <trkpt lat="47.44707" lon="6.70968">
        <ele>350</ele>
        <time>2014-04-06T08:35:19Z</time>
      </trkpt>
      <trkpt lat="47.44719" lon="6.70956">
        <ele>349</ele>
        <time>2014-04-06T08:35:21Z</time>
      </trkpt>
      <trkpt lat="47.44729" lon="6.70947">
        <ele>348</ele>
        <time>2014-04-06T08:35:23Z</time>
      </trkpt>
      <trkpt lat="47.44744" lon="6.70935">
        <ele>348</ele>
        <time>2014-04-06T08:35:26Z</time>
      </trkpt>
      <trkpt lat="47.44752" lon="6.7093">
        <ele>347</ele>
        <time>2014-04-06T08:35:28Z</time>
      </trkpt>
      <trkpt lat="47.44765" lon="6.7092">
        <ele>347</ele>
        <time>2014-04-06T08:35:31Z</time>
      </trkpt>
      <trkpt lat="47.44776" lon="6.70911">
        <ele>347</ele>
        <time>2014-04-06T08:35:33Z</time>
      </trkpt>
      <trkpt lat="47.4479" lon="6.70893">
        <ele>346</ele>
        <time>2014-04-06T08:35:35Z</time>
      </trkpt>
      <trkpt lat="47.44801" lon="6.7088">
        <ele>346</ele>
        <time>2014-04-06T08:35:37Z</time>
      </trkpt>
      <trkpt lat="47.44812" lon="6.70866">
        <ele>346</ele>
        <time>2014-04-06T08:35:39Z</time>
      </trkpt>
      <trkpt lat="47.44824" lon="6.70853">
        <ele>346</ele>
        <time>2014-04-06T08:35:41Z</time>
      </trkpt>
      <trkpt lat="47.44843" lon="6.70834">
        <ele>345</ele>
        <time>2014-04-06T08:35:44Z</time>
      </trkpt>
      <trkpt lat="47.44856" lon="6.70821">
        <ele>345</ele>
        <time>2014-04-06T08:35:46Z</time>
      </trkpt>
      <trkpt lat="47.44868" lon="6.70807">
        <ele>344</ele>
        <time>2014-04-06T08:35:49Z</time>
      </trkpt>
      <trkpt lat="47.44882" lon="6.70784">
        <ele>343</ele>
        <time>2014-04-06T08:35:52Z</time>
      </trkpt>
      <trkpt lat="47.44893" lon="6.70759">
        <ele>342</ele>
        <time>2014-04-06T08:35:55Z</time>
      </trkpt>
      <trkpt lat="47.44897" lon="6.70741">
        <ele>342</ele>
        <time>2014-04-06T08:35:57Z</time>
      </trkpt>
      <trkpt lat="47.44907" lon="6.70718">
        <ele>341</ele>
        <time>2014-04-06T08:35:59Z</time>
      </trkpt>
      <trkpt lat="47.44915" lon="6.70704">
        <ele>341</ele>
        <time>2014-04-06T08:36:02Z</time>
      </trkpt>
      <trkpt lat="47.44923" lon="6.7069">
        <ele>339</ele>
        <time>2014-04-06T08:36:04Z</time>
      </trkpt>
      <trkpt lat="47.44926" lon="6.70684">
        <ele>339</ele>
        <time>2014-04-06T08:36:07Z</time>
      </trkpt>
      <trkpt lat="47.44931" lon="6.70676">
        <ele>338</ele>
        <time>2014-04-06T08:36:09Z</time>
      </trkpt>
      <trkpt lat="47.44933" lon="6.70673">
        <ele>339</ele>
        <time>2014-04-06T08:36:11Z</time>
      </trkpt>
      <trkpt lat="47.44934" lon="6.70671">
        <ele>339</ele>
        <time>2014-04-06T08:36:14Z</time>
      </trkpt>
      <trkpt lat="47.44935" lon="6.70669">
        <ele>339</ele>
        <time>2014-04-06T08:36:16Z</time>
      </trkpt>
      <trkpt lat="47.44936" lon="6.70668">
        <ele>338</ele>
        <time>2014-04-06T08:36:19Z</time>
      </trkpt>
      <trkpt lat="47.44937" lon="6.70665">
        <ele>338</ele>
        <time>2014-04-06T08:36:21Z</time>
      </trkpt>
      <trkpt lat="47.4494" lon="6.70656">
        <ele>338</ele>
        <time>2014-04-06T08:36:24Z</time>
      </trkpt>
      <trkpt lat="47.44944" lon="6.70647">
        <ele>338</ele>
        <time>2014-04-06T08:36:26Z</time>
      </trkpt>
      <trkpt lat="47.44948" lon="6.7064">
        <ele>338</ele>
        <time>2014-04-06T08:36:29Z</time>
      </trkpt>
      <trkpt lat="47.44956" lon="6.70628">
        <ele>339</ele>
        <time>2014-04-06T08:36:31Z</time>
      </trkpt>
      <trkpt lat="47.4496" lon="6.70616">
        <ele>338</ele>
        <time>2014-04-06T08:36:34Z</time>
      </trkpt>
      <trkpt lat="47.44965" lon="6.70609">
        <ele>338</ele>
        <time>2014-04-06T08:36:36Z</time>
      </trkpt>
      <trkpt lat="47.44976" lon="6.7061">
        <ele>337</ele>
        <time>2014-04-06T08:36:38Z</time>
      </trkpt>
      <trkpt lat="47.44983" lon="6.70617">
        <ele>337</ele>
        <time>2014-04-06T08:36:41Z</time>
      </trkpt>
      <trkpt lat="47.44991" lon="6.70621">
        <ele>337</ele>
        <time>2014-04-06T08:36:43Z</time>
      </trkpt>
      <trkpt lat="47.45005" lon="6.70623">
        <ele>338</ele>
        <time>2014-04-06T08:36:45Z</time>
      </trkpt>
      <trkpt lat="47.45015" lon="6.70623">
        <ele>338</ele>
        <time>2014-04-06T08:36:48Z</time>
      </trkpt>
      <trkpt lat="47.45029" lon="6.70622">
        <ele>337</ele>
        <time>2014-04-06T08:36:51Z</time>
      </trkpt>
      <trkpt lat="47.4504" lon="6.7062">
        <ele>337</ele>
        <time>2014-04-06T08:36:53Z</time>
      </trkpt>
      <trkpt lat="47.45045" lon="6.70615">
        <ele>336</ele>
        <time>2014-04-06T08:36:56Z</time>
      </trkpt>
      <trkpt lat="47.4505" lon="6.70606">
        <ele>336</ele>
        <time>2014-04-06T08:36:59Z</time>
      </trkpt>
      <trkpt lat="47.45055" lon="6.70591">
        <ele>336</ele>
        <time>2014-04-06T08:37:01Z</time>
      </trkpt>
      <trkpt lat="47.45059" lon="6.7058">
        <ele>336</ele>
        <time>2014-04-06T08:37:04Z</time>
      </trkpt>
      <trkpt lat="47.45068" lon="6.70567">
        <ele>336</ele>
        <time>2014-04-06T08:37:06Z</time>
      </trkpt>
      <trkpt lat="47.45073" lon="6.70558">
        <ele>336</ele>
        <time>2014-04-06T08:37:08Z</time>
      </trkpt>
      <trkpt lat="47.45078" lon="6.70551">
        <ele>336</ele>
        <time>2014-04-06T08:37:11Z</time>
      </trkpt>
      <trkpt lat="47.45088" lon="6.70542">
        <ele>337</ele>
        <time>2014-04-06T08:37:14Z</time>
      </trkpt>
      <trkpt lat="47.45094" lon="6.70537">
        <ele>337</ele>
        <time>2014-04-06T08:37:16Z</time>
      </trkpt>
      <trkpt lat="47.45099" lon="6.70533">
        <ele>337</ele>
        <time>2014-04-06T08:37:18Z</time>
      </trkpt>
      <trkpt lat="47.45106" lon="6.70527">
        <ele>338</ele>
        <time>2014-04-06T08:37:21Z</time>
      </trkpt>
      <trkpt lat="47.45111" lon="6.70519">
        <ele>338</ele>
        <time>2014-04-06T08:37:23Z</time>
      </trkpt>
      <trkpt lat="47.45114" lon="6.70514">
        <ele>339</ele>
        <time>2014-04-06T08:37:25Z</time>
      </trkpt>
      <trkpt lat="47.45118" lon="6.70508">
        <ele>339</ele>
        <time>2014-04-06T08:37:28Z</time>
      </trkpt>
      <trkpt lat="47.45124" lon="6.70501">
        <ele>339</ele>
        <time>2014-04-06T08:37:30Z</time>
      </trkpt>
      <trkpt lat="47.45131" lon="6.70494">
        <ele>340</ele>
        <time>2014-04-06T08:37:33Z</time>
      </trkpt>
      <trkpt lat="47.45135" lon="6.7049">
        <ele>340</ele>
        <time>2014-04-06T08:37:35Z</time>
      </trkpt>
      <trkpt lat="47.45141" lon="6.70487">
        <ele>340</ele>
        <time>2014-04-06T08:37:37Z</time>
      </trkpt>
      <trkpt lat="47.45146" lon="6.70486">
        <ele>341</ele>
        <time>2014-04-06T08:37:40Z</time>
      </trkpt>
      <trkpt lat="47.45151" lon="6.70485">
        <ele>341</ele>
        <time>2014-04-06T08:37:42Z</time>
      </trkpt>
      <trkpt lat="47.45157" lon="6.70484">
        <ele>341</ele>
        <time>2014-04-06T08:37:44Z</time>
      </trkpt>
      <trkpt lat="47.45161" lon="6.70483">
        <ele>342</ele>
        <time>2014-04-06T08:37:47Z</time>
      </trkpt>
      <trkpt lat="47.45164" lon="6.70483">
        <ele>342</ele>
        <time>2014-04-06T08:37:49Z</time>
      </trkpt>
      <trkpt lat="47.45168" lon="6.70483">
        <ele>343</ele>
        <time>2014-04-06T08:37:51Z</time>
      </trkpt>
      <trkpt lat="47.45171" lon="6.70481">
        <ele>343</ele>
        <time>2014-04-06T08:37:53Z</time>
      </trkpt>
      <trkpt lat="47.45173" lon="6.7048">
        <ele>344</ele>
        <time>2014-04-06T08:37:55Z</time>
      </trkpt>
      <trkpt lat="47.45176" lon="6.70479">
        <ele>344</ele>
        <time>2014-04-06T08:37:58Z</time>
      </trkpt>
      <trkpt lat="47.4518" lon="6.7048">
        <ele>345</ele>
        <time>2014-04-06T08:38:01Z</time>
      </trkpt>
      <trkpt lat="47.45184" lon="6.70482">
        <ele>346</ele>
        <time>2014-04-06T08:38:03Z</time>
      </trkpt>
      <trkpt lat="47.45186" lon="6.70484">
        <ele>346</ele>
        <time>2014-04-06T08:38:05Z</time>
      </trkpt>
      <trkpt lat="47.45188" lon="6.70486">
        <ele>346</ele>
        <time>2014-04-06T08:38:08Z</time>
      </trkpt>
      <trkpt lat="47.45191" lon="6.7049">
        <ele>346</ele>
        <time>2014-04-06T08:38:10Z</time>
      </trkpt>
      <trkpt lat="47.45194" lon="6.70495">
        <ele>347</ele>
        <time>2014-04-06T08:38:12Z</time>
      </trkpt>
      <trkpt lat="47.45197" lon="6.70502">
        <ele>347</ele>
        <time>2014-04-06T08:38:15Z</time>
      </trkpt>
      <trkpt lat="47.45205" lon="6.7051">
        <ele>346</ele>
        <time>2014-04-06T08:38:17Z</time>
      </trkpt>
      <trkpt lat="47.45209" lon="6.70514">
        <ele>346</ele>
        <time>2014-04-06T08:38:20Z</time>
      </trkpt>
      <trkpt lat="47.45214" lon="6.70518">
        <ele>346</ele>
        <time>2014-04-06T08:38:22Z</time>
      </trkpt>
      <trkpt lat="47.45222" lon="6.70523">
        <ele>346</ele>
        <time>2014-04-06T08:38:24Z</time>
      </trkpt>
      <trkpt lat="47.4523" lon="6.70527">
        <ele>346</ele>
        <time>2014-04-06T08:38:27Z</time>
      </trkpt>
      <trkpt lat="47.45237" lon="6.7053">
        <ele>346</ele>
        <time>2014-04-06T08:38:29Z</time>
      </trkpt>
      <trkpt lat="47.45248" lon="6.70538">
        <ele>346</ele>
        <time>2014-04-06T08:38:31Z</time>
      </trkpt>
      <trkpt lat="47.45254" lon="6.70545">
        <ele>346</ele>
        <time>2014-04-06T08:38:34Z</time>
      </trkpt>
      <trkpt lat="47.45264" lon="6.70553">
        <ele>346</ele>
        <time>2014-04-06T08:38:36Z</time>
      </trkpt>
      <trkpt lat="47.45269" lon="6.70559">
        <ele>345</ele>
        <time>2014-04-06T08:38:39Z</time>
      </trkpt>
      <trkpt lat="47.4528" lon="6.70571">
        <ele>345</ele>
        <time>2014-04-06T08:38:41Z</time>
      </trkpt>
      <trkpt lat="47.45288" lon="6.70583">
        <ele>345</ele>
        <time>2014-04-06T08:38:44Z</time>
      </trkpt>
      <trkpt lat="47.453" lon="6.70594">
        <ele>345</ele>
        <time>2014-04-06T08:38:48Z</time>
      </trkpt>
      <trkpt lat="47.45306" lon="6.706">
        <ele>345</ele>
        <time>2014-04-06T08:38:50Z</time>
      </trkpt>
      <trkpt lat="47.45314" lon="6.70611">
        <ele>345</ele>
        <time>2014-04-06T08:38:52Z</time>
      </trkpt>
      <trkpt lat="47.45318" lon="6.70616">
        <ele>345</ele>
        <time>2014-04-06T08:38:54Z</time>
      </trkpt>
      <trkpt lat="47.4532" lon="6.70622">
        <ele>346</ele>
        <time>2014-04-06T08:38:56Z</time>
      </trkpt>
      <trkpt lat="47.45324" lon="6.70628">
        <ele>345</ele>
        <time>2014-04-06T08:38:58Z</time>
      </trkpt>
      <trkpt lat="47.45328" lon="6.70634">
        <ele>345</ele>
        <time>2014-04-06T08:39:00Z</time>
      </trkpt>
      <trkpt lat="47.45332" lon="6.70641">
        <ele>345</ele>
        <time>2014-04-06T08:39:03Z</time>
      </trkpt>
      <trkpt lat="47.45338" lon="6.70654">
        <ele>344</ele>
        <time>2014-04-06T08:39:05Z</time>
      </trkpt>
      <trkpt lat="47.45341" lon="6.7066">
        <ele>344</ele>
        <time>2014-04-06T08:39:08Z</time>
      </trkpt>
      <trkpt lat="47.45346" lon="6.70673">
        <ele>344</ele>
        <time>2014-04-06T08:39:10Z</time>
      </trkpt>
      <trkpt lat="47.4535" lon="6.70683">
        <ele>344</ele>
        <time>2014-04-06T08:39:13Z</time>
      </trkpt>
      <trkpt lat="47.45355" lon="6.70695">
        <ele>344</ele>
        <time>2014-04-06T08:39:15Z</time>
      </trkpt>
      <trkpt lat="47.45364" lon="6.70714">
        <ele>344</ele>
        <time>2014-04-06T08:39:17Z</time>
      </trkpt>
      <trkpt lat="47.4537" lon="6.70726">
        <ele>344</ele>
        <time>2014-04-06T08:39:19Z</time>
      </trkpt>
      <trkpt lat="47.45377" lon="6.70738">
        <ele>344</ele>
        <time>2014-04-06T08:39:22Z</time>
      </trkpt>
      <trkpt lat="47.45385" lon="6.70751">
        <ele>344</ele>
        <time>2014-04-06T08:39:24Z</time>
      </trkpt>
      <trkpt lat="47.45396" lon="6.70773">
        <ele>344</ele>
        <time>2014-04-06T08:39:26Z</time>
      </trkpt>
      <trkpt lat="47.45402" lon="6.70785">
        <ele>344</ele>
        <time>2014-04-06T08:39:29Z</time>
      </trkpt>
      <trkpt lat="47.45411" lon="6.70798">
        <ele>343</ele>
        <time>2014-04-06T08:39:32Z</time>
      </trkpt>
      <trkpt lat="47.4542" lon="6.70815">
        <ele>342</ele>
        <time>2014-04-06T08:39:35Z</time>
      </trkpt>
      <trkpt lat="47.45432" lon="6.7083">
        <ele>341</ele>
        <time>2014-04-06T08:39:38Z</time>
      </trkpt>
      <trkpt lat="47.45438" lon="6.7084">
        <ele>340</ele>
        <time>2014-04-06T08:39:40Z</time>
      </trkpt>
      <trkpt lat="47.45441" lon="6.70843">
        <ele>340</ele>
        <time>2014-04-06T08:39:42Z</time>
      </trkpt>
      <trkpt lat="47.45444" lon="6.70847">
        <ele>340</ele>
        <time>2014-04-06T08:39:44Z</time>
      </trkpt>
      <trkpt lat="47.45446" lon="6.70851">
        <ele>339</ele>
        <time>2014-04-06T08:39:46Z</time>
      </trkpt>
      <trkpt lat="47.45448" lon="6.70854">
        <ele>339</ele>
        <time>2014-04-06T08:39:48Z</time>
      </trkpt>
      <trkpt lat="47.45452" lon="6.70858">
        <ele>339</ele>
        <time>2014-04-06T08:39:52Z</time>
      </trkpt>
      <trkpt lat="47.45457" lon="6.70864">
        <ele>339</ele>
        <time>2014-04-06T08:39:54Z</time>
      </trkpt>
      <trkpt lat="47.45463" lon="6.70868">
        <ele>339</ele>
        <time>2014-04-06T08:39:57Z</time>
      </trkpt>
      <trkpt lat="47.45469" lon="6.70875">
        <ele>339</ele>
        <time>2014-04-06T08:39:59Z</time>
      </trkpt>
      <trkpt lat="47.45476" lon="6.7088">
        <ele>339</ele>
        <time>2014-04-06T08:40:01Z</time>
      </trkpt>
      <trkpt lat="47.45483" lon="6.70883">
        <ele>340</ele>
        <time>2014-04-06T08:40:03Z</time>
      </trkpt>
      <trkpt lat="47.4549" lon="6.70887">
        <ele>340</ele>
        <time>2014-04-06T08:40:05Z</time>
      </trkpt>
      <trkpt lat="47.45504" lon="6.70887">
        <ele>340</ele>
        <time>2014-04-06T08:40:07Z</time>
      </trkpt>
      <trkpt lat="47.45512" lon="6.7089">
        <ele>340</ele>
        <time>2014-04-06T08:40:09Z</time>
      </trkpt>
      <trkpt lat="47.45522" lon="6.70898">
        <ele>340</ele>
        <time>2014-04-06T08:40:12Z</time>
      </trkpt>
      <trkpt lat="47.45528" lon="6.70903">
        <ele>340</ele>
        <time>2014-04-06T08:40:14Z</time>
      </trkpt>
      <trkpt lat="47.45535" lon="6.70911">
        <ele>340</ele>
        <time>2014-04-06T08:40:17Z</time>
      </trkpt>
      <trkpt lat="47.45543" lon="6.70917">
        <ele>340</ele>
        <time>2014-04-06T08:40:19Z</time>
      </trkpt>
      <trkpt lat="47.45552" lon="6.70924">
        <ele>340</ele>
        <time>2014-04-06T08:40:21Z</time>
      </trkpt>
      <trkpt lat="47.45562" lon="6.70928">
        <ele>340</ele>
        <time>2014-04-06T08:40:24Z</time>
      </trkpt>
      <trkpt lat="47.45574" lon="6.70936">
        <ele>341</ele>
        <time>2014-04-06T08:40:27Z</time>
      </trkpt>
      <trkpt lat="47.45588" lon="6.70941">
        <ele>341</ele>
        <time>2014-04-06T08:40:29Z</time>
      </trkpt>
      <trkpt lat="47.45597" lon="6.70942">
        <ele>342</ele>
        <time>2014-04-06T08:40:31Z</time>
      </trkpt>
      <trkpt lat="47.45606" lon="6.70939">
        <ele>342</ele>
        <time>2014-04-06T08:40:33Z</time>
      </trkpt>
      <trkpt lat="47.45618" lon="6.70931">
        <ele>342</ele>
        <time>2014-04-06T08:40:36Z</time>
      </trkpt>
      <trkpt lat="47.45627" lon="6.70927">
        <ele>341</ele>
        <time>2014-04-06T08:40:38Z</time>
      </trkpt>
      <trkpt lat="47.45634" lon="6.7092">
        <ele>341</ele>
        <time>2014-04-06T08:40:41Z</time>
      </trkpt>
      <trkpt lat="47.45646" lon="6.70913">
        <ele>341</ele>
        <time>2014-04-06T08:40:43Z</time>
      </trkpt>
      <trkpt lat="47.45654" lon="6.70903">
        <ele>340</ele>
        <time>2014-04-06T08:40:45Z</time>
      </trkpt>
      <trkpt lat="47.4566" lon="6.70895">
        <ele>340</ele>
        <time>2014-04-06T08:40:48Z</time>
      </trkpt>
      <trkpt lat="47.45669" lon="6.7088">
        <ele>339</ele>
        <time>2014-04-06T08:40:50Z</time>
      </trkpt>
      <trkpt lat="47.45678" lon="6.70861">
        <ele>339</ele>
        <time>2014-04-06T08:40:53Z</time>
      </trkpt>
      <trkpt lat="47.45681" lon="6.70849">
        <ele>339</ele>
        <time>2014-04-06T08:40:55Z</time>
      </trkpt>
      <trkpt lat="47.45688" lon="6.70836">
        <ele>338</ele>
        <time>2014-04-06T08:40:58Z</time>
      </trkpt>
      <trkpt lat="47.45692" lon="6.70827">
        <ele>337</ele>
        <time>2014-04-06T08:41:00Z</time>
      </trkpt>
      <trkpt lat="47.45697" lon="6.70812">
        <ele>336</ele>
        <time>2014-04-06T08:41:03Z</time>
      </trkpt>
      <trkpt lat="47.45699" lon="6.70799">
        <ele>336</ele>
        <time>2014-04-06T08:41:06Z</time>
      </trkpt>
      <trkpt lat="47.457" lon="6.7078">
        <ele>336</ele>
        <time>2014-04-06T08:41:08Z</time>
      </trkpt>
      <trkpt lat="47.45702" lon="6.70766">
        <ele>336</ele>
        <time>2014-04-06T08:41:10Z</time>
      </trkpt>
      <trkpt lat="47.457" lon="6.70744">
        <ele>335</ele>
        <time>2014-04-06T08:41:14Z</time>
      </trkpt>
      <trkpt lat="47.45696" lon="6.70723">
        <ele>335</ele>
        <time>2014-04-06T08:41:16Z</time>
      </trkpt>
      <trkpt lat="47.45694" lon="6.70706">
        <ele>334</ele>
        <time>2014-04-06T08:41:19Z</time>
      </trkpt>
      <trkpt lat="47.45686" lon="6.70689">
        <ele>332</ele>
        <time>2014-04-06T08:41:21Z</time>
      </trkpt>
      <trkpt lat="47.45679" lon="6.7068">
        <ele>331</ele>
        <time>2014-04-06T08:41:23Z</time>
      </trkpt>
      <trkpt lat="47.45672" lon="6.70667">
        <ele>330</ele>
        <time>2014-04-06T08:41:26Z</time>
      </trkpt>
      <trkpt lat="47.45659" lon="6.70653">
        <ele>330</ele>
        <time>2014-04-06T08:41:28Z</time>
      </trkpt>
      <trkpt lat="47.45647" lon="6.70641">
        <ele>329</ele>
        <time>2014-04-06T08:41:32Z</time>
      </trkpt>
      <trkpt lat="47.45636" lon="6.70642">
        <ele>327</ele>
        <time>2014-04-06T08:41:34Z</time>
      </trkpt>
      <trkpt lat="47.45628" lon="6.70637">
        <ele>327</ele>
        <time>2014-04-06T08:41:37Z</time>
      </trkpt>
      <trkpt lat="47.4562" lon="6.70627">
        <ele>327</ele>
        <time>2014-04-06T08:41:39Z</time>
      </trkpt>
      <trkpt lat="47.45608" lon="6.70618">
        <ele>326</ele>
        <time>2014-04-06T08:41:41Z</time>
      </trkpt>
      <trkpt lat="47.45601" lon="6.70612">
        <ele>326</ele>
        <time>2014-04-06T08:41:44Z</time>
      </trkpt>
      <trkpt lat="47.45594" lon="6.70604">
        <ele>325</ele>
        <time>2014-04-06T08:41:46Z</time>
      </trkpt>
      <trkpt lat="47.45592" lon="6.70602">
        <ele>325</ele>
        <time>2014-04-06T08:41:48Z</time>
      </trkpt>
      <trkpt lat="47.45591" lon="6.70599">
        <ele>324</ele>
        <time>2014-04-06T08:41:50Z</time>
      </trkpt>
      <trkpt lat="47.45587" lon="6.70595">
        <ele>323</ele>
        <time>2014-04-06T08:41:53Z</time>
      </trkpt>
      <trkpt lat="47.45583" lon="6.70591">
        <ele>323</ele>
        <time>2014-04-06T08:41:55Z</time>
      </trkpt>
      <trkpt lat="47.45575" lon="6.70584">
        <ele>323</ele>
        <time>2014-04-06T08:41:58Z</time>
      </trkpt>
      <trkpt lat="47.45565" lon="6.70576">
        <ele>323</ele>
        <time>2014-04-06T08:42:01Z</time>
      </trkpt>
      <trkpt lat="47.45552" lon="6.70564">
        <ele>323</ele>
        <time>2014-04-06T08:42:04Z</time>
      </trkpt>
      <trkpt lat="47.45542" lon="6.70556">
        <ele>323</ele>
        <time>2014-04-06T08:42:06Z</time>
      </trkpt>
      <trkpt lat="47.45532" lon="6.70548">
        <ele>323</ele>
        <time>2014-04-06T08:42:09Z</time>
      </trkpt>
      <trkpt lat="47.45516" lon="6.70536">
        <ele>323</ele>
        <time>2014-04-06T08:42:11Z</time>
      </trkpt>
      <trkpt lat="47.45499" lon="6.70521">
        <ele>323</ele>
        <time>2014-04-06T08:42:14Z</time>
      </trkpt>
      <trkpt lat="47.45486" lon="6.7051">
        <ele>323</ele>
        <time>2014-04-06T08:42:16Z</time>
      </trkpt>
      <trkpt lat="47.45473" lon="6.70502">
        <ele>322</ele>
        <time>2014-04-06T08:42:18Z</time>
      </trkpt>
      <trkpt lat="47.45461" lon="6.70496">
        <ele>322</ele>
        <time>2014-04-06T08:42:20Z</time>
      </trkpt>
      <trkpt lat="47.4545" lon="6.70491">
        <ele>322</ele>
        <time>2014-04-06T08:42:23Z</time>
      </trkpt>
      <trkpt lat="47.45435" lon="6.70482">
        <ele>322</ele>
        <time>2014-04-06T08:42:25Z</time>
      </trkpt>
      <trkpt lat="47.45424" lon="6.70475">
        <ele>322</ele>
        <time>2014-04-06T08:42:28Z</time>
      </trkpt>
      <trkpt lat="47.4541" lon="6.70467">
        <ele>322</ele>
        <time>2014-04-06T08:42:30Z</time>
      </trkpt>
      <trkpt lat="47.454" lon="6.70456">
        <ele>322</ele>
        <time>2014-04-06T08:42:33Z</time>
      </trkpt>
      <trkpt lat="47.45392" lon="6.70443">
        <ele>323</ele>
        <time>2014-04-06T08:42:36Z</time>
      </trkpt>
      <trkpt lat="47.45387" lon="6.70435">
        <ele>323</ele>
        <time>2014-04-06T08:42:38Z</time>
      </trkpt>
      <trkpt lat="47.45383" lon="6.70423">
        <ele>323</ele>
        <time>2014-04-06T08:42:40Z</time>
      </trkpt>
      <trkpt lat="47.4538" lon="6.7041">
        <ele>323</ele>
        <time>2014-04-06T08:42:43Z</time>
      </trkpt>
      <trkpt lat="47.45375" lon="6.70392">
        <ele>323</ele>
        <time>2014-04-06T08:42:45Z</time>
      </trkpt>
      <trkpt lat="47.45373" lon="6.7038">
        <ele>323</ele>
        <time>2014-04-06T08:42:47Z</time>
      </trkpt>
      <trkpt lat="47.4537" lon="6.70362">
        <ele>323</ele>
        <time>2014-04-06T08:42:50Z</time>
      </trkpt>
      <trkpt lat="47.45369" lon="6.70352">
        <ele>323</ele>
        <time>2014-04-06T08:42:52Z</time>
      </trkpt>
      <trkpt lat="47.45367" lon="6.70338">
        <ele>323</ele>
        <time>2014-04-06T08:42:55Z</time>
      </trkpt>
      <trkpt lat="47.45364" lon="6.70329">
        <ele>324</ele>
        <time>2014-04-06T08:42:57Z</time>
      </trkpt>
      <trkpt lat="47.45361" lon="6.70315">
        <ele>324</ele>
        <time>2014-04-06T08:43:00Z</time>
      </trkpt>
      <trkpt lat="47.45361" lon="6.70308">
        <ele>324</ele>
        <time>2014-04-06T08:43:02Z</time>
      </trkpt>
      <trkpt lat="47.45363" lon="6.70294">
        <ele>325</ele>
        <time>2014-04-06T08:43:05Z</time>
      </trkpt>
      <trkpt lat="47.45367" lon="6.70284">
        <ele>325</ele>
        <time>2014-04-06T08:43:07Z</time>
      </trkpt>
      <trkpt lat="47.4537" lon="6.70271">
        <ele>324</ele>
        <time>2014-04-06T08:43:10Z</time>
      </trkpt>
      <trkpt lat="47.45375" lon="6.70266">
        <ele>324</ele>
        <time>2014-04-06T08:43:12Z</time>
      </trkpt>
      <trkpt lat="47.45383" lon="6.70264">
        <ele>323</ele>
        <time>2014-04-06T08:43:15Z</time>
      </trkpt>
      <trkpt lat="47.4539" lon="6.70254">
        <ele>322</ele>
        <time>2014-04-06T08:43:17Z</time>
      </trkpt>
      <trkpt lat="47.45396" lon="6.70237">
        <ele>321</ele>
        <time>2014-04-06T08:43:19Z</time>
      </trkpt>
      <trkpt lat="47.45398" lon="6.70212">
        <ele>321</ele>
        <time>2014-04-06T08:43:21Z</time>
      </trkpt>
      <trkpt lat="47.45394" lon="6.70192">
        <ele>320</ele>
        <time>2014-04-06T08:43:23Z</time>
      </trkpt>
      <trkpt lat="47.4538" lon="6.70168">
        <ele>319</ele>
        <time>2014-04-06T08:43:26Z</time>
      </trkpt>
      <trkpt lat="47.45369" lon="6.70154">
        <ele>318</ele>
        <time>2014-04-06T08:43:28Z</time>
      </trkpt>
      <trkpt lat="47.45353" lon="6.70133">
        <ele>315</ele>
        <time>2014-04-06T08:43:31Z</time>
      </trkpt>
      <trkpt lat="47.45344" lon="6.70123">
        <ele>313</ele>
        <time>2014-04-06T08:43:33Z</time>
      </trkpt>
      <trkpt lat="47.45336" lon="6.70112">
        <ele>311</ele>
        <time>2014-04-06T08:43:35Z</time>
      </trkpt>
      <trkpt lat="47.45322" lon="6.70092">
        <ele>309</ele>
        <time>2014-04-06T08:43:38Z</time>
      </trkpt>
      <trkpt lat="47.45313" lon="6.70076">
        <ele>308</ele>
        <time>2014-04-06T08:43:40Z</time>
      </trkpt>
      <trkpt lat="47.45304" lon="6.70054">
        <ele>307</ele>
        <time>2014-04-06T08:43:42Z</time>
      </trkpt>
      <trkpt lat="47.45291" lon="6.70013">
        <ele>306</ele>
        <time>2014-04-06T08:43:45Z</time>
      </trkpt>
      <trkpt lat="47.45279" lon="6.69988">
        <ele>305</ele>
        <time>2014-04-06T08:43:47Z</time>
      </trkpt>
      <trkpt lat="47.45265" lon="6.69964">
        <ele>303</ele>
        <time>2014-04-06T08:43:49Z</time>
      </trkpt>
      <trkpt lat="47.45245" lon="6.69926">
        <ele>301</ele>
        <time>2014-04-06T08:43:52Z</time>
      </trkpt>
      <trkpt lat="47.45236" lon="6.69898">
        <ele>300</ele>
        <time>2014-04-06T08:43:54Z</time>
      </trkpt>
      <trkpt lat="47.45218" lon="6.69858">
        <ele>297</ele>
        <time>2014-04-06T08:43:57Z</time>
      </trkpt>
      <trkpt lat="47.45207" lon="6.69831">
        <ele>295</ele>
        <time>2014-04-06T08:43:59Z</time>
      </trkpt>
      <trkpt lat="47.45197" lon="6.69803">
        <ele>293</ele>
        <time>2014-04-06T08:44:01Z</time>
      </trkpt>
      <trkpt lat="47.45183" lon="6.69767">
        <ele>289</ele>
        <time>2014-04-06T08:44:04Z</time>
      </trkpt>
      <trkpt lat="47.45178" lon="6.69754">
        <ele>286</ele>
        <time>2014-04-06T08:44:06Z</time>
      </trkpt>
      <trkpt lat="47.45174" lon="6.69748">
        <ele>283</ele>
        <time>2014-04-06T08:44:09Z</time>
      </trkpt>
      <trkpt lat="47.45174" lon="6.69738">
        <ele>280</ele>
        <time>2014-04-06T08:44:11Z</time>
      </trkpt>
      <trkpt lat="47.45174" lon="6.69726">
        <ele>278</ele>
        <time>2014-04-06T08:44:14Z</time>
      </trkpt>
      <trkpt lat="47.45171" lon="6.69723">
        <ele>278</ele>
        <time>2014-04-06T08:44:17Z</time>
      </trkpt>
      <trkpt lat="47.45171" lon="6.69723">
        <ele>277</ele>
        <time>2014-04-06T08:44:21Z</time>
      </trkpt>
      <trkpt lat="47.45171" lon="6.69723">
        <ele>277</ele>
        <time>2014-04-06T08:44:25Z</time>
      </trkpt>
      <trkpt lat="47.45171" lon="6.69723">
        <ele>277</ele>
        <time>2014-04-06T08:44:29Z</time>
      </trkpt>
      <trkpt lat="47.45171" lon="6.69723">
        <ele>277</ele>
        <time>2014-04-06T08:44:32Z</time>
      </trkpt>
      <trkpt lat="47.45171" lon="6.69723">
        <ele>276</ele>
        <time>2014-04-06T08:44:35Z</time>
      </trkpt>
      <trkpt lat="47.45171" lon="6.69723">
        <ele>276</ele>
        <time>2014-04-06T08:44:37Z</time>
      </trkpt>
      <trkpt lat="47.4517" lon="6.69723">
        <ele>277</ele>
        <time>2014-04-06T08:44:40Z</time>
      </trkpt>
      <trkpt lat="47.4517" lon="6.69723">
        <ele>277</ele>
        <time>2014-04-06T08:44:42Z</time>
      </trkpt>
      <trkpt lat="47.4517" lon="6.69724">
        <ele>277</ele>
        <time>2014-04-06T08:44:45Z</time>
      </trkpt>
      <trkpt lat="47.4517" lon="6.69724">
        <ele>277</ele>
        <time>2014-04-06T08:44:48Z</time>
      </trkpt>
      <trkpt lat="47.4517" lon="6.69724">
        <ele>277</ele>
        <time>2014-04-06T08:44:51Z</time>
      </trkpt>
      <trkpt lat="47.4517" lon="6.69724">
        <ele>276</ele>
        <time>2014-04-06T08:44:53Z</time>
      </trkpt>
      <trkpt lat="47.4517" lon="6.69725">
        <ele>276</ele>
        <time>2014-04-06T08:44:56Z</time>
      </trkpt>
      <trkpt lat="47.4517" lon="6.69725">
        <ele>277</ele>
        <time>2014-04-06T08:44:59Z</time>
      </trkpt>
      <trkpt lat="47.4517" lon="6.69725">
        <ele>277</ele>
        <time>2014-04-06T08:45:03Z</time>
      </trkpt>
      <trkpt lat="47.4517" lon="6.69725">
        <ele>277</ele>
        <time>2014-04-06T08:45:05Z</time>
      </trkpt>
      <trkpt lat="47.4517" lon="6.69725">
        <ele>277</ele>
        <time>2014-04-06T08:45:07Z</time>
      </trkpt>
      <trkpt lat="47.4517" lon="6.69726">
        <ele>277</ele>
        <time>2014-04-06T08:45:10Z</time>
      </trkpt>
      <trkpt lat="47.4517" lon="6.69726">
        <ele>276</ele>
        <time>2014-04-06T08:45:15Z</time>
      </trkpt>
      <trkpt lat="47.45171" lon="6.69726">
        <ele>276</ele>
        <time>2014-04-06T08:45:25Z</time>
      </trkpt>
      <trkpt lat="47.45171" lon="6.69725">
        <ele>276</ele>
        <time>2014-04-06T08:45:27Z</time>
      </trkpt>
      <trkpt lat="47.45171" lon="6.69725">
        <ele>276</ele>
        <time>2014-04-06T08:45:29Z</time>
      </trkpt>
      <trkpt lat="47.45171" lon="6.69725">
        <ele>277</ele>
        <time>2014-04-06T08:45:36Z</time>
      </trkpt>
      <trkpt lat="47.45171" lon="6.69725">
        <ele>276</ele>
        <time>2014-04-06T08:45:42Z</time>
      </trkpt>
      <trkpt lat="47.45171" lon="6.69725">
        <ele>276</ele>
        <time>2014-04-06T08:45:51Z</time>
      </trkpt>
      <trkpt lat="47.45171" lon="6.69725">
        <ele>277</ele>
        <time>2014-04-06T08:45:54Z</time>
      </trkpt>
      <trkpt lat="47.45171" lon="6.69725">
        <ele>276</ele>
        <time>2014-04-06T08:45:57Z</time>
      </trkpt>
      <trkpt lat="47.45171" lon="6.69726">
        <ele>276</ele>
        <time>2014-04-06T08:46:05Z</time>
      </trkpt>
      <trkpt lat="47.4517" lon="6.69726">
        <ele>276</ele>
        <time>2014-04-06T08:46:12Z</time>
      </trkpt>
      <trkpt lat="47.4517" lon="6.69726">
        <ele>276</ele>
        <time>2014-04-06T08:46:18Z</time>
      </trkpt>
      <trkpt lat="47.4517" lon="6.69726">
        <ele>277</ele>
        <time>2014-04-06T08:46:23Z</time>
      </trkpt>
      <trkpt lat="47.4517" lon="6.69726">
        <ele>277</ele>
        <time>2014-04-06T08:46:34Z</time>
      </trkpt>
      <trkpt lat="47.4517" lon="6.69726">
        <ele>276</ele>
        <time>2014-04-06T08:46:46Z</time>
      </trkpt>
      <trkpt lat="47.4517" lon="6.69726">
        <ele>276</ele>
        <time>2014-04-06T08:46:48Z</time>
      </trkpt>
      <trkpt lat="47.4517" lon="6.69726">
        <ele>276</ele>
        <time>2014-04-06T08:46:56Z</time>
      </trkpt>
      <trkpt lat="47.4517" lon="6.69726">
        <ele>276</ele>
        <time>2014-04-06T08:47:01Z</time>
      </trkpt>
      <trkpt lat="47.45169" lon="6.69726">
        <ele>277</ele>
        <time>2014-04-06T08:47:08Z</time>
      </trkpt>
      <trkpt lat="47.45169" lon="6.69726">
        <ele>276</ele>
        <time>2014-04-06T08:47:16Z</time>
      </trkpt>
      <trkpt lat="47.45169" lon="6.69726">
        <ele>276</ele>
        <time>2014-04-06T08:47:26Z</time>
      </trkpt>
      <trkpt lat="47.45169" lon="6.69726">
        <ele>276</ele>
        <time>2014-04-06T08:47:30Z</time>
      </trkpt>
      <trkpt lat="47.45169" lon="6.69727">
        <ele>277</ele>
        <time>2014-04-06T08:47:41Z</time>
      </trkpt>
      <trkpt lat="47.45169" lon="6.69727">
        <ele>277</ele>
        <time>2014-04-06T08:47:46Z</time>
      </trkpt>
      <trkpt lat="47.45169" lon="6.69727">
        <ele>277</ele>
        <time>2014-04-06T08:47:53Z</time>
      </trkpt>
      <trkpt lat="47.45169" lon="6.69727">
        <ele>277</ele>
        <time>2014-04-06T08:47:56Z</time>
      </trkpt>
      <trkpt lat="47.45169" lon="6.69727">
        <ele>277</ele>
        <time>2014-04-06T08:47:59Z</time>
      </trkpt>
      <trkpt lat="47.45169" lon="6.69726">
        <ele>277</ele>
        <time>2014-04-06T08:48:01Z</time>
      </trkpt>
      <trkpt lat="47.45169" lon="6.69726">
        <ele>276</ele>
        <time>2014-04-06T08:48:03Z</time>
      </trkpt>
      <trkpt lat="47.4517" lon="6.69726">
        <ele>276</ele>
        <time>2014-04-06T08:48:05Z</time>
      </trkpt>
      <trkpt lat="47.4517" lon="6.69726">
        <ele>276</ele>
        <time>2014-04-06T08:48:08Z</time>
      </trkpt>
      <trkpt lat="47.4517" lon="6.69725">
        <ele>277</ele>
        <time>2014-04-06T08:48:11Z</time>
      </trkpt>
      <trkpt lat="47.45171" lon="6.69725">
        <ele>277</ele>
        <time>2014-04-06T08:48:13Z</time>
      </trkpt>
      <trkpt lat="47.45171" lon="6.69724">
        <ele>277</ele>
        <time>2014-04-06T08:48:16Z</time>
      </trkpt>
      <trkpt lat="47.45172" lon="6.69724">
        <ele>276</ele>
        <time>2014-04-06T08:48:19Z</time>
      </trkpt>
      <trkpt lat="47.45172" lon="6.69724">
        <ele>276</ele>
        <time>2014-04-06T08:48:21Z</time>
      </trkpt>
      <trkpt lat="47.45173" lon="6.69723">
        <ele>276</ele>
        <time>2014-04-06T08:48:24Z</time>
      </trkpt>
      <trkpt lat="47.45173" lon="6.69723">
        <ele>277</ele>
        <time>2014-04-06T08:48:27Z</time>
      </trkpt>
      <trkpt lat="47.45174" lon="6.69722">
        <ele>277</ele>
        <time>2014-04-06T08:48:30Z</time>
      </trkpt>
      <trkpt lat="47.45174" lon="6.69722">
        <ele>277</ele>
        <time>2014-04-06T08:48:33Z</time>
      </trkpt>
      <trkpt lat="47.45174" lon="6.69722">
        <ele>276</ele>
        <time>2014-04-06T08:48:35Z</time>
      </trkpt>
      <trkpt lat="47.45174" lon="6.69722">
        <ele>276</ele>
        <time>2014-04-06T08:48:37Z</time>
      </trkpt>
      <trkpt lat="47.45174" lon="6.69722">
        <ele>277</ele>
        <time>2014-04-06T08:48:40Z</time>
      </trkpt>
      <trkpt lat="47.45175" lon="6.69722">
        <ele>277</ele>
        <time>2014-04-06T08:48:42Z</time>
      </trkpt>
      <trkpt lat="47.45175" lon="6.69721">
        <ele>277</ele>
        <time>2014-04-06T08:48:46Z</time>
      </trkpt>
      <trkpt lat="47.45175" lon="6.69721">
        <ele>276</ele>
        <time>2014-04-06T08:48:51Z</time>
      </trkpt>
      <trkpt lat="47.45174" lon="6.69721">
        <ele>276</ele>
        <time>2014-04-06T08:48:55Z</time>
      </trkpt>
      <trkpt lat="47.45174" lon="6.69721">
        <ele>276</ele>
        <time>2014-04-06T08:49:00Z</time>
      </trkpt>
      <trkpt lat="47.45174" lon="6.69721">
        <ele>276</ele>
        <time>2014-04-06T08:49:03Z</time>
      </trkpt>
      <trkpt lat="47.45174" lon="6.69721">
        <ele>277</ele>
        <time>2014-04-06T08:49:05Z</time>
      </trkpt>
      <trkpt lat="47.45174" lon="6.69721">
        <ele>277</ele>
        <time>2014-04-06T08:49:07Z</time>
      </trkpt>
      <trkpt lat="47.45174" lon="6.69721">
        <ele>277</ele>
        <time>2014-04-06T08:49:09Z</time>
      </trkpt>
      <trkpt lat="47.45174" lon="6.6972">
        <ele>276</ele>
        <time>2014-04-06T08:49:12Z</time>
      </trkpt>
      <trkpt lat="47.45174" lon="6.6972">
        <ele>276</ele>
        <time>2014-04-06T08:49:14Z</time>
      </trkpt>
      <trkpt lat="47.45174" lon="6.6972">
        <ele>276</ele>
        <time>2014-04-06T08:49:17Z</time>
      </trkpt>
      <trkpt lat="47.45174" lon="6.6972">
        <ele>276</ele>
        <time>2014-04-06T08:49:20Z</time>
      </trkpt>
      <trkpt lat="47.45174" lon="6.6972">
        <ele>276</ele>
        <time>2014-04-06T08:49:26Z</time>
      </trkpt>
      <trkpt lat="47.45173" lon="6.6972">
        <ele>276</ele>
        <time>2014-04-06T08:49:33Z</time>
      </trkpt>
      <trkpt lat="47.45173" lon="6.6972">
        <ele>276</ele>
        <time>2014-04-06T08:49:41Z</time>
      </trkpt>
      <trkpt lat="47.45173" lon="6.6972">
        <ele>276</ele>
        <time>2014-04-06T08:49:43Z</time>
      </trkpt>
      <trkpt lat="47.45173" lon="6.6972">
        <ele>276</ele>
        <time>2014-04-06T08:49:48Z</time>
      </trkpt>
      <trkpt lat="47.45173" lon="6.6972">
        <ele>276</ele>
        <time>2014-04-06T08:49:51Z</time>
      </trkpt>
      <trkpt lat="47.45173" lon="6.6972">
        <ele>276</ele>
        <time>2014-04-06T08:49:56Z</time>
      </trkpt>
      <trkpt lat="47.45173" lon="6.6972">
        <ele>276</ele>
        <time>2014-04-06T08:50:03Z</time>
      </trkpt>
      <trkpt lat="47.45173" lon="6.6972">
        <ele>277</ele>
        <time>2014-04-06T08:50:12Z</time>
      </trkpt>
      <trkpt lat="47.45173" lon="6.6972">
        <ele>276</ele>
        <time>2014-04-06T08:50:15Z</time>
      </trkpt>
      <trkpt lat="47.45173" lon="6.69721">
        <ele>276</ele>
        <time>2014-04-06T08:50:21Z</time>
      </trkpt>
      <trkpt lat="47.45173" lon="6.69721">
        <ele>276</ele>
        <time>2014-04-06T08:50:28Z</time>
      </trkpt>
      <trkpt lat="47.45173" lon="6.69721">
        <ele>276</ele>
        <time>2014-04-06T08:50:30Z</time>
      </trkpt>
      <trkpt lat="47.45173" lon="6.69721">
        <ele>276</ele>
        <time>2014-04-06T08:50:33Z</time>
      </trkpt>
      <trkpt lat="47.45173" lon="6.69721">
        <ele>276</ele>
        <time>2014-04-06T08:50:36Z</time>
      </trkpt>
      <trkpt lat="47.45173" lon="6.69721">
        <ele>276</ele>
        <time>2014-04-06T08:50:38Z</time>
      </trkpt>
      <trkpt lat="47.45173" lon="6.69722">
        <ele>276</ele>
        <time>2014-04-06T08:50:41Z</time>
      </trkpt>
      <trkpt lat="47.45173" lon="6.69722">
        <ele>276</ele>
        <time>2014-04-06T08:50:46Z</time>
      </trkpt>
      <trkpt lat="47.45173" lon="6.69722">
        <ele>276</ele>
        <time>2014-04-06T08:50:48Z</time>
      </trkpt>
      <trkpt lat="47.45173" lon="6.69722">
        <ele>276</ele>
        <time>2014-04-06T08:50:51Z</time>
      </trkpt>
      <trkpt lat="47.45173" lon="6.69722">
        <ele>276</ele>
        <time>2014-04-06T08:50:53Z</time>
      </trkpt>
      <trkpt lat="47.45173" lon="6.69722">
        <ele>276</ele>
        <time>2014-04-06T08:50:55Z</time>
      </trkpt>
      <trkpt lat="47.45173" lon="6.69723">
        <ele>276</ele>
        <time>2014-04-06T08:50:59Z</time>
      </trkpt>
      <trkpt lat="47.45173" lon="6.69723">
        <ele>276</ele>
        <time>2014-04-06T08:51:02Z</time>
      </trkpt>
      <trkpt lat="47.45173" lon="6.69723">
        <ele>277</ele>
        <time>2014-04-06T08:51:05Z</time>
      </trkpt>
      <trkpt lat="47.45174" lon="6.69723">
        <ele>277</ele>
        <time>2014-04-06T08:51:07Z</time>
      </trkpt>
      <trkpt lat="47.45174" lon="6.69723">
        <ele>277</ele>
        <time>2014-04-06T08:51:11Z</time>
      </trkpt>
      <trkpt lat="47.45174" lon="6.69723">
        <ele>277</ele>
        <time>2014-04-06T08:51:13Z</time>
      </trkpt>
      <trkpt lat="47.45174" lon="6.69723">
        <ele>276</ele>
        <time>2014-04-06T08:51:17Z</time>
      </trkpt>
      <trkpt lat="47.45175" lon="6.69723">
        <ele>276</ele>
        <time>2014-04-06T08:51:20Z</time>
      </trkpt>
      <trkpt lat="47.45175" lon="6.69723">
        <ele>277</ele>
        <time>2014-04-06T08:51:22Z</time>
      </trkpt>
      <trkpt lat="47.45176" lon="6.69723">
        <ele>277</ele>
        <time>2014-04-06T08:51:25Z</time>
      </trkpt>
      <trkpt lat="47.45176" lon="6.69722">
        <ele>276</ele>
        <time>2014-04-06T08:51:27Z</time>
      </trkpt>
      <trkpt lat="47.45177" lon="6.69722">
        <ele>276</ele>
        <time>2014-04-06T08:51:30Z</time>
      </trkpt>
      <trkpt lat="47.45177" lon="6.69722">
        <ele>277</ele>
        <time>2014-04-06T08:51:32Z</time>
      </trkpt>
      <trkpt lat="47.45178" lon="6.69721">
        <ele>276</ele>
        <time>2014-04-06T08:51:35Z</time>
      </trkpt>
      <trkpt lat="47.45178" lon="6.69721">
        <ele>276</ele>
        <time>2014-04-06T08:51:38Z</time>
      </trkpt>
      <trkpt lat="47.45179" lon="6.69721">
        <ele>277</ele>
        <time>2014-04-06T08:51:41Z</time>
      </trkpt>
      <trkpt lat="47.45179" lon="6.69721">
        <ele>277</ele>
        <time>2014-04-06T08:51:43Z</time>
      </trkpt>
      <trkpt lat="47.45179" lon="6.69721">
        <ele>277</ele>
        <time>2014-04-06T08:51:46Z</time>
      </trkpt>
      <trkpt lat="47.45179" lon="6.69722">
        <ele>276</ele>
        <time>2014-04-06T08:51:50Z</time>
      </trkpt>
      <trkpt lat="47.45179" lon="6.69722">
        <ele>277</ele>
        <time>2014-04-06T08:51:53Z</time>
      </trkpt>
      <trkpt lat="47.45178" lon="6.69722">
        <ele>276</ele>
        <time>2014-04-06T08:51:55Z</time>
      </trkpt>
      <trkpt lat="47.45178" lon="6.69723">
        <ele>277</ele>
        <time>2014-04-06T08:51:58Z</time>
      </trkpt>
      <trkpt lat="47.45178" lon="6.69723">
        <ele>277</ele>
        <time>2014-04-06T08:52:00Z</time>
      </trkpt>
      <trkpt lat="47.45178" lon="6.69723">
        <ele>276</ele>
        <time>2014-04-06T08:52:02Z</time>
      </trkpt>
      <trkpt lat="47.45177" lon="6.69724">
        <ele>277</ele>
        <time>2014-04-06T08:52:04Z</time>
      </trkpt>
      <trkpt lat="47.45177" lon="6.69724">
        <ele>277</ele>
        <time>2014-04-06T08:52:07Z</time>
      </trkpt>
      <trkpt lat="47.45177" lon="6.69724">
        <ele>277</ele>
        <time>2014-04-06T08:52:09Z</time>
      </trkpt>
      <trkpt lat="47.45176" lon="6.69725">
        <ele>277</ele>
        <time>2014-04-06T08:52:12Z</time>
      </trkpt>
      <trkpt lat="47.45176" lon="6.69725">
        <ele>277</ele>
        <time>2014-04-06T08:52:14Z</time>
      </trkpt>
      <trkpt lat="47.45176" lon="6.69725">
        <ele>277</ele>
        <time>2014-04-06T08:52:17Z</time>
      </trkpt>
      <trkpt lat="47.45176" lon="6.69726">
        <ele>276</ele>
        <time>2014-04-06T08:52:20Z</time>
      </trkpt>
      <trkpt lat="47.45175" lon="6.69726">
        <ele>276</ele>
        <time>2014-04-06T08:52:23Z</time>
      </trkpt>
      <trkpt lat="47.45175" lon="6.69726">
        <ele>277</ele>
        <time>2014-04-06T08:52:26Z</time>
      </trkpt>
      <trkpt lat="47.45175" lon="6.69727">
        <ele>276</ele>
        <time>2014-04-06T08:52:28Z</time>
      </trkpt>
      <trkpt lat="47.45174" lon="6.69727">
        <ele>276</ele>
        <time>2014-04-06T08:52:32Z</time>
      </trkpt>
      <trkpt lat="47.45174" lon="6.69727">
        <ele>276</ele>
        <time>2014-04-06T08:52:34Z</time>
      </trkpt>
      <trkpt lat="47.45174" lon="6.69727">
        <ele>276</ele>
        <time>2014-04-06T08:52:36Z</time>
      </trkpt>
      <trkpt lat="47.45174" lon="6.69727">
        <ele>276</ele>
        <time>2014-04-06T08:52:39Z</time>
      </trkpt>
      <trkpt lat="47.45174" lon="6.69728">
        <ele>276</ele>
        <time>2014-04-06T08:52:42Z</time>
      </trkpt>
      <trkpt lat="47.45173" lon="6.69728">
        <ele>276</ele>
        <time>2014-04-06T08:52:44Z</time>
      </trkpt>
      <trkpt lat="47.45173" lon="6.69728">
        <ele>277</ele>
        <time>2014-04-06T08:52:47Z</time>
      </trkpt>
      <trkpt lat="47.45173" lon="6.69728">
        <ele>276</ele>
        <time>2014-04-06T08:52:50Z</time>
      </trkpt>
      <trkpt lat="47.45173" lon="6.69728">
        <ele>277</ele>
        <time>2014-04-06T08:52:54Z</time>
      </trkpt>
      <trkpt lat="47.45173" lon="6.69728">
        <ele>276</ele>
        <time>2014-04-06T08:52:57Z</time>
      </trkpt>
      <trkpt lat="47.45173" lon="6.69728">
        <ele>277</ele>
        <time>2014-04-06T08:53:11Z</time>
      </trkpt>
      <trkpt lat="47.45173" lon="6.69728">
        <ele>277</ele>
        <time>2014-04-06T08:53:16Z</time>
      </trkpt>
      <trkpt lat="47.45173" lon="6.69728">
        <ele>277</ele>
        <time>2014-04-06T08:53:21Z</time>
      </trkpt>
      <trkpt lat="47.45173" lon="6.69728">
        <ele>277</ele>
        <time>2014-04-06T08:53:27Z</time>
      </trkpt>
      <trkpt lat="47.45173" lon="6.69728">
        <ele>277</ele>
        <time>2014-04-06T08:53:35Z</time>
      </trkpt>
      <trkpt lat="47.45173" lon="6.69728">
        <ele>277</ele>
        <time>2014-04-06T08:53:38Z</time>
      </trkpt>
      <trkpt lat="47.45173" lon="6.69728">
        <ele>277</ele>
        <time>2014-04-06T08:53:42Z</time>
      </trkpt>
      <trkpt lat="47.45173" lon="6.69727">
        <ele>277</ele>
        <time>2014-04-06T08:53:49Z</time>
      </trkpt>
      <trkpt lat="47.45173" lon="6.69728">
        <ele>277</ele>
        <time>2014-04-06T08:53:53Z</time>
      </trkpt>
      <trkpt lat="47.45173" lon="6.69727">
        <ele>276</ele>
        <time>2014-04-06T08:53:58Z</time>
      </trkpt>
      <trkpt lat="47.45173" lon="6.69727">
        <ele>276</ele>
        <time>2014-04-06T08:54:02Z</time>
      </trkpt>
      <trkpt lat="47.45172" lon="6.69727">
        <ele>276</ele>
        <time>2014-04-06T08:54:07Z</time>
      </trkpt>
      <trkpt lat="47.45173" lon="6.69727">
        <ele>277</ele>
        <time>2014-04-06T08:54:09Z</time>
      </trkpt>
      <trkpt lat="47.45172" lon="6.69727">
        <ele>277</ele>
        <time>2014-04-06T08:54:14Z</time>
      </trkpt>
      <trkpt lat="47.45172" lon="6.69727">
        <ele>277</ele>
        <time>2014-04-06T08:54:17Z</time>
      </trkpt>
      <trkpt lat="47.45172" lon="6.69727">
        <ele>277</ele>
        <time>2014-04-06T08:54:23Z</time>
      </trkpt>
      <trkpt lat="47.45172" lon="6.69727">
        <ele>277</ele>
        <time>2014-04-06T08:54:28Z</time>
      </trkpt>
      <trkpt lat="47.45172" lon="6.69726">
        <ele>277</ele>
        <time>2014-04-06T08:54:36Z</time>
      </trkpt>
      <trkpt lat="47.45172" lon="6.69726">
        <ele>277</ele>
        <time>2014-04-06T08:54:41Z</time>
      </trkpt>
      <trkpt lat="47.45172" lon="6.69726">
        <ele>277</ele>
        <time>2014-04-06T08:54:45Z</time>
      </trkpt>
      <trkpt lat="47.45172" lon="6.69726">
        <ele>277</ele>
        <time>2014-04-06T08:54:48Z</time>
      </trkpt>
      <trkpt lat="47.45172" lon="6.69726">
        <ele>277</ele>
        <time>2014-04-06T08:54:51Z</time>
      </trkpt>
      <trkpt lat="47.45172" lon="6.69726">
        <ele>277</ele>
        <time>2014-04-06T08:54:57Z</time>
      </trkpt>
      <trkpt lat="47.45173" lon="6.69726">
        <ele>277</ele>
        <time>2014-04-06T08:55:06Z</time>
      </trkpt>
      <trkpt lat="47.45173" lon="6.69725">
        <ele>277</ele>
        <time>2014-04-06T08:55:13Z</time>
      </trkpt>
      <trkpt lat="47.45173" lon="6.69725">
        <ele>277</ele>
        <time>2014-04-06T08:55:19Z</time>
      </trkpt>
      <trkpt lat="47.45173" lon="6.69726">
        <ele>277</ele>
        <time>2014-04-06T08:55:22Z</time>
      </trkpt>
      <trkpt lat="47.45173" lon="6.69726">
        <ele>277</ele>
        <time>2014-04-06T08:55:25Z</time>
      </trkpt>
      <trkpt lat="47.45173" lon="6.69726">
        <ele>277</ele>
        <time>2014-04-06T08:55:29Z</time>
      </trkpt>
      <trkpt lat="47.45173" lon="6.69725">
        <ele>277</ele>
        <time>2014-04-06T08:55:32Z</time>
      </trkpt>
      <trkpt lat="47.45173" lon="6.69725">
        <ele>277</ele>
        <time>2014-04-06T08:55:35Z</time>
      </trkpt>
      <trkpt lat="47.45173" lon="6.69725">
        <ele>277</ele>
        <time>2014-04-06T08:55:46Z</time>
      </trkpt>
      <trkpt lat="47.45173" lon="6.69726">
        <ele>277</ele>
        <time>2014-04-06T08:55:51Z</time>
      </trkpt>
      <trkpt lat="47.45173" lon="6.69726">
        <ele>277</ele>
        <time>2014-04-06T08:55:55Z</time>
      </trkpt>
      <trkpt lat="47.45173" lon="6.69726">
        <ele>277</ele>
        <time>2014-04-06T08:55:59Z</time>
      </trkpt>
      <trkpt lat="47.45173" lon="6.69726">
        <ele>277</ele>
        <time>2014-04-06T08:56:04Z</time>
      </trkpt>
      <trkpt lat="47.45173" lon="6.69726">
        <ele>277</ele>
        <time>2014-04-06T08:56:11Z</time>
      </trkpt>
      <trkpt lat="47.45173" lon="6.69726">
        <ele>277</ele>
        <time>2014-04-06T08:56:13Z</time>
      </trkpt>
      <trkpt lat="47.45173" lon="6.69725">
        <ele>276</ele>
        <time>2014-04-06T08:56:18Z</time>
      </trkpt>
      <trkpt lat="47.45173" lon="6.69725">
        <ele>277</ele>
        <time>2014-04-06T08:56:21Z</time>
      </trkpt>
      <trkpt lat="47.45173" lon="6.69725">
        <ele>277</ele>
        <time>2014-04-06T08:56:24Z</time>
      </trkpt>
      <trkpt lat="47.45173" lon="6.69725">
        <ele>277</ele>
        <time>2014-04-06T08:56:32Z</time>
      </trkpt>
      <trkpt lat="47.45173" lon="6.69724">
        <ele>277</ele>
        <time>2014-04-06T08:56:37Z</time>
      </trkpt>
      <trkpt lat="47.45173" lon="6.69724">
        <ele>277</ele>
        <time>2014-04-06T08:56:41Z</time>
      </trkpt>
      <trkpt lat="47.45173" lon="6.69724">
        <ele>277</ele>
        <time>2014-04-06T08:56:45Z</time>
      </trkpt>
      <trkpt lat="47.45174" lon="6.69724">
        <ele>277</ele>
        <time>2014-04-06T08:56:48Z</time>
      </trkpt>
      <trkpt lat="47.45174" lon="6.69724">
        <ele>277</ele>
        <time>2014-04-06T08:56:52Z</time>
      </trkpt>
      <trkpt lat="47.45174" lon="6.69724">
        <ele>277</ele>
        <time>2014-04-06T08:56:55Z</time>
      </trkpt>
      <trkpt lat="47.45174" lon="6.69724">
        <ele>277</ele>
        <time>2014-04-06T08:56:58Z</time>
      </trkpt>
      <trkpt lat="47.45174" lon="6.69724">
        <ele>277</ele>
        <time>2014-04-06T08:57:01Z</time>
      </trkpt>
      <trkpt lat="47.45174" lon="6.69724">
        <ele>277</ele>
        <time>2014-04-06T08:57:05Z</time>
      </trkpt>
      <trkpt lat="47.45174" lon="6.69723">
        <ele>277</ele>
        <time>2014-04-06T08:57:09Z</time>
      </trkpt>
      <trkpt lat="47.45175" lon="6.69723">
        <ele>277</ele>
        <time>2014-04-06T08:57:12Z</time>
      </trkpt>
      <trkpt lat="47.45175" lon="6.69723">
        <ele>277</ele>
        <time>2014-04-06T08:57:16Z</time>
      </trkpt>
      <trkpt lat="47.45175" lon="6.69723">
        <ele>277</ele>
        <time>2014-04-06T08:57:18Z</time>
      </trkpt>
      <trkpt lat="47.45175" lon="6.69723">
        <ele>278</ele>
        <time>2014-04-06T08:57:21Z</time>
      </trkpt>
      <trkpt lat="47.45175" lon="6.69723">
        <ele>278</ele>
        <time>2014-04-06T08:57:27Z</time>
      </trkpt>
      <trkpt lat="47.45175" lon="6.69723">
        <ele>277</ele>
        <time>2014-04-06T08:57:30Z</time>
      </trkpt>
      <trkpt lat="47.45175" lon="6.69723">
        <ele>278</ele>
        <time>2014-04-06T08:57:33Z</time>
      </trkpt>
      <trkpt lat="47.45173" lon="6.69722">
        <ele>277</ele>
        <time>2014-04-06T08:57:36Z</time>
      </trkpt>
      <trkpt lat="47.4517" lon="6.69715">
        <ele>278</ele>
        <time>2014-04-06T08:57:39Z</time>
      </trkpt>
      <trkpt lat="47.45168" lon="6.69705">
        <ele>277</ele>
        <time>2014-04-06T08:57:41Z</time>
      </trkpt>
      <trkpt lat="47.45166" lon="6.69692">
        <ele>278</ele>
        <time>2014-04-06T08:57:43Z</time>
      </trkpt>
      <trkpt lat="47.45161" lon="6.69675">
        <ele>277</ele>
        <time>2014-04-06T08:57:45Z</time>
      </trkpt>
      <trkpt lat="47.45156" lon="6.69656">
        <ele>277</ele>
        <time>2014-04-06T08:57:47Z</time>
      </trkpt>
      <trkpt lat="47.45147" lon="6.6962">
        <ele>277</ele>
        <time>2014-04-06T08:57:50Z</time>
      </trkpt>
      <trkpt lat="47.45142" lon="6.69592">
        <ele>276</ele>
        <time>2014-04-06T08:57:52Z</time>
      </trkpt>
      <trkpt lat="47.45132" lon="6.69548">
        <ele>275</ele>
        <time>2014-04-06T08:57:55Z</time>
      </trkpt>
      <trkpt lat="47.45126" lon="6.69517">
        <ele>274</ele>
        <time>2014-04-06T08:57:57Z</time>
      </trkpt>
      <trkpt lat="47.45116" lon="6.69471">
        <ele>272</ele>
        <time>2014-04-06T08:58:00Z</time>
      </trkpt>
      <trkpt lat="47.45112" lon="6.6944">
        <ele>270</ele>
        <time>2014-04-06T08:58:02Z</time>
      </trkpt>
      <trkpt lat="47.45113" lon="6.69412">
        <ele>268</ele>
        <time>2014-04-06T08:58:04Z</time>
      </trkpt>
      <trkpt lat="47.45119" lon="6.69384">
        <ele>264</ele>
        <time>2014-04-06T08:58:06Z</time>
      </trkpt>
      <trkpt lat="47.45137" lon="6.69346">
        <ele>262</ele>
        <time>2014-04-06T08:58:09Z</time>
      </trkpt>
      <trkpt lat="47.45154" lon="6.69323">
        <ele>259</ele>
        <time>2014-04-06T08:58:11Z</time>
      </trkpt>
      <trkpt lat="47.45183" lon="6.69291">
        <ele>257</ele>
        <time>2014-04-06T08:58:14Z</time>
      </trkpt>
      <trkpt lat="47.452" lon="6.69273">
        <ele>254</ele>
        <time>2014-04-06T08:58:16Z</time>
      </trkpt>
      <trkpt lat="47.45216" lon="6.69253">
        <ele>248</ele>
        <time>2014-04-06T08:58:19Z</time>
      </trkpt>
      <trkpt lat="47.45225" lon="6.6925">
        <ele>244</ele>
        <time>2014-04-06T08:58:21Z</time>
      </trkpt>
      <trkpt lat="47.45235" lon="6.6925">
        <ele>239</ele>
        <time>2014-04-06T08:58:24Z</time>
      </trkpt>
      <trkpt lat="47.45242" lon="6.69243">
        <ele>237</ele>
        <time>2014-04-06T08:58:26Z</time>
      </trkpt>
      <trkpt lat="47.45257" lon="6.6923">
        <ele>237</ele>
        <time>2014-04-06T08:58:29Z</time>
      </trkpt>
      <trkpt lat="47.4527" lon="6.69219">
        <ele>236</ele>
        <time>2014-04-06T08:58:31Z</time>
      </trkpt>
      <trkpt lat="47.45283" lon="6.69206">
        <ele>235</ele>
        <time>2014-04-06T08:58:33Z</time>
      </trkpt>
      <trkpt lat="47.45302" lon="6.69185">
        <ele>234</ele>
        <time>2014-04-06T08:58:36Z</time>
      </trkpt>
      <trkpt lat="47.4532" lon="6.69164">
        <ele>233</ele>
        <time>2014-04-06T08:58:39Z</time>
      </trkpt>
      <trkpt lat="47.45332" lon="6.69151">
        <ele>233</ele>
        <time>2014-04-06T08:58:41Z</time>
      </trkpt>
      <trkpt lat="47.45342" lon="6.69139">
        <ele>232</ele>
        <time>2014-04-06T08:58:43Z</time>
      </trkpt>
      <trkpt lat="47.45352" lon="6.69128">
        <ele>232</ele>
        <time>2014-04-06T08:58:45Z</time>
      </trkpt>
      <trkpt lat="47.45367" lon="6.69111">
        <ele>232</ele>
        <time>2014-04-06T08:58:48Z</time>
      </trkpt>
      <trkpt lat="47.45382" lon="6.69095">
        <ele>232</ele>
        <time>2014-04-06T08:58:51Z</time>
      </trkpt>
      <trkpt lat="47.45395" lon="6.69079">
        <ele>233</ele>
        <time>2014-04-06T08:58:54Z</time>
      </trkpt>
      <trkpt lat="47.45404" lon="6.69068">
        <ele>233</ele>
        <time>2014-04-06T08:58:56Z</time>
      </trkpt>
      <trkpt lat="47.45413" lon="6.69058">
        <ele>233</ele>
        <time>2014-04-06T08:58:58Z</time>
      </trkpt>
      <trkpt lat="47.45421" lon="6.69049">
        <ele>233</ele>
        <time>2014-04-06T08:59:00Z</time>
      </trkpt>
      <trkpt lat="47.45429" lon="6.6904">
        <ele>232</ele>
        <time>2014-04-06T08:59:02Z</time>
      </trkpt>
      <trkpt lat="47.45437" lon="6.6903">
        <ele>232</ele>
        <time>2014-04-06T08:59:05Z</time>
      </trkpt>
      <trkpt lat="47.45437" lon="6.69022">
        <ele>232</ele>
        <time>2014-04-06T08:59:07Z</time>
      </trkpt>
      <trkpt lat="47.45433" lon="6.69014">
        <ele>232</ele>
        <time>2014-04-06T08:59:09Z</time>
      </trkpt>
      <trkpt lat="47.45427" lon="6.69006">
        <ele>232</ele>
        <time>2014-04-06T08:59:11Z</time>
      </trkpt>
      <trkpt lat="47.4542" lon="6.68993">
        <ele>232</ele>
        <time>2014-04-06T08:59:14Z</time>
      </trkpt>
      <trkpt lat="47.45415" lon="6.68984">
        <ele>231</ele>
        <time>2014-04-06T08:59:16Z</time>
      </trkpt>
      <trkpt lat="47.45411" lon="6.68976">
        <ele>231</ele>
        <time>2014-04-06T08:59:18Z</time>
      </trkpt>
      <trkpt lat="47.4541" lon="6.68962">
        <ele>231</ele>
        <time>2014-04-06T08:59:21Z</time>
      </trkpt>
      <trkpt lat="47.45418" lon="6.68953">
        <ele>231</ele>
        <time>2014-04-06T08:59:24Z</time>
      </trkpt>
      <trkpt lat="47.45424" lon="6.68948">
        <ele>231</ele>
        <time>2014-04-06T08:59:26Z</time>
      </trkpt>
      <trkpt lat="47.4543" lon="6.68941">
        <ele>230</ele>
        <time>2014-04-06T08:59:28Z</time>
      </trkpt>
      <trkpt lat="47.45441" lon="6.68931">
        <ele>230</ele>
        <time>2014-04-06T08:59:31Z</time>
      </trkpt>
      <trkpt lat="47.45449" lon="6.68925">
        <ele>231</ele>
        <time>2014-04-06T08:59:33Z</time>
      </trkpt>
      <trkpt lat="47.45459" lon="6.68915">
        <ele>231</ele>
        <time>2014-04-06T08:59:36Z</time>
      </trkpt>
      <trkpt lat="47.45467" lon="6.68909">
        <ele>231</ele>
        <time>2014-04-06T08:59:38Z</time>
      </trkpt>
      <trkpt lat="47.45475" lon="6.68904">
        <ele>231</ele>
        <time>2014-04-06T08:59:40Z</time>
      </trkpt>
      <trkpt lat="47.45483" lon="6.68901">
        <ele>231</ele>
        <time>2014-04-06T08:59:42Z</time>
      </trkpt>
      <trkpt lat="47.4549" lon="6.68897">
        <ele>231</ele>
        <time>2014-04-06T08:59:44Z</time>
      </trkpt>
      <trkpt lat="47.45497" lon="6.68892">
        <ele>231</ele>
        <time>2014-04-06T08:59:46Z</time>
      </trkpt>
      <trkpt lat="47.45506" lon="6.68881">
        <ele>231</ele>
        <time>2014-04-06T08:59:49Z</time>
      </trkpt>
      <trkpt lat="47.45511" lon="6.68873">
        <ele>232</ele>
        <time>2014-04-06T08:59:51Z</time>
      </trkpt>
      <trkpt lat="47.45518" lon="6.68864">
        <ele>232</ele>
        <time>2014-04-06T08:59:53Z</time>
      </trkpt>
      <trkpt lat="47.45526" lon="6.6885">
        <ele>232</ele>
        <time>2014-04-06T08:59:56Z</time>
      </trkpt>
      <trkpt lat="47.45531" lon="6.68841">
        <ele>232</ele>
        <time>2014-04-06T08:59:58Z</time>
      </trkpt>
      <trkpt lat="47.45531" lon="6.6883">
        <ele>232</ele>
        <time>2014-04-06T09:00:00Z</time>
      </trkpt>
      <trkpt lat="47.45525" lon="6.68822">
        <ele>233</ele>
        <time>2014-04-06T09:00:03Z</time>
      </trkpt>
      <trkpt lat="47.45519" lon="6.68817">
        <ele>233</ele>
        <time>2014-04-06T09:00:05Z</time>
      </trkpt>
      <trkpt lat="47.45514" lon="6.68811">
        <ele>233</ele>
        <time>2014-04-06T09:00:07Z</time>
      </trkpt>
      <trkpt lat="47.45509" lon="6.68806">
        <ele>234</ele>
        <time>2014-04-06T09:00:09Z</time>
      </trkpt>
      <trkpt lat="47.455" lon="6.68798">
        <ele>233</ele>
        <time>2014-04-06T09:00:12Z</time>
      </trkpt>
      <trkpt lat="47.45495" lon="6.68791">
        <ele>233</ele>
        <time>2014-04-06T09:00:14Z</time>
      </trkpt>
      <trkpt lat="47.45489" lon="6.68784">
        <ele>233</ele>
        <time>2014-04-06T09:00:16Z</time>
      </trkpt>
      <trkpt lat="47.4548" lon="6.68776">
        <ele>233</ele>
        <time>2014-04-06T09:00:19Z</time>
      </trkpt>
      <trkpt lat="47.45474" lon="6.6877">
        <ele>233</ele>
        <time>2014-04-06T09:00:21Z</time>
      </trkpt>
      <trkpt lat="47.45468" lon="6.68766">
        <ele>232</ele>
        <time>2014-04-06T09:00:23Z</time>
      </trkpt>
      <trkpt lat="47.45462" lon="6.68761">
        <ele>232</ele>
        <time>2014-04-06T09:00:25Z</time>
      </trkpt>
      <trkpt lat="47.45451" lon="6.68752">
        <ele>232</ele>
        <time>2014-04-06T09:00:28Z</time>
      </trkpt>
      <trkpt lat="47.45444" lon="6.68747">
        <ele>233</ele>
        <time>2014-04-06T09:00:30Z</time>
      </trkpt>
      <trkpt lat="47.45438" lon="6.68739">
        <ele>232</ele>
        <time>2014-04-06T09:00:32Z</time>
      </trkpt>
      <trkpt lat="47.45432" lon="6.68732">
        <ele>232</ele>
        <time>2014-04-06T09:00:34Z</time>
      </trkpt>
      <trkpt lat="47.45426" lon="6.68725">
        <ele>232</ele>
        <time>2014-04-06T09:00:36Z</time>
      </trkpt>
      <trkpt lat="47.4542" lon="6.68717">
        <ele>232</ele>
        <time>2014-04-06T09:00:38Z</time>
      </trkpt>
      <trkpt lat="47.45414" lon="6.6871">
        <ele>232</ele>
        <time>2014-04-06T09:00:40Z</time>
      </trkpt>
      <trkpt lat="47.45404" lon="6.68699">
        <ele>232</ele>
        <time>2014-04-06T09:00:43Z</time>
      </trkpt>
      <trkpt lat="47.45398" lon="6.68692">
        <ele>232</ele>
        <time>2014-04-06T09:00:45Z</time>
      </trkpt>
      <trkpt lat="47.45392" lon="6.68686">
        <ele>233</ele>
        <time>2014-04-06T09:00:47Z</time>
      </trkpt>
      <trkpt lat="47.45385" lon="6.68679">
        <ele>233</ele>
        <time>2014-04-06T09:00:49Z</time>
      </trkpt>
      <trkpt lat="47.45376" lon="6.68669">
        <ele>233</ele>
        <time>2014-04-06T09:00:52Z</time>
      </trkpt>
      <trkpt lat="47.45369" lon="6.68662">
        <ele>233</ele>
        <time>2014-04-06T09:00:54Z</time>
      </trkpt>
      <trkpt lat="47.45359" lon="6.68652">
        <ele>233</ele>
        <time>2014-04-06T09:00:57Z</time>
      </trkpt>
      <trkpt lat="47.4535" lon="6.68641">
        <ele>233</ele>
        <time>2014-04-06T09:01:00Z</time>
      </trkpt>
      <trkpt lat="47.45341" lon="6.68631">
        <ele>233</ele>
        <time>2014-04-06T09:01:03Z</time>
      </trkpt>
      <trkpt lat="47.45336" lon="6.68623">
        <ele>233</ele>
        <time>2014-04-06T09:01:05Z</time>
      </trkpt>
      <trkpt lat="47.45329" lon="6.68613">
        <ele>233</ele>
        <time>2014-04-06T09:01:08Z</time>
      </trkpt>
      <trkpt lat="47.45326" lon="6.68605">
        <ele>233</ele>
        <time>2014-04-06T09:01:10Z</time>
      </trkpt>
      <trkpt lat="47.45325" lon="6.68595">
        <ele>233</ele>
        <time>2014-04-06T09:01:12Z</time>
      </trkpt>
      <trkpt lat="47.45328" lon="6.68586">
        <ele>233</ele>
        <time>2014-04-06T09:01:14Z</time>
      </trkpt>
      <trkpt lat="47.45333" lon="6.68572">
        <ele>233</ele>
        <time>2014-04-06T09:01:17Z</time>
      </trkpt>
      <trkpt lat="47.45338" lon="6.68564">
        <ele>232</ele>
        <time>2014-04-06T09:01:19Z</time>
      </trkpt>
      <trkpt lat="47.45342" lon="6.68557">
        <ele>232</ele>
        <time>2014-04-06T09:01:21Z</time>
      </trkpt>
      <trkpt lat="47.45348" lon="6.68546">
        <ele>232</ele>
        <time>2014-04-06T09:01:24Z</time>
      </trkpt>
      <trkpt lat="47.45351" lon="6.68536">
        <ele>232</ele>
        <time>2014-04-06T09:01:26Z</time>
      </trkpt>
      <trkpt lat="47.45351" lon="6.68519">
        <ele>233</ele>
        <time>2014-04-06T09:01:29Z</time>
      </trkpt>
      <trkpt lat="47.45349" lon="6.68509">
        <ele>233</ele>
        <time>2014-04-06T09:01:31Z</time>
      </trkpt>
      <trkpt lat="47.45345" lon="6.68494">
        <ele>233</ele>
        <time>2014-04-06T09:01:34Z</time>
      </trkpt>
      <trkpt lat="47.4534" lon="6.68484">
        <ele>233</ele>
        <time>2014-04-06T09:01:36Z</time>
      </trkpt>
      <trkpt lat="47.45338" lon="6.68468">
        <ele>233</ele>
        <time>2014-04-06T09:01:39Z</time>
      </trkpt>
      <trkpt lat="47.45341" lon="6.68458">
        <ele>233</ele>
        <time>2014-04-06T09:01:41Z</time>
      </trkpt>
      <trkpt lat="47.45345" lon="6.68448">
        <ele>233</ele>
        <time>2014-04-06T09:01:43Z</time>
      </trkpt>
      <trkpt lat="47.4535" lon="6.68439">
        <ele>233</ele>
        <time>2014-04-06T09:01:45Z</time>
      </trkpt>
      <trkpt lat="47.45355" lon="6.6843">
        <ele>233</ele>
        <time>2014-04-06T09:01:47Z</time>
      </trkpt>
      <trkpt lat="47.45364" lon="6.68419">
        <ele>233</ele>
        <time>2014-04-06T09:01:50Z</time>
      </trkpt>
      <trkpt lat="47.4537" lon="6.68412">
        <ele>233</ele>
        <time>2014-04-06T09:01:52Z</time>
      </trkpt>
      <trkpt lat="47.45376" lon="6.68405">
        <ele>233</ele>
        <time>2014-04-06T09:01:54Z</time>
      </trkpt>
      <trkpt lat="47.45381" lon="6.68396">
        <ele>232</ele>
        <time>2014-04-06T09:01:56Z</time>
      </trkpt>
      <trkpt lat="47.45385" lon="6.68388">
        <ele>232</ele>
        <time>2014-04-06T09:01:58Z</time>
      </trkpt>
      <trkpt lat="47.45384" lon="6.68378">
        <ele>232</ele>
        <time>2014-04-06T09:02:00Z</time>
      </trkpt>
      <trkpt lat="47.4538" lon="6.68369">
        <ele>232</ele>
        <time>2014-04-06T09:02:02Z</time>
      </trkpt>
      <trkpt lat="47.45372" lon="6.68357">
        <ele>232</ele>
        <time>2014-04-06T09:02:05Z</time>
      </trkpt>
      <trkpt lat="47.45368" lon="6.68347">
        <ele>232</ele>
        <time>2014-04-06T09:02:07Z</time>
      </trkpt>
      <trkpt lat="47.45364" lon="6.68336">
        <ele>232</ele>
        <time>2014-04-06T09:02:09Z</time>
      </trkpt>
      <trkpt lat="47.45362" lon="6.68324">
        <ele>232</ele>
        <time>2014-04-06T09:02:11Z</time>
      </trkpt>
      <trkpt lat="47.45365" lon="6.68306">
        <ele>233</ele>
        <time>2014-04-06T09:02:14Z</time>
      </trkpt>
      <trkpt lat="47.45371" lon="6.68293">
        <ele>233</ele>
        <time>2014-04-06T09:02:17Z</time>
      </trkpt>
      <trkpt lat="47.45377" lon="6.68285">
        <ele>233</ele>
        <time>2014-04-06T09:02:19Z</time>
      </trkpt>
      <trkpt lat="47.45383" lon="6.68277">
        <ele>234</ele>
        <time>2014-04-06T09:02:21Z</time>
      </trkpt>
      <trkpt lat="47.4539" lon="6.6827">
        <ele>234</ele>
        <time>2014-04-06T09:02:23Z</time>
      </trkpt>
      <trkpt lat="47.454" lon="6.6826">
        <ele>234</ele>
        <time>2014-04-06T09:02:26Z</time>
      </trkpt>
      <trkpt lat="47.45408" lon="6.68253">
        <ele>234</ele>
        <time>2014-04-06T09:02:28Z</time>
      </trkpt>
      <trkpt lat="47.45415" lon="6.68246">
        <ele>235</ele>
        <time>2014-04-06T09:02:30Z</time>
      </trkpt>
      <trkpt lat="47.45422" lon="6.68239">
        <ele>235</ele>
        <time>2014-04-06T09:02:32Z</time>
      </trkpt>
      <trkpt lat="47.4543" lon="6.68232">
        <ele>235</ele>
        <time>2014-04-06T09:02:34Z</time>
      </trkpt>
      <trkpt lat="47.45441" lon="6.68221">
        <ele>235</ele>
        <time>2014-04-06T09:02:37Z</time>
      </trkpt>
      <trkpt lat="47.45449" lon="6.68213">
        <ele>235</ele>
        <time>2014-04-06T09:02:39Z</time>
      </trkpt>
      <trkpt lat="47.45458" lon="6.68205">
        <ele>235</ele>
        <time>2014-04-06T09:02:41Z</time>
      </trkpt>
      <trkpt lat="47.45467" lon="6.68197">
        <ele>235</ele>
        <time>2014-04-06T09:02:43Z</time>
      </trkpt>
      <trkpt lat="47.45479" lon="6.68185">
        <ele>235</ele>
        <time>2014-04-06T09:02:46Z</time>
      </trkpt>
      <trkpt lat="47.45487" lon="6.68178">
        <ele>235</ele>
        <time>2014-04-06T09:02:48Z</time>
      </trkpt>
      <trkpt lat="47.45495" lon="6.6817">
        <ele>235</ele>
        <time>2014-04-06T09:02:50Z</time>
      </trkpt>
      <trkpt lat="47.45502" lon="6.68163">
        <ele>235</ele>
        <time>2014-04-06T09:02:52Z</time>
      </trkpt>
      <trkpt lat="47.45508" lon="6.68168">
        <ele>234</ele>
        <time>2014-04-06T09:02:55Z</time>
      </trkpt>
      <trkpt lat="47.45506" lon="6.68183">
        <ele>233</ele>
        <time>2014-04-06T09:02:57Z</time>
      </trkpt>
      <trkpt lat="47.45508" lon="6.68198">
        <ele>233</ele>
        <time>2014-04-06T09:02:59Z</time>
      </trkpt>
      <trkpt lat="47.45512" lon="6.68213">
        <ele>232</ele>
        <time>2014-04-06T09:03:01Z</time>
      </trkpt>
      <trkpt lat="47.45515" lon="6.68229">
        <ele>232</ele>
        <time>2014-04-06T09:03:03Z</time>
      </trkpt>
      <trkpt lat="47.4552" lon="6.6825">
        <ele>232</ele>
        <time>2014-04-06T09:03:06Z</time>
      </trkpt>
      <trkpt lat="47.45523" lon="6.68263">
        <ele>232</ele>
        <time>2014-04-06T09:03:08Z</time>
      </trkpt>
      <trkpt lat="47.45526" lon="6.68275">
        <ele>232</ele>
        <time>2014-04-06T09:03:10Z</time>
      </trkpt>
      <trkpt lat="47.45533" lon="6.68293">
        <ele>231</ele>
        <time>2014-04-06T09:03:13Z</time>
      </trkpt>
      <trkpt lat="47.45537" lon="6.68306">
        <ele>231</ele>
        <time>2014-04-06T09:03:15Z</time>
      </trkpt>
      <trkpt lat="47.45543" lon="6.68317">
        <ele>231</ele>
        <time>2014-04-06T09:03:17Z</time>
      </trkpt>
      <trkpt lat="47.45552" lon="6.68333">
        <ele>231</ele>
        <time>2014-04-06T09:03:20Z</time>
      </trkpt>
      <trkpt lat="47.45557" lon="6.68344">
        <ele>232</ele>
        <time>2014-04-06T09:03:22Z</time>
      </trkpt>
      <trkpt lat="47.45567" lon="6.6836">
        <ele>232</ele>
        <time>2014-04-06T09:03:25Z</time>
      </trkpt>
      <trkpt lat="47.45575" lon="6.68369">
        <ele>232</ele>
        <time>2014-04-06T09:03:27Z</time>
      </trkpt>
      <trkpt lat="47.45581" lon="6.68379">
        <ele>232</ele>
        <time>2014-04-06T09:03:29Z</time>
      </trkpt>
      <trkpt lat="47.45592" lon="6.68395">
        <ele>232</ele>
        <time>2014-04-06T09:03:32Z</time>
      </trkpt>
      <trkpt lat="47.456" lon="6.68403">
        <ele>232</ele>
        <time>2014-04-06T09:03:34Z</time>
      </trkpt>
      <trkpt lat="47.45608" lon="6.68413">
        <ele>232</ele>
        <time>2014-04-06T09:03:36Z</time>
      </trkpt>
      <trkpt lat="47.45617" lon="6.68421">
        <ele>232</ele>
        <time>2014-04-06T09:03:38Z</time>
      </trkpt>
      <trkpt lat="47.45628" lon="6.68435">
        <ele>232</ele>
        <time>2014-04-06T09:03:41Z</time>
      </trkpt>
      <trkpt lat="47.45639" lon="6.68449">
        <ele>232</ele>
        <time>2014-04-06T09:03:44Z</time>
      </trkpt>
      <trkpt lat="47.45651" lon="6.68463">
        <ele>232</ele>
        <time>2014-04-06T09:03:47Z</time>
      </trkpt>
      <trkpt lat="47.45658" lon="6.68472">
        <ele>232</ele>
        <time>2014-04-06T09:03:49Z</time>
      </trkpt>
      <trkpt lat="47.45666" lon="6.68482">
        <ele>232</ele>
        <time>2014-04-06T09:03:51Z</time>
      </trkpt>
      <trkpt lat="47.45673" lon="6.68494">
        <ele>232</ele>
        <time>2014-04-06T09:03:53Z</time>
      </trkpt>
      <trkpt lat="47.45684" lon="6.6851">
        <ele>232</ele>
        <time>2014-04-06T09:03:56Z</time>
      </trkpt>
      <trkpt lat="47.45692" lon="6.68519">
        <ele>232</ele>
        <time>2014-04-06T09:03:58Z</time>
      </trkpt>
      <trkpt lat="47.45703" lon="6.68533">
        <ele>232</ele>
        <time>2014-04-06T09:04:01Z</time>
      </trkpt>
      <trkpt lat="47.4571" lon="6.68542">
        <ele>232</ele>
        <time>2014-04-06T09:04:03Z</time>
      </trkpt>
      <trkpt lat="47.45714" lon="6.68555">
        <ele>232</ele>
        <time>2014-04-06T09:04:05Z</time>
      </trkpt>
      <trkpt lat="47.45721" lon="6.68568">
        <ele>232</ele>
        <time>2014-04-06T09:04:07Z</time>
      </trkpt>
      <trkpt lat="47.45725" lon="6.68579">
        <ele>232</ele>
        <time>2014-04-06T09:04:09Z</time>
      </trkpt>
      <trkpt lat="47.45734" lon="6.68594">
        <ele>232</ele>
        <time>2014-04-06T09:04:12Z</time>
      </trkpt>
      <trkpt lat="47.45743" lon="6.6861">
        <ele>231</ele>
        <time>2014-04-06T09:04:15Z</time>
      </trkpt>
      <trkpt lat="47.45747" lon="6.68616">
        <ele>231</ele>
        <time>2014-04-06T09:04:17Z</time>
      </trkpt>
      <trkpt lat="47.4575" lon="6.68621">
        <ele>231</ele>
        <time>2014-04-06T09:04:19Z</time>
      </trkpt>
      <trkpt lat="47.45754" lon="6.68626">
        <ele>231</ele>
        <time>2014-04-06T09:04:21Z</time>
      </trkpt>
      <trkpt lat="47.45761" lon="6.68638">
        <ele>231</ele>
        <time>2014-04-06T09:04:24Z</time>
      </trkpt>
      <trkpt lat="47.45768" lon="6.6865">
        <ele>231</ele>
        <time>2014-04-06T09:04:27Z</time>
      </trkpt>
      <trkpt lat="47.45776" lon="6.68664">
        <ele>231</ele>
        <time>2014-04-06T09:04:30Z</time>
      </trkpt>
      <trkpt lat="47.45782" lon="6.68672">
        <ele>231</ele>
        <time>2014-04-06T09:04:32Z</time>
      </trkpt>
      <trkpt lat="47.45789" lon="6.68679">
        <ele>231</ele>
        <time>2014-04-06T09:04:34Z</time>
      </trkpt>
      <trkpt lat="47.45801" lon="6.68689">
        <ele>231</ele>
        <time>2014-04-06T09:04:37Z</time>
      </trkpt>
      <trkpt lat="47.45809" lon="6.68696">
        <ele>231</ele>
        <time>2014-04-06T09:04:39Z</time>
      </trkpt>
      <trkpt lat="47.45817" lon="6.68704">
        <ele>232</ele>
        <time>2014-04-06T09:04:41Z</time>
      </trkpt>
      <trkpt lat="47.45824" lon="6.6871">
        <ele>232</ele>
        <time>2014-04-06T09:04:43Z</time>
      </trkpt>
      <trkpt lat="47.4583" lon="6.68719">
        <ele>232</ele>
        <time>2014-04-06T09:04:45Z</time>
      </trkpt>
      <trkpt lat="47.45839" lon="6.68728">
        <ele>231</ele>
        <time>2014-04-06T09:04:48Z</time>
      </trkpt>
      <trkpt lat="47.45845" lon="6.68736">
        <ele>231</ele>
        <time>2014-04-06T09:04:50Z</time>
      </trkpt>
      <trkpt lat="47.45853" lon="6.68748">
        <ele>231</ele>
        <time>2014-04-06T09:04:53Z</time>
      </trkpt>
      <trkpt lat="47.45863" lon="6.68761">
        <ele>232</ele>
        <time>2014-04-06T09:04:56Z</time>
      </trkpt>
      <trkpt lat="47.45869" lon="6.68772">
        <ele>232</ele>
        <time>2014-04-06T09:04:58Z</time>
      </trkpt>
      <trkpt lat="47.45879" lon="6.68786">
        <ele>232</ele>
        <time>2014-04-06T09:05:01Z</time>
      </trkpt>
      <trkpt lat="47.45888" lon="6.68803">
        <ele>232</ele>
        <time>2014-04-06T09:05:04Z</time>
      </trkpt>
      <trkpt lat="47.45898" lon="6.6882">
        <ele>232</ele>
        <time>2014-04-06T09:05:07Z</time>
      </trkpt>
      <trkpt lat="47.45904" lon="6.68829">
        <ele>232</ele>
        <time>2014-04-06T09:05:09Z</time>
      </trkpt>
      <trkpt lat="47.45915" lon="6.68844">
        <ele>232</ele>
        <time>2014-04-06T09:05:12Z</time>
      </trkpt>
      <trkpt lat="47.45922" lon="6.68854">
        <ele>232</ele>
        <time>2014-04-06T09:05:14Z</time>
      </trkpt>
      <trkpt lat="47.45929" lon="6.68866">
        <ele>231</ele>
        <time>2014-04-06T09:05:16Z</time>
      </trkpt>
      <trkpt lat="47.4594" lon="6.68882">
        <ele>232</ele>
        <time>2014-04-06T09:05:19Z</time>
      </trkpt>
      <trkpt lat="47.45948" lon="6.68892">
        <ele>232</ele>
        <time>2014-04-06T09:05:21Z</time>
      </trkpt>
      <trkpt lat="47.45956" lon="6.68902">
        <ele>232</ele>
        <time>2014-04-06T09:05:23Z</time>
      </trkpt>
      <trkpt lat="47.4597" lon="6.68912">
        <ele>232</ele>
        <time>2014-04-06T09:05:26Z</time>
      </trkpt>
      <trkpt lat="47.45975" lon="6.68923">
        <ele>232</ele>
        <time>2014-04-06T09:05:28Z</time>
      </trkpt>
      <trkpt lat="47.45981" lon="6.68936">
        <ele>232</ele>
        <time>2014-04-06T09:05:30Z</time>
      </trkpt>
      <trkpt lat="47.45989" lon="6.68958">
        <ele>232</ele>
        <time>2014-04-06T09:05:33Z</time>
      </trkpt>
      <trkpt lat="47.45996" lon="6.68968">
        <ele>232</ele>
        <time>2014-04-06T09:05:35Z</time>
      </trkpt>
      <trkpt lat="47.46001" lon="6.68981">
        <ele>232</ele>
        <time>2014-04-06T09:05:37Z</time>
      </trkpt>
      <trkpt lat="47.4601" lon="6.68999">
        <ele>232</ele>
        <time>2014-04-06T09:05:40Z</time>
      </trkpt>
      <trkpt lat="47.46015" lon="6.69009">
        <ele>232</ele>
        <time>2014-04-06T09:05:42Z</time>
      </trkpt>
      <trkpt lat="47.46018" lon="6.69021">
        <ele>232</ele>
        <time>2014-04-06T09:05:44Z</time>
      </trkpt>
      <trkpt lat="47.46023" lon="6.69031">
        <ele>232</ele>
        <time>2014-04-06T09:05:46Z</time>
      </trkpt>
      <trkpt lat="47.46028" lon="6.69041">
        <ele>232</ele>
        <time>2014-04-06T09:05:48Z</time>
      </trkpt>
      <trkpt lat="47.46037" lon="6.69055">
        <ele>232</ele>
        <time>2014-04-06T09:05:51Z</time>
      </trkpt>
      <trkpt lat="47.46044" lon="6.69063">
        <ele>232</ele>
        <time>2014-04-06T09:05:53Z</time>
      </trkpt>
      <trkpt lat="47.46054" lon="6.69074">
        <ele>233</ele>
        <time>2014-04-06T09:05:56Z</time>
      </trkpt>
      <trkpt lat="47.46062" lon="6.69089">
        <ele>233</ele>
        <time>2014-04-06T09:05:59Z</time>
      </trkpt>
      <trkpt lat="47.46067" lon="6.69099">
        <ele>233</ele>
        <time>2014-04-06T09:06:01Z</time>
      </trkpt>
      <trkpt lat="47.46072" lon="6.6911">
        <ele>233</ele>
        <time>2014-04-06T09:06:03Z</time>
      </trkpt>
      <trkpt lat="47.46077" lon="6.69121">
        <ele>233</ele>
        <time>2014-04-06T09:06:05Z</time>
      </trkpt>
      <trkpt lat="47.46082" lon="6.69131">
        <ele>233</ele>
        <time>2014-04-06T09:06:07Z</time>
      </trkpt>
      <trkpt lat="47.4609" lon="6.69147">
        <ele>233</ele>
        <time>2014-04-06T09:06:10Z</time>
      </trkpt>
      <trkpt lat="47.46096" lon="6.69157">
        <ele>233</ele>
        <time>2014-04-06T09:06:12Z</time>
      </trkpt>
      <trkpt lat="47.46104" lon="6.69171">
        <ele>233</ele>
        <time>2014-04-06T09:06:15Z</time>
      </trkpt>
      <trkpt lat="47.46111" lon="6.6918">
        <ele>233</ele>
        <time>2014-04-06T09:06:17Z</time>
      </trkpt>
      <trkpt lat="47.46118" lon="6.69188">
        <ele>233</ele>
        <time>2014-04-06T09:06:19Z</time>
      </trkpt>
      <trkpt lat="47.46128" lon="6.69196">
        <ele>232</ele>
        <time>2014-04-06T09:06:22Z</time>
      </trkpt>
      <trkpt lat="47.46134" lon="6.69206">
        <ele>233</ele>
        <time>2014-04-06T09:06:25Z</time>
      </trkpt>
      <trkpt lat="47.46142" lon="6.69211">
        <ele>233</ele>
        <time>2014-04-06T09:06:27Z</time>
      </trkpt>
      <trkpt lat="47.46149" lon="6.69219">
        <ele>234</ele>
        <time>2014-04-06T09:06:29Z</time>
      </trkpt>
      <trkpt lat="47.46155" lon="6.69226">
        <ele>235</ele>
        <time>2014-04-06T09:06:31Z</time>
      </trkpt>
      <trkpt lat="47.46165" lon="6.69235">
        <ele>236</ele>
        <time>2014-04-06T09:06:34Z</time>
      </trkpt>
      <trkpt lat="47.46172" lon="6.69242">
        <ele>235</ele>
        <time>2014-04-06T09:06:36Z</time>
      </trkpt>
      <trkpt lat="47.46179" lon="6.69249">
        <ele>235</ele>
        <time>2014-04-06T09:06:38Z</time>
      </trkpt>
      <trkpt lat="47.46191" lon="6.69259">
        <ele>235</ele>
        <time>2014-04-06T09:06:41Z</time>
      </trkpt>
      <trkpt lat="47.462" lon="6.69266">
        <ele>235</ele>
        <time>2014-04-06T09:06:43Z</time>
      </trkpt>
      <trkpt lat="47.46214" lon="6.69277">
        <ele>235</ele>
        <time>2014-04-06T09:06:46Z</time>
      </trkpt>
      <trkpt lat="47.46223" lon="6.69284">
        <ele>235</ele>
        <time>2014-04-06T09:06:48Z</time>
      </trkpt>
      <trkpt lat="47.46233" lon="6.69291">
        <ele>234</ele>
        <time>2014-04-06T09:06:51Z</time>
      </trkpt>
      <trkpt lat="47.46238" lon="6.69294">
        <ele>234</ele>
        <time>2014-04-06T09:06:53Z</time>
      </trkpt>
      <trkpt lat="47.46243" lon="6.69297">
        <ele>234</ele>
        <time>2014-04-06T09:06:55Z</time>
      </trkpt>
      <trkpt lat="47.46251" lon="6.69307">
        <ele>234</ele>
        <time>2014-04-06T09:06:58Z</time>
      </trkpt>
      <trkpt lat="47.4626" lon="6.69317">
        <ele>234</ele>
        <time>2014-04-06T09:07:01Z</time>
      </trkpt>
      <trkpt lat="47.46268" lon="6.69321">
        <ele>233</ele>
        <time>2014-04-06T09:07:03Z</time>
      </trkpt>
      <trkpt lat="47.46274" lon="6.69327">
        <ele>233</ele>
        <time>2014-04-06T09:07:05Z</time>
      </trkpt>
      <trkpt lat="47.46286" lon="6.69336">
        <ele>233</ele>
        <time>2014-04-06T09:07:08Z</time>
      </trkpt>
      <trkpt lat="47.46293" lon="6.69342">
        <ele>233</ele>
        <time>2014-04-06T09:07:10Z</time>
      </trkpt>
      <trkpt lat="47.463" lon="6.69346">
        <ele>233</ele>
        <time>2014-04-06T09:07:12Z</time>
      </trkpt>
      <trkpt lat="47.46311" lon="6.69352">
        <ele>233</ele>
        <time>2014-04-06T09:07:15Z</time>
      </trkpt>
      <trkpt lat="47.46318" lon="6.69357">
        <ele>233</ele>
        <time>2014-04-06T09:07:17Z</time>
      </trkpt>
      <trkpt lat="47.46328" lon="6.69367">
        <ele>233</ele>
        <time>2014-04-06T09:07:20Z</time>
      </trkpt>
      <trkpt lat="47.46334" lon="6.69371">
        <ele>234</ele>
        <time>2014-04-06T09:07:22Z</time>
      </trkpt>
      <trkpt lat="47.46342" lon="6.69376">
        <ele>234</ele>
        <time>2014-04-06T09:07:24Z</time>
      </trkpt>
      <trkpt lat="47.4635" lon="6.69381">
        <ele>234</ele>
        <time>2014-04-06T09:07:27Z</time>
      </trkpt>
      <trkpt lat="47.46355" lon="6.69384">
        <ele>234</ele>
        <time>2014-04-06T09:07:29Z</time>
      </trkpt>
      <trkpt lat="47.46358" lon="6.69389">
        <ele>235</ele>
        <time>2014-04-06T09:07:31Z</time>
      </trkpt>
      <trkpt lat="47.46366" lon="6.69396">
        <ele>235</ele>
        <time>2014-04-06T09:07:34Z</time>
      </trkpt>
      <trkpt lat="47.46371" lon="6.69402">
        <ele>235</ele>
        <time>2014-04-06T09:07:36Z</time>
      </trkpt>
      <trkpt lat="47.46379" lon="6.69409">
        <ele>235</ele>
        <time>2014-04-06T09:07:39Z</time>
      </trkpt>
      <trkpt lat="47.46387" lon="6.69415">
        <ele>235</ele>
        <time>2014-04-06T09:07:42Z</time>
      </trkpt>
      <trkpt lat="47.46394" lon="6.69423">
        <ele>235</ele>
        <time>2014-04-06T09:07:45Z</time>
      </trkpt>
      <trkpt lat="47.46399" lon="6.69427">
        <ele>235</ele>
        <time>2014-04-06T09:07:47Z</time>
      </trkpt>
      <trkpt lat="47.46404" lon="6.69431">
        <ele>235</ele>
        <time>2014-04-06T09:07:49Z</time>
      </trkpt>
      <trkpt lat="47.46413" lon="6.6944">
        <ele>235</ele>
        <time>2014-04-06T09:07:52Z</time>
      </trkpt>
      <trkpt lat="47.4642" lon="6.69452">
        <ele>235</ele>
        <time>2014-04-06T09:07:55Z</time>
      </trkpt>
      <trkpt lat="47.46423" lon="6.69459">
        <ele>234</ele>
        <time>2014-04-06T09:07:57Z</time>
      </trkpt>
      <trkpt lat="47.46424" lon="6.69468">
        <ele>234</ele>
        <time>2014-04-06T09:07:59Z</time>
      </trkpt>
      <trkpt lat="47.46429" lon="6.69483">
        <ele>233</ele>
        <time>2014-04-06T09:08:02Z</time>
      </trkpt>
      <trkpt lat="47.46433" lon="6.69491">
        <ele>233</ele>
        <time>2014-04-06T09:08:04Z</time>
      </trkpt>
      <trkpt lat="47.46437" lon="6.69497">
        <ele>233</ele>
        <time>2014-04-06T09:08:06Z</time>
      </trkpt>
      <trkpt lat="47.46444" lon="6.69506">
        <ele>233</ele>
        <time>2014-04-06T09:08:09Z</time>
      </trkpt>
      <trkpt lat="47.46449" lon="6.69512">
        <ele>233</ele>
        <time>2014-04-06T09:08:11Z</time>
      </trkpt>
      <trkpt lat="47.46457" lon="6.69521">
        <ele>233</ele>
        <time>2014-04-06T09:08:14Z</time>
      </trkpt>
      <trkpt lat="47.46462" lon="6.69526">
        <ele>232</ele>
        <time>2014-04-06T09:08:16Z</time>
      </trkpt>
      <trkpt lat="47.46468" lon="6.6953">
        <ele>232</ele>
        <time>2014-04-06T09:08:18Z</time>
      </trkpt>
      <trkpt lat="47.46478" lon="6.69534">
        <ele>232</ele>
        <time>2014-04-06T09:08:21Z</time>
      </trkpt>
      <trkpt lat="47.46484" lon="6.69538">
        <ele>232</ele>
        <time>2014-04-06T09:08:23Z</time>
      </trkpt>
      <trkpt lat="47.46492" lon="6.69545">
        <ele>232</ele>
        <time>2014-04-06T09:08:26Z</time>
      </trkpt>
      <trkpt lat="47.46497" lon="6.69552">
        <ele>232</ele>
        <time>2014-04-06T09:08:28Z</time>
      </trkpt>
      <trkpt lat="47.46502" lon="6.6956">
        <ele>232</ele>
        <time>2014-04-06T09:08:30Z</time>
      </trkpt>
      <trkpt lat="47.46507" lon="6.69573">
        <ele>232</ele>
        <time>2014-04-06T09:08:33Z</time>
      </trkpt>
      <trkpt lat="47.4651" lon="6.69582">
        <ele>233</ele>
        <time>2014-04-06T09:08:35Z</time>
      </trkpt>
      <trkpt lat="47.46516" lon="6.69594">
        <ele>233</ele>
        <time>2014-04-06T09:08:38Z</time>
      </trkpt>
      <trkpt lat="47.4652" lon="6.69602">
        <ele>233</ele>
        <time>2014-04-06T09:08:40Z</time>
      </trkpt>
      <trkpt lat="47.46524" lon="6.69611">
        <ele>234</ele>
        <time>2014-04-06T09:08:42Z</time>
      </trkpt>
      <trkpt lat="47.46528" lon="6.69619">
        <ele>234</ele>
        <time>2014-04-06T09:08:44Z</time>
      </trkpt>
      <trkpt lat="47.46533" lon="6.69627">
        <ele>234</ele>
        <time>2014-04-06T09:08:46Z</time>
      </trkpt>
      <trkpt lat="47.4654" lon="6.6964">
        <ele>234</ele>
        <time>2014-04-06T09:08:49Z</time>
      </trkpt>
      <trkpt lat="47.46545" lon="6.69649">
        <ele>234</ele>
        <time>2014-04-06T09:08:51Z</time>
      </trkpt>
      <trkpt lat="47.46552" lon="6.69662">
        <ele>234</ele>
        <time>2014-04-06T09:08:54Z</time>
      </trkpt>
      <trkpt lat="47.46556" lon="6.6967">
        <ele>234</ele>
        <time>2014-04-06T09:08:56Z</time>
      </trkpt>
      <trkpt lat="47.46563" lon="6.69683">
        <ele>234</ele>
        <time>2014-04-06T09:08:59Z</time>
      </trkpt>
      <trkpt lat="47.46568" lon="6.69692">
        <ele>234</ele>
        <time>2014-04-06T09:09:01Z</time>
      </trkpt>
      <trkpt lat="47.46575" lon="6.69705">
        <ele>234</ele>
        <time>2014-04-06T09:09:04Z</time>
      </trkpt>
      <trkpt lat="47.4658" lon="6.69713">
        <ele>234</ele>
        <time>2014-04-06T09:09:06Z</time>
      </trkpt>
      <trkpt lat="47.46584" lon="6.69722">
        <ele>234</ele>
        <time>2014-04-06T09:09:08Z</time>
      </trkpt>
      <trkpt lat="47.4659" lon="6.69729">
        <ele>234</ele>
        <time>2014-04-06T09:09:10Z</time>
      </trkpt>
      <trkpt lat="47.46599" lon="6.69736">
        <ele>234</ele>
        <time>2014-04-06T09:09:13Z</time>
      </trkpt>
      <trkpt lat="47.4661" lon="6.69739">
        <ele>234</ele>
        <time>2014-04-06T09:09:16Z</time>
      </trkpt>
      <trkpt lat="47.46616" lon="6.6974">
        <ele>234</ele>
        <time>2014-04-06T09:09:18Z</time>
      </trkpt>
      <trkpt lat="47.46626" lon="6.6974">
        <ele>234</ele>
        <time>2014-04-06T09:09:21Z</time>
      </trkpt>
      <trkpt lat="47.46631" lon="6.69742">
        <ele>234</ele>
        <time>2014-04-06T09:09:23Z</time>
      </trkpt>
      <trkpt lat="47.46637" lon="6.69743">
        <ele>234</ele>
        <time>2014-04-06T09:09:26Z</time>
      </trkpt>
      <trkpt lat="47.46642" lon="6.69744">
        <ele>234</ele>
        <time>2014-04-06T09:09:28Z</time>
      </trkpt>
      <trkpt lat="47.46647" lon="6.69749">
        <ele>234</ele>
        <time>2014-04-06T09:09:31Z</time>
      </trkpt>
      <trkpt lat="47.4665" lon="6.69754">
        <ele>234</ele>
        <time>2014-04-06T09:09:34Z</time>
      </trkpt>
      <trkpt lat="47.46653" lon="6.69749">
        <ele>234</ele>
        <time>2014-04-06T09:09:37Z</time>
      </trkpt>
      <trkpt lat="47.46654" lon="6.69743">
        <ele>234</ele>
        <time>2014-04-06T09:09:40Z</time>
      </trkpt>
      <trkpt lat="47.46658" lon="6.69741">
        <ele>234</ele>
        <time>2014-04-06T09:09:42Z</time>
      </trkpt>
      <trkpt lat="47.46664" lon="6.69737">
        <ele>234</ele>
        <time>2014-04-06T09:09:45Z</time>
      </trkpt>
      <trkpt lat="47.46669" lon="6.69734">
        <ele>234</ele>
        <time>2014-04-06T09:09:47Z</time>
      </trkpt>
      <trkpt lat="47.46677" lon="6.69734">
        <ele>235</ele>
        <time>2014-04-06T09:09:50Z</time>
      </trkpt>
      <trkpt lat="47.46682" lon="6.69734">
        <ele>235</ele>
        <time>2014-04-06T09:09:52Z</time>
      </trkpt>
      <trkpt lat="47.4669" lon="6.69737">
        <ele>237</ele>
        <time>2014-04-06T09:09:55Z</time>
      </trkpt>
      <trkpt lat="47.46695" lon="6.69739">
        <ele>237</ele>
        <time>2014-04-06T09:09:57Z</time>
      </trkpt>
      <trkpt lat="47.46699" lon="6.69748">
        <ele>237</ele>
        <time>2014-04-06T09:10:00Z</time>
      </trkpt>
      <trkpt lat="47.46703" lon="6.69757">
        <ele>237</ele>
        <time>2014-04-06T09:10:02Z</time>
      </trkpt>
      <trkpt lat="47.4671" lon="6.69771">
        <ele>237</ele>
        <time>2014-04-06T09:10:05Z</time>
      </trkpt>
      <trkpt lat="47.46717" lon="6.69784">
        <ele>236</ele>
        <time>2014-04-06T09:10:08Z</time>
      </trkpt>
      <trkpt lat="47.46723" lon="6.69798">
        <ele>236</ele>
        <time>2014-04-06T09:10:11Z</time>
      </trkpt>
      <trkpt lat="47.46727" lon="6.69807">
        <ele>236</ele>
        <time>2014-04-06T09:10:13Z</time>
      </trkpt>
      <trkpt lat="47.46733" lon="6.69821">
        <ele>236</ele>
        <time>2014-04-06T09:10:16Z</time>
      </trkpt>
      <trkpt lat="47.46738" lon="6.6983">
        <ele>236</ele>
        <time>2014-04-06T09:10:18Z</time>
      </trkpt>
      <trkpt lat="47.46744" lon="6.69843">
        <ele>236</ele>
        <time>2014-04-06T09:10:21Z</time>
      </trkpt>
      <trkpt lat="47.46748" lon="6.69851">
        <ele>236</ele>
        <time>2014-04-06T09:10:23Z</time>
      </trkpt>
      <trkpt lat="47.46754" lon="6.69863">
        <ele>236</ele>
        <time>2014-04-06T09:10:26Z</time>
      </trkpt>
      <trkpt lat="47.46759" lon="6.69868">
        <ele>236</ele>
        <time>2014-04-06T09:10:28Z</time>
      </trkpt>
      <trkpt lat="47.46764" lon="6.69867">
        <ele>236</ele>
        <time>2014-04-06T09:10:30Z</time>
      </trkpt>
      <trkpt lat="47.46769" lon="6.69863">
        <ele>236</ele>
        <time>2014-04-06T09:10:33Z</time>
      </trkpt>
      <trkpt lat="47.46773" lon="6.69861">
        <ele>237</ele>
        <time>2014-04-06T09:10:35Z</time>
      </trkpt>
      <trkpt lat="47.46778" lon="6.6986">
        <ele>237</ele>
        <time>2014-04-06T09:10:37Z</time>
      </trkpt>
      <trkpt lat="47.46782" lon="6.69858">
        <ele>238</ele>
        <time>2014-04-06T09:10:39Z</time>
      </trkpt>
      <trkpt lat="47.46787" lon="6.69855">
        <ele>239</ele>
        <time>2014-04-06T09:10:42Z</time>
      </trkpt>
      <trkpt lat="47.46791" lon="6.69854">
        <ele>240</ele>
        <time>2014-04-06T09:10:44Z</time>
      </trkpt>
      <trkpt lat="47.46795" lon="6.69851">
        <ele>240</ele>
        <time>2014-04-06T09:10:46Z</time>
      </trkpt>
      <trkpt lat="47.468" lon="6.69849">
        <ele>240</ele>
        <time>2014-04-06T09:10:49Z</time>
      </trkpt>
      <trkpt lat="47.46803" lon="6.69847">
        <ele>241</ele>
        <time>2014-04-06T09:10:51Z</time>
      </trkpt>
      <trkpt lat="47.46807" lon="6.69846">
        <ele>241</ele>
        <time>2014-04-06T09:10:53Z</time>
      </trkpt>
      <trkpt lat="47.46812" lon="6.69845">
        <ele>241</ele>
        <time>2014-04-06T09:10:56Z</time>
      </trkpt>
      <trkpt lat="47.46815" lon="6.69843">
        <ele>241</ele>
        <time>2014-04-06T09:10:58Z</time>
      </trkpt>
      <trkpt lat="47.46819" lon="6.69842">
        <ele>241</ele>
        <time>2014-04-06T09:11:00Z</time>
      </trkpt>
      <trkpt lat="47.46825" lon="6.69841">
        <ele>241</ele>
        <time>2014-04-06T09:11:03Z</time>
      </trkpt>
      <trkpt lat="47.46829" lon="6.69839">
        <ele>241</ele>
        <time>2014-04-06T09:11:05Z</time>
      </trkpt>
      <trkpt lat="47.46833" lon="6.69838">
        <ele>241</ele>
        <time>2014-04-06T09:11:07Z</time>
      </trkpt>
      <trkpt lat="47.46837" lon="6.69836">
        <ele>242</ele>
        <time>2014-04-06T09:11:09Z</time>
      </trkpt>
      <trkpt lat="47.46843" lon="6.69835">
        <ele>242</ele>
        <time>2014-04-06T09:11:12Z</time>
      </trkpt>
      <trkpt lat="47.46846" lon="6.69835">
        <ele>243</ele>
        <time>2014-04-06T09:11:14Z</time>
      </trkpt>
      <trkpt lat="47.46853" lon="6.69835">
        <ele>242</ele>
        <time>2014-04-06T09:11:17Z</time>
      </trkpt>
      <trkpt lat="47.46858" lon="6.69835">
        <ele>242</ele>
        <time>2014-04-06T09:11:19Z</time>
      </trkpt>
      <trkpt lat="47.46862" lon="6.69835">
        <ele>243</ele>
        <time>2014-04-06T09:11:21Z</time>
      </trkpt>
      <trkpt lat="47.46865" lon="6.69836">
        <ele>243</ele>
        <time>2014-04-06T09:11:23Z</time>
      </trkpt>
      <trkpt lat="47.4687" lon="6.69839">
        <ele>243</ele>
        <time>2014-04-06T09:11:26Z</time>
      </trkpt>
      <trkpt lat="47.46875" lon="6.69841">
        <ele>243</ele>
        <time>2014-04-06T09:11:28Z</time>
      </trkpt>
      <trkpt lat="47.4688" lon="6.69843">
        <ele>243</ele>
        <time>2014-04-06T09:11:30Z</time>
      </trkpt>
      <trkpt lat="47.46888" lon="6.69846">
        <ele>244</ele>
        <time>2014-04-06T09:11:33Z</time>
      </trkpt>
      <trkpt lat="47.46893" lon="6.69849">
        <ele>243</ele>
        <time>2014-04-06T09:11:35Z</time>
      </trkpt>
      <trkpt lat="47.469" lon="6.69855">
        <ele>243</ele>
        <time>2014-04-06T09:11:38Z</time>
      </trkpt>
      <trkpt lat="47.46907" lon="6.69862">
        <ele>244</ele>
        <time>2014-04-06T09:11:41Z</time>
      </trkpt>
      <trkpt lat="47.46913" lon="6.69867">
        <ele>244</ele>
        <time>2014-04-06T09:11:44Z</time>
      </trkpt>
      <trkpt lat="47.46917" lon="6.6987">
        <ele>244</ele>
        <time>2014-04-06T09:11:46Z</time>
      </trkpt>
      <trkpt lat="47.46925" lon="6.69876">
        <ele>244</ele>
        <time>2014-04-06T09:11:49Z</time>
      </trkpt>
      <trkpt lat="47.4693" lon="6.6988">
        <ele>244</ele>
        <time>2014-04-06T09:11:51Z</time>
      </trkpt>
      <trkpt lat="47.46938" lon="6.69886">
        <ele>244</ele>
        <time>2014-04-06T09:11:54Z</time>
      </trkpt>
      <trkpt lat="47.46943" lon="6.69891">
        <ele>245</ele>
        <time>2014-04-06T09:11:56Z</time>
      </trkpt>
      <trkpt lat="47.4695" lon="6.69898">
        <ele>245</ele>
        <time>2014-04-06T09:11:59Z</time>
      </trkpt>
      <trkpt lat="47.46958" lon="6.69905">
        <ele>245</ele>
        <time>2014-04-06T09:12:02Z</time>
      </trkpt>
      <trkpt lat="47.46967" lon="6.69914">
        <ele>245</ele>
        <time>2014-04-06T09:12:05Z</time>
      </trkpt>
      <trkpt lat="47.46973" lon="6.69922">
        <ele>245</ele>
        <time>2014-04-06T09:12:07Z</time>
      </trkpt>
      <trkpt lat="47.46982" lon="6.69933">
        <ele>245</ele>
        <time>2014-04-06T09:12:10Z</time>
      </trkpt>
      <trkpt lat="47.46991" lon="6.69944">
        <ele>245</ele>
        <time>2014-04-06T09:12:13Z</time>
      </trkpt>
      <trkpt lat="47.46998" lon="6.69951">
        <ele>245</ele>
        <time>2014-04-06T09:12:15Z</time>
      </trkpt>
      <trkpt lat="47.47009" lon="6.69962">
        <ele>245</ele>
        <time>2014-04-06T09:12:18Z</time>
      </trkpt>
      <trkpt lat="47.4702" lon="6.69975">
        <ele>245</ele>
        <time>2014-04-06T09:12:21Z</time>
      </trkpt>
      <trkpt lat="47.47027" lon="6.69983">
        <ele>245</ele>
        <time>2014-04-06T09:12:23Z</time>
      </trkpt>
      <trkpt lat="47.47039" lon="6.69996">
        <ele>246</ele>
        <time>2014-04-06T09:12:26Z</time>
      </trkpt>
      <trkpt lat="47.4705" lon="6.70009">
        <ele>246</ele>
        <time>2014-04-06T09:12:29Z</time>
      </trkpt>
      <trkpt lat="47.47062" lon="6.70021">
        <ele>246</ele>
        <time>2014-04-06T09:12:32Z</time>
      </trkpt>
      <trkpt lat="47.47071" lon="6.70035">
        <ele>247</ele>
        <time>2014-04-06T09:12:35Z</time>
      </trkpt>
      <trkpt lat="47.47077" lon="6.70044">
        <ele>247</ele>
        <time>2014-04-06T09:12:37Z</time>
      </trkpt>
      <trkpt lat="47.47087" lon="6.70057">
        <ele>248</ele>
        <time>2014-04-06T09:12:40Z</time>
      </trkpt>
      <trkpt lat="47.47097" lon="6.70068">
        <ele>248</ele>
        <time>2014-04-06T09:12:43Z</time>
      </trkpt>
      <trkpt lat="47.47107" lon="6.70082">
        <ele>248</ele>
        <time>2014-04-06T09:12:46Z</time>
      </trkpt>
      <trkpt lat="47.47113" lon="6.7009">
        <ele>248</ele>
        <time>2014-04-06T09:12:48Z</time>
      </trkpt>
      <trkpt lat="47.47124" lon="6.70103">
        <ele>247</ele>
        <time>2014-04-06T09:12:51Z</time>
      </trkpt>
      <trkpt lat="47.47137" lon="6.70117">
        <ele>248</ele>
        <time>2014-04-06T09:12:54Z</time>
      </trkpt>
      <trkpt lat="47.47149" lon="6.70128">
        <ele>247</ele>
        <time>2014-04-06T09:12:56Z</time>
      </trkpt>
      <trkpt lat="47.47168" lon="6.70149">
        <ele>247</ele>
        <time>2014-04-06T09:12:59Z</time>
      </trkpt>
      <trkpt lat="47.47183" lon="6.70165">
        <ele>246</ele>
        <time>2014-04-06T09:13:02Z</time>
      </trkpt>
      <trkpt lat="47.47194" lon="6.70179">
        <ele>246</ele>
        <time>2014-04-06T09:13:05Z</time>
      </trkpt>
      <trkpt lat="47.47201" lon="6.70187">
        <ele>245</ele>
        <time>2014-04-06T09:13:07Z</time>
      </trkpt>
      <trkpt lat="47.47208" lon="6.70193">
        <ele>245</ele>
        <time>2014-04-06T09:13:09Z</time>
      </trkpt>
      <trkpt lat="47.47218" lon="6.70192">
        <ele>245</ele>
        <time>2014-04-06T09:13:12Z</time>
      </trkpt>
      <trkpt lat="47.47219" lon="6.70186">
        <ele>245</ele>
        <time>2014-04-06T09:13:14Z</time>
      </trkpt>
      <trkpt lat="47.47219" lon="6.70178">
        <ele>246</ele>
        <time>2014-04-06T09:13:16Z</time>
      </trkpt>
      <trkpt lat="47.47219" lon="6.7017">
        <ele>246</ele>
        <time>2014-04-06T09:13:18Z</time>
      </trkpt>
      <trkpt lat="47.47218" lon="6.70159">
        <ele>246</ele>
        <time>2014-04-06T09:13:20Z</time>
      </trkpt>
      <trkpt lat="47.47215" lon="6.70142">
        <ele>247</ele>
        <time>2014-04-06T09:13:23Z</time>
      </trkpt>
      <trkpt lat="47.47214" lon="6.70129">
        <ele>247</ele>
        <time>2014-04-06T09:13:25Z</time>
      </trkpt>
      <trkpt lat="47.47211" lon="6.70112">
        <ele>248</ele>
        <time>2014-04-06T09:13:28Z</time>
      </trkpt>
      <trkpt lat="47.4721" lon="6.701">
        <ele>248</ele>
        <time>2014-04-06T09:13:30Z</time>
      </trkpt>
      <trkpt lat="47.4721" lon="6.70089">
        <ele>249</ele>
        <time>2014-04-06T09:13:32Z</time>
      </trkpt>
      <trkpt lat="47.47212" lon="6.70078">
        <ele>249</ele>
        <time>2014-04-06T09:13:35Z</time>
      </trkpt>
      <trkpt lat="47.47212" lon="6.70068">
        <ele>250</ele>
        <time>2014-04-06T09:13:37Z</time>
      </trkpt>
      <trkpt lat="47.4721" lon="6.70052">
        <ele>250</ele>
        <time>2014-04-06T09:13:40Z</time>
      </trkpt>
      <trkpt lat="47.47208" lon="6.70042">
        <ele>250</ele>
        <time>2014-04-06T09:13:42Z</time>
      </trkpt>
      <trkpt lat="47.47203" lon="6.70028">
        <ele>250</ele>
        <time>2014-04-06T09:13:45Z</time>
      </trkpt>
      <trkpt lat="47.472" lon="6.70018">
        <ele>250</ele>
        <time>2014-04-06T09:13:47Z</time>
      </trkpt>
      <trkpt lat="47.47199" lon="6.70003">
        <ele>250</ele>
        <time>2014-04-06T09:13:50Z</time>
      </trkpt>
      <trkpt lat="47.47197" lon="6.69996">
        <ele>250</ele>
        <time>2014-04-06T09:13:52Z</time>
      </trkpt>
      <trkpt lat="47.47194" lon="6.69984">
        <ele>251</ele>
        <time>2014-04-06T09:13:55Z</time>
      </trkpt>
      <trkpt lat="47.47195" lon="6.69975">
        <ele>251</ele>
        <time>2014-04-06T09:13:57Z</time>
      </trkpt>
      <trkpt lat="47.47195" lon="6.69967">
        <ele>251</ele>
        <time>2014-04-06T09:13:59Z</time>
      </trkpt>
      <trkpt lat="47.47194" lon="6.6996">
        <ele>251</ele>
        <time>2014-04-06T09:14:01Z</time>
      </trkpt>
      <trkpt lat="47.47193" lon="6.69952">
        <ele>251</ele>
        <time>2014-04-06T09:14:03Z</time>
      </trkpt>
      <trkpt lat="47.47192" lon="6.69938">
        <ele>251</ele>
        <time>2014-04-06T09:14:06Z</time>
      </trkpt>
      <trkpt lat="47.47191" lon="6.69929">
        <ele>251</ele>
        <time>2014-04-06T09:14:08Z</time>
      </trkpt>
      <trkpt lat="47.47192" lon="6.69915">
        <ele>251</ele>
        <time>2014-04-06T09:14:11Z</time>
      </trkpt>
      <trkpt lat="47.4719" lon="6.69906">
        <ele>251</ele>
        <time>2014-04-06T09:14:13Z</time>
      </trkpt>
      <trkpt lat="47.47189" lon="6.69892">
        <ele>251</ele>
        <time>2014-04-06T09:14:16Z</time>
      </trkpt>
      <trkpt lat="47.47187" lon="6.69876">
        <ele>250</ele>
        <time>2014-04-06T09:14:19Z</time>
      </trkpt>
      <trkpt lat="47.47186" lon="6.6986">
        <ele>250</ele>
        <time>2014-04-06T09:14:22Z</time>
      </trkpt>
      <trkpt lat="47.47184" lon="6.69844">
        <ele>250</ele>
        <time>2014-04-06T09:14:25Z</time>
      </trkpt>
      <trkpt lat="47.47183" lon="6.69833">
        <ele>250</ele>
        <time>2014-04-06T09:14:27Z</time>
      </trkpt>
      <trkpt lat="47.47183" lon="6.69816">
        <ele>249</ele>
        <time>2014-04-06T09:14:30Z</time>
      </trkpt>
      <trkpt lat="47.47184" lon="6.69808">
        <ele>249</ele>
        <time>2014-04-06T09:14:32Z</time>
      </trkpt>
      <trkpt lat="47.47185" lon="6.69803">
        <ele>249</ele>
        <time>2014-04-06T09:14:34Z</time>
      </trkpt>
      <trkpt lat="47.47188" lon="6.69796">
        <ele>248</ele>
        <time>2014-04-06T09:14:36Z</time>
      </trkpt>
      <trkpt lat="47.47191" lon="6.69789">
        <ele>248</ele>
        <time>2014-04-06T09:14:38Z</time>
      </trkpt>
      <trkpt lat="47.47195" lon="6.69775">
        <ele>248</ele>
        <time>2014-04-06T09:14:41Z</time>
      </trkpt>
      <trkpt lat="47.47201" lon="6.69767">
        <ele>249</ele>
        <time>2014-04-06T09:14:43Z</time>
      </trkpt>
      <trkpt lat="47.47208" lon="6.69764">
        <ele>249</ele>
        <time>2014-04-06T09:14:45Z</time>
      </trkpt>
      <trkpt lat="47.47217" lon="6.69759">
        <ele>249</ele>
        <time>2014-04-06T09:14:48Z</time>
      </trkpt>
      <trkpt lat="47.47223" lon="6.69756">
        <ele>249</ele>
        <time>2014-04-06T09:14:50Z</time>
      </trkpt>
      <trkpt lat="47.47232" lon="6.6975">
        <ele>249</ele>
        <time>2014-04-06T09:14:53Z</time>
      </trkpt>
      <trkpt lat="47.47238" lon="6.69747">
        <ele>250</ele>
        <time>2014-04-06T09:14:55Z</time>
      </trkpt>
      <trkpt lat="47.47248" lon="6.69742">
        <ele>250</ele>
        <time>2014-04-06T09:14:58Z</time>
      </trkpt>
      <trkpt lat="47.47258" lon="6.69735">
        <ele>250</ele>
        <time>2014-04-06T09:15:01Z</time>
      </trkpt>
      <trkpt lat="47.47264" lon="6.69731">
        <ele>250</ele>
        <time>2014-04-06T09:15:03Z</time>
      </trkpt>
      <trkpt lat="47.47274" lon="6.69723">
        <ele>249</ele>
        <time>2014-04-06T09:15:06Z</time>
      </trkpt>
      <trkpt lat="47.47282" lon="6.69717">
        <ele>249</ele>
        <time>2014-04-06T09:15:08Z</time>
      </trkpt>
      <trkpt lat="47.47292" lon="6.69703">
        <ele>249</ele>
        <time>2014-04-06T09:15:11Z</time>
      </trkpt>
      <trkpt lat="47.47299" lon="6.69694">
        <ele>248</ele>
        <time>2014-04-06T09:15:13Z</time>
      </trkpt>
      <trkpt lat="47.47306" lon="6.69686">
        <ele>249</ele>
        <time>2014-04-06T09:15:15Z</time>
      </trkpt>
      <trkpt lat="47.47311" lon="6.69676">
        <ele>248</ele>
        <time>2014-04-06T09:15:17Z</time>
      </trkpt>
      <trkpt lat="47.47316" lon="6.69661">
        <ele>248</ele>
        <time>2014-04-06T09:15:20Z</time>
      </trkpt>
      <trkpt lat="47.4732" lon="6.69652">
        <ele>248</ele>
        <time>2014-04-06T09:15:22Z</time>
      </trkpt>
      <trkpt lat="47.47324" lon="6.69637">
        <ele>248</ele>
        <time>2014-04-06T09:15:25Z</time>
      </trkpt>
      <trkpt lat="47.47325" lon="6.69627">
        <ele>248</ele>
        <time>2014-04-06T09:15:27Z</time>
      </trkpt>
      <trkpt lat="47.47326" lon="6.69615">
        <ele>248</ele>
        <time>2014-04-06T09:15:29Z</time>
      </trkpt>
      <trkpt lat="47.47322" lon="6.69598">
        <ele>248</ele>
        <time>2014-04-06T09:15:32Z</time>
      </trkpt>
      <trkpt lat="47.47318" lon="6.69587">
        <ele>248</ele>
        <time>2014-04-06T09:15:34Z</time>
      </trkpt>
      <trkpt lat="47.47314" lon="6.69573">
        <ele>247</ele>
        <time>2014-04-06T09:15:37Z</time>
      </trkpt>
      <trkpt lat="47.47313" lon="6.69566">
        <ele>247</ele>
        <time>2014-04-06T09:15:39Z</time>
      </trkpt>
      <trkpt lat="47.4731" lon="6.69561">
        <ele>246</ele>
        <time>2014-04-06T09:15:42Z</time>
      </trkpt>
      <trkpt lat="47.47307" lon="6.69557">
        <ele>246</ele>
        <time>2014-04-06T09:15:44Z</time>
      </trkpt>
      <trkpt lat="47.47304" lon="6.6955">
        <ele>245</ele>
        <time>2014-04-06T09:15:46Z</time>
      </trkpt>
      <trkpt lat="47.47299" lon="6.69539">
        <ele>245</ele>
        <time>2014-04-06T09:15:49Z</time>
      </trkpt>
      <trkpt lat="47.47295" lon="6.69529">
        <ele>245</ele>
        <time>2014-04-06T09:15:51Z</time>
      </trkpt>
      <trkpt lat="47.47291" lon="6.69522">
        <ele>244</ele>
        <time>2014-04-06T09:15:53Z</time>
      </trkpt>
      <trkpt lat="47.47287" lon="6.69515">
        <ele>244</ele>
        <time>2014-04-06T09:15:55Z</time>
      </trkpt>
      <trkpt lat="47.47284" lon="6.69508">
        <ele>244</ele>
        <time>2014-04-06T09:15:58Z</time>
      </trkpt>
      <trkpt lat="47.47284" lon="6.69504">
        <ele>243</ele>
        <time>2014-04-06T09:16:00Z</time>
      </trkpt>
      <trkpt lat="47.47283" lon="6.69502">
        <ele>243</ele>
        <time>2014-04-06T09:16:02Z</time>
      </trkpt>
      <trkpt lat="47.47282" lon="6.69499">
        <ele>243</ele>
        <time>2014-04-06T09:16:04Z</time>
      </trkpt>
      <trkpt lat="47.47283" lon="6.69494">
        <ele>243</ele>
        <time>2014-04-06T09:16:07Z</time>
      </trkpt>
      <trkpt lat="47.47289" lon="6.69486">
        <ele>243</ele>
        <time>2014-04-06T09:16:10Z</time>
      </trkpt>
      <trkpt lat="47.47295" lon="6.69482">
        <ele>242</ele>
        <time>2014-04-06T09:16:12Z</time>
      </trkpt>
      <trkpt lat="47.47302" lon="6.69478">
        <ele>242</ele>
        <time>2014-04-06T09:16:14Z</time>
      </trkpt>
      <trkpt lat="47.47311" lon="6.69474">
        <ele>242</ele>
        <time>2014-04-06T09:16:16Z</time>
      </trkpt>
      <trkpt lat="47.47326" lon="6.69468">
        <ele>242</ele>
        <time>2014-04-06T09:16:19Z</time>
      </trkpt>
      <trkpt lat="47.47337" lon="6.69466">
        <ele>242</ele>
        <time>2014-04-06T09:16:21Z</time>
      </trkpt>
      <trkpt lat="47.47348" lon="6.69465">
        <ele>241</ele>
        <time>2014-04-06T09:16:23Z</time>
      </trkpt>
      <trkpt lat="47.47366" lon="6.69462">
        <ele>241</ele>
        <time>2014-04-06T09:16:26Z</time>
      </trkpt>
      <trkpt lat="47.47377" lon="6.69455">
        <ele>241</ele>
        <time>2014-04-06T09:16:28Z</time>
      </trkpt>
      <trkpt lat="47.47383" lon="6.69442">
        <ele>240</ele>
        <time>2014-04-06T09:16:30Z</time>
      </trkpt>
      <trkpt lat="47.47387" lon="6.69418">
        <ele>240</ele>
        <time>2014-04-06T09:16:33Z</time>
      </trkpt>
      <trkpt lat="47.4739" lon="6.69403">
        <ele>240</ele>
        <time>2014-04-06T09:16:35Z</time>
      </trkpt>
      <trkpt lat="47.47394" lon="6.69387">
        <ele>239</ele>
        <time>2014-04-06T09:16:37Z</time>
      </trkpt>
      <trkpt lat="47.47396" lon="6.69366">
        <ele>239</ele>
        <time>2014-04-06T09:16:40Z</time>
      </trkpt>
      <trkpt lat="47.47395" lon="6.69353">
        <ele>239</ele>
        <time>2014-04-06T09:16:42Z</time>
      </trkpt>
      <trkpt lat="47.47393" lon="6.6934">
        <ele>239</ele>
        <time>2014-04-06T09:16:44Z</time>
      </trkpt>
      <trkpt lat="47.4739" lon="6.69327">
        <ele>238</ele>
        <time>2014-04-06T09:16:46Z</time>
      </trkpt>
      <trkpt lat="47.47386" lon="6.69316">
        <ele>238</ele>
        <time>2014-04-06T09:16:48Z</time>
      </trkpt>
      <trkpt lat="47.47379" lon="6.69302">
        <ele>239</ele>
        <time>2014-04-06T09:16:51Z</time>
      </trkpt>
      <trkpt lat="47.47374" lon="6.69292">
        <ele>239</ele>
        <time>2014-04-06T09:16:53Z</time>
      </trkpt>
      <trkpt lat="47.47367" lon="6.69279">
        <ele>239</ele>
        <time>2014-04-06T09:16:56Z</time>
      </trkpt>
      <trkpt lat="47.47363" lon="6.6927">
        <ele>239</ele>
        <time>2014-04-06T09:16:58Z</time>
      </trkpt>
      <trkpt lat="47.47362" lon="6.6926">
        <ele>239</ele>
        <time>2014-04-06T09:17:01Z</time>
      </trkpt>
      <trkpt lat="47.47362" lon="6.69256">
        <ele>239</ele>
        <time>2014-04-06T09:17:03Z</time>
      </trkpt>
      <trkpt lat="47.47362" lon="6.69253">
        <ele>239</ele>
        <time>2014-04-06T09:17:05Z</time>
      </trkpt>
      <trkpt lat="47.47362" lon="6.69245">
        <ele>240</ele>
        <time>2014-04-06T09:17:08Z</time>
      </trkpt>
      <trkpt lat="47.4736" lon="6.69236">
        <ele>240</ele>
        <time>2014-04-06T09:17:10Z</time>
      </trkpt>
      <trkpt lat="47.47356" lon="6.69228">
        <ele>240</ele>
        <time>2014-04-06T09:17:12Z</time>
      </trkpt>
      <trkpt lat="47.4735" lon="6.69216">
        <ele>240</ele>
        <time>2014-04-06T09:17:15Z</time>
      </trkpt>
      <trkpt lat="47.47345" lon="6.69209">
        <ele>240</ele>
        <time>2014-04-06T09:17:17Z</time>
      </trkpt>
      <trkpt lat="47.47338" lon="6.69195">
        <ele>240</ele>
        <time>2014-04-06T09:17:20Z</time>
      </trkpt>
      <trkpt lat="47.47333" lon="6.69187">
        <ele>239</ele>
        <time>2014-04-06T09:17:22Z</time>
      </trkpt>
      <trkpt lat="47.47328" lon="6.69178">
        <ele>239</ele>
        <time>2014-04-06T09:17:24Z</time>
      </trkpt>
      <trkpt lat="47.47324" lon="6.6917">
        <ele>239</ele>
        <time>2014-04-06T09:17:26Z</time>
      </trkpt>
      <trkpt lat="47.47319" lon="6.69162">
        <ele>239</ele>
        <time>2014-04-06T09:17:28Z</time>
      </trkpt>
      <trkpt lat="47.47315" lon="6.69154">
        <ele>239</ele>
        <time>2014-04-06T09:17:30Z</time>
      </trkpt>
      <trkpt lat="47.47313" lon="6.69147">
        <ele>239</ele>
        <time>2014-04-06T09:17:33Z</time>
      </trkpt>
      <trkpt lat="47.47313" lon="6.69147">
        <ele>239</ele>
        <time>2014-04-06T09:17:35Z</time>
      </trkpt>
      <trkpt lat="47.47313" lon="6.69147">
        <ele>238</ele>
        <time>2014-04-06T09:17:37Z</time>
      </trkpt>
      <trkpt lat="47.47313" lon="6.69147">
        <ele>238</ele>
        <time>2014-04-06T09:17:42Z</time>
      </trkpt>
      <trkpt lat="47.47313" lon="6.69147">
        <ele>238</ele>
        <time>2014-04-06T09:17:46Z</time>
      </trkpt>
      <trkpt lat="47.47313" lon="6.69147">
        <ele>238</ele>
        <time>2014-04-06T09:17:49Z</time>
      </trkpt>
      <trkpt lat="47.47313" lon="6.69147">
        <ele>239</ele>
        <time>2014-04-06T09:17:51Z</time>
      </trkpt>
      <trkpt lat="47.47313" lon="6.69147">
        <ele>239</ele>
        <time>2014-04-06T09:17:54Z</time>
      </trkpt>
      <trkpt lat="47.47313" lon="6.69147">
        <ele>239</ele>
        <time>2014-04-06T09:17:56Z</time>
      </trkpt>
      <trkpt lat="47.47313" lon="6.69146">
        <ele>239</ele>
        <time>2014-04-06T09:17:59Z</time>
      </trkpt>
      <trkpt lat="47.47313" lon="6.69147">
        <ele>239</ele>
        <time>2014-04-06T09:18:03Z</time>
      </trkpt>
      <trkpt lat="47.47314" lon="6.69147">
        <ele>239</ele>
        <time>2014-04-06T09:18:09Z</time>
      </trkpt>
      <trkpt lat="47.47314" lon="6.69146">
        <ele>239</ele>
        <time>2014-04-06T09:18:13Z</time>
      </trkpt>
      <trkpt lat="47.47315" lon="6.69145">
        <ele>239</ele>
        <time>2014-04-06T09:18:16Z</time>
      </trkpt>
      <trkpt lat="47.47316" lon="6.69143">
        <ele>239</ele>
        <time>2014-04-06T09:18:18Z</time>
      </trkpt>
      <trkpt lat="47.47319" lon="6.69142">
        <ele>239</ele>
        <time>2014-04-06T09:18:21Z</time>
      </trkpt>
      <trkpt lat="47.47321" lon="6.69139">
        <ele>239</ele>
        <time>2014-04-06T09:18:24Z</time>
      </trkpt>
      <trkpt lat="47.47323" lon="6.69137">
        <ele>239</ele>
        <time>2014-04-06T09:18:26Z</time>
      </trkpt>
      <trkpt lat="47.47326" lon="6.69137">
        <ele>239</ele>
        <time>2014-04-06T09:18:28Z</time>
      </trkpt>
      <trkpt lat="47.47331" lon="6.69138">
        <ele>239</ele>
        <time>2014-04-06T09:18:31Z</time>
      </trkpt>
      <trkpt lat="47.47333" lon="6.69141">
        <ele>239</ele>
        <time>2014-04-06T09:18:33Z</time>
      </trkpt>
      <trkpt lat="47.47334" lon="6.69139">
        <ele>239</ele>
        <time>2014-04-06T09:18:35Z</time>
      </trkpt>
      <trkpt lat="47.47329" lon="6.69137">
        <ele>239</ele>
        <time>2014-04-06T09:18:38Z</time>
      </trkpt>
      <trkpt lat="47.47326" lon="6.69136">
        <ele>239</ele>
        <time>2014-04-06T09:18:40Z</time>
      </trkpt>
      <trkpt lat="47.47322" lon="6.69131">
        <ele>239</ele>
        <time>2014-04-06T09:18:43Z</time>
      </trkpt>
      <trkpt lat="47.4732" lon="6.69124">
        <ele>239</ele>
        <time>2014-04-06T09:18:45Z</time>
      </trkpt>
      <trkpt lat="47.47318" lon="6.69117">
        <ele>239</ele>
        <time>2014-04-06T09:18:47Z</time>
      </trkpt>
      <trkpt lat="47.47315" lon="6.69109">
        <ele>239</ele>
        <time>2014-04-06T09:18:49Z</time>
      </trkpt>
      <trkpt lat="47.47313" lon="6.691">
        <ele>239</ele>
        <time>2014-04-06T09:18:51Z</time>
      </trkpt>
      <trkpt lat="47.47313" lon="6.69092">
        <ele>239</ele>
        <time>2014-04-06T09:18:53Z</time>
      </trkpt>
      <trkpt lat="47.47314" lon="6.69084">
        <ele>239</ele>
        <time>2014-04-06T09:18:55Z</time>
      </trkpt>
      <trkpt lat="47.47316" lon="6.69073">
        <ele>239</ele>
        <time>2014-04-06T09:18:58Z</time>
      </trkpt>
      <trkpt lat="47.47319" lon="6.69063">
        <ele>239</ele>
        <time>2014-04-06T09:19:01Z</time>
      </trkpt>
      <trkpt lat="47.47322" lon="6.69051">
        <ele>239</ele>
        <time>2014-04-06T09:19:04Z</time>
      </trkpt>
      <trkpt lat="47.47325" lon="6.6904">
        <ele>239</ele>
        <time>2014-04-06T09:19:07Z</time>
      </trkpt>
      <trkpt lat="47.47327" lon="6.69028">
        <ele>239</ele>
        <time>2014-04-06T09:19:10Z</time>
      </trkpt>
      <trkpt lat="47.4733" lon="6.69017">
        <ele>239</ele>
        <time>2014-04-06T09:19:13Z</time>
      </trkpt>
      <trkpt lat="47.47334" lon="6.69005">
        <ele>239</ele>
        <time>2014-04-06T09:19:16Z</time>
      </trkpt>
      <trkpt lat="47.47337" lon="6.68997">
        <ele>240</ele>
        <time>2014-04-06T09:19:18Z</time>
      </trkpt>
      <trkpt lat="47.4734" lon="6.6899">
        <ele>240</ele>
        <time>2014-04-06T09:19:20Z</time>
      </trkpt>
      <trkpt lat="47.47346" lon="6.68979">
        <ele>240</ele>
        <time>2014-04-06T09:19:23Z</time>
      </trkpt>
      <trkpt lat="47.4735" lon="6.68974">
        <ele>240</ele>
        <time>2014-04-06T09:19:25Z</time>
      </trkpt>
      <trkpt lat="47.47354" lon="6.68968">
        <ele>240</ele>
        <time>2014-04-06T09:19:27Z</time>
      </trkpt>
      <trkpt lat="47.47359" lon="6.68963">
        <ele>240</ele>
        <time>2014-04-06T09:19:29Z</time>
      </trkpt>
      <trkpt lat="47.47364" lon="6.68959">
        <ele>240</ele>
        <time>2014-04-06T09:19:32Z</time>
      </trkpt>
      <trkpt lat="47.47364" lon="6.68959">
        <ele>240</ele>
        <time>2014-04-06T09:19:35Z</time>
      </trkpt>
      <trkpt lat="47.47364" lon="6.68958">
        <ele>240</ele>
        <time>2014-04-06T09:19:37Z</time>
      </trkpt>
      <trkpt lat="47.47364" lon="6.68955">
        <ele>240</ele>
        <time>2014-04-06T09:19:39Z</time>
      </trkpt>
      <trkpt lat="47.47368" lon="6.68948">
        <ele>241</ele>
        <time>2014-04-06T09:19:42Z</time>
      </trkpt>
      <trkpt lat="47.47371" lon="6.68944">
        <ele>241</ele>
        <time>2014-04-06T09:19:44Z</time>
      </trkpt>
      <trkpt lat="47.47375" lon="6.68938">
        <ele>241</ele>
        <time>2014-04-06T09:19:46Z</time>
      </trkpt>
      <trkpt lat="47.47381" lon="6.68931">
        <ele>242</ele>
        <time>2014-04-06T09:19:49Z</time>
      </trkpt>
      <trkpt lat="47.47385" lon="6.68926">
        <ele>242</ele>
        <time>2014-04-06T09:19:51Z</time>
      </trkpt>
      <trkpt lat="47.4739" lon="6.68921">
        <ele>242</ele>
        <time>2014-04-06T09:19:53Z</time>
      </trkpt>
      <trkpt lat="47.47395" lon="6.68915">
        <ele>243</ele>
        <time>2014-04-06T09:19:55Z</time>
      </trkpt>
      <trkpt lat="47.47403" lon="6.68903">
        <ele>243</ele>
        <time>2014-04-06T09:19:58Z</time>
      </trkpt>
      <trkpt lat="47.47409" lon="6.68897">
        <ele>243</ele>
        <time>2014-04-06T09:20:00Z</time>
      </trkpt>
      <trkpt lat="47.47414" lon="6.6889">
        <ele>243</ele>
        <time>2014-04-06T09:20:02Z</time>
      </trkpt>
      <trkpt lat="47.4742" lon="6.68881">
        <ele>244</ele>
        <time>2014-04-06T09:20:05Z</time>
      </trkpt>
      <trkpt lat="47.47425" lon="6.68875">
        <ele>245</ele>
        <time>2014-04-06T09:20:07Z</time>
      </trkpt>
      <trkpt lat="47.47429" lon="6.68869">
        <ele>245</ele>
        <time>2014-04-06T09:20:09Z</time>
      </trkpt>
      <trkpt lat="47.47435" lon="6.6886">
        <ele>245</ele>
        <time>2014-04-06T09:20:12Z</time>
      </trkpt>
      <trkpt lat="47.4744" lon="6.68854">
        <ele>245</ele>
        <time>2014-04-06T09:20:14Z</time>
      </trkpt>
      <trkpt lat="47.47447" lon="6.68851">
        <ele>245</ele>
        <time>2014-04-06T09:20:16Z</time>
      </trkpt>
      <trkpt lat="47.47456" lon="6.68854">
        <ele>246</ele>
        <time>2014-04-06T09:20:19Z</time>
      </trkpt>
      <trkpt lat="47.47462" lon="6.68857">
        <ele>246</ele>
        <time>2014-04-06T09:20:21Z</time>
      </trkpt>
      <trkpt lat="47.47469" lon="6.6886">
        <ele>246</ele>
        <time>2014-04-06T09:20:23Z</time>
      </trkpt>
      <trkpt lat="47.47476" lon="6.68862">
        <ele>247</ele>
        <time>2014-04-06T09:20:25Z</time>
      </trkpt>
      <trkpt lat="47.47483" lon="6.68863">
        <ele>247</ele>
        <time>2014-04-06T09:20:27Z</time>
      </trkpt>
      <trkpt lat="47.4749" lon="6.68865">
        <ele>247</ele>
        <time>2014-04-06T09:20:29Z</time>
      </trkpt>
      <trkpt lat="47.47497" lon="6.68865">
        <ele>248</ele>
        <time>2014-04-06T09:20:31Z</time>
      </trkpt>
      <trkpt lat="47.47506" lon="6.68864">
        <ele>248</ele>
        <time>2014-04-06T09:20:34Z</time>
      </trkpt>
      <trkpt lat="47.47511" lon="6.68863">
        <ele>248</ele>
        <time>2014-04-06T09:20:36Z</time>
      </trkpt>
      <trkpt lat="47.47517" lon="6.68862">
        <ele>248</ele>
        <time>2014-04-06T09:20:38Z</time>
      </trkpt>
      <trkpt lat="47.47525" lon="6.6886">
        <ele>249</ele>
        <time>2014-04-06T09:20:41Z</time>
      </trkpt>
      <trkpt lat="47.4753" lon="6.68858">
        <ele>249</ele>
        <time>2014-04-06T09:20:43Z</time>
      </trkpt>
      <trkpt lat="47.47535" lon="6.68857">
        <ele>250</ele>
        <time>2014-04-06T09:20:45Z</time>
      </trkpt>
      <trkpt lat="47.47541" lon="6.68855">
        <ele>251</ele>
        <time>2014-04-06T09:20:47Z</time>
      </trkpt>
      <trkpt lat="47.47549" lon="6.68852">
        <ele>251</ele>
        <time>2014-04-06T09:20:50Z</time>
      </trkpt>
      <trkpt lat="47.47554" lon="6.6885">
        <ele>251</ele>
        <time>2014-04-06T09:20:52Z</time>
      </trkpt>
      <trkpt lat="47.47559" lon="6.68849">
        <ele>252</ele>
        <time>2014-04-06T09:20:54Z</time>
      </trkpt>
      <trkpt lat="47.47566" lon="6.68847">
        <ele>252</ele>
        <time>2014-04-06T09:20:57Z</time>
      </trkpt>
      <trkpt lat="47.47571" lon="6.68845">
        <ele>252</ele>
        <time>2014-04-06T09:20:59Z</time>
      </trkpt>
      <trkpt lat="47.47575" lon="6.68842">
        <ele>253</ele>
        <time>2014-04-06T09:21:01Z</time>
      </trkpt>
      <trkpt lat="47.47583" lon="6.68838">
        <ele>253</ele>
        <time>2014-04-06T09:21:04Z</time>
      </trkpt>
      <trkpt lat="47.47588" lon="6.68836">
        <ele>253</ele>
        <time>2014-04-06T09:21:06Z</time>
      </trkpt>
      <trkpt lat="47.47593" lon="6.68833">
        <ele>254</ele>
        <time>2014-04-06T09:21:08Z</time>
      </trkpt>
      <trkpt lat="47.47601" lon="6.68829">
        <ele>255</ele>
        <time>2014-04-06T09:21:11Z</time>
      </trkpt>
      <trkpt lat="47.47606" lon="6.68826">
        <ele>255</ele>
        <time>2014-04-06T09:21:13Z</time>
      </trkpt>
      <trkpt lat="47.4761" lon="6.68822">
        <ele>255</ele>
        <time>2014-04-06T09:21:15Z</time>
      </trkpt>
      <trkpt lat="47.47617" lon="6.68817">
        <ele>255</ele>
        <time>2014-04-06T09:21:18Z</time>
      </trkpt>
      <trkpt lat="47.47622" lon="6.68814">
        <ele>256</ele>
        <time>2014-04-06T09:21:20Z</time>
      </trkpt>
      <trkpt lat="47.47627" lon="6.6881">
        <ele>256</ele>
        <time>2014-04-06T09:21:22Z</time>
      </trkpt>
      <trkpt lat="47.4763" lon="6.68804">
        <ele>256</ele>
        <time>2014-04-06T09:21:24Z</time>
      </trkpt>
      <trkpt lat="47.47633" lon="6.68792">
        <ele>256</ele>
        <time>2014-04-06T09:21:27Z</time>
      </trkpt>
      <trkpt lat="47.47636" lon="6.6878">
        <ele>256</ele>
        <time>2014-04-06T09:21:30Z</time>
      </trkpt>
      <trkpt lat="47.47637" lon="6.68772">
        <ele>256</ele>
        <time>2014-04-06T09:21:32Z</time>
      </trkpt>
      <trkpt lat="47.47639" lon="6.68764">
        <ele>257</ele>
        <time>2014-04-06T09:21:34Z</time>
      </trkpt>
      <trkpt lat="47.47641" lon="6.68752">
        <ele>257</ele>
        <time>2014-04-06T09:21:37Z</time>
      </trkpt>
      <trkpt lat="47.47642" lon="6.68744">
        <ele>258</ele>
        <time>2014-04-06T09:21:39Z</time>
      </trkpt>
      <trkpt lat="47.47643" lon="6.68736">
        <ele>258</ele>
        <time>2014-04-06T09:21:41Z</time>
      </trkpt>
      <trkpt lat="47.47644" lon="6.68728">
        <ele>258</ele>
        <time>2014-04-06T09:21:43Z</time>
      </trkpt>
      <trkpt lat="47.47645" lon="6.68715">
        <ele>258</ele>
        <time>2014-04-06T09:21:46Z</time>
      </trkpt>
      <trkpt lat="47.47647" lon="6.68707">
        <ele>258</ele>
        <time>2014-04-06T09:21:48Z</time>
      </trkpt>
      <trkpt lat="47.47652" lon="6.68697">
        <ele>259</ele>
        <time>2014-04-06T09:21:51Z</time>
      </trkpt>
      <trkpt lat="47.47658" lon="6.68687">
        <ele>259</ele>
        <time>2014-04-06T09:21:54Z</time>
      </trkpt>
      <trkpt lat="47.47662" lon="6.68682">
        <ele>259</ele>
        <time>2014-04-06T09:21:56Z</time>
      </trkpt>
      <trkpt lat="47.47668" lon="6.68673">
        <ele>259</ele>
        <time>2014-04-06T09:21:59Z</time>
      </trkpt>
      <trkpt lat="47.47672" lon="6.68667">
        <ele>260</ele>
        <time>2014-04-06T09:22:01Z</time>
      </trkpt>
      <trkpt lat="47.47677" lon="6.68661">
        <ele>260</ele>
        <time>2014-04-06T09:22:03Z</time>
      </trkpt>
      <trkpt lat="47.47683" lon="6.68652">
        <ele>260</ele>
        <time>2014-04-06T09:22:06Z</time>
      </trkpt>
      <trkpt lat="47.47688" lon="6.68646">
        <ele>260</ele>
        <time>2014-04-06T09:22:08Z</time>
      </trkpt>
      <trkpt lat="47.47692" lon="6.68641">
        <ele>261</ele>
        <time>2014-04-06T09:22:10Z</time>
      </trkpt>
      <trkpt lat="47.47699" lon="6.68631">
        <ele>261</ele>
        <time>2014-04-06T09:22:13Z</time>
      </trkpt>
      <trkpt lat="47.47705" lon="6.68622">
        <ele>261</ele>
        <time>2014-04-06T09:22:16Z</time>
      </trkpt>
      <trkpt lat="47.47709" lon="6.68615">
        <ele>261</ele>
        <time>2014-04-06T09:22:18Z</time>
      </trkpt>
      <trkpt lat="47.47714" lon="6.6861">
        <ele>261</ele>
        <time>2014-04-06T09:22:20Z</time>
      </trkpt>
      <trkpt lat="47.4772" lon="6.68602">
        <ele>262</ele>
        <time>2014-04-06T09:22:23Z</time>
      </trkpt>
      <trkpt lat="47.47725" lon="6.68598">
        <ele>263</ele>
        <time>2014-04-06T09:22:25Z</time>
      </trkpt>
      <trkpt lat="47.4773" lon="6.68594">
        <ele>263</ele>
        <time>2014-04-06T09:22:27Z</time>
      </trkpt>
      <trkpt lat="47.47736" lon="6.68588">
        <ele>263</ele>
        <time>2014-04-06T09:22:30Z</time>
      </trkpt>
      <trkpt lat="47.47741" lon="6.68585">
        <ele>263</ele>
        <time>2014-04-06T09:22:32Z</time>
      </trkpt>
      <trkpt lat="47.47746" lon="6.68581">
        <ele>264</ele>
        <time>2014-04-06T09:22:34Z</time>
      </trkpt>
      <trkpt lat="47.47752" lon="6.68577">
        <ele>264</ele>
        <time>2014-04-06T09:22:37Z</time>
      </trkpt>
      <trkpt lat="47.47757" lon="6.68575">
        <ele>264</ele>
        <time>2014-04-06T09:22:39Z</time>
      </trkpt>
      <trkpt lat="47.47762" lon="6.68573">
        <ele>265</ele>
        <time>2014-04-06T09:22:41Z</time>
      </trkpt>
      <trkpt lat="47.47767" lon="6.68571">
        <ele>265</ele>
        <time>2014-04-06T09:22:43Z</time>
      </trkpt>
      <trkpt lat="47.47772" lon="6.68569">
        <ele>265</ele>
        <time>2014-04-06T09:22:45Z</time>
      </trkpt>
      <trkpt lat="47.47776" lon="6.68566">
        <ele>266</ele>
        <time>2014-04-06T09:22:47Z</time>
      </trkpt>
      <trkpt lat="47.47783" lon="6.68563">
        <ele>266</ele>
        <time>2014-04-06T09:22:50Z</time>
      </trkpt>
      <trkpt lat="47.47787" lon="6.68562">
        <ele>267</ele>
        <time>2014-04-06T09:22:52Z</time>
      </trkpt>
      <trkpt lat="47.47792" lon="6.6856">
        <ele>267</ele>
        <time>2014-04-06T09:22:54Z</time>
      </trkpt>
      <trkpt lat="47.47798" lon="6.68557">
        <ele>267</ele>
        <time>2014-04-06T09:22:57Z</time>
      </trkpt>
      <trkpt lat="47.47802" lon="6.68554">
        <ele>268</ele>
        <time>2014-04-06T09:22:59Z</time>
      </trkpt>
      <trkpt lat="47.47806" lon="6.68551">
        <ele>268</ele>
        <time>2014-04-06T09:23:01Z</time>
      </trkpt>
      <trkpt lat="47.47813" lon="6.68546">
        <ele>269</ele>
        <time>2014-04-06T09:23:04Z</time>
      </trkpt>
      <trkpt lat="47.47817" lon="6.68542">
        <ele>269</ele>
        <time>2014-04-06T09:23:06Z</time>
      </trkpt>
      <trkpt lat="47.47821" lon="6.68538">
        <ele>269</ele>
        <time>2014-04-06T09:23:08Z</time>
      </trkpt>
      <trkpt lat="47.47826" lon="6.68532">
        <ele>270</ele>
        <time>2014-04-06T09:23:11Z</time>
      </trkpt>
      <trkpt lat="47.47829" lon="6.68527">
        <ele>271</ele>
        <time>2014-04-06T09:23:13Z</time>
      </trkpt>
      <trkpt lat="47.47834" lon="6.68519">
        <ele>271</ele>
        <time>2014-04-06T09:23:16Z</time>
      </trkpt>
      <trkpt lat="47.47838" lon="6.68514">
        <ele>272</ele>
        <time>2014-04-06T09:23:18Z</time>
      </trkpt>
      <trkpt lat="47.47843" lon="6.68507">
        <ele>272</ele>
        <time>2014-04-06T09:23:21Z</time>
      </trkpt>
      <trkpt lat="47.47846" lon="6.68502">
        <ele>272</ele>
        <time>2014-04-06T09:23:23Z</time>
      </trkpt>
      <trkpt lat="47.47849" lon="6.68497">
        <ele>273</ele>
        <time>2014-04-06T09:23:25Z</time>
      </trkpt>
      <trkpt lat="47.47852" lon="6.68492">
        <ele>273</ele>
        <time>2014-04-06T09:23:27Z</time>
      </trkpt>
      <trkpt lat="47.47855" lon="6.68486">
        <ele>274</ele>
        <time>2014-04-06T09:23:29Z</time>
      </trkpt>
      <trkpt lat="47.47858" lon="6.6848">
        <ele>274</ele>
        <time>2014-04-06T09:23:31Z</time>
      </trkpt>
      <trkpt lat="47.47861" lon="6.68471">
        <ele>275</ele>
        <time>2014-04-06T09:23:34Z</time>
      </trkpt>
      <trkpt lat="47.47864" lon="6.68465">
        <ele>275</ele>
        <time>2014-04-06T09:23:36Z</time>
      </trkpt>
      <trkpt lat="47.47866" lon="6.68459">
        <ele>275</ele>
        <time>2014-04-06T09:23:38Z</time>
      </trkpt>
      <trkpt lat="47.4787" lon="6.68448">
        <ele>276</ele>
        <time>2014-04-06T09:23:41Z</time>
      </trkpt>
      <trkpt lat="47.47873" lon="6.68438">
        <ele>276</ele>
        <time>2014-04-06T09:23:44Z</time>
      </trkpt>
      <trkpt lat="47.47877" lon="6.68429">
        <ele>277</ele>
        <time>2014-04-06T09:23:47Z</time>
      </trkpt>
      <trkpt lat="47.47879" lon="6.68423">
        <ele>277</ele>
        <time>2014-04-06T09:23:49Z</time>
      </trkpt>
      <trkpt lat="47.47881" lon="6.68417">
        <ele>277</ele>
        <time>2014-04-06T09:23:51Z</time>
      </trkpt>
      <trkpt lat="47.47885" lon="6.68409">
        <ele>278</ele>
        <time>2014-04-06T09:23:54Z</time>
      </trkpt>
      <trkpt lat="47.47887" lon="6.68402">
        <ele>278</ele>
        <time>2014-04-06T09:23:56Z</time>
      </trkpt>
      <trkpt lat="47.4789" lon="6.68396">
        <ele>279</ele>
        <time>2014-04-06T09:23:58Z</time>
      </trkpt>
      <trkpt lat="47.47894" lon="6.68387">
        <ele>279</ele>
        <time>2014-04-06T09:24:01Z</time>
      </trkpt>
      <trkpt lat="47.47896" lon="6.68379">
        <ele>280</ele>
        <time>2014-04-06T09:24:03Z</time>
      </trkpt>
      <trkpt lat="47.479" lon="6.6837">
        <ele>281</ele>
        <time>2014-04-06T09:24:06Z</time>
      </trkpt>
      <trkpt lat="47.47902" lon="6.68363">
        <ele>281</ele>
        <time>2014-04-06T09:24:08Z</time>
      </trkpt>
      <trkpt lat="47.47906" lon="6.68355">
        <ele>282</ele>
        <time>2014-04-06T09:24:11Z</time>
      </trkpt>
      <trkpt lat="47.4791" lon="6.68346">
        <ele>282</ele>
        <time>2014-04-06T09:24:14Z</time>
      </trkpt>
      <trkpt lat="47.47912" lon="6.68339">
        <ele>283</ele>
        <time>2014-04-06T09:24:16Z</time>
      </trkpt>
      <trkpt lat="47.47915" lon="6.6833">
        <ele>283</ele>
        <time>2014-04-06T09:24:19Z</time>
      </trkpt>
      <trkpt lat="47.47918" lon="6.68321">
        <ele>283</ele>
        <time>2014-04-06T09:24:22Z</time>
      </trkpt>
      <trkpt lat="47.47922" lon="6.68312">
        <ele>284</ele>
        <time>2014-04-06T09:24:25Z</time>
      </trkpt>
      <trkpt lat="47.47924" lon="6.68305">
        <ele>284</ele>
        <time>2014-04-06T09:24:27Z</time>
      </trkpt>
      <trkpt lat="47.47926" lon="6.68297">
        <ele>285</ele>
        <time>2014-04-06T09:24:29Z</time>
      </trkpt>
      <trkpt lat="47.47929" lon="6.68287">
        <ele>285</ele>
        <time>2014-04-06T09:24:32Z</time>
      </trkpt>
      <trkpt lat="47.4793" lon="6.6828">
        <ele>286</ele>
        <time>2014-04-06T09:24:34Z</time>
      </trkpt>
      <trkpt lat="47.47932" lon="6.68273">
        <ele>286</ele>
        <time>2014-04-06T09:24:36Z</time>
      </trkpt>
      <trkpt lat="47.47934" lon="6.68266">
        <ele>287</ele>
        <time>2014-04-06T09:24:38Z</time>
      </trkpt>
      <trkpt lat="47.47937" lon="6.6826">
        <ele>287</ele>
        <time>2014-04-06T09:24:40Z</time>
      </trkpt>
      <trkpt lat="47.47939" lon="6.6825">
        <ele>288</ele>
        <time>2014-04-06T09:24:43Z</time>
      </trkpt>
      <trkpt lat="47.47942" lon="6.68239">
        <ele>288</ele>
        <time>2014-04-06T09:24:46Z</time>
      </trkpt>
      <trkpt lat="47.47944" lon="6.68232">
        <ele>288</ele>
        <time>2014-04-06T09:24:48Z</time>
      </trkpt>
      <trkpt lat="47.47945" lon="6.68224">
        <ele>289</ele>
        <time>2014-04-06T09:24:50Z</time>
      </trkpt>
      <trkpt lat="47.47947" lon="6.68216">
        <ele>289</ele>
        <time>2014-04-06T09:24:52Z</time>
      </trkpt>
      <trkpt lat="47.47949" lon="6.68204">
        <ele>290</ele>
        <time>2014-04-06T09:24:55Z</time>
      </trkpt>
      <trkpt lat="47.47951" lon="6.68196">
        <ele>291</ele>
        <time>2014-04-06T09:24:57Z</time>
      </trkpt>
      <trkpt lat="47.47952" lon="6.68188">
        <ele>291</ele>
        <time>2014-04-06T09:24:59Z</time>
      </trkpt>
      <trkpt lat="47.47955" lon="6.68176">
        <ele>292</ele>
        <time>2014-04-06T09:25:02Z</time>
      </trkpt>
      <trkpt lat="47.47956" lon="6.68167">
        <ele>292</ele>
        <time>2014-04-06T09:25:04Z</time>
      </trkpt>
      <trkpt lat="47.47958" lon="6.6816">
        <ele>292</ele>
        <time>2014-04-06T09:25:06Z</time>
      </trkpt>
      <trkpt lat="47.47959" lon="6.68153">
        <ele>293</ele>
        <time>2014-04-06T09:25:08Z</time>
      </trkpt>
      <trkpt lat="47.47961" lon="6.68143">
        <ele>293</ele>
        <time>2014-04-06T09:25:11Z</time>
      </trkpt>
      <trkpt lat="47.47963" lon="6.68135">
        <ele>294</ele>
        <time>2014-04-06T09:25:13Z</time>
      </trkpt>
      <trkpt lat="47.47964" lon="6.68128">
        <ele>294</ele>
        <time>2014-04-06T09:25:15Z</time>
      </trkpt>
      <trkpt lat="47.47965" lon="6.68116">
        <ele>294</ele>
        <time>2014-04-06T09:25:18Z</time>
      </trkpt>
      <trkpt lat="47.47966" lon="6.68108">
        <ele>295</ele>
        <time>2014-04-06T09:25:20Z</time>
      </trkpt>
      <trkpt lat="47.47966" lon="6.68099">
        <ele>295</ele>
        <time>2014-04-06T09:25:22Z</time>
      </trkpt>
      <trkpt lat="47.47966" lon="6.68085">
        <ele>296</ele>
        <time>2014-04-06T09:25:25Z</time>
      </trkpt>
      <trkpt lat="47.47965" lon="6.68076">
        <ele>296</ele>
        <time>2014-04-06T09:25:27Z</time>
      </trkpt>
      <trkpt lat="47.47965" lon="6.68067">
        <ele>297</ele>
        <time>2014-04-06T09:25:29Z</time>
      </trkpt>
      <trkpt lat="47.47963" lon="6.68054">
        <ele>297</ele>
        <time>2014-04-06T09:25:32Z</time>
      </trkpt>
      <trkpt lat="47.47963" lon="6.68046">
        <ele>298</ele>
        <time>2014-04-06T09:25:34Z</time>
      </trkpt>
      <trkpt lat="47.47963" lon="6.68038">
        <ele>298</ele>
        <time>2014-04-06T09:25:36Z</time>
      </trkpt>
      <trkpt lat="47.47962" lon="6.68026">
        <ele>299</ele>
        <time>2014-04-06T09:25:39Z</time>
      </trkpt>
      <trkpt lat="47.47962" lon="6.68019">
        <ele>299</ele>
        <time>2014-04-06T09:25:41Z</time>
      </trkpt>
      <trkpt lat="47.47963" lon="6.68012">
        <ele>299</ele>
        <time>2014-04-06T09:25:43Z</time>
      </trkpt>
      <trkpt lat="47.47964" lon="6.68001">
        <ele>300</ele>
        <time>2014-04-06T09:25:46Z</time>
      </trkpt>
      <trkpt lat="47.47966" lon="6.67994">
        <ele>300</ele>
        <time>2014-04-06T09:25:48Z</time>
      </trkpt>
      <trkpt lat="47.47969" lon="6.67983">
        <ele>301</ele>
        <time>2014-04-06T09:25:51Z</time>
      </trkpt>
      <trkpt lat="47.47971" lon="6.67977">
        <ele>301</ele>
        <time>2014-04-06T09:25:53Z</time>
      </trkpt>
      <trkpt lat="47.47975" lon="6.67966">
        <ele>302</ele>
        <time>2014-04-06T09:25:56Z</time>
      </trkpt>
      <trkpt lat="47.47979" lon="6.67955">
        <ele>302</ele>
        <time>2014-04-06T09:25:59Z</time>
      </trkpt>
      <trkpt lat="47.47983" lon="6.67949">
        <ele>302</ele>
        <time>2014-04-06T09:26:01Z</time>
      </trkpt>
      <trkpt lat="47.47988" lon="6.67939">
        <ele>303</ele>
        <time>2014-04-06T09:26:04Z</time>
      </trkpt>
      <trkpt lat="47.47992" lon="6.6793">
        <ele>303</ele>
        <time>2014-04-06T09:26:07Z</time>
      </trkpt>
      <trkpt lat="47.47997" lon="6.67921">
        <ele>304</ele>
        <time>2014-04-06T09:26:10Z</time>
      </trkpt>
      <trkpt lat="47.48001" lon="6.67916">
        <ele>304</ele>
        <time>2014-04-06T09:26:12Z</time>
      </trkpt>
      <trkpt lat="47.48005" lon="6.67911">
        <ele>305</ele>
        <time>2014-04-06T09:26:14Z</time>
      </trkpt>
      <trkpt lat="47.4801" lon="6.67902">
        <ele>305</ele>
        <time>2014-04-06T09:26:17Z</time>
      </trkpt>
      <trkpt lat="47.48014" lon="6.67897">
        <ele>305</ele>
        <time>2014-04-06T09:26:19Z</time>
      </trkpt>
      <trkpt lat="47.48017" lon="6.67892">
        <ele>305</ele>
        <time>2014-04-06T09:26:21Z</time>
      </trkpt>
      <trkpt lat="47.48023" lon="6.67884">
        <ele>306</ele>
        <time>2014-04-06T09:26:24Z</time>
      </trkpt>
      <trkpt lat="47.48029" lon="6.67877">
        <ele>306</ele>
        <time>2014-04-06T09:26:27Z</time>
      </trkpt>
      <trkpt lat="47.48033" lon="6.67873">
        <ele>307</ele>
        <time>2014-04-06T09:26:29Z</time>
      </trkpt>
      <trkpt lat="47.48037" lon="6.67868">
        <ele>307</ele>
        <time>2014-04-06T09:26:31Z</time>
      </trkpt>
      <trkpt lat="47.48043" lon="6.67861">
        <ele>307</ele>
        <time>2014-04-06T09:26:34Z</time>
      </trkpt>
      <trkpt lat="47.48047" lon="6.67856">
        <ele>307</ele>
        <time>2014-04-06T09:26:36Z</time>
      </trkpt>
      <trkpt lat="47.48051" lon="6.67851">
        <ele>307</ele>
        <time>2014-04-06T09:26:38Z</time>
      </trkpt>
      <trkpt lat="47.48054" lon="6.67845">
        <ele>307</ele>
        <time>2014-04-06T09:26:40Z</time>
      </trkpt>
      <trkpt lat="47.48058" lon="6.67839">
        <ele>307</ele>
        <time>2014-04-06T09:26:42Z</time>
      </trkpt>
      <trkpt lat="47.48064" lon="6.67829">
        <ele>308</ele>
        <time>2014-04-06T09:26:45Z</time>
      </trkpt>
      <trkpt lat="47.48069" lon="6.67818">
        <ele>308</ele>
        <time>2014-04-06T09:26:48Z</time>
      </trkpt>
      <trkpt lat="47.48075" lon="6.67807">
        <ele>308</ele>
        <time>2014-04-06T09:26:51Z</time>
      </trkpt>
      <trkpt lat="47.48078" lon="6.67799">
        <ele>308</ele>
        <time>2014-04-06T09:26:53Z</time>
      </trkpt>
      <trkpt lat="47.48082" lon="6.67791">
        <ele>309</ele>
        <time>2014-04-06T09:26:55Z</time>
      </trkpt>
      <trkpt lat="47.48085" lon="6.67777">
        <ele>309</ele>
        <time>2014-04-06T09:26:58Z</time>
      </trkpt>
      <trkpt lat="47.48086" lon="6.67766">
        <ele>310</ele>
        <time>2014-04-06T09:27:00Z</time>
      </trkpt>
      <trkpt lat="47.48087" lon="6.67751">
        <ele>310</ele>
        <time>2014-04-06T09:27:03Z</time>
      </trkpt>
      <trkpt lat="47.48089" lon="6.67741">
        <ele>310</ele>
        <time>2014-04-06T09:27:05Z</time>
      </trkpt>
      <trkpt lat="47.4809" lon="6.67728">
        <ele>310</ele>
        <time>2014-04-06T09:27:08Z</time>
      </trkpt>
      <trkpt lat="47.48092" lon="6.6772">
        <ele>310</ele>
        <time>2014-04-06T09:27:10Z</time>
      </trkpt>
      <trkpt lat="47.48093" lon="6.67711">
        <ele>311</ele>
        <time>2014-04-06T09:27:12Z</time>
      </trkpt>
      <trkpt lat="47.48094" lon="6.67698">
        <ele>311</ele>
        <time>2014-04-06T09:27:15Z</time>
      </trkpt>
      <trkpt lat="47.48095" lon="6.6769">
        <ele>311</ele>
        <time>2014-04-06T09:27:17Z</time>
      </trkpt>
      <trkpt lat="47.48096" lon="6.67681">
        <ele>312</ele>
        <time>2014-04-06T09:27:19Z</time>
      </trkpt>
      <trkpt lat="47.48098" lon="6.67667">
        <ele>313</ele>
        <time>2014-04-06T09:27:22Z</time>
      </trkpt>
      <trkpt lat="47.48098" lon="6.67658">
        <ele>313</ele>
        <time>2014-04-06T09:27:24Z</time>
      </trkpt>
      <trkpt lat="47.481" lon="6.67649">
        <ele>314</ele>
        <time>2014-04-06T09:27:26Z</time>
      </trkpt>
      <trkpt lat="47.48103" lon="6.67635">
        <ele>314</ele>
        <time>2014-04-06T09:27:29Z</time>
      </trkpt>
      <trkpt lat="47.48105" lon="6.67626">
        <ele>315</ele>
        <time>2014-04-06T09:27:31Z</time>
      </trkpt>
      <trkpt lat="47.48108" lon="6.67616">
        <ele>315</ele>
        <time>2014-04-06T09:27:33Z</time>
      </trkpt>
      <trkpt lat="47.48111" lon="6.67603">
        <ele>315</ele>
        <time>2014-04-06T09:27:36Z</time>
      </trkpt>
      <trkpt lat="47.48113" lon="6.67593">
        <ele>316</ele>
        <time>2014-04-06T09:27:38Z</time>
      </trkpt>
      <trkpt lat="47.48115" lon="6.67585">
        <ele>317</ele>
        <time>2014-04-06T09:27:40Z</time>
      </trkpt>
      <trkpt lat="47.48117" lon="6.67577">
        <ele>317</ele>
        <time>2014-04-06T09:27:42Z</time>
      </trkpt>
      <trkpt lat="47.48119" lon="6.67568">
        <ele>317</ele>
        <time>2014-04-06T09:27:44Z</time>
      </trkpt>
      <trkpt lat="47.48122" lon="6.67556">
        <ele>317</ele>
        <time>2014-04-06T09:27:47Z</time>
      </trkpt>
      <trkpt lat="47.48123" lon="6.67549">
        <ele>318</ele>
        <time>2014-04-06T09:27:49Z</time>
      </trkpt>
      <trkpt lat="47.48126" lon="6.67537">
        <ele>318</ele>
        <time>2014-04-06T09:27:52Z</time>
      </trkpt>
      <trkpt lat="47.48128" lon="6.67529">
        <ele>318</ele>
        <time>2014-04-06T09:27:54Z</time>
      </trkpt>
      <trkpt lat="47.4813" lon="6.67521">
        <ele>318</ele>
        <time>2014-04-06T09:27:56Z</time>
      </trkpt>
      <trkpt lat="47.48132" lon="6.67514">
        <ele>319</ele>
        <time>2014-04-06T09:27:58Z</time>
      </trkpt>
      <trkpt lat="47.48134" lon="6.67507">
        <ele>319</ele>
        <time>2014-04-06T09:28:00Z</time>
      </trkpt>
      <trkpt lat="47.48136" lon="6.67499">
        <ele>320</ele>
        <time>2014-04-06T09:28:02Z</time>
      </trkpt>
      <trkpt lat="47.48139" lon="6.67491">
        <ele>320</ele>
        <time>2014-04-06T09:28:04Z</time>
      </trkpt>
      <trkpt lat="47.48144" lon="6.6748">
        <ele>320</ele>
        <time>2014-04-06T09:28:07Z</time>
      </trkpt>
      <trkpt lat="47.48149" lon="6.67469">
        <ele>321</ele>
        <time>2014-04-06T09:28:10Z</time>
      </trkpt>
      <trkpt lat="47.48155" lon="6.67459">
        <ele>322</ele>
        <time>2014-04-06T09:28:13Z</time>
      </trkpt>
      <trkpt lat="47.48159" lon="6.67452">
        <ele>323</ele>
        <time>2014-04-06T09:28:15Z</time>
      </trkpt>
      <trkpt lat="47.48162" lon="6.67446">
        <ele>324</ele>
        <time>2014-04-06T09:28:17Z</time>
      </trkpt>
      <trkpt lat="47.48168" lon="6.67437">
        <ele>324</ele>
        <time>2014-04-06T09:28:20Z</time>
      </trkpt>
      <trkpt lat="47.48172" lon="6.6743">
        <ele>324</ele>
        <time>2014-04-06T09:28:22Z</time>
      </trkpt>
      <trkpt lat="47.48175" lon="6.67424">
        <ele>324</ele>
        <time>2014-04-06T09:28:24Z</time>
      </trkpt>
      <trkpt lat="47.4818" lon="6.67415">
        <ele>324</ele>
        <time>2014-04-06T09:28:27Z</time>
      </trkpt>
      <trkpt lat="47.48185" lon="6.67405">
        <ele>324</ele>
        <time>2014-04-06T09:28:30Z</time>
      </trkpt>
      <trkpt lat="47.48188" lon="6.67398">
        <ele>324</ele>
        <time>2014-04-06T09:28:32Z</time>
      </trkpt>
      <trkpt lat="47.48192" lon="6.67388">
        <ele>325</ele>
        <time>2014-04-06T09:28:35Z</time>
      </trkpt>
      <trkpt lat="47.48196" lon="6.67377">
        <ele>325</ele>
        <time>2014-04-06T09:28:38Z</time>
      </trkpt>
      <trkpt lat="47.482" lon="6.67364">
        <ele>325</ele>
        <time>2014-04-06T09:28:41Z</time>
      </trkpt>
      <trkpt lat="47.48203" lon="6.67356">
        <ele>325</ele>
        <time>2014-04-06T09:28:43Z</time>
      </trkpt>
      <trkpt lat="47.48206" lon="6.67344">
        <ele>325</ele>
        <time>2014-04-06T09:28:46Z</time>
      </trkpt>
      <trkpt lat="47.48208" lon="6.67335">
        <ele>326</ele>
        <time>2014-04-06T09:28:48Z</time>
      </trkpt>
      <trkpt lat="47.48212" lon="6.67322">
        <ele>326</ele>
        <time>2014-04-06T09:28:51Z</time>
      </trkpt>
      <trkpt lat="47.48215" lon="6.67314">
        <ele>326</ele>
        <time>2014-04-06T09:28:53Z</time>
      </trkpt>
      <trkpt lat="47.48218" lon="6.67306">
        <ele>326</ele>
        <time>2014-04-06T09:28:55Z</time>
      </trkpt>
      <trkpt lat="47.48221" lon="6.67296">
        <ele>326</ele>
        <time>2014-04-06T09:28:57Z</time>
      </trkpt>
      <trkpt lat="47.48226" lon="6.67282">
        <ele>326</ele>
        <time>2014-04-06T09:29:00Z</time>
      </trkpt>
      <trkpt lat="47.48228" lon="6.67272">
        <ele>326</ele>
        <time>2014-04-06T09:29:02Z</time>
      </trkpt>
      <trkpt lat="47.48231" lon="6.67263">
        <ele>327</ele>
        <time>2014-04-06T09:29:04Z</time>
      </trkpt>
      <trkpt lat="47.48234" lon="6.67253">
        <ele>327</ele>
        <time>2014-04-06T09:29:06Z</time>
      </trkpt>
      <trkpt lat="47.48238" lon="6.67236">
        <ele>327</ele>
        <time>2014-04-06T09:29:09Z</time>
      </trkpt>
      <trkpt lat="47.48241" lon="6.67224">
        <ele>327</ele>
        <time>2014-04-06T09:29:11Z</time>
      </trkpt>
      <trkpt lat="47.48244" lon="6.67205">
        <ele>327</ele>
        <time>2014-04-06T09:29:14Z</time>
      </trkpt>
      <trkpt lat="47.48247" lon="6.67192">
        <ele>328</ele>
        <time>2014-04-06T09:29:16Z</time>
      </trkpt>
      <trkpt lat="47.4825" lon="6.67174">
        <ele>328</ele>
        <time>2014-04-06T09:29:19Z</time>
      </trkpt>
      <trkpt lat="47.48252" lon="6.67161">
        <ele>328</ele>
        <time>2014-04-06T09:29:21Z</time>
      </trkpt>
      <trkpt lat="47.48254" lon="6.67149">
        <ele>328</ele>
        <time>2014-04-06T09:29:23Z</time>
      </trkpt>
      <trkpt lat="47.48256" lon="6.67136">
        <ele>328</ele>
        <time>2014-04-06T09:29:25Z</time>
      </trkpt>
      <trkpt lat="47.48258" lon="6.67124">
        <ele>328</ele>
        <time>2014-04-06T09:29:27Z</time>
      </trkpt>
      <trkpt lat="47.4826" lon="6.67112">
        <ele>328</ele>
        <time>2014-04-06T09:29:29Z</time>
      </trkpt>
      <trkpt lat="47.48262" lon="6.67095">
        <ele>328</ele>
        <time>2014-04-06T09:29:32Z</time>
      </trkpt>
      <trkpt lat="47.48264" lon="6.67083">
        <ele>328</ele>
        <time>2014-04-06T09:29:34Z</time>
      </trkpt>
      <trkpt lat="47.48266" lon="6.6707">
        <ele>328</ele>
        <time>2014-04-06T09:29:36Z</time>
      </trkpt>
      <trkpt lat="47.48269" lon="6.67052">
        <ele>328</ele>
        <time>2014-04-06T09:29:39Z</time>
      </trkpt>
      <trkpt lat="47.48271" lon="6.6704">
        <ele>328</ele>
        <time>2014-04-06T09:29:41Z</time>
      </trkpt>
      <trkpt lat="47.48275" lon="6.67022">
        <ele>328</ele>
        <time>2014-04-06T09:29:44Z</time>
      </trkpt>
      <trkpt lat="47.48278" lon="6.6701">
        <ele>328</ele>
        <time>2014-04-06T09:29:46Z</time>
      </trkpt>
      <trkpt lat="47.4828" lon="6.66998">
        <ele>328</ele>
        <time>2014-04-06T09:29:48Z</time>
      </trkpt>
      <trkpt lat="47.48286" lon="6.6698">
        <ele>328</ele>
        <time>2014-04-06T09:29:51Z</time>
      </trkpt>
      <trkpt lat="47.48289" lon="6.66969">
        <ele>328</ele>
        <time>2014-04-06T09:29:53Z</time>
      </trkpt>
      <trkpt lat="47.48293" lon="6.66957">
        <ele>328</ele>
        <time>2014-04-06T09:29:55Z</time>
      </trkpt>
      <trkpt lat="47.48297" lon="6.66945">
        <ele>328</ele>
        <time>2014-04-06T09:29:57Z</time>
      </trkpt>
      <trkpt lat="47.48301" lon="6.66933">
        <ele>328</ele>
        <time>2014-04-06T09:29:59Z</time>
      </trkpt>
      <trkpt lat="47.48306" lon="6.66916">
        <ele>328</ele>
        <time>2014-04-06T09:30:02Z</time>
      </trkpt>
      <trkpt lat="47.48311" lon="6.66898">
        <ele>328</ele>
        <time>2014-04-06T09:30:05Z</time>
      </trkpt>
      <trkpt lat="47.48317" lon="6.6688">
        <ele>328</ele>
        <time>2014-04-06T09:30:08Z</time>
      </trkpt>
      <trkpt lat="47.4832" lon="6.66868">
        <ele>328</ele>
        <time>2014-04-06T09:30:10Z</time>
      </trkpt>
      <trkpt lat="47.48326" lon="6.66851">
        <ele>327</ele>
        <time>2014-04-06T09:30:13Z</time>
      </trkpt>
      <trkpt lat="47.4833" lon="6.6684">
        <ele>327</ele>
        <time>2014-04-06T09:30:15Z</time>
      </trkpt>
      <trkpt lat="47.48336" lon="6.66823">
        <ele>327</ele>
        <time>2014-04-06T09:30:18Z</time>
      </trkpt>
      <trkpt lat="47.48339" lon="6.66813">
        <ele>327</ele>
        <time>2014-04-06T09:30:20Z</time>
      </trkpt>
      <trkpt lat="47.48343" lon="6.66803">
        <ele>327</ele>
        <time>2014-04-06T09:30:22Z</time>
      </trkpt>
      <trkpt lat="47.48349" lon="6.66788">
        <ele>327</ele>
        <time>2014-04-06T09:30:25Z</time>
      </trkpt>
      <trkpt lat="47.48353" lon="6.66778">
        <ele>327</ele>
        <time>2014-04-06T09:30:27Z</time>
      </trkpt>
      <trkpt lat="47.4836" lon="6.66763">
        <ele>326</ele>
        <time>2014-04-06T09:30:30Z</time>
      </trkpt>
      <trkpt lat="47.48366" lon="6.66753">
        <ele>327</ele>
        <time>2014-04-06T09:30:32Z</time>
      </trkpt>
      <trkpt lat="47.48376" lon="6.66741">
        <ele>327</ele>
        <time>2014-04-06T09:30:35Z</time>
      </trkpt>
      <trkpt lat="47.48383" lon="6.66733">
        <ele>327</ele>
        <time>2014-04-06T09:30:37Z</time>
      </trkpt>
      <trkpt lat="47.48394" lon="6.66722">
        <ele>327</ele>
        <time>2014-04-06T09:30:40Z</time>
      </trkpt>
      <trkpt lat="47.48404" lon="6.66714">
        <ele>327</ele>
        <time>2014-04-06T09:30:43Z</time>
      </trkpt>
      <trkpt lat="47.48411" lon="6.6671">
        <ele>326</ele>
        <time>2014-04-06T09:30:45Z</time>
      </trkpt>
      <trkpt lat="47.48423" lon="6.66706">
        <ele>327</ele>
        <time>2014-04-06T09:30:48Z</time>
      </trkpt>
      <trkpt lat="47.48436" lon="6.66704">
        <ele>327</ele>
        <time>2014-04-06T09:30:51Z</time>
      </trkpt>
      <trkpt lat="47.48444" lon="6.66704">
        <ele>327</ele>
        <time>2014-04-06T09:30:53Z</time>
      </trkpt>
      <trkpt lat="47.48457" lon="6.66706">
        <ele>327</ele>
        <time>2014-04-06T09:30:56Z</time>
      </trkpt>
      <trkpt lat="47.48465" lon="6.66708">
        <ele>327</ele>
        <time>2014-04-06T09:30:58Z</time>
      </trkpt>
      <trkpt lat="47.48473" lon="6.66712">
        <ele>327</ele>
        <time>2014-04-06T09:31:00Z</time>
      </trkpt>
      <trkpt lat="47.4848" lon="6.66716">
        <ele>326</ele>
        <time>2014-04-06T09:31:02Z</time>
      </trkpt>
      <trkpt lat="47.48486" lon="6.66721">
        <ele>326</ele>
        <time>2014-04-06T09:31:04Z</time>
      </trkpt>
      <trkpt lat="47.48498" lon="6.66728">
        <ele>326</ele>
        <time>2014-04-06T09:31:07Z</time>
      </trkpt>
      <trkpt lat="47.48506" lon="6.66733">
        <ele>326</ele>
        <time>2014-04-06T09:31:09Z</time>
      </trkpt>
      <trkpt lat="47.48518" lon="6.66738">
        <ele>326</ele>
        <time>2014-04-06T09:31:12Z</time>
      </trkpt>
      <trkpt lat="47.48526" lon="6.66741">
        <ele>325</ele>
        <time>2014-04-06T09:31:14Z</time>
      </trkpt>
      <trkpt lat="47.48535" lon="6.66742">
        <ele>325</ele>
        <time>2014-04-06T09:31:16Z</time>
      </trkpt>
      <trkpt lat="47.48544" lon="6.66741">
        <ele>325</ele>
        <time>2014-04-06T09:31:18Z</time>
      </trkpt>
      <trkpt lat="47.48553" lon="6.66737">
        <ele>325</ele>
        <time>2014-04-06T09:31:20Z</time>
      </trkpt>
      <trkpt lat="47.48566" lon="6.66727">
        <ele>325</ele>
        <time>2014-04-06T09:31:23Z</time>
      </trkpt>
      <trkpt lat="47.48574" lon="6.6672">
        <ele>325</ele>
        <time>2014-04-06T09:31:25Z</time>
      </trkpt>
      <trkpt lat="47.48581" lon="6.66712">
        <ele>325</ele>
        <time>2014-04-06T09:31:27Z</time>
      </trkpt>
      <trkpt lat="47.48589" lon="6.66704">
        <ele>325</ele>
        <time>2014-04-06T09:31:29Z</time>
      </trkpt>
      <trkpt lat="47.486" lon="6.66691">
        <ele>325</ele>
        <time>2014-04-06T09:31:32Z</time>
      </trkpt>
      <trkpt lat="47.4861" lon="6.66679">
        <ele>325</ele>
        <time>2014-04-06T09:31:35Z</time>
      </trkpt>
      <trkpt lat="47.48616" lon="6.66672">
        <ele>325</ele>
        <time>2014-04-06T09:31:37Z</time>
      </trkpt>
      <trkpt lat="47.48622" lon="6.66666">
        <ele>325</ele>
        <time>2014-04-06T09:31:39Z</time>
      </trkpt>
      <trkpt lat="47.48627" lon="6.6666">
        <ele>325</ele>
        <time>2014-04-06T09:31:41Z</time>
      </trkpt>
      <trkpt lat="47.48632" lon="6.66654">
        <ele>326</ele>
        <time>2014-04-06T09:31:43Z</time>
      </trkpt>
      <trkpt lat="47.48638" lon="6.66648">
        <ele>326</ele>
        <time>2014-04-06T09:31:45Z</time>
      </trkpt>
      <trkpt lat="47.48646" lon="6.66639">
        <ele>326</ele>
        <time>2014-04-06T09:31:48Z</time>
      </trkpt>
      <trkpt lat="47.48652" lon="6.66633">
        <ele>326</ele>
        <time>2014-04-06T09:31:50Z</time>
      </trkpt>
      <trkpt lat="47.48661" lon="6.66623">
        <ele>327</ele>
        <time>2014-04-06T09:31:53Z</time>
      </trkpt>
      <trkpt lat="47.48666" lon="6.66617">
        <ele>327</ele>
        <time>2014-04-06T09:31:55Z</time>
      </trkpt>
      <trkpt lat="47.48676" lon="6.66611">
        <ele>328</ele>
        <time>2014-04-06T09:31:58Z</time>
      </trkpt>
      <trkpt lat="47.48683" lon="6.66607">
        <ele>328</ele>
        <time>2014-04-06T09:32:00Z</time>
      </trkpt>
      <trkpt lat="47.48692" lon="6.66602">
        <ele>329</ele>
        <time>2014-04-06T09:32:03Z</time>
      </trkpt>
      <trkpt lat="47.48701" lon="6.66596">
        <ele>330</ele>
        <time>2014-04-06T09:32:06Z</time>
      </trkpt>
      <trkpt lat="47.48711" lon="6.6659">
        <ele>331</ele>
        <time>2014-04-06T09:32:09Z</time>
      </trkpt>
      <trkpt lat="47.48716" lon="6.66585">
        <ele>331</ele>
        <time>2014-04-06T09:32:11Z</time>
      </trkpt>
      <trkpt lat="47.48722" lon="6.66581">
        <ele>332</ele>
        <time>2014-04-06T09:32:13Z</time>
      </trkpt>
      <trkpt lat="47.4873" lon="6.66575">
        <ele>332</ele>
        <time>2014-04-06T09:32:16Z</time>
      </trkpt>
      <trkpt lat="47.48735" lon="6.66575">
        <ele>332</ele>
        <time>2014-04-06T09:32:18Z</time>
      </trkpt>
      <trkpt lat="47.48743" lon="6.66577">
        <ele>332</ele>
        <time>2014-04-06T09:32:21Z</time>
      </trkpt>
      <trkpt lat="47.48748" lon="6.66579">
        <ele>332</ele>
        <time>2014-04-06T09:32:23Z</time>
      </trkpt>
      <trkpt lat="47.48757" lon="6.66581">
        <ele>332</ele>
        <time>2014-04-06T09:32:26Z</time>
      </trkpt>
      <trkpt lat="47.48764" lon="6.66582">
        <ele>332</ele>
        <time>2014-04-06T09:32:28Z</time>
      </trkpt>
      <trkpt lat="47.48774" lon="6.66585">
        <ele>332</ele>
        <time>2014-04-06T09:32:31Z</time>
      </trkpt>
      <trkpt lat="47.4878" lon="6.66587">
        <ele>332</ele>
        <time>2014-04-06T09:32:33Z</time>
      </trkpt>
      <trkpt lat="47.48791" lon="6.6659">
        <ele>331</ele>
        <time>2014-04-06T09:32:36Z</time>
      </trkpt>
      <trkpt lat="47.48798" lon="6.66591">
        <ele>331</ele>
        <time>2014-04-06T09:32:38Z</time>
      </trkpt>
      <trkpt lat="47.48808" lon="6.66594">
        <ele>331</ele>
        <time>2014-04-06T09:32:41Z</time>
      </trkpt>
      <trkpt lat="47.48814" lon="6.66595">
        <ele>331</ele>
        <time>2014-04-06T09:32:43Z</time>
      </trkpt>
      <trkpt lat="47.4882" lon="6.66596">
        <ele>331</ele>
        <time>2014-04-06T09:32:45Z</time>
      </trkpt>
      <trkpt lat="47.48829" lon="6.66593">
        <ele>331</ele>
        <time>2014-04-06T09:32:48Z</time>
      </trkpt>
      <trkpt lat="47.48836" lon="6.66587">
        <ele>331</ele>
        <time>2014-04-06T09:32:51Z</time>
      </trkpt>
      <trkpt lat="47.4884" lon="6.66584">
        <ele>331</ele>
        <time>2014-04-06T09:32:53Z</time>
      </trkpt>
      <trkpt lat="47.48843" lon="6.6658">
        <ele>331</ele>
        <time>2014-04-06T09:32:55Z</time>
      </trkpt>
      <trkpt lat="47.48844" lon="6.66573">
        <ele>331</ele>
        <time>2014-04-06T09:32:58Z</time>
      </trkpt>
      <trkpt lat="47.48844" lon="6.66571">
        <ele>330</ele>
        <time>2014-04-06T09:33:00Z</time>
      </trkpt>
      <trkpt lat="47.48845" lon="6.6657">
        <ele>330</ele>
        <time>2014-04-06T09:33:02Z</time>
      </trkpt>
      <trkpt lat="47.48846" lon="6.6657">
        <ele>330</ele>
        <time>2014-04-06T09:33:05Z</time>
      </trkpt>
      <trkpt lat="47.48846" lon="6.6657">
        <ele>330</ele>
        <time>2014-04-06T09:33:07Z</time>
      </trkpt>
      <trkpt lat="47.48846" lon="6.6657">
        <ele>330</ele>
        <time>2014-04-06T09:33:10Z</time>
      </trkpt>
      <trkpt lat="47.48847" lon="6.6657">
        <ele>330</ele>
        <time>2014-04-06T09:33:13Z</time>
      </trkpt>
      <trkpt lat="47.48848" lon="6.6657">
        <ele>330</ele>
        <time>2014-04-06T09:33:15Z</time>
      </trkpt>
      <trkpt lat="47.48848" lon="6.6657">
        <ele>329</ele>
        <time>2014-04-06T09:33:16Z</time>
      </trkpt>
    </trkseg>
  </trk>
</gpx>